<?xml version="1.0" encoding="UTF-8" standalone="no" ?><gpx xmlns="http://www.topografix.com/GPX/1/1" xmlns:gpxx="http://www.garmin.com/xmlschemas/GpxExtensions/v3" xmlns:wptx1="http://www.garmin.com/xmlschemas/WaypointExtension/v1" xmlns:gpxtpx="http://www.garmin.com/xmlschemas/TrackPointExtension/v1" creator="GuideVTT.com" version="1.1" xmlns:xsi="http://www.w3.org/2001/XMLSchema-instance" xsi:schemaLocation="http://www.topografix.com/GPX/1/1 http://www.topografix.com/GPX/1/1/gpx.xsd http://www.garmin.com/xmlschemas/GpxExtensions/v3 http://www8.garmin.com/xmlschemas/GpxExtensionsv3.xsd http://www.garmin.com/xmlschemas/WaypointExtension/v1 http://www8.garmin.com/xmlschemas/WaypointExtensionv1.xsd http://www.garmin.com/xmlschemas/TrackPointExtension/v1 http://www.garmin.com/xmlschemas/TrackPointExtensionv1.xsd">
<metadata><link href="http://www.garmin.com"><text>Garmin International</text></link><time>2013-06-22T15:13:50Z</time></metadata>
<trk><name>vtt_2015-12-06_5663ed297f280e121f0011f6.gpx</name><extensions><gpxx:TrackExtension><gpxx:DisplayColor>Cyan</gpxx:DisplayColor></gpxx:TrackExtension></extensions><trkseg>
<trkpt lat="48.882312774658" lon="2.8538746833801"><ele>90</ele><time>2026-5-1T6:42:54Z</time></trkpt>
<trkpt lat="48.882526397705" lon="2.8536765575409"><ele>91</ele><time>2026-5-1T6:42:57Z</time></trkpt>
<trkpt lat="48.882526397705" lon="2.8536765575409"><ele>91</ele><time>2026-5-1T6:43:0Z</time></trkpt>
<trkpt lat="48.882637023926" lon="2.8536705970764"><ele>92</ele><time>2026-5-1T6:43:3Z</time></trkpt>
<trkpt lat="48.882698059082" lon="2.8536953926086"><ele>92</ele><time>2026-5-1T6:43:6Z</time></trkpt>
<trkpt lat="48.882762908936" lon="2.853702545166"><ele>92</ele><time>2026-5-1T6:43:9Z</time></trkpt>
<trkpt lat="48.882831573486" lon="2.8537013530731"><ele>92</ele><time>2026-5-1T6:43:12Z</time></trkpt>
<trkpt lat="48.882900238037" lon="2.8536822795868"><ele>92</ele><time>2026-5-1T6:43:15Z</time></trkpt>
<trkpt lat="48.882961273193" lon="2.8536570072174"><ele>92</ele><time>2026-5-1T6:43:18Z</time></trkpt>
<trkpt lat="48.882961273193" lon="2.8536570072174"><ele>92</ele><time>2026-5-1T6:43:21Z</time></trkpt>
<trkpt lat="48.883056640625" lon="2.8536069393158"><ele>92</ele><time>2026-5-1T6:43:24Z</time></trkpt>
<trkpt lat="48.883110046387" lon="2.8535742759705"><ele>93</ele><time>2026-5-1T6:43:27Z</time></trkpt>
<trkpt lat="48.883167266846" lon="2.8535306453705"><ele>93</ele><time>2026-5-1T6:43:30Z</time></trkpt>
<trkpt lat="48.88321685791" lon="2.8534882068634"><ele>93</ele><time>2026-5-1T6:43:33Z</time></trkpt>
<trkpt lat="48.88321685791" lon="2.8534882068634"><ele>93</ele><time>2026-5-1T6:43:36Z</time></trkpt>
<trkpt lat="48.883304595947" lon="2.8534252643585"><ele>93</ele><time>2026-5-1T6:43:39Z</time></trkpt>
<trkpt lat="48.883304595947" lon="2.8534252643585"><ele>93</ele><time>2026-5-1T6:43:42Z</time></trkpt>
<trkpt lat="48.883377075195" lon="2.8533854484558"><ele>94</ele><time>2026-5-1T6:43:45Z</time></trkpt>
<trkpt lat="48.883377075195" lon="2.8533854484558"><ele>94</ele><time>2026-5-1T6:43:48Z</time></trkpt>
<trkpt lat="48.883434295654" lon="2.8533608913422"><ele>94</ele><time>2026-5-1T6:43:51Z</time></trkpt>
<trkpt lat="48.883434295654" lon="2.8533608913422"><ele>94</ele><time>2026-5-1T6:43:54Z</time></trkpt>
<trkpt lat="48.88353729248" lon="2.8534066677094"><ele>94</ele><time>2026-5-1T6:43:57Z</time></trkpt>
<trkpt lat="48.883590698242" lon="2.8535494804382"><ele>94</ele><time>2026-5-1T6:44:0Z</time></trkpt>
<trkpt lat="48.883617401123" lon="2.8536734580994"><ele>94</ele><time>2026-5-1T6:44:3Z</time></trkpt>
<trkpt lat="48.883617401123" lon="2.8536734580994"><ele>94</ele><time>2026-5-1T6:44:6Z</time></trkpt>
<trkpt lat="48.883644104004" lon="2.8537726402283"><ele>94</ele><time>2026-5-1T6:44:9Z</time></trkpt>
<trkpt lat="48.883689880371" lon="2.8539090156555"><ele>94</ele><time>2026-5-1T6:44:12Z</time></trkpt>
<trkpt lat="48.883735656738" lon="2.8540368080139"><ele>94</ele><time>2026-5-1T6:44:15Z</time></trkpt>
<trkpt lat="48.883777618408" lon="2.8541712760925"><ele>94</ele><time>2026-5-1T6:44:18Z</time></trkpt>
<trkpt lat="48.883827209473" lon="2.8543088436127"><ele>94</ele><time>2026-5-1T6:44:21Z</time></trkpt>
<trkpt lat="48.883884429932" lon="2.8544747829437"><ele>94</ele><time>2026-5-1T6:44:24Z</time></trkpt>
<trkpt lat="48.883926391602" lon="2.8545672893524"><ele>94</ele><time>2026-5-1T6:44:27Z</time></trkpt>
<trkpt lat="48.883968353271" lon="2.854656457901"><ele>94</ele><time>2026-5-1T6:44:30Z</time></trkpt>
<trkpt lat="48.884002685547" lon="2.8547480106354"><ele>94</ele><time>2026-5-1T6:44:33Z</time></trkpt>
<trkpt lat="48.88404083252" lon="2.8548188209534"><ele>94</ele><time>2026-5-1T6:44:36Z</time></trkpt>
<trkpt lat="48.88404083252" lon="2.8548188209534"><ele>94</ele><time>2026-5-1T6:44:39Z</time></trkpt>
<trkpt lat="48.88415145874" lon="2.8547964096069"><ele>94</ele><time>2026-5-1T6:44:42Z</time></trkpt>
<trkpt lat="48.88415145874" lon="2.8547964096069"><ele>94</ele><time>2026-5-1T6:44:45Z</time></trkpt>
<trkpt lat="48.884140014648" lon="2.8546283245087"><ele>94</ele><time>2026-5-1T6:44:48Z</time></trkpt>
<trkpt lat="48.884136199951" lon="2.8545322418213"><ele>94</ele><time>2026-5-1T6:44:51Z</time></trkpt>
<trkpt lat="48.884170532227" lon="2.8544421195984"><ele>94</ele><time>2026-5-1T6:44:54Z</time></trkpt>
<trkpt lat="48.884239196777" lon="2.8543462753296"><ele>94</ele><time>2026-5-1T6:44:57Z</time></trkpt>
<trkpt lat="48.884326934814" lon="2.8542699813843"><ele>95</ele><time>2026-5-1T6:45:0Z</time></trkpt>
<trkpt lat="48.884422302246" lon="2.8542368412018"><ele>95</ele><time>2026-5-1T6:45:3Z</time></trkpt>
<trkpt lat="48.884502410889" lon="2.8542189598083"><ele>96</ele><time>2026-5-1T6:45:6Z</time></trkpt>
<trkpt lat="48.884586334229" lon="2.854193687439"><ele>96</ele><time>2026-5-1T6:45:9Z</time></trkpt>
<trkpt lat="48.884666442871" lon="2.8541703224182"><ele>96</ele><time>2026-5-1T6:45:12Z</time></trkpt>
<trkpt lat="48.884731292725" lon="2.8541502952576"><ele>96</ele><time>2026-5-1T6:45:15Z</time></trkpt>
<trkpt lat="48.88480758667" lon="2.8541324138641"><ele>96</ele><time>2026-5-1T6:45:18Z</time></trkpt>
<trkpt lat="48.884872436523" lon="2.8541178703308"><ele>97</ele><time>2026-5-1T6:45:21Z</time></trkpt>
<trkpt lat="48.88493347168" lon="2.8541090488434"><ele>97</ele><time>2026-5-1T6:45:24Z</time></trkpt>
<trkpt lat="48.88493347168" lon="2.8541090488434"><ele>97</ele><time>2026-5-1T6:45:27Z</time></trkpt>
<trkpt lat="48.8850440979" lon="2.8540997505188"><ele>97</ele><time>2026-5-1T6:45:30Z</time></trkpt>
<trkpt lat="48.8850440979" lon="2.8540997505188"><ele>97</ele><time>2026-5-1T6:45:33Z</time></trkpt>
<trkpt lat="48.885139465332" lon="2.8541152477264"><ele>98</ele><time>2026-5-1T6:45:36Z</time></trkpt>
<trkpt lat="48.885242462158" lon="2.8541026115417"><ele>98</ele><time>2026-5-1T6:45:39Z</time></trkpt>
<trkpt lat="48.885307312012" lon="2.854088306427"><ele>99</ele><time>2026-5-1T6:45:42Z</time></trkpt>
<trkpt lat="48.885387420654" lon="2.8540751934052"><ele>99</ele><time>2026-5-1T6:45:45Z</time></trkpt>
<trkpt lat="48.885448455811" lon="2.8540678024292"><ele>99</ele><time>2026-5-1T6:45:48Z</time></trkpt>
<trkpt lat="48.885513305664" lon="2.8540580272675"><ele>99</ele><time>2026-5-1T6:45:51Z</time></trkpt>
<trkpt lat="48.885601043701" lon="2.8540444374084"><ele>99</ele><time>2026-5-1T6:45:54Z</time></trkpt>
<trkpt lat="48.885688781738" lon="2.8540453910828"><ele>99</ele><time>2026-5-1T6:45:57Z</time></trkpt>
<trkpt lat="48.885761260986" lon="2.8540787696838"><ele>99</ele><time>2026-5-1T6:46:0Z</time></trkpt>
<trkpt lat="48.885814666748" lon="2.8541841506958"><ele>99</ele><time>2026-5-1T6:46:3Z</time></trkpt>
<trkpt lat="48.885871887207" lon="2.8543026447296"><ele>99</ele><time>2026-5-1T6:46:6Z</time></trkpt>
<trkpt lat="48.885913848877" lon="2.8543982505798"><ele>99</ele><time>2026-5-1T6:46:9Z</time></trkpt>
<trkpt lat="48.885913848877" lon="2.8543982505798"><ele>99</ele><time>2026-5-1T6:46:12Z</time></trkpt>
<trkpt lat="48.88595199585" lon="2.8545002937317"><ele>99</ele><time>2026-5-1T6:46:15Z</time></trkpt>
<trkpt lat="48.886096954346" lon="2.8545482158661"><ele>98</ele><time>2026-5-1T6:46:18Z</time></trkpt>
<trkpt lat="48.886157989502" lon="2.8545763492584"><ele>98</ele><time>2026-5-1T6:46:21Z</time></trkpt>
<trkpt lat="48.886257171631" lon="2.8546085357666"><ele>97</ele><time>2026-5-1T6:46:24Z</time></trkpt>
<trkpt lat="48.88631439209" lon="2.8546235561371"><ele>97</ele><time>2026-5-1T6:46:27Z</time></trkpt>
<trkpt lat="48.886413574219" lon="2.8546411991119"><ele>97</ele><time>2026-5-1T6:46:30Z</time></trkpt>
<trkpt lat="48.886478424072" lon="2.8546524047852"><ele>97</ele><time>2026-5-1T6:46:33Z</time></trkpt>
<trkpt lat="48.886539459229" lon="2.8546681404114"><ele>98</ele><time>2026-5-1T6:46:36Z</time></trkpt>
<trkpt lat="48.886642456055" lon="2.854688167572"><ele>98</ele><time>2026-5-1T6:46:39Z</time></trkpt>
<trkpt lat="48.886699676514" lon="2.8547101020813"><ele>98</ele><time>2026-5-1T6:46:42Z</time></trkpt>
<trkpt lat="48.88676071167" lon="2.8547265529633"><ele>98</ele><time>2026-5-1T6:46:45Z</time></trkpt>
<trkpt lat="48.88676071167" lon="2.8547265529633"><ele>98</ele><time>2026-5-1T6:46:48Z</time></trkpt>
<trkpt lat="48.886871337891" lon="2.8547675609589"><ele>98</ele><time>2026-5-1T6:46:51Z</time></trkpt>
<trkpt lat="48.886871337891" lon="2.8547675609589"><ele>98</ele><time>2026-5-1T6:46:54Z</time></trkpt>
<trkpt lat="48.886951446533" lon="2.8547813892365"><ele>98</ele><time>2026-5-1T6:46:57Z</time></trkpt>
<trkpt lat="48.886951446533" lon="2.8547813892365"><ele>98</ele><time>2026-5-1T6:47:0Z</time></trkpt>
<trkpt lat="48.887023925781" lon="2.8547885417938"><ele>99</ele><time>2026-5-1T6:47:3Z</time></trkpt>
<trkpt lat="48.887023925781" lon="2.8547885417938"><ele>99</ele><time>2026-5-1T6:47:6Z</time></trkpt>
<trkpt lat="48.887104034424" lon="2.8548245429993"><ele>99</ele><time>2026-5-1T6:47:9Z</time></trkpt>
<trkpt lat="48.887104034424" lon="2.8548245429993"><ele>99</ele><time>2026-5-1T6:47:12Z</time></trkpt>
<trkpt lat="48.887168884277" lon="2.8548452854156"><ele>99</ele><time>2026-5-1T6:47:15Z</time></trkpt>
<trkpt lat="48.887168884277" lon="2.8548452854156"><ele>99</ele><time>2026-5-1T6:47:18Z</time></trkpt>
<trkpt lat="48.887229919434" lon="2.8548858165741"><ele>99</ele><time>2026-5-1T6:47:21Z</time></trkpt>
<trkpt lat="48.887229919434" lon="2.8548858165741"><ele>99</ele><time>2026-5-1T6:47:24Z</time></trkpt>
<trkpt lat="48.887279510498" lon="2.8549437522888"><ele>99</ele><time>2026-5-1T6:47:27Z</time></trkpt>
<trkpt lat="48.887279510498" lon="2.8549437522888"><ele>99</ele><time>2026-5-1T6:47:30Z</time></trkpt>
<trkpt lat="48.887279510498" lon="2.8549437522888"><ele>99</ele><time>2026-5-1T6:47:33Z</time></trkpt>
<trkpt lat="48.887355804443" lon="2.8550119400024"><ele>99</ele><time>2026-5-1T6:47:36Z</time></trkpt>
<trkpt lat="48.887355804443" lon="2.8550119400024"><ele>99</ele><time>2026-5-1T6:47:39Z</time></trkpt>
<trkpt lat="48.887409210205" lon="2.8550374507904"><ele>100</ele><time>2026-5-1T6:47:42Z</time></trkpt>
<trkpt lat="48.887409210205" lon="2.8550374507904"><ele>100</ele><time>2026-5-1T6:47:45Z</time></trkpt>
<trkpt lat="48.887409210205" lon="2.8550374507904"><ele>100</ele><time>2026-5-1T6:47:48Z</time></trkpt>
<trkpt lat="48.88748550415" lon="2.8550806045532"><ele>101</ele><time>2026-5-1T6:47:51Z</time></trkpt>
<trkpt lat="48.887561798096" lon="2.8551406860352"><ele>101</ele><time>2026-5-1T6:47:54Z</time></trkpt>
<trkpt lat="48.887561798096" lon="2.8551406860352"><ele>101</ele><time>2026-5-1T6:47:57Z</time></trkpt>
<trkpt lat="48.887622833252" lon="2.8551962375641"><ele>102</ele><time>2026-5-1T6:48:0Z</time></trkpt>
<trkpt lat="48.887622833252" lon="2.8551962375641"><ele>102</ele><time>2026-5-1T6:48:3Z</time></trkpt>
<trkpt lat="48.887676239014" lon="2.8552408218384"><ele>102</ele><time>2026-5-1T6:48:6Z</time></trkpt>
<trkpt lat="48.887676239014" lon="2.8552408218384"><ele>102</ele><time>2026-5-1T6:48:9Z</time></trkpt>
<trkpt lat="48.88773727417" lon="2.8552930355072"><ele>103</ele><time>2026-5-1T6:48:12Z</time></trkpt>
<trkpt lat="48.88773727417" lon="2.8552930355072"><ele>103</ele><time>2026-5-1T6:48:15Z</time></trkpt>
<trkpt lat="48.88773727417" lon="2.8552930355072"><ele>103</ele><time>2026-5-1T6:48:18Z</time></trkpt>
<trkpt lat="48.887790679932" lon="2.855215549469"><ele>103</ele><time>2026-5-1T6:48:21Z</time></trkpt>
<trkpt lat="48.887790679932" lon="2.855215549469"><ele>103</ele><time>2026-5-1T6:48:24Z</time></trkpt>
<trkpt lat="48.887790679932" lon="2.855215549469"><ele>103</ele><time>2026-5-1T6:48:27Z</time></trkpt>
<trkpt lat="48.88782119751" lon="2.8551254272461"><ele>104</ele><time>2026-5-1T6:48:30Z</time></trkpt>
<trkpt lat="48.88782119751" lon="2.8551254272461"><ele>104</ele><time>2026-5-1T6:48:33Z</time></trkpt>
<trkpt lat="48.887855529785" lon="2.8550534248352"><ele>104</ele><time>2026-5-1T6:48:36Z</time></trkpt>
<trkpt lat="48.887855529785" lon="2.8550534248352"><ele>104</ele><time>2026-5-1T6:48:39Z</time></trkpt>
<trkpt lat="48.887855529785" lon="2.8550534248352"><ele>104</ele><time>2026-5-1T6:48:42Z</time></trkpt>
<trkpt lat="48.887893676758" lon="2.8549780845642"><ele>105</ele><time>2026-5-1T6:48:45Z</time></trkpt>
<trkpt lat="48.887893676758" lon="2.8549780845642"><ele>105</ele><time>2026-5-1T6:48:48Z</time></trkpt>
<trkpt lat="48.887924194336" lon="2.8549008369446"><ele>106</ele><time>2026-5-1T6:48:51Z</time></trkpt>
<trkpt lat="48.88794708252" lon="2.8548557758331"><ele>106</ele><time>2026-5-1T6:48:54Z</time></trkpt>
<trkpt lat="48.887958526611" lon="2.8548150062561"><ele>106</ele><time>2026-5-1T6:48:57Z</time></trkpt>
<trkpt lat="48.887966156006" lon="2.8547701835632"><ele>106</ele><time>2026-5-1T6:49:0Z</time></trkpt>
<trkpt lat="48.8879737854" lon="2.8547215461731"><ele>106</ele><time>2026-5-1T6:49:3Z</time></trkpt>
<trkpt lat="48.887977600098" lon="2.8546707630157"><ele>106</ele><time>2026-5-1T6:49:6Z</time></trkpt>
<trkpt lat="48.887985229492" lon="2.8545682430267"><ele>106</ele><time>2026-5-1T6:49:9Z</time></trkpt>
<trkpt lat="48.887996673584" lon="2.8544809818268"><ele>106</ele><time>2026-5-1T6:49:12Z</time></trkpt>
<trkpt lat="48.888034820557" lon="2.8544101715088"><ele>106</ele><time>2026-5-1T6:49:15Z</time></trkpt>
<trkpt lat="48.888034820557" lon="2.8544101715088"><ele>106</ele><time>2026-5-1T6:49:18Z</time></trkpt>
<trkpt lat="48.888034820557" lon="2.8544101715088"><ele>106</ele><time>2026-5-1T6:49:21Z</time></trkpt>
<trkpt lat="48.888034820557" lon="2.8544101715088"><ele>106</ele><time>2026-5-1T6:49:24Z</time></trkpt>
<trkpt lat="48.88809967041" lon="2.8544011116028"><ele>107</ele><time>2026-5-1T6:49:27Z</time></trkpt>
<trkpt lat="48.888175964355" lon="2.8543908596039"><ele>108</ele><time>2026-5-1T6:49:30Z</time></trkpt>
<trkpt lat="48.888175964355" lon="2.8543908596039"><ele>108</ele><time>2026-5-1T6:49:33Z</time></trkpt>
<trkpt lat="48.888236999512" lon="2.8543405532837"><ele>109</ele><time>2026-5-1T6:49:36Z</time></trkpt>
<trkpt lat="48.888236999512" lon="2.8543405532837"><ele>109</ele><time>2026-5-1T6:49:39Z</time></trkpt>
<trkpt lat="48.888236999512" lon="2.8543405532837"><ele>109</ele><time>2026-5-1T6:49:42Z</time></trkpt>
<trkpt lat="48.888275146484" lon="2.8542652130127"><ele>109</ele><time>2026-5-1T6:49:45Z</time></trkpt>
<trkpt lat="48.888298034668" lon="2.8541555404663"><ele>110</ele><time>2026-5-1T6:49:48Z</time></trkpt>
<trkpt lat="48.888298034668" lon="2.8541555404663"><ele>110</ele><time>2026-5-1T6:49:51Z</time></trkpt>
<trkpt lat="48.888298034668" lon="2.8541555404663"><ele>110</ele><time>2026-5-1T6:49:54Z</time></trkpt>
<trkpt lat="48.888328552246" lon="2.8540434837341"><ele>110</ele><time>2026-5-1T6:49:57Z</time></trkpt>
<trkpt lat="48.888328552246" lon="2.8540434837341"><ele>110</ele><time>2026-5-1T6:50:0Z</time></trkpt>
<trkpt lat="48.888343811035" lon="2.8539619445801"><ele>111</ele><time>2026-5-1T6:50:3Z</time></trkpt>
<trkpt lat="48.888343811035" lon="2.8539619445801"><ele>111</ele><time>2026-5-1T6:50:6Z</time></trkpt>
<trkpt lat="48.888366699219" lon="2.8538823127747"><ele>111</ele><time>2026-5-1T6:50:9Z</time></trkpt>
<trkpt lat="48.888389587402" lon="2.853803396225"><ele>112</ele><time>2026-5-1T6:50:12Z</time></trkpt>
<trkpt lat="48.888408660889" lon="2.8537077903748"><ele>113</ele><time>2026-5-1T6:50:15Z</time></trkpt>
<trkpt lat="48.88842010498" lon="2.8536195755005"><ele>113</ele><time>2026-5-1T6:50:18Z</time></trkpt>
<trkpt lat="48.88842010498" lon="2.8536195755005"><ele>113</ele><time>2026-5-1T6:50:21Z</time></trkpt>
<trkpt lat="48.888446807861" lon="2.8534960746765"><ele>114</ele><time>2026-5-1T6:50:24Z</time></trkpt>
<trkpt lat="48.888446807861" lon="2.8534960746765"><ele>114</ele><time>2026-5-1T6:50:27Z</time></trkpt>
<trkpt lat="48.88846206665" lon="2.8534073829651"><ele>115</ele><time>2026-5-1T6:50:30Z</time></trkpt>
<trkpt lat="48.88846206665" lon="2.8534073829651"><ele>115</ele><time>2026-5-1T6:50:33Z</time></trkpt>
<trkpt lat="48.888465881348" lon="2.8533155918121"><ele>115</ele><time>2026-5-1T6:50:36Z</time></trkpt>
<trkpt lat="48.888465881348" lon="2.8533155918121"><ele>115</ele><time>2026-5-1T6:50:39Z</time></trkpt>
<trkpt lat="48.888473510742" lon="2.853226184845"><ele>115</ele><time>2026-5-1T6:50:42Z</time></trkpt>
<trkpt lat="48.888473510742" lon="2.853226184845"><ele>115</ele><time>2026-5-1T6:50:45Z</time></trkpt>
<trkpt lat="48.888496398926" lon="2.8531367778778"><ele>116</ele><time>2026-5-1T6:50:48Z</time></trkpt>
<trkpt lat="48.888496398926" lon="2.8531367778778"><ele>116</ele><time>2026-5-1T6:50:51Z</time></trkpt>
<trkpt lat="48.888530731201" lon="2.8530361652374"><ele>116</ele><time>2026-5-1T6:50:54Z</time></trkpt>
<trkpt lat="48.888530731201" lon="2.8530361652374"><ele>116</ele><time>2026-5-1T6:50:57Z</time></trkpt>
<trkpt lat="48.888530731201" lon="2.8530361652374"><ele>116</ele><time>2026-5-1T6:51:0Z</time></trkpt>
<trkpt lat="48.88854598999" lon="2.8529436588287"><ele>117</ele><time>2026-5-1T6:51:3Z</time></trkpt>
<trkpt lat="48.888549804688" lon="2.8528978824615"><ele>117</ele><time>2026-5-1T6:51:6Z</time></trkpt>
<trkpt lat="48.888561248779" lon="2.8528385162354"><ele>118</ele><time>2026-5-1T6:51:9Z</time></trkpt>
<trkpt lat="48.888576507568" lon="2.8527898788452"><ele>118</ele><time>2026-5-1T6:51:12Z</time></trkpt>
<trkpt lat="48.888576507568" lon="2.8527898788452"><ele>118</ele><time>2026-5-1T6:51:15Z</time></trkpt>
<trkpt lat="48.888595581055" lon="2.8527488708496"><ele>118</ele><time>2026-5-1T6:51:18Z</time></trkpt>
<trkpt lat="48.888595581055" lon="2.8527488708496"><ele>118</ele><time>2026-5-1T6:51:21Z</time></trkpt>
<trkpt lat="48.888618469238" lon="2.8527145385742"><ele>118</ele><time>2026-5-1T6:51:24Z</time></trkpt>
<trkpt lat="48.888618469238" lon="2.8527145385742"><ele>118</ele><time>2026-5-1T6:51:27Z</time></trkpt>
<trkpt lat="48.888648986816" lon="2.8526725769043"><ele>119</ele><time>2026-5-1T6:51:30Z</time></trkpt>
<trkpt lat="48.888675689697" lon="2.8526329994202"><ele>119</ele><time>2026-5-1T6:51:33Z</time></trkpt>
<trkpt lat="48.888698577881" lon="2.852596282959"><ele>119</ele><time>2026-5-1T6:51:36Z</time></trkpt>
<trkpt lat="48.888721466064" lon="2.8525519371033"><ele>120</ele><time>2026-5-1T6:51:39Z</time></trkpt>
<trkpt lat="48.888740539551" lon="2.8525085449219"><ele>120</ele><time>2026-5-1T6:51:42Z</time></trkpt>
<trkpt lat="48.888771057129" lon="2.8523964881897"><ele>120</ele><time>2026-5-1T6:51:45Z</time></trkpt>
<trkpt lat="48.888782501221" lon="2.8522899150848"><ele>121</ele><time>2026-5-1T6:51:48Z</time></trkpt>
<trkpt lat="48.888805389404" lon="2.8521866798401"><ele>122</ele><time>2026-5-1T6:51:51Z</time></trkpt>
<trkpt lat="48.888828277588" lon="2.8520712852478"><ele>122</ele><time>2026-5-1T6:51:54Z</time></trkpt>
<trkpt lat="48.888851165771" lon="2.8519480228424"><ele>123</ele><time>2026-5-1T6:51:57Z</time></trkpt>
<trkpt lat="48.888874053955" lon="2.851841211319"><ele>123</ele><time>2026-5-1T6:52:0Z</time></trkpt>
<trkpt lat="48.88890838623" lon="2.8517308235168"><ele>123</ele><time>2026-5-1T6:52:3Z</time></trkpt>
<trkpt lat="48.888938903809" lon="2.8516452312469"><ele>124</ele><time>2026-5-1T6:52:6Z</time></trkpt>
<trkpt lat="48.888938903809" lon="2.8516452312469"><ele>124</ele><time>2026-5-1T6:52:9Z</time></trkpt>
<trkpt lat="48.888938903809" lon="2.8516452312469"><ele>124</ele><time>2026-5-1T6:52:12Z</time></trkpt>
<trkpt lat="48.888965606689" lon="2.8515508174896"><ele>124</ele><time>2026-5-1T6:52:15Z</time></trkpt>
<trkpt lat="48.888965606689" lon="2.8515508174896"><ele>124</ele><time>2026-5-1T6:52:18Z</time></trkpt>
<trkpt lat="48.888988494873" lon="2.8514697551727"><ele>124</ele><time>2026-5-1T6:52:21Z</time></trkpt>
<trkpt lat="48.888988494873" lon="2.8514697551727"><ele>124</ele><time>2026-5-1T6:52:24Z</time></trkpt>
<trkpt lat="48.889007568359" lon="2.8513860702515"><ele>125</ele><time>2026-5-1T6:52:27Z</time></trkpt>
<trkpt lat="48.889007568359" lon="2.8513860702515"><ele>125</ele><time>2026-5-1T6:52:30Z</time></trkpt>
<trkpt lat="48.889007568359" lon="2.8513860702515"><ele>125</ele><time>2026-5-1T6:52:33Z</time></trkpt>
<trkpt lat="48.889038085938" lon="2.8512625694275"><ele>125</ele><time>2026-5-1T6:52:36Z</time></trkpt>
<trkpt lat="48.889057159424" lon="2.8511762619019"><ele>126</ele><time>2026-5-1T6:52:39Z</time></trkpt>
<trkpt lat="48.889091491699" lon="2.8510677814484"><ele>126</ele><time>2026-5-1T6:52:42Z</time></trkpt>
<trkpt lat="48.889110565186" lon="2.8509550094604"><ele>127</ele><time>2026-5-1T6:52:45Z</time></trkpt>
<trkpt lat="48.889133453369" lon="2.8508491516113"><ele>127</ele><time>2026-5-1T6:52:48Z</time></trkpt>
<trkpt lat="48.889152526855" lon="2.8507485389709"><ele>128</ele><time>2026-5-1T6:52:51Z</time></trkpt>
<trkpt lat="48.88920211792" lon="2.8506336212158"><ele>128</ele><time>2026-5-1T6:52:54Z</time></trkpt>
<trkpt lat="48.889240264893" lon="2.8505413532257"><ele>129</ele><time>2026-5-1T6:52:57Z</time></trkpt>
<trkpt lat="48.889282226562" lon="2.8504559993744"><ele>129</ele><time>2026-5-1T6:53:0Z</time></trkpt>
<trkpt lat="48.889316558838" lon="2.8503611087799"><ele>129</ele><time>2026-5-1T6:53:3Z</time></trkpt>
<trkpt lat="48.889358520508" lon="2.8502566814423"><ele>129</ele><time>2026-5-1T6:53:6Z</time></trkpt>
<trkpt lat="48.889377593994" lon="2.8502080440521"><ele>129</ele><time>2026-5-1T6:53:9Z</time></trkpt>
<trkpt lat="48.88939666748" lon="2.8501613140106"><ele>129</ele><time>2026-5-1T6:53:12Z</time></trkpt>
<trkpt lat="48.88941192627" lon="2.8501126766205"><ele>129</ele><time>2026-5-1T6:53:15Z</time></trkpt>
<trkpt lat="48.889427185059" lon="2.8500616550446"><ele>130</ele><time>2026-5-1T6:53:18Z</time></trkpt>
<trkpt lat="48.88943862915" lon="2.8500134944916"><ele>130</ele><time>2026-5-1T6:53:21Z</time></trkpt>
<trkpt lat="48.889472961426" lon="2.8499109745026"><ele>130</ele><time>2026-5-1T6:53:24Z</time></trkpt>
<trkpt lat="48.889507293701" lon="2.8498001098633"><ele>131</ele><time>2026-5-1T6:53:27Z</time></trkpt>
<trkpt lat="48.889518737793" lon="2.8496868610382"><ele>131</ele><time>2026-5-1T6:53:30Z</time></trkpt>
<trkpt lat="48.889518737793" lon="2.8496868610382"><ele>131</ele><time>2026-5-1T6:53:33Z</time></trkpt>
<trkpt lat="48.889537811279" lon="2.8495874404907"><ele>132</ele><time>2026-5-1T6:53:36Z</time></trkpt>
<trkpt lat="48.889537811279" lon="2.8495874404907"><ele>132</ele><time>2026-5-1T6:53:39Z</time></trkpt>
<trkpt lat="48.889553070068" lon="2.8494546413422"><ele>132</ele><time>2026-5-1T6:53:42Z</time></trkpt>
<trkpt lat="48.889560699463" lon="2.8493297100067"><ele>132</ele><time>2026-5-1T6:53:45Z</time></trkpt>
<trkpt lat="48.889591217041" lon="2.8491895198822"><ele>133</ele><time>2026-5-1T6:53:48Z</time></trkpt>
<trkpt lat="48.889636993408" lon="2.8490600585938"><ele>133</ele><time>2026-5-1T6:53:51Z</time></trkpt>
<trkpt lat="48.889667510986" lon="2.8489415645599"><ele>133</ele><time>2026-5-1T6:53:54Z</time></trkpt>
<trkpt lat="48.88969039917" lon="2.8488352298737"><ele>134</ele><time>2026-5-1T6:53:57Z</time></trkpt>
<trkpt lat="48.88969039917" lon="2.8488352298737"><ele>134</ele><time>2026-5-1T6:54:0Z</time></trkpt>
<trkpt lat="48.88973236084" lon="2.8486957550049"><ele>134</ele><time>2026-5-1T6:54:3Z</time></trkpt>
<trkpt lat="48.88977432251" lon="2.8485865592957"><ele>135</ele><time>2026-5-1T6:54:6Z</time></trkpt>
<trkpt lat="48.889820098877" lon="2.8484716415405"><ele>135</ele><time>2026-5-1T6:54:9Z</time></trkpt>
<trkpt lat="48.889873504639" lon="2.848358631134"><ele>136</ele><time>2026-5-1T6:54:12Z</time></trkpt>
<trkpt lat="48.889934539795" lon="2.8482604026794"><ele>136</ele><time>2026-5-1T6:54:15Z</time></trkpt>
<trkpt lat="48.889934539795" lon="2.8482604026794"><ele>136</ele><time>2026-5-1T6:54:18Z</time></trkpt>
<trkpt lat="48.889976501465" lon="2.8481600284576"><ele>137</ele><time>2026-5-1T6:54:21Z</time></trkpt>
<trkpt lat="48.889976501465" lon="2.8481600284576"><ele>137</ele><time>2026-5-1T6:54:24Z</time></trkpt>
<trkpt lat="48.890045166016" lon="2.8480355739594"><ele>137</ele><time>2026-5-1T6:54:27Z</time></trkpt>
<trkpt lat="48.890079498291" lon="2.8479626178741"><ele>137</ele><time>2026-5-1T6:54:30Z</time></trkpt>
<trkpt lat="48.890113830566" lon="2.8478784561157"><ele>137</ele><time>2026-5-1T6:54:33Z</time></trkpt>
<trkpt lat="48.890144348145" lon="2.8477892875671"><ele>137</ele><time>2026-5-1T6:54:36Z</time></trkpt>
<trkpt lat="48.89017868042" lon="2.8476872444153"><ele>137</ele><time>2026-5-1T6:54:39Z</time></trkpt>
<trkpt lat="48.890209197998" lon="2.8475890159607"><ele>137</ele><time>2026-5-1T6:54:42Z</time></trkpt>
<trkpt lat="48.890235900879" lon="2.8474600315094"><ele>137</ele><time>2026-5-1T6:54:45Z</time></trkpt>
<trkpt lat="48.890254974365" lon="2.8473706245422"><ele>137</ele><time>2026-5-1T6:54:48Z</time></trkpt>
<trkpt lat="48.890270233154" lon="2.8472754955292"><ele>137</ele><time>2026-5-1T6:54:51Z</time></trkpt>
<trkpt lat="48.890296936035" lon="2.8471834659576"><ele>137</ele><time>2026-5-1T6:54:54Z</time></trkpt>
<trkpt lat="48.890338897705" lon="2.8470869064331"><ele>137</ele><time>2026-5-1T6:54:57Z</time></trkpt>
<trkpt lat="48.89037322998" lon="2.8469848632812"><ele>137</ele><time>2026-5-1T6:55:0Z</time></trkpt>
<trkpt lat="48.890396118164" lon="2.8468968868256"><ele>137</ele><time>2026-5-1T6:55:3Z</time></trkpt>
<trkpt lat="48.890422821045" lon="2.8468036651611"><ele>137</ele><time>2026-5-1T6:55:6Z</time></trkpt>
<trkpt lat="48.890445709229" lon="2.8467090129852"><ele>137</ele><time>2026-5-1T6:55:9Z</time></trkpt>
<trkpt lat="48.890468597412" lon="2.8466231822968"><ele>137</ele><time>2026-5-1T6:55:12Z</time></trkpt>
<trkpt lat="48.890468597412" lon="2.8466231822968"><ele>137</ele><time>2026-5-1T6:55:15Z</time></trkpt>
<trkpt lat="48.890510559082" lon="2.8465003967285"><ele>137</ele><time>2026-5-1T6:55:18Z</time></trkpt>
<trkpt lat="48.890544891357" lon="2.8464176654816"><ele>137</ele><time>2026-5-1T6:55:21Z</time></trkpt>
<trkpt lat="48.890544891357" lon="2.8464176654816"><ele>137</ele><time>2026-5-1T6:55:24Z</time></trkpt>
<trkpt lat="48.890586853027" lon="2.8462829589844"><ele>137</ele><time>2026-5-1T6:55:27Z</time></trkpt>
<trkpt lat="48.890586853027" lon="2.8462829589844"><ele>137</ele><time>2026-5-1T6:55:30Z</time></trkpt>
<trkpt lat="48.890628814697" lon="2.8461394309998"><ele>137</ele><time>2026-5-1T6:55:33Z</time></trkpt>
<trkpt lat="48.890647888184" lon="2.8460249900818"><ele>137</ele><time>2026-5-1T6:55:36Z</time></trkpt>
<trkpt lat="48.890651702881" lon="2.8459045886993"><ele>137</ele><time>2026-5-1T6:55:39Z</time></trkpt>
<trkpt lat="48.890655517578" lon="2.8457820415497"><ele>137</ele><time>2026-5-1T6:55:42Z</time></trkpt>
<trkpt lat="48.890674591064" lon="2.8455989360809"><ele>137</ele><time>2026-5-1T6:55:45Z</time></trkpt>
<trkpt lat="48.89070892334" lon="2.8454957008362"><ele>137</ele><time>2026-5-1T6:55:48Z</time></trkpt>
<trkpt lat="48.890739440918" lon="2.845397233963"><ele>137</ele><time>2026-5-1T6:55:51Z</time></trkpt>
<trkpt lat="48.890766143799" lon="2.8453040122986"><ele>137</ele><time>2026-5-1T6:55:54Z</time></trkpt>
<trkpt lat="48.890800476074" lon="2.8452076911926"><ele>137</ele><time>2026-5-1T6:55:57Z</time></trkpt>
<trkpt lat="48.890842437744" lon="2.8450801372528"><ele>137</ele><time>2026-5-1T6:56:0Z</time></trkpt>
<trkpt lat="48.890880584717" lon="2.8449745178223"><ele>136</ele><time>2026-5-1T6:56:3Z</time></trkpt>
<trkpt lat="48.890960693359" lon="2.8448915481567"><ele>136</ele><time>2026-5-1T6:56:6Z</time></trkpt>
<trkpt lat="48.890960693359" lon="2.8448915481567"><ele>136</ele><time>2026-5-1T6:56:9Z</time></trkpt>
<trkpt lat="48.890960693359" lon="2.8448915481567"><ele>136</ele><time>2026-5-1T6:56:12Z</time></trkpt>
<trkpt lat="48.891033172607" lon="2.8449513912201"><ele>136</ele><time>2026-5-1T6:56:15Z</time></trkpt>
<trkpt lat="48.891090393066" lon="2.8450345993042"><ele>136</ele><time>2026-5-1T6:56:18Z</time></trkpt>
<trkpt lat="48.891090393066" lon="2.8450345993042"><ele>136</ele><time>2026-5-1T6:56:21Z</time></trkpt>
<trkpt lat="48.891143798828" lon="2.8450844287872"><ele>136</ele><time>2026-5-1T6:56:24Z</time></trkpt>
<trkpt lat="48.891143798828" lon="2.8450844287872"><ele>136</ele><time>2026-5-1T6:56:27Z</time></trkpt>
<trkpt lat="48.891212463379" lon="2.845142364502"><ele>136</ele><time>2026-5-1T6:56:30Z</time></trkpt>
<trkpt lat="48.891265869141" lon="2.8451981544495"><ele>137</ele><time>2026-5-1T6:56:33Z</time></trkpt>
<trkpt lat="48.891265869141" lon="2.8451981544495"><ele>137</ele><time>2026-5-1T6:56:36Z</time></trkpt>
<trkpt lat="48.891300201416" lon="2.8452260494232"><ele>137</ele><time>2026-5-1T6:56:39Z</time></trkpt>
<trkpt lat="48.891330718994" lon="2.845249414444"><ele>137</ele><time>2026-5-1T6:56:42Z</time></trkpt>
<trkpt lat="48.89136505127" lon="2.845269203186"><ele>137</ele><time>2026-5-1T6:56:45Z</time></trkpt>
<trkpt lat="48.891399383545" lon="2.8452835083008"><ele>137</ele><time>2026-5-1T6:56:48Z</time></trkpt>
<trkpt lat="48.891429901123" lon="2.8452966213226"><ele>137</ele><time>2026-5-1T6:56:51Z</time></trkpt>
<trkpt lat="48.891494750977" lon="2.8453254699707"><ele>138</ele><time>2026-5-1T6:56:54Z</time></trkpt>
<trkpt lat="48.891548156738" lon="2.8453686237335"><ele>138</ele><time>2026-5-1T6:56:57Z</time></trkpt>
<trkpt lat="48.891548156738" lon="2.8453686237335"><ele>138</ele><time>2026-5-1T6:57:0Z</time></trkpt>
<trkpt lat="48.891613006592" lon="2.8454160690308"><ele>138</ele><time>2026-5-1T6:57:3Z</time></trkpt>
<trkpt lat="48.891613006592" lon="2.8454160690308"><ele>138</ele><time>2026-5-1T6:57:6Z</time></trkpt>
<trkpt lat="48.89168548584" lon="2.8454651832581"><ele>139</ele><time>2026-5-1T6:57:9Z</time></trkpt>
<trkpt lat="48.89168548584" lon="2.8454651832581"><ele>139</ele><time>2026-5-1T6:57:12Z</time></trkpt>
<trkpt lat="48.891754150391" lon="2.8455193042755"><ele>139</ele><time>2026-5-1T6:57:15Z</time></trkpt>
<trkpt lat="48.891754150391" lon="2.8455193042755"><ele>139</ele><time>2026-5-1T6:57:18Z</time></trkpt>
<trkpt lat="48.891819000244" lon="2.8455719947815"><ele>140</ele><time>2026-5-1T6:57:21Z</time></trkpt>
<trkpt lat="48.891819000244" lon="2.8455719947815"><ele>140</ele><time>2026-5-1T6:57:24Z</time></trkpt>
<trkpt lat="48.891891479492" lon="2.8456282615662"><ele>140</ele><time>2026-5-1T6:57:27Z</time></trkpt>
<trkpt lat="48.891944885254" lon="2.8456633090973"><ele>141</ele><time>2026-5-1T6:57:30Z</time></trkpt>
<trkpt lat="48.892009735107" lon="2.8457100391388"><ele>141</ele><time>2026-5-1T6:57:33Z</time></trkpt>
<trkpt lat="48.892074584961" lon="2.8457553386688"><ele>142</ele><time>2026-5-1T6:57:36Z</time></trkpt>
<trkpt lat="48.892074584961" lon="2.8457553386688"><ele>142</ele><time>2026-5-1T6:57:39Z</time></trkpt>
<trkpt lat="48.892135620117" lon="2.8458106517792"><ele>143</ele><time>2026-5-1T6:57:42Z</time></trkpt>
<trkpt lat="48.892135620117" lon="2.8458106517792"><ele>143</ele><time>2026-5-1T6:57:45Z</time></trkpt>
<trkpt lat="48.892192840576" lon="2.845858335495"><ele>143</ele><time>2026-5-1T6:57:48Z</time></trkpt>
<trkpt lat="48.892192840576" lon="2.845858335495"><ele>143</ele><time>2026-5-1T6:57:51Z</time></trkpt>
<trkpt lat="48.892261505127" lon="2.8459136486053"><ele>144</ele><time>2026-5-1T6:57:54Z</time></trkpt>
<trkpt lat="48.892261505127" lon="2.8459136486053"><ele>144</ele><time>2026-5-1T6:57:57Z</time></trkpt>
<trkpt lat="48.892345428467" lon="2.8459646701813"><ele>145</ele><time>2026-5-1T6:58:0Z</time></trkpt>
<trkpt lat="48.892402648926" lon="2.8459894657135"><ele>146</ele><time>2026-5-1T6:58:3Z</time></trkpt>
<trkpt lat="48.892456054688" lon="2.8460333347321"><ele>147</ele><time>2026-5-1T6:58:6Z</time></trkpt>
<trkpt lat="48.892456054688" lon="2.8460333347321"><ele>147</ele><time>2026-5-1T6:58:9Z</time></trkpt>
<trkpt lat="48.892456054688" lon="2.8460333347321"><ele>147</ele><time>2026-5-1T6:58:12Z</time></trkpt>
<trkpt lat="48.892524719238" lon="2.8461151123047"><ele>148</ele><time>2026-5-1T6:58:15Z</time></trkpt>
<trkpt lat="48.892524719238" lon="2.8461151123047"><ele>148</ele><time>2026-5-1T6:58:18Z</time></trkpt>
<trkpt lat="48.892524719238" lon="2.8461151123047"><ele>148</ele><time>2026-5-1T6:58:21Z</time></trkpt>
<trkpt lat="48.892585754395" lon="2.8462057113647"><ele>149</ele><time>2026-5-1T6:58:24Z</time></trkpt>
<trkpt lat="48.892585754395" lon="2.8462057113647"><ele>149</ele><time>2026-5-1T6:58:27Z</time></trkpt>
<trkpt lat="48.892631530762" lon="2.8462934494019"><ele>149</ele><time>2026-5-1T6:58:30Z</time></trkpt>
<trkpt lat="48.892631530762" lon="2.8462934494019"><ele>149</ele><time>2026-5-1T6:58:33Z</time></trkpt>
<trkpt lat="48.892696380615" lon="2.8463523387909"><ele>150</ele><time>2026-5-1T6:58:36Z</time></trkpt>
<trkpt lat="48.892696380615" lon="2.8463523387909"><ele>150</ele><time>2026-5-1T6:58:39Z</time></trkpt>
<trkpt lat="48.89274597168" lon="2.8464031219482"><ele>151</ele><time>2026-5-1T6:58:42Z</time></trkpt>
<trkpt lat="48.892799377441" lon="2.8464925289154"><ele>152</ele><time>2026-5-1T6:58:45Z</time></trkpt>
<trkpt lat="48.892848968506" lon="2.8465580940247"><ele>152</ele><time>2026-5-1T6:58:48Z</time></trkpt>
<trkpt lat="48.892894744873" lon="2.8466198444366"><ele>153</ele><time>2026-5-1T6:58:51Z</time></trkpt>
<trkpt lat="48.892951965332" lon="2.8466854095459"><ele>153</ele><time>2026-5-1T6:58:54Z</time></trkpt>
<trkpt lat="48.892990112305" lon="2.8467516899109"><ele>154</ele><time>2026-5-1T6:58:57Z</time></trkpt>
<trkpt lat="48.893032073975" lon="2.846818447113"><ele>154</ele><time>2026-5-1T6:59:0Z</time></trkpt>
<trkpt lat="48.893062591553" lon="2.8468647003174"><ele>155</ele><time>2026-5-1T6:59:3Z</time></trkpt>
<trkpt lat="48.893089294434" lon="2.8469014167786"><ele>155</ele><time>2026-5-1T6:59:6Z</time></trkpt>
<trkpt lat="48.893089294434" lon="2.8469014167786"><ele>155</ele><time>2026-5-1T6:59:9Z</time></trkpt>
<trkpt lat="48.893115997314" lon="2.8469460010529"><ele>156</ele><time>2026-5-1T6:59:12Z</time></trkpt>
<trkpt lat="48.893135070801" lon="2.8469846248627"><ele>156</ele><time>2026-5-1T6:59:15Z</time></trkpt>
<trkpt lat="48.893154144287" lon="2.8470237255096"><ele>157</ele><time>2026-5-1T6:59:18Z</time></trkpt>
<trkpt lat="48.893173217773" lon="2.8470759391785"><ele>157</ele><time>2026-5-1T6:59:21Z</time></trkpt>
<trkpt lat="48.893188476562" lon="2.8471298217773"><ele>157</ele><time>2026-5-1T6:59:24Z</time></trkpt>
<trkpt lat="48.893211364746" lon="2.8472411632538"><ele>157</ele><time>2026-5-1T6:59:27Z</time></trkpt>
<trkpt lat="48.893245697021" lon="2.8473346233368"><ele>158</ele><time>2026-5-1T6:59:30Z</time></trkpt>
<trkpt lat="48.893299102783" lon="2.8474066257477"><ele>159</ele><time>2026-5-1T6:59:33Z</time></trkpt>
<trkpt lat="48.893348693848" lon="2.8474719524384"><ele>160</ele><time>2026-5-1T6:59:36Z</time></trkpt>
<trkpt lat="48.893421173096" lon="2.8475475311279"><ele>160</ele><time>2026-5-1T6:59:39Z</time></trkpt>
<trkpt lat="48.89347076416" lon="2.8476226329803"><ele>161</ele><time>2026-5-1T6:59:42Z</time></trkpt>
<trkpt lat="48.89351272583" lon="2.8476998806"><ele>161</ele><time>2026-5-1T6:59:45Z</time></trkpt>
<trkpt lat="48.89351272583" lon="2.8476998806"><ele>161</ele><time>2026-5-1T6:59:48Z</time></trkpt>
<trkpt lat="48.89351272583" lon="2.8476998806"><ele>161</ele><time>2026-5-1T6:59:51Z</time></trkpt>
<trkpt lat="48.89351272583" lon="2.8476998806"><ele>161</ele><time>2026-5-1T6:59:54Z</time></trkpt>
<trkpt lat="48.89351272583" lon="2.8476998806"><ele>161</ele><time>2026-5-1T6:59:57Z</time></trkpt>
<trkpt lat="48.893535614014" lon="2.8476467132568"><ele>161</ele><time>2026-5-1T7:0:0Z</time></trkpt>
<trkpt lat="48.893608093262" lon="2.8477067947388"><ele>162</ele><time>2026-5-1T7:0:3Z</time></trkpt>
<trkpt lat="48.893608093262" lon="2.8477067947388"><ele>162</ele><time>2026-5-1T7:0:6Z</time></trkpt>
<trkpt lat="48.893608093262" lon="2.8477067947388"><ele>162</ele><time>2026-5-1T7:0:9Z</time></trkpt>
<trkpt lat="48.89368057251" lon="2.8477644920349"><ele>161</ele><time>2026-5-1T7:0:12Z</time></trkpt>
<trkpt lat="48.89376449585" lon="2.8478107452393"><ele>161</ele><time>2026-5-1T7:0:15Z</time></trkpt>
<trkpt lat="48.893817901611" lon="2.8478863239288"><ele>162</ele><time>2026-5-1T7:0:18Z</time></trkpt>
<trkpt lat="48.893863677979" lon="2.8479495048523"><ele>162</ele><time>2026-5-1T7:0:21Z</time></trkpt>
<trkpt lat="48.893863677979" lon="2.8479495048523"><ele>162</ele><time>2026-5-1T7:0:24Z</time></trkpt>
<trkpt lat="48.893909454346" lon="2.8480100631714"><ele>163</ele><time>2026-5-1T7:0:27Z</time></trkpt>
<trkpt lat="48.893909454346" lon="2.8480100631714"><ele>163</ele><time>2026-5-1T7:0:30Z</time></trkpt>
<trkpt lat="48.893981933594" lon="2.8480868339539"><ele>163</ele><time>2026-5-1T7:0:33Z</time></trkpt>
<trkpt lat="48.894069671631" lon="2.8481538295746"><ele>164</ele><time>2026-5-1T7:0:36Z</time></trkpt>
<trkpt lat="48.894138336182" lon="2.8482201099396"><ele>164</ele><time>2026-5-1T7:0:39Z</time></trkpt>
<trkpt lat="48.894229888916" lon="2.8482699394226"><ele>165</ele><time>2026-5-1T7:0:42Z</time></trkpt>
<trkpt lat="48.894302368164" lon="2.8483386039734"><ele>165</ele><time>2026-5-1T7:0:45Z</time></trkpt>
<trkpt lat="48.894302368164" lon="2.8483386039734"><ele>165</ele><time>2026-5-1T7:0:48Z</time></trkpt>
<trkpt lat="48.894374847412" lon="2.8483858108521"><ele>165</ele><time>2026-5-1T7:0:51Z</time></trkpt>
<trkpt lat="48.894374847412" lon="2.8483858108521"><ele>165</ele><time>2026-5-1T7:0:54Z</time></trkpt>
<trkpt lat="48.894466400146" lon="2.8484470844269"><ele>166</ele><time>2026-5-1T7:0:57Z</time></trkpt>
<trkpt lat="48.894519805908" lon="2.8484847545624"><ele>165</ele><time>2026-5-1T7:1:0Z</time></trkpt>
<trkpt lat="48.89457321167" lon="2.8485298156738"><ele>165</ele><time>2026-5-1T7:1:3Z</time></trkpt>
<trkpt lat="48.894626617432" lon="2.8485639095306"><ele>165</ele><time>2026-5-1T7:1:6Z</time></trkpt>
<trkpt lat="48.894683837891" lon="2.8486065864563"><ele>165</ele><time>2026-5-1T7:1:9Z</time></trkpt>
<trkpt lat="48.894763946533" lon="2.8486750125885"><ele>165</ele><time>2026-5-1T7:1:12Z</time></trkpt>
<trkpt lat="48.894828796387" lon="2.848738193512"><ele>165</ele><time>2026-5-1T7:1:15Z</time></trkpt>
<trkpt lat="48.894828796387" lon="2.848738193512"><ele>165</ele><time>2026-5-1T7:1:18Z</time></trkpt>
<trkpt lat="48.89489364624" lon="2.848828792572"><ele>164</ele><time>2026-5-1T7:1:21Z</time></trkpt>
<trkpt lat="48.89489364624" lon="2.848828792572"><ele>164</ele><time>2026-5-1T7:1:24Z</time></trkpt>
<trkpt lat="48.894985198975" lon="2.8489239215851"><ele>164</ele><time>2026-5-1T7:1:27Z</time></trkpt>
<trkpt lat="48.895034790039" lon="2.8489828109741"><ele>164</ele><time>2026-5-1T7:1:30Z</time></trkpt>
<trkpt lat="48.895034790039" lon="2.8489828109741"><ele>164</ele><time>2026-5-1T7:1:33Z</time></trkpt>
<trkpt lat="48.895088195801" lon="2.8490695953369"><ele>163</ele><time>2026-5-1T7:1:36Z</time></trkpt>
<trkpt lat="48.895088195801" lon="2.8490695953369"><ele>163</ele><time>2026-5-1T7:1:39Z</time></trkpt>
<trkpt lat="48.895130157471" lon="2.8491449356079"><ele>162</ele><time>2026-5-1T7:1:42Z</time></trkpt>
<trkpt lat="48.895130157471" lon="2.8491449356079"><ele>162</ele><time>2026-5-1T7:1:45Z</time></trkpt>
<trkpt lat="48.895214080811" lon="2.8492751121521"><ele>162</ele><time>2026-5-1T7:1:48Z</time></trkpt>
<trkpt lat="48.895282745361" lon="2.8493537902832"><ele>161</ele><time>2026-5-1T7:1:51Z</time></trkpt>
<trkpt lat="48.895343780518" lon="2.8493614196777"><ele>161</ele><time>2026-5-1T7:1:54Z</time></trkpt>
<trkpt lat="48.895343780518" lon="2.8493614196777"><ele>161</ele><time>2026-5-1T7:1:57Z</time></trkpt>
<trkpt lat="48.895351409912" lon="2.8492736816406"><ele>160</ele><time>2026-5-1T7:2:0Z</time></trkpt>
<trkpt lat="48.895351409912" lon="2.8492736816406"><ele>160</ele><time>2026-5-1T7:2:3Z</time></trkpt>
<trkpt lat="48.895332336426" lon="2.8491897583008"><ele>160</ele><time>2026-5-1T7:2:6Z</time></trkpt>
<trkpt lat="48.895332336426" lon="2.8491897583008"><ele>160</ele><time>2026-5-1T7:2:9Z</time></trkpt>
<trkpt lat="48.895332336426" lon="2.8491897583008"><ele>160</ele><time>2026-5-1T7:2:12Z</time></trkpt>
<trkpt lat="48.895336151123" lon="2.8490147590637"><ele>158</ele><time>2026-5-1T7:2:15Z</time></trkpt>
<trkpt lat="48.895305633545" lon="2.8488690853119"><ele>158</ele><time>2026-5-1T7:2:18Z</time></trkpt>
<trkpt lat="48.895278930664" lon="2.8487515449524"><ele>158</ele><time>2026-5-1T7:2:21Z</time></trkpt>
<trkpt lat="48.895248413086" lon="2.8486316204071"><ele>158</ele><time>2026-5-1T7:2:24Z</time></trkpt>
<trkpt lat="48.8952293396" lon="2.8485136032104"><ele>158</ele><time>2026-5-1T7:2:27Z</time></trkpt>
<trkpt lat="48.895195007324" lon="2.8484048843384"><ele>158</ele><time>2026-5-1T7:2:30Z</time></trkpt>
<trkpt lat="48.89514541626" lon="2.848260641098"><ele>158</ele><time>2026-5-1T7:2:33Z</time></trkpt>
<trkpt lat="48.89514541626" lon="2.848260641098"><ele>158</ele><time>2026-5-1T7:2:36Z</time></trkpt>
<trkpt lat="48.895111083984" lon="2.8481361865997"><ele>159</ele><time>2026-5-1T7:2:39Z</time></trkpt>
<trkpt lat="48.895111083984" lon="2.8481361865997"><ele>159</ele><time>2026-5-1T7:2:42Z</time></trkpt>
<trkpt lat="48.895080566406" lon="2.8479754924774"><ele>159</ele><time>2026-5-1T7:2:45Z</time></trkpt>
<trkpt lat="48.895046234131" lon="2.8478643894196"><ele>159</ele><time>2026-5-1T7:2:48Z</time></trkpt>
<trkpt lat="48.894996643066" lon="2.8477177619934"><ele>159</ele><time>2026-5-1T7:2:51Z</time></trkpt>
<trkpt lat="48.894958496094" lon="2.8475787639618"><ele>158</ele><time>2026-5-1T7:2:54Z</time></trkpt>
<trkpt lat="48.89493560791" lon="2.8474962711334"><ele>158</ele><time>2026-5-1T7:2:57Z</time></trkpt>
<trkpt lat="48.894901275635" lon="2.8473303318024"><ele>158</ele><time>2026-5-1T7:3:0Z</time></trkpt>
<trkpt lat="48.894886016846" lon="2.8472437858582"><ele>157</ele><time>2026-5-1T7:3:3Z</time></trkpt>
<trkpt lat="48.894866943359" lon="2.8471591472626"><ele>157</ele><time>2026-5-1T7:3:6Z</time></trkpt>
<trkpt lat="48.89485168457" lon="2.846976518631"><ele>157</ele><time>2026-5-1T7:3:9Z</time></trkpt>
<trkpt lat="48.894828796387" lon="2.8468868732452"><ele>157</ele><time>2026-5-1T7:3:12Z</time></trkpt>
<trkpt lat="48.894798278809" lon="2.8467800617218"><ele>157</ele><time>2026-5-1T7:3:15Z</time></trkpt>
<trkpt lat="48.894771575928" lon="2.846693277359"><ele>157</ele><time>2026-5-1T7:3:18Z</time></trkpt>
<trkpt lat="48.894725799561" lon="2.846556186676"><ele>156</ele><time>2026-5-1T7:3:21Z</time></trkpt>
<trkpt lat="48.894725799561" lon="2.846556186676"><ele>156</ele><time>2026-5-1T7:3:24Z</time></trkpt>
<trkpt lat="48.894691467285" lon="2.8464486598969"><ele>156</ele><time>2026-5-1T7:3:27Z</time></trkpt>
<trkpt lat="48.894691467285" lon="2.8464486598969"><ele>156</ele><time>2026-5-1T7:3:30Z</time></trkpt>
<trkpt lat="48.894664764404" lon="2.8463218212128"><ele>156</ele><time>2026-5-1T7:3:33Z</time></trkpt>
<trkpt lat="48.894649505615" lon="2.8461871147156"><ele>156</ele><time>2026-5-1T7:3:36Z</time></trkpt>
<trkpt lat="48.894626617432" lon="2.8460609912872"><ele>155</ele><time>2026-5-1T7:3:39Z</time></trkpt>
<trkpt lat="48.894607543945" lon="2.8459560871124"><ele>155</ele><time>2026-5-1T7:3:42Z</time></trkpt>
<trkpt lat="48.894592285156" lon="2.8458614349365"><ele>155</ele><time>2026-5-1T7:3:45Z</time></trkpt>
<trkpt lat="48.894546508789" lon="2.8456904888153"><ele>154</ele><time>2026-5-1T7:3:48Z</time></trkpt>
<trkpt lat="48.894523620605" lon="2.8456087112427"><ele>153</ele><time>2026-5-1T7:3:51Z</time></trkpt>
<trkpt lat="48.89448928833" lon="2.8454458713531"><ele>152</ele><time>2026-5-1T7:3:54Z</time></trkpt>
<trkpt lat="48.894477844238" lon="2.8453576564789"><ele>152</ele><time>2026-5-1T7:3:57Z</time></trkpt>
<trkpt lat="48.894466400146" lon="2.8452677726746"><ele>151</ele><time>2026-5-1T7:4:0Z</time></trkpt>
<trkpt lat="48.894451141357" lon="2.8451747894287"><ele>151</ele><time>2026-5-1T7:4:3Z</time></trkpt>
<trkpt lat="48.894439697266" lon="2.8450763225555"><ele>150</ele><time>2026-5-1T7:4:6Z</time></trkpt>
<trkpt lat="48.894412994385" lon="2.8449757099152"><ele>150</ele><time>2026-5-1T7:4:9Z</time></trkpt>
<trkpt lat="48.894374847412" lon="2.8448560237885"><ele>149</ele><time>2026-5-1T7:4:12Z</time></trkpt>
<trkpt lat="48.894348144531" lon="2.8447182178497"><ele>149</ele><time>2026-5-1T7:4:15Z</time></trkpt>
<trkpt lat="48.894317626953" lon="2.8445971012115"><ele>148</ele><time>2026-5-1T7:4:18Z</time></trkpt>
<trkpt lat="48.894290924072" lon="2.8444809913635"><ele>148</ele><time>2026-5-1T7:4:21Z</time></trkpt>
<trkpt lat="48.894268035889" lon="2.844348192215"><ele>145</ele><time>2026-5-1T7:4:24Z</time></trkpt>
<trkpt lat="48.894233703613" lon="2.8442213535309"><ele>143</ele><time>2026-5-1T7:4:27Z</time></trkpt>
<trkpt lat="48.894199371338" lon="2.8441064357758"><ele>142</ele><time>2026-5-1T7:4:30Z</time></trkpt>
<trkpt lat="48.894176483154" lon="2.8440208435059"><ele>142</ele><time>2026-5-1T7:4:33Z</time></trkpt>
<trkpt lat="48.894176483154" lon="2.8440208435059"><ele>142</ele><time>2026-5-1T7:4:36Z</time></trkpt>
<trkpt lat="48.894145965576" lon="2.8439121246338"><ele>142</ele><time>2026-5-1T7:4:39Z</time></trkpt>
<trkpt lat="48.894145965576" lon="2.8439121246338"><ele>142</ele><time>2026-5-1T7:4:42Z</time></trkpt>
<trkpt lat="48.894145965576" lon="2.8439121246338"><ele>142</ele><time>2026-5-1T7:4:45Z</time></trkpt>
<trkpt lat="48.894191741943" lon="2.8438370227814"><ele>141</ele><time>2026-5-1T7:4:48Z</time></trkpt>
<trkpt lat="48.894191741943" lon="2.8438370227814"><ele>141</ele><time>2026-5-1T7:4:51Z</time></trkpt>
<trkpt lat="48.894191741943" lon="2.8438370227814"><ele>141</ele><time>2026-5-1T7:4:54Z</time></trkpt>
<trkpt lat="48.894260406494" lon="2.8438584804535"><ele>141</ele><time>2026-5-1T7:4:57Z</time></trkpt>
<trkpt lat="48.894260406494" lon="2.8438584804535"><ele>141</ele><time>2026-5-1T7:5:0Z</time></trkpt>
<trkpt lat="48.894367218018" lon="2.8439605236053"><ele>140</ele><time>2026-5-1T7:5:3Z</time></trkpt>
<trkpt lat="48.894424438477" lon="2.8440163135529"><ele>140</ele><time>2026-5-1T7:5:6Z</time></trkpt>
<trkpt lat="48.894504547119" lon="2.8440854549408"><ele>139</ele><time>2026-5-1T7:5:9Z</time></trkpt>
<trkpt lat="48.894577026367" lon="2.8441603183746"><ele>138</ele><time>2026-5-1T7:5:12Z</time></trkpt>
<trkpt lat="48.894672393799" lon="2.8442718982697"><ele>138</ele><time>2026-5-1T7:5:15Z</time></trkpt>
<trkpt lat="48.894733428955" lon="2.8443200588226"><ele>138</ele><time>2026-5-1T7:5:18Z</time></trkpt>
<trkpt lat="48.894805908203" lon="2.844388961792"><ele>137</ele><time>2026-5-1T7:5:21Z</time></trkpt>
<trkpt lat="48.894855499268" lon="2.8444359302521"><ele>137</ele><time>2026-5-1T7:5:24Z</time></trkpt>
<trkpt lat="48.894916534424" lon="2.844486951828"><ele>137</ele><time>2026-5-1T7:5:27Z</time></trkpt>
<trkpt lat="48.89497756958" lon="2.8445403575897"><ele>137</ele><time>2026-5-1T7:5:30Z</time></trkpt>
<trkpt lat="48.895069122314" lon="2.8446359634399"><ele>137</ele><time>2026-5-1T7:5:33Z</time></trkpt>
<trkpt lat="48.895118713379" lon="2.8447029590607"><ele>137</ele><time>2026-5-1T7:5:36Z</time></trkpt>
<trkpt lat="48.895118713379" lon="2.8447029590607"><ele>137</ele><time>2026-5-1T7:5:39Z</time></trkpt>
<trkpt lat="48.895198822021" lon="2.8447461128235"><ele>137</ele><time>2026-5-1T7:5:42Z</time></trkpt>
<trkpt lat="48.895198822021" lon="2.8447461128235"><ele>137</ele><time>2026-5-1T7:5:45Z</time></trkpt>
<trkpt lat="48.895236968994" lon="2.8447306156158"><ele>137</ele><time>2026-5-1T7:5:48Z</time></trkpt>
<trkpt lat="48.895267486572" lon="2.8447036743164"><ele>138</ele><time>2026-5-1T7:5:51Z</time></trkpt>
<trkpt lat="48.895294189453" lon="2.8446686267853"><ele>138</ele><time>2026-5-1T7:5:54Z</time></trkpt>
<trkpt lat="48.895324707031" lon="2.8446290493011"><ele>138</ele><time>2026-5-1T7:5:57Z</time></trkpt>
<trkpt lat="48.895362854004" lon="2.8445889949799"><ele>137</ele><time>2026-5-1T7:6:0Z</time></trkpt>
<trkpt lat="48.895450592041" lon="2.8445391654968"><ele>137</ele><time>2026-5-1T7:6:3Z</time></trkpt>
<trkpt lat="48.895530700684" lon="2.8445897102356"><ele>137</ele><time>2026-5-1T7:6:6Z</time></trkpt>
<trkpt lat="48.895576477051" lon="2.8446428775787"><ele>137</ele><time>2026-5-1T7:6:9Z</time></trkpt>
<trkpt lat="48.89567565918" lon="2.8447194099426"><ele>137</ele><time>2026-5-1T7:6:12Z</time></trkpt>
<trkpt lat="48.895748138428" lon="2.8447721004486"><ele>137</ele><time>2026-5-1T7:6:15Z</time></trkpt>
<trkpt lat="48.895797729492" lon="2.8448135852814"><ele>137</ele><time>2026-5-1T7:6:18Z</time></trkpt>
<trkpt lat="48.895851135254" lon="2.8448703289032"><ele>137</ele><time>2026-5-1T7:6:21Z</time></trkpt>
<trkpt lat="48.895893096924" lon="2.8450226783752"><ele>137</ele><time>2026-5-1T7:6:24Z</time></trkpt>
<trkpt lat="48.895896911621" lon="2.8451223373413"><ele>138</ele><time>2026-5-1T7:6:27Z</time></trkpt>
<trkpt lat="48.895896911621" lon="2.8451223373413"><ele>138</ele><time>2026-5-1T7:6:30Z</time></trkpt>
<trkpt lat="48.89587020874" lon="2.8452458381653"><ele>138</ele><time>2026-5-1T7:6:33Z</time></trkpt>
<trkpt lat="48.89587020874" lon="2.8452458381653"><ele>138</ele><time>2026-5-1T7:6:36Z</time></trkpt>
<trkpt lat="48.89587020874" lon="2.8453693389893"><ele>138</ele><time>2026-5-1T7:6:39Z</time></trkpt>
<trkpt lat="48.89587020874" lon="2.8453693389893"><ele>138</ele><time>2026-5-1T7:6:42Z</time></trkpt>
<trkpt lat="48.895931243896" lon="2.8454537391663"><ele>138</ele><time>2026-5-1T7:6:45Z</time></trkpt>
<trkpt lat="48.895931243896" lon="2.8454537391663"><ele>138</ele><time>2026-5-1T7:6:48Z</time></trkpt>
<trkpt lat="48.895999908447" lon="2.8455104827881"><ele>138</ele><time>2026-5-1T7:6:51Z</time></trkpt>
<trkpt lat="48.895999908447" lon="2.8455104827881"><ele>138</ele><time>2026-5-1T7:6:54Z</time></trkpt>
<trkpt lat="48.896060943604" lon="2.8455667495728"><ele>139</ele><time>2026-5-1T7:6:57Z</time></trkpt>
<trkpt lat="48.896156311035" lon="2.8456809520721"><ele>139</ele><time>2026-5-1T7:7:0Z</time></trkpt>
<trkpt lat="48.896213531494" lon="2.845752954483"><ele>139</ele><time>2026-5-1T7:7:3Z</time></trkpt>
<trkpt lat="48.896263122559" lon="2.8458075523376"><ele>139</ele><time>2026-5-1T7:7:6Z</time></trkpt>
<trkpt lat="48.896327972412" lon="2.8458888530731"><ele>139</ele><time>2026-5-1T7:7:9Z</time></trkpt>
<trkpt lat="48.896389007568" lon="2.8459677696228"><ele>139</ele><time>2026-5-1T7:7:12Z</time></trkpt>
<trkpt lat="48.896450042725" lon="2.8460490703583"><ele>139</ele><time>2026-5-1T7:7:15Z</time></trkpt>
<trkpt lat="48.896503448486" lon="2.8461332321167"><ele>139</ele><time>2026-5-1T7:7:18Z</time></trkpt>
<trkpt lat="48.896545410156" lon="2.8462021350861"><ele>139</ele><time>2026-5-1T7:7:21Z</time></trkpt>
<trkpt lat="48.896614074707" lon="2.8463006019592"><ele>139</ele><time>2026-5-1T7:7:24Z</time></trkpt>
<trkpt lat="48.896667480469" lon="2.8463408946991"><ele>139</ele><time>2026-5-1T7:7:27Z</time></trkpt>
<trkpt lat="48.896732330322" lon="2.8463652133942"><ele>140</ele><time>2026-5-1T7:7:30Z</time></trkpt>
<trkpt lat="48.896732330322" lon="2.8463652133942"><ele>140</ele><time>2026-5-1T7:7:33Z</time></trkpt>
<trkpt lat="48.896835327148" lon="2.8464496135712"><ele>141</ele><time>2026-5-1T7:7:36Z</time></trkpt>
<trkpt lat="48.896884918213" lon="2.8465316295624"><ele>141</ele><time>2026-5-1T7:7:39Z</time></trkpt>
<trkpt lat="48.896976470947" lon="2.8466246128082"><ele>141</ele><time>2026-5-1T7:7:42Z</time></trkpt>
<trkpt lat="48.897029876709" lon="2.8466858863831"><ele>142</ele><time>2026-5-1T7:7:45Z</time></trkpt>
<trkpt lat="48.897079467773" lon="2.8467464447021"><ele>142</ele><time>2026-5-1T7:7:48Z</time></trkpt>
<trkpt lat="48.897132873535" lon="2.8468134403229"><ele>142</ele><time>2026-5-1T7:7:51Z</time></trkpt>
<trkpt lat="48.897178649902" lon="2.8468701839447"><ele>142</ele><time>2026-5-1T7:7:54Z</time></trkpt>
<trkpt lat="48.897178649902" lon="2.8468701839447"><ele>142</ele><time>2026-5-1T7:7:57Z</time></trkpt>
<trkpt lat="48.897274017334" lon="2.8469693660736"><ele>142</ele><time>2026-5-1T7:8:0Z</time></trkpt>
<trkpt lat="48.897342681885" lon="2.8470182418823"><ele>142</ele><time>2026-5-1T7:8:3Z</time></trkpt>
<trkpt lat="48.897342681885" lon="2.8470182418823"><ele>142</ele><time>2026-5-1T7:8:6Z</time></trkpt>
<trkpt lat="48.897434234619" lon="2.8471081256866"><ele>143</ele><time>2026-5-1T7:8:9Z</time></trkpt>
<trkpt lat="48.897434234619" lon="2.8471081256866"><ele>143</ele><time>2026-5-1T7:8:12Z</time></trkpt>
<trkpt lat="48.897506713867" lon="2.8471839427948"><ele>143</ele><time>2026-5-1T7:8:15Z</time></trkpt>
<trkpt lat="48.897556304932" lon="2.847243309021"><ele>143</ele><time>2026-5-1T7:8:18Z</time></trkpt>
<trkpt lat="48.897609710693" lon="2.8472919464111"><ele>143</ele><time>2026-5-1T7:8:21Z</time></trkpt>
<trkpt lat="48.897609710693" lon="2.8472919464111"><ele>143</ele><time>2026-5-1T7:8:24Z</time></trkpt>
<trkpt lat="48.897708892822" lon="2.8474009037018"><ele>143</ele><time>2026-5-1T7:8:27Z</time></trkpt>
<trkpt lat="48.897808074951" lon="2.8475205898285"><ele>143</ele><time>2026-5-1T7:8:30Z</time></trkpt>
<trkpt lat="48.897876739502" lon="2.8475861549377"><ele>143</ele><time>2026-5-1T7:8:33Z</time></trkpt>
<trkpt lat="48.897941589355" lon="2.847626209259"><ele>143</ele><time>2026-5-1T7:8:36Z</time></trkpt>
<trkpt lat="48.897994995117" lon="2.8476667404175"><ele>143</ele><time>2026-5-1T7:8:39Z</time></trkpt>
<trkpt lat="48.898063659668" lon="2.8477141857147"><ele>143</ele><time>2026-5-1T7:8:42Z</time></trkpt>
<trkpt lat="48.898132324219" lon="2.8477590084076"><ele>143</ele><time>2026-5-1T7:8:45Z</time></trkpt>
<trkpt lat="48.898239135742" lon="2.8478231430054"><ele>143</ele><time>2026-5-1T7:8:48Z</time></trkpt>
<trkpt lat="48.898239135742" lon="2.8478231430054"><ele>143</ele><time>2026-5-1T7:8:51Z</time></trkpt>
<trkpt lat="48.898334503174" lon="2.8478956222534"><ele>143</ele><time>2026-5-1T7:8:54Z</time></trkpt>
<trkpt lat="48.898334503174" lon="2.8478956222534"><ele>143</ele><time>2026-5-1T7:8:57Z</time></trkpt>
<trkpt lat="48.898422241211" lon="2.84796667099"><ele>143</ele><time>2026-5-1T7:9:0Z</time></trkpt>
<trkpt lat="48.898422241211" lon="2.84796667099"><ele>143</ele><time>2026-5-1T7:9:3Z</time></trkpt>
<trkpt lat="48.898529052734" lon="2.8480381965637"><ele>143</ele><time>2026-5-1T7:9:6Z</time></trkpt>
<trkpt lat="48.898578643799" lon="2.8480834960938"><ele>143</ele><time>2026-5-1T7:9:9Z</time></trkpt>
<trkpt lat="48.898632049561" lon="2.848128080368"><ele>143</ele><time>2026-5-1T7:9:12Z</time></trkpt>
<trkpt lat="48.89868927002" lon="2.8481733798981"><ele>143</ele><time>2026-5-1T7:9:15Z</time></trkpt>
<trkpt lat="48.898750305176" lon="2.8482227325439"><ele>143</ele><time>2026-5-1T7:9:18Z</time></trkpt>
<trkpt lat="48.898815155029" lon="2.8482830524445"><ele>143</ele><time>2026-5-1T7:9:21Z</time></trkpt>
<trkpt lat="48.898872375488" lon="2.8483400344849"><ele>143</ele><time>2026-5-1T7:9:24Z</time></trkpt>
<trkpt lat="48.898963928223" lon="2.8484299182892"><ele>143</ele><time>2026-5-1T7:9:27Z</time></trkpt>
<trkpt lat="48.898963928223" lon="2.8484299182892"><ele>143</ele><time>2026-5-1T7:9:30Z</time></trkpt>
<trkpt lat="48.899047851562" lon="2.8485095500946"><ele>143</ele><time>2026-5-1T7:9:33Z</time></trkpt>
<trkpt lat="48.899047851562" lon="2.8485095500946"><ele>143</ele><time>2026-5-1T7:9:36Z</time></trkpt>
<trkpt lat="48.899127960205" lon="2.8485953807831"><ele>143</ele><time>2026-5-1T7:9:39Z</time></trkpt>
<trkpt lat="48.899127960205" lon="2.8485953807831"><ele>143</ele><time>2026-5-1T7:9:42Z</time></trkpt>
<trkpt lat="48.899208068848" lon="2.8486969470978"><ele>143</ele><time>2026-5-1T7:9:45Z</time></trkpt>
<trkpt lat="48.899208068848" lon="2.8486969470978"><ele>143</ele><time>2026-5-1T7:9:48Z</time></trkpt>
<trkpt lat="48.899295806885" lon="2.8488001823425"><ele>143</ele><time>2026-5-1T7:9:51Z</time></trkpt>
<trkpt lat="48.899349212646" lon="2.8488564491272"><ele>143</ele><time>2026-5-1T7:9:54Z</time></trkpt>
<trkpt lat="48.899398803711" lon="2.8489153385162"><ele>143</ele><time>2026-5-1T7:9:57Z</time></trkpt>
<trkpt lat="48.899459838867" lon="2.848979473114"><ele>143</ele><time>2026-5-1T7:10:0Z</time></trkpt>
<trkpt lat="48.899524688721" lon="2.8490347862244"><ele>142</ele><time>2026-5-1T7:10:3Z</time></trkpt>
<trkpt lat="48.899524688721" lon="2.8490347862244"><ele>142</ele><time>2026-5-1T7:10:6Z</time></trkpt>
<trkpt lat="48.899597167969" lon="2.8490512371063"><ele>143</ele><time>2026-5-1T7:10:9Z</time></trkpt>
<trkpt lat="48.899597167969" lon="2.8490512371063"><ele>143</ele><time>2026-5-1T7:10:12Z</time></trkpt>
<trkpt lat="48.899597167969" lon="2.8490512371063"><ele>143</ele><time>2026-5-1T7:10:15Z</time></trkpt>
<trkpt lat="48.899646759033" lon="2.8488900661469"><ele>142</ele><time>2026-5-1T7:10:18Z</time></trkpt>
<trkpt lat="48.89966583252" lon="2.8486878871918"><ele>141</ele><time>2026-5-1T7:10:21Z</time></trkpt>
<trkpt lat="48.899681091309" lon="2.8485097885132"><ele>140</ele><time>2026-5-1T7:10:24Z</time></trkpt>
<trkpt lat="48.899700164795" lon="2.8483147621155"><ele>139</ele><time>2026-5-1T7:10:27Z</time></trkpt>
<trkpt lat="48.899715423584" lon="2.8481149673462"><ele>138</ele><time>2026-5-1T7:10:30Z</time></trkpt>
<trkpt lat="48.89973449707" lon="2.8479018211365"><ele>137</ele><time>2026-5-1T7:10:33Z</time></trkpt>
<trkpt lat="48.89973449707" lon="2.8476960659027"><ele>137</ele><time>2026-5-1T7:10:36Z</time></trkpt>
<trkpt lat="48.899730682373" lon="2.8475248813629"><ele>136</ele><time>2026-5-1T7:10:39Z</time></trkpt>
<trkpt lat="48.899757385254" lon="2.8473796844482"><ele>135</ele><time>2026-5-1T7:10:42Z</time></trkpt>
<trkpt lat="48.899826049805" lon="2.8473188877106"><ele>135</ele><time>2026-5-1T7:10:45Z</time></trkpt>
<trkpt lat="48.899990081787" lon="2.8474028110504"><ele>135</ele><time>2026-5-1T7:10:48Z</time></trkpt>
<trkpt lat="48.900074005127" lon="2.8474478721619"><ele>136</ele><time>2026-5-1T7:10:51Z</time></trkpt>
<trkpt lat="48.900157928467" lon="2.8475043773651"><ele>136</ele><time>2026-5-1T7:10:54Z</time></trkpt>
<trkpt lat="48.900241851807" lon="2.8475594520569"><ele>136</ele><time>2026-5-1T7:10:57Z</time></trkpt>
<trkpt lat="48.900318145752" lon="2.8476059436798"><ele>135</ele><time>2026-5-1T7:11:0Z</time></trkpt>
<trkpt lat="48.900394439697" lon="2.8476493358612"><ele>135</ele><time>2026-5-1T7:11:3Z</time></trkpt>
<trkpt lat="48.900459289551" lon="2.8476877212524"><ele>136</ele><time>2026-5-1T7:11:6Z</time></trkpt>
<trkpt lat="48.90051651001" lon="2.8477337360382"><ele>136</ele><time>2026-5-1T7:11:9Z</time></trkpt>
<trkpt lat="48.900588989258" lon="2.8477857112885"><ele>136</ele><time>2026-5-1T7:11:12Z</time></trkpt>
<trkpt lat="48.900650024414" lon="2.8478198051453"><ele>136</ele><time>2026-5-1T7:11:15Z</time></trkpt>
<trkpt lat="48.900726318359" lon="2.8478584289551"><ele>136</ele><time>2026-5-1T7:11:18Z</time></trkpt>
<trkpt lat="48.900810241699" lon="2.8479089736938"><ele>136</ele><time>2026-5-1T7:11:21Z</time></trkpt>
<trkpt lat="48.900886535645" lon="2.8479566574097"><ele>137</ele><time>2026-5-1T7:11:24Z</time></trkpt>
<trkpt lat="48.900959014893" lon="2.8480021953583"><ele>137</ele><time>2026-5-1T7:11:27Z</time></trkpt>
<trkpt lat="48.901035308838" lon="2.848048210144"><ele>137</ele><time>2026-5-1T7:11:30Z</time></trkpt>
<trkpt lat="48.90111541748" lon="2.848087310791"><ele>138</ele><time>2026-5-1T7:11:33Z</time></trkpt>
<trkpt lat="48.901191711426" lon="2.8481273651123"><ele>138</ele><time>2026-5-1T7:11:36Z</time></trkpt>
<trkpt lat="48.901260375977" lon="2.8481669425964"><ele>138</ele><time>2026-5-1T7:11:39Z</time></trkpt>
<trkpt lat="48.901340484619" lon="2.8482205867767"><ele>138</ele><time>2026-5-1T7:11:42Z</time></trkpt>
<trkpt lat="48.901454925537" lon="2.8482942581177"><ele>138</ele><time>2026-5-1T7:11:45Z</time></trkpt>
<trkpt lat="48.901557922363" lon="2.848352432251"><ele>137</ele><time>2026-5-1T7:11:48Z</time></trkpt>
<trkpt lat="48.901638031006" lon="2.8483927249908"><ele>137</ele><time>2026-5-1T7:11:51Z</time></trkpt>
<trkpt lat="48.901710510254" lon="2.8484270572662"><ele>137</ele><time>2026-5-1T7:11:54Z</time></trkpt>
<trkpt lat="48.901779174805" lon="2.848461151123"><ele>137</ele><time>2026-5-1T7:11:57Z</time></trkpt>
<trkpt lat="48.901851654053" lon="2.8484971523285"><ele>137</ele><time>2026-5-1T7:12:0Z</time></trkpt>
<trkpt lat="48.901916503906" lon="2.8485331535339"><ele>137</ele><time>2026-5-1T7:12:3Z</time></trkpt>
<trkpt lat="48.901969909668" lon="2.8485677242279"><ele>137</ele><time>2026-5-1T7:12:6Z</time></trkpt>
<trkpt lat="48.901969909668" lon="2.8485677242279"><ele>137</ele><time>2026-5-1T7:12:9Z</time></trkpt>
<trkpt lat="48.902027130127" lon="2.8485972881317"><ele>137</ele><time>2026-5-1T7:12:12Z</time></trkpt>
<trkpt lat="48.90217590332" lon="2.8487155437469"><ele>136</ele><time>2026-5-1T7:12:15Z</time></trkpt>
<trkpt lat="48.902275085449" lon="2.8487942218781"><ele>135</ele><time>2026-5-1T7:12:18Z</time></trkpt>
<trkpt lat="48.902336120605" lon="2.8488347530365"><ele>135</ele><time>2026-5-1T7:12:21Z</time></trkpt>
<trkpt lat="48.902393341064" lon="2.8488745689392"><ele>135</ele><time>2026-5-1T7:12:24Z</time></trkpt>
<trkpt lat="48.902481079102" lon="2.8489332199097"><ele>134</ele><time>2026-5-1T7:12:27Z</time></trkpt>
<trkpt lat="48.902534484863" lon="2.8489947319031"><ele>134</ele><time>2026-5-1T7:12:30Z</time></trkpt>
<trkpt lat="48.902603149414" lon="2.8490509986877"><ele>133</ele><time>2026-5-1T7:12:33Z</time></trkpt>
<trkpt lat="48.90266418457" lon="2.8490927219391"><ele>133</ele><time>2026-5-1T7:12:36Z</time></trkpt>
<trkpt lat="48.902744293213" lon="2.8491358757019"><ele>132</ele><time>2026-5-1T7:12:39Z</time></trkpt>
<trkpt lat="48.902820587158" lon="2.8491685390472"><ele>132</ele><time>2026-5-1T7:12:42Z</time></trkpt>
<trkpt lat="48.902820587158" lon="2.8491685390472"><ele>132</ele><time>2026-5-1T7:12:45Z</time></trkpt>
<trkpt lat="48.902927398682" lon="2.8492341041565"><ele>132</ele><time>2026-5-1T7:12:48Z</time></trkpt>
<trkpt lat="48.902927398682" lon="2.8492341041565"><ele>132</ele><time>2026-5-1T7:12:51Z</time></trkpt>
<trkpt lat="48.903018951416" lon="2.8493137359619"><ele>131</ele><time>2026-5-1T7:12:54Z</time></trkpt>
<trkpt lat="48.903072357178" lon="2.8493478298187"><ele>130</ele><time>2026-5-1T7:12:57Z</time></trkpt>
<trkpt lat="48.903072357178" lon="2.8493478298187"><ele>130</ele><time>2026-5-1T7:13:0Z</time></trkpt>
<trkpt lat="48.903163909912" lon="2.8493914604187"><ele>129</ele><time>2026-5-1T7:13:3Z</time></trkpt>
<trkpt lat="48.903163909912" lon="2.8493914604187"><ele>129</ele><time>2026-5-1T7:13:6Z</time></trkpt>
<trkpt lat="48.903511047363" lon="2.8493807315826"><ele>127</ele><time>2026-5-1T7:13:9Z</time></trkpt>
<trkpt lat="48.903533935547" lon="2.8492996692657"><ele>127</ele><time>2026-5-1T7:13:12Z</time></trkpt>
<trkpt lat="48.903553009033" lon="2.8492181301117"><ele>126</ele><time>2026-5-1T7:13:15Z</time></trkpt>
<trkpt lat="48.90357208252" lon="2.8491370677948"><ele>126</ele><time>2026-5-1T7:13:18Z</time></trkpt>
<trkpt lat="48.9035987854" lon="2.8490583896637"><ele>125</ele><time>2026-5-1T7:13:21Z</time></trkpt>
<trkpt lat="48.903633117676" lon="2.8489720821381"><ele>124</ele><time>2026-5-1T7:13:24Z</time></trkpt>
<trkpt lat="48.903667449951" lon="2.8488912582397"><ele>123</ele><time>2026-5-1T7:13:27Z</time></trkpt>
<trkpt lat="48.903701782227" lon="2.848804473877"><ele>123</ele><time>2026-5-1T7:13:30Z</time></trkpt>
<trkpt lat="48.903743743896" lon="2.8487131595612"><ele>122</ele><time>2026-5-1T7:13:33Z</time></trkpt>
<trkpt lat="48.903774261475" lon="2.8486111164093"><ele>122</ele><time>2026-5-1T7:13:36Z</time></trkpt>
<trkpt lat="48.903774261475" lon="2.8486111164093"><ele>122</ele><time>2026-5-1T7:13:39Z</time></trkpt>
<trkpt lat="48.903812408447" lon="2.8484494686127"><ele>120</ele><time>2026-5-1T7:13:42Z</time></trkpt>
<trkpt lat="48.903812408447" lon="2.8484494686127"><ele>120</ele><time>2026-5-1T7:13:45Z</time></trkpt>
<trkpt lat="48.903839111328" lon="2.8483066558838"><ele>119</ele><time>2026-5-1T7:13:48Z</time></trkpt>
<trkpt lat="48.903839111328" lon="2.8483066558838"><ele>119</ele><time>2026-5-1T7:13:51Z</time></trkpt>
<trkpt lat="48.903839111328" lon="2.8483066558838"><ele>119</ele><time>2026-5-1T7:13:54Z</time></trkpt>
<trkpt lat="48.903839111328" lon="2.8481965065002"><ele>117</ele><time>2026-5-1T7:13:57Z</time></trkpt>
<trkpt lat="48.904041290283" lon="2.8482654094696"><ele>109</ele><time>2026-5-1T7:14:0Z</time></trkpt>
<trkpt lat="48.904411315918" lon="2.8485512733459"><ele>106</ele><time>2026-5-1T7:14:3Z</time></trkpt>
<trkpt lat="48.904495239258" lon="2.8486166000366"><ele>106</ele><time>2026-5-1T7:14:6Z</time></trkpt>
<trkpt lat="48.904594421387" lon="2.8487181663513"><ele>105</ele><time>2026-5-1T7:14:9Z</time></trkpt>
<trkpt lat="48.904647827148" lon="2.8487823009491"><ele>105</ele><time>2026-5-1T7:14:12Z</time></trkpt>
<trkpt lat="48.904697418213" lon="2.848837852478"><ele>104</ele><time>2026-5-1T7:14:15Z</time></trkpt>
<trkpt lat="48.904754638672" lon="2.8488919734955"><ele>103</ele><time>2026-5-1T7:14:18Z</time></trkpt>
<trkpt lat="48.904800415039" lon="2.8489418029785"><ele>103</ele><time>2026-5-1T7:14:21Z</time></trkpt>
<trkpt lat="48.904891967773" lon="2.8490262031555"><ele>102</ele><time>2026-5-1T7:14:24Z</time></trkpt>
<trkpt lat="48.904956817627" lon="2.8490810394287"><ele>101</ele><time>2026-5-1T7:14:27Z</time></trkpt>
<trkpt lat="48.905025482178" lon="2.849137544632"><ele>101</ele><time>2026-5-1T7:14:30Z</time></trkpt>
<trkpt lat="48.905101776123" lon="2.8491859436035"><ele>100</ele><time>2026-5-1T7:14:33Z</time></trkpt>
<trkpt lat="48.90518951416" lon="2.8492360115051"><ele>100</ele><time>2026-5-1T7:14:36Z</time></trkpt>
<trkpt lat="48.905250549316" lon="2.8492722511292"><ele>100</ele><time>2026-5-1T7:14:39Z</time></trkpt>
<trkpt lat="48.90531539917" lon="2.849317073822"><ele>99</ele><time>2026-5-1T7:14:42Z</time></trkpt>
<trkpt lat="48.905387878418" lon="2.8493676185608"><ele>99</ele><time>2026-5-1T7:14:45Z</time></trkpt>
<trkpt lat="48.905452728271" lon="2.8494212627411"><ele>99</ele><time>2026-5-1T7:14:48Z</time></trkpt>
<trkpt lat="48.905555725098" lon="2.8494961261749"><ele>98</ele><time>2026-5-1T7:14:51Z</time></trkpt>
<trkpt lat="48.905620574951" lon="2.8495447635651"><ele>97</ele><time>2026-5-1T7:14:54Z</time></trkpt>
<trkpt lat="48.905696868896" lon="2.8496024608612"><ele>97</ele><time>2026-5-1T7:14:57Z</time></trkpt>
<trkpt lat="48.905780792236" lon="2.8496696949005"><ele>97</ele><time>2026-5-1T7:15:0Z</time></trkpt>
<trkpt lat="48.905868530273" lon="2.8497376441956"><ele>96</ele><time>2026-5-1T7:15:3Z</time></trkpt>
<trkpt lat="48.905956268311" lon="2.8498013019562"><ele>96</ele><time>2026-5-1T7:15:6Z</time></trkpt>
<trkpt lat="48.906024932861" lon="2.849858045578"><ele>96</ele><time>2026-5-1T7:15:9Z</time></trkpt>
<trkpt lat="48.906024932861" lon="2.849858045578"><ele>96</ele><time>2026-5-1T7:15:12Z</time></trkpt>
<trkpt lat="48.906127929688" lon="2.8499295711517"><ele>96</ele><time>2026-5-1T7:15:15Z</time></trkpt>
<trkpt lat="48.906185150146" lon="2.8499746322632"><ele>96</ele><time>2026-5-1T7:15:18Z</time></trkpt>
<trkpt lat="48.90625" lon="2.8500289916992"><ele>96</ele><time>2026-5-1T7:15:21Z</time></trkpt>
<trkpt lat="48.906314849854" lon="2.8500800132751"><ele>96</ele><time>2026-5-1T7:15:24Z</time></trkpt>
<trkpt lat="48.906372070312" lon="2.8501272201538"><ele>96</ele><time>2026-5-1T7:15:27Z</time></trkpt>
<trkpt lat="48.906429290771" lon="2.8501839637756"><ele>96</ele><time>2026-5-1T7:15:30Z</time></trkpt>
<trkpt lat="48.906478881836" lon="2.8502485752106"><ele>96</ele><time>2026-5-1T7:15:33Z</time></trkpt>
<trkpt lat="48.906524658203" lon="2.8503050804138"><ele>96</ele><time>2026-5-1T7:15:36Z</time></trkpt>
<trkpt lat="48.906524658203" lon="2.8503050804138"><ele>96</ele><time>2026-5-1T7:15:39Z</time></trkpt>
<trkpt lat="48.906623840332" lon="2.8504309654236"><ele>94</ele><time>2026-5-1T7:15:42Z</time></trkpt>
<trkpt lat="48.906688690186" lon="2.8505148887634"><ele>94</ele><time>2026-5-1T7:15:45Z</time></trkpt>
<trkpt lat="48.906749725342" lon="2.8505823612213"><ele>94</ele><time>2026-5-1T7:15:48Z</time></trkpt>
<trkpt lat="48.906799316406" lon="2.8506376743317"><ele>94</ele><time>2026-5-1T7:15:51Z</time></trkpt>
<trkpt lat="48.906879425049" lon="2.8507299423218"><ele>94</ele><time>2026-5-1T7:15:54Z</time></trkpt>
<trkpt lat="48.906879425049" lon="2.8507299423218"><ele>94</ele><time>2026-5-1T7:15:57Z</time></trkpt>
<trkpt lat="48.906879425049" lon="2.8507299423218"><ele>94</ele><time>2026-5-1T7:16:0Z</time></trkpt>
<trkpt lat="48.906879425049" lon="2.8507299423218"><ele>94</ele><time>2026-5-1T7:16:3Z</time></trkpt>
<trkpt lat="48.906997680664" lon="2.8507993221283"><ele>94</ele><time>2026-5-1T7:16:6Z</time></trkpt>
<trkpt lat="48.907085418701" lon="2.8507239818573"><ele>94</ele><time>2026-5-1T7:16:9Z</time></trkpt>
<trkpt lat="48.90714263916" lon="2.8506543636322"><ele>94</ele><time>2026-5-1T7:16:12Z</time></trkpt>
<trkpt lat="48.907199859619" lon="2.8505797386169"><ele>94</ele><time>2026-5-1T7:16:15Z</time></trkpt>
<trkpt lat="48.907264709473" lon="2.8505034446716"><ele>93</ele><time>2026-5-1T7:16:18Z</time></trkpt>
<trkpt lat="48.907333374023" lon="2.8504252433777"><ele>93</ele><time>2026-5-1T7:16:21Z</time></trkpt>
<trkpt lat="48.907405853271" lon="2.8503592014313"><ele>93</ele><time>2026-5-1T7:16:24Z</time></trkpt>
<trkpt lat="48.907466888428" lon="2.8502979278564"><ele>93</ele><time>2026-5-1T7:16:27Z</time></trkpt>
<trkpt lat="48.907531738281" lon="2.8502378463745"><ele>93</ele><time>2026-5-1T7:16:30Z</time></trkpt>
<trkpt lat="48.907608032227" lon="2.8501734733582"><ele>93</ele><time>2026-5-1T7:16:33Z</time></trkpt>
<trkpt lat="48.90767288208" lon="2.8501191139221"><ele>93</ele><time>2026-5-1T7:16:36Z</time></trkpt>
<trkpt lat="48.907726287842" lon="2.850070476532"><ele>93</ele><time>2026-5-1T7:16:39Z</time></trkpt>
<trkpt lat="48.907791137695" lon="2.8500204086304"><ele>93</ele><time>2026-5-1T7:16:42Z</time></trkpt>
<trkpt lat="48.907844543457" lon="2.8499736785889"><ele>93</ele><time>2026-5-1T7:16:45Z</time></trkpt>
<trkpt lat="48.907897949219" lon="2.84992146492"><ele>93</ele><time>2026-5-1T7:16:48Z</time></trkpt>
<trkpt lat="48.90795135498" lon="2.8498740196228"><ele>93</ele><time>2026-5-1T7:16:51Z</time></trkpt>
<trkpt lat="48.908000946045" lon="2.8498256206512"><ele>93</ele><time>2026-5-1T7:16:54Z</time></trkpt>
<trkpt lat="48.908054351807" lon="2.8497712612152"><ele>93</ele><time>2026-5-1T7:16:57Z</time></trkpt>
<trkpt lat="48.908103942871" lon="2.8497216701508"><ele>93</ele><time>2026-5-1T7:17:0Z</time></trkpt>
<trkpt lat="48.908103942871" lon="2.8497216701508"><ele>93</ele><time>2026-5-1T7:17:3Z</time></trkpt>
<trkpt lat="48.908187866211" lon="2.8496081829071"><ele>93</ele><time>2026-5-1T7:17:6Z</time></trkpt>
<trkpt lat="48.908226013184" lon="2.8495266437531"><ele>93</ele><time>2026-5-1T7:17:9Z</time></trkpt>
<trkpt lat="48.908226013184" lon="2.8495266437531"><ele>93</ele><time>2026-5-1T7:17:12Z</time></trkpt>
<trkpt lat="48.908267974854" lon="2.8493840694427"><ele>94</ele><time>2026-5-1T7:17:15Z</time></trkpt>
<trkpt lat="48.908267974854" lon="2.8493840694427"><ele>94</ele><time>2026-5-1T7:17:18Z</time></trkpt>
<trkpt lat="48.908283233643" lon="2.8492558002472"><ele>95</ele><time>2026-5-1T7:17:21Z</time></trkpt>
<trkpt lat="48.908283233643" lon="2.8492558002472"><ele>95</ele><time>2026-5-1T7:17:24Z</time></trkpt>
<trkpt lat="48.908290863037" lon="2.8491680622101"><ele>96</ele><time>2026-5-1T7:17:27Z</time></trkpt>
<trkpt lat="48.908290863037" lon="2.8491680622101"><ele>96</ele><time>2026-5-1T7:17:30Z</time></trkpt>
<trkpt lat="48.908309936523" lon="2.8490238189697"><ele>96</ele><time>2026-5-1T7:17:33Z</time></trkpt>
<trkpt lat="48.908309936523" lon="2.8490238189697"><ele>96</ele><time>2026-5-1T7:17:36Z</time></trkpt>
<trkpt lat="48.908340454102" lon="2.8489389419556"><ele>96</ele><time>2026-5-1T7:17:39Z</time></trkpt>
<trkpt lat="48.908340454102" lon="2.8489389419556"><ele>96</ele><time>2026-5-1T7:17:42Z</time></trkpt>
<trkpt lat="48.908340454102" lon="2.8489389419556"><ele>96</ele><time>2026-5-1T7:17:45Z</time></trkpt>
<trkpt lat="48.90841293335" lon="2.8489503860474"><ele>97</ele><time>2026-5-1T7:17:48Z</time></trkpt>
<trkpt lat="48.90841293335" lon="2.8489503860474"><ele>97</ele><time>2026-5-1T7:17:51Z</time></trkpt>
<trkpt lat="48.908500671387" lon="2.8490085601807"><ele>97</ele><time>2026-5-1T7:17:54Z</time></trkpt>
<trkpt lat="48.908569335938" lon="2.8490424156189"><ele>97</ele><time>2026-5-1T7:17:57Z</time></trkpt>
<trkpt lat="48.908645629883" lon="2.8490841388702"><ele>97</ele><time>2026-5-1T7:18:0Z</time></trkpt>
<trkpt lat="48.908721923828" lon="2.8491220474243"><ele>97</ele><time>2026-5-1T7:18:3Z</time></trkpt>
<trkpt lat="48.908809661865" lon="2.8491621017456"><ele>97</ele><time>2026-5-1T7:18:6Z</time></trkpt>
<trkpt lat="48.908905029297" lon="2.8491938114166"><ele>97</ele><time>2026-5-1T7:18:9Z</time></trkpt>
<trkpt lat="48.908992767334" lon="2.849223613739"><ele>97</ele><time>2026-5-1T7:18:12Z</time></trkpt>
<trkpt lat="48.909103393555" lon="2.8492681980133"><ele>97</ele><time>2026-5-1T7:18:15Z</time></trkpt>
<trkpt lat="48.909191131592" lon="2.8492956161499"><ele>97</ele><time>2026-5-1T7:18:18Z</time></trkpt>
<trkpt lat="48.909267425537" lon="2.8493223190308"><ele>97</ele><time>2026-5-1T7:18:21Z</time></trkpt>
<trkpt lat="48.909328460693" lon="2.8493511676788"><ele>97</ele><time>2026-5-1T7:18:24Z</time></trkpt>
<trkpt lat="48.909381866455" lon="2.8493759632111"><ele>97</ele><time>2026-5-1T7:18:27Z</time></trkpt>
<trkpt lat="48.909446716309" lon="2.8494033813477"><ele>97</ele><time>2026-5-1T7:18:30Z</time></trkpt>
<trkpt lat="48.909530639648" lon="2.8494329452515"><ele>97</ele><time>2026-5-1T7:18:33Z</time></trkpt>
<trkpt lat="48.909618377686" lon="2.8494689464569"><ele>97</ele><time>2026-5-1T7:18:36Z</time></trkpt>
<trkpt lat="48.909698486328" lon="2.8495011329651"><ele>97</ele><time>2026-5-1T7:18:39Z</time></trkpt>
<trkpt lat="48.909778594971" lon="2.8495221138"><ele>97</ele><time>2026-5-1T7:18:42Z</time></trkpt>
<trkpt lat="48.909839630127" lon="2.8495378494263"><ele>97</ele><time>2026-5-1T7:18:45Z</time></trkpt>
<trkpt lat="48.909900665283" lon="2.8495559692383"><ele>97</ele><time>2026-5-1T7:18:48Z</time></trkpt>
<trkpt lat="48.909969329834" lon="2.8495790958405"><ele>97</ele><time>2026-5-1T7:18:51Z</time></trkpt>
<trkpt lat="48.910041809082" lon="2.8496029376984"><ele>97</ele><time>2026-5-1T7:18:54Z</time></trkpt>
<trkpt lat="48.910125732422" lon="2.849634885788"><ele>98</ele><time>2026-5-1T7:18:57Z</time></trkpt>
<trkpt lat="48.910190582275" lon="2.8496589660645"><ele>98</ele><time>2026-5-1T7:19:0Z</time></trkpt>
<trkpt lat="48.910278320312" lon="2.8496956825256"><ele>98</ele><time>2026-5-1T7:19:3Z</time></trkpt>
<trkpt lat="48.910362243652" lon="2.8497211933136"><ele>98</ele><time>2026-5-1T7:19:6Z</time></trkpt>
<trkpt lat="48.910430908203" lon="2.8497400283813"><ele>98</ele><time>2026-5-1T7:19:9Z</time></trkpt>
<trkpt lat="48.910514831543" lon="2.8497748374939"><ele>99</ele><time>2026-5-1T7:19:12Z</time></trkpt>
<trkpt lat="48.910583496094" lon="2.8497965335846"><ele>99</ele><time>2026-5-1T7:19:15Z</time></trkpt>
<trkpt lat="48.910659790039" lon="2.8498203754425"><ele>99</ele><time>2026-5-1T7:19:18Z</time></trkpt>
<trkpt lat="48.910732269287" lon="2.849844455719"><ele>99</ele><time>2026-5-1T7:19:21Z</time></trkpt>
<trkpt lat="48.910789489746" lon="2.8498680591583"><ele>99</ele><time>2026-5-1T7:19:24Z</time></trkpt>
<trkpt lat="48.910789489746" lon="2.8498680591583"><ele>99</ele><time>2026-5-1T7:19:27Z</time></trkpt>
<trkpt lat="48.910884857178" lon="2.8499138355255"><ele>99</ele><time>2026-5-1T7:19:30Z</time></trkpt>
<trkpt lat="48.910942077637" lon="2.8499360084534"><ele>99</ele><time>2026-5-1T7:19:33Z</time></trkpt>
<trkpt lat="48.911014556885" lon="2.8499648571014"><ele>99</ele><time>2026-5-1T7:19:36Z</time></trkpt>
<trkpt lat="48.911087036133" lon="2.8499932289124"><ele>99</ele><time>2026-5-1T7:19:39Z</time></trkpt>
<trkpt lat="48.911159515381" lon="2.850022315979"><ele>99</ele><time>2026-5-1T7:19:42Z</time></trkpt>
<trkpt lat="48.911220550537" lon="2.8500447273254"><ele>99</ele><time>2026-5-1T7:19:45Z</time></trkpt>
<trkpt lat="48.911296844482" lon="2.8500702381134"><ele>99</ele><time>2026-5-1T7:19:48Z</time></trkpt>
<trkpt lat="48.911380767822" lon="2.8501009941101"><ele>99</ele><time>2026-5-1T7:19:51Z</time></trkpt>
<trkpt lat="48.911464691162" lon="2.8501350879669"><ele>99</ele><time>2026-5-1T7:19:54Z</time></trkpt>
<trkpt lat="48.911544799805" lon="2.850163936615"><ele>99</ele><time>2026-5-1T7:19:57Z</time></trkpt>
<trkpt lat="48.911617279053" lon="2.8501915931702"><ele>99</ele><time>2026-5-1T7:20:0Z</time></trkpt>
<trkpt lat="48.911678314209" lon="2.8502142429352"><ele>99</ele><time>2026-5-1T7:20:3Z</time></trkpt>
<trkpt lat="48.911735534668" lon="2.8502218723297"><ele>99</ele><time>2026-5-1T7:20:6Z</time></trkpt>
<trkpt lat="48.911800384521" lon="2.8502287864685"><ele>99</ele><time>2026-5-1T7:20:9Z</time></trkpt>
<trkpt lat="48.911869049072" lon="2.8502457141876"><ele>99</ele><time>2026-5-1T7:20:12Z</time></trkpt>
<trkpt lat="48.911937713623" lon="2.8502678871155"><ele>99</ele><time>2026-5-1T7:20:15Z</time></trkpt>
<trkpt lat="48.912021636963" lon="2.8503034114838"><ele>100</ele><time>2026-5-1T7:20:18Z</time></trkpt>
<trkpt lat="48.912094116211" lon="2.8503329753876"><ele>100</ele><time>2026-5-1T7:20:21Z</time></trkpt>
<trkpt lat="48.912155151367" lon="2.8503570556641"><ele>100</ele><time>2026-5-1T7:20:24Z</time></trkpt>
<trkpt lat="48.912155151367" lon="2.8503570556641"><ele>100</ele><time>2026-5-1T7:20:27Z</time></trkpt>
<trkpt lat="48.912261962891" lon="2.8504021167755"><ele>100</ele><time>2026-5-1T7:20:30Z</time></trkpt>
<trkpt lat="48.912330627441" lon="2.8504292964935"><ele>100</ele><time>2026-5-1T7:20:33Z</time></trkpt>
<trkpt lat="48.912410736084" lon="2.850465297699"><ele>100</ele><time>2026-5-1T7:20:36Z</time></trkpt>
<trkpt lat="48.91247177124" lon="2.8504967689514"><ele>101</ele><time>2026-5-1T7:20:39Z</time></trkpt>
<trkpt lat="48.912536621094" lon="2.8505275249481"><ele>101</ele><time>2026-5-1T7:20:42Z</time></trkpt>
<trkpt lat="48.912612915039" lon="2.8505623340607"><ele>101</ele><time>2026-5-1T7:20:45Z</time></trkpt>
<trkpt lat="48.912677764893" lon="2.8506014347076"><ele>101</ele><time>2026-5-1T7:20:48Z</time></trkpt>
<trkpt lat="48.912677764893" lon="2.8506014347076"><ele>101</ele><time>2026-5-1T7:20:51Z</time></trkpt>
<trkpt lat="48.912780761719" lon="2.8506467342377"><ele>101</ele><time>2026-5-1T7:20:54Z</time></trkpt>
<trkpt lat="48.912845611572" lon="2.8506691455841"><ele>100</ele><time>2026-5-1T7:20:57Z</time></trkpt>
<trkpt lat="48.912921905518" lon="2.850704908371"><ele>100</ele><time>2026-5-1T7:21:0Z</time></trkpt>
<trkpt lat="48.912998199463" lon="2.8507282733917"><ele>100</ele><time>2026-5-1T7:21:3Z</time></trkpt>
<trkpt lat="48.913074493408" lon="2.8507435321808"><ele>100</ele><time>2026-5-1T7:21:6Z</time></trkpt>
<trkpt lat="48.913158416748" lon="2.8507716655731"><ele>100</ele><time>2026-5-1T7:21:9Z</time></trkpt>
<trkpt lat="48.913280487061" lon="2.850802898407"><ele>100</ele><time>2026-5-1T7:21:12Z</time></trkpt>
<trkpt lat="48.913345336914" lon="2.8508133888245"><ele>99</ele><time>2026-5-1T7:21:15Z</time></trkpt>
<trkpt lat="48.913417816162" lon="2.8508350849152"><ele>99</ele><time>2026-5-1T7:21:18Z</time></trkpt>
<trkpt lat="48.913505554199" lon="2.8508727550507"><ele>99</ele><time>2026-5-1T7:21:21Z</time></trkpt>
<trkpt lat="48.913597106934" lon="2.8509061336517"><ele>99</ele><time>2026-5-1T7:21:24Z</time></trkpt>
<trkpt lat="48.913665771484" lon="2.8509266376495"><ele>100</ele><time>2026-5-1T7:21:27Z</time></trkpt>
<trkpt lat="48.913726806641" lon="2.8509459495544"><ele>100</ele><time>2026-5-1T7:21:30Z</time></trkpt>
<trkpt lat="48.913791656494" lon="2.8509709835052"><ele>100</ele><time>2026-5-1T7:21:33Z</time></trkpt>
<trkpt lat="48.913864135742" lon="2.8509881496429"><ele>100</ele><time>2026-5-1T7:21:36Z</time></trkpt>
<trkpt lat="48.91393661499" lon="2.8510026931763"><ele>100</ele><time>2026-5-1T7:21:39Z</time></trkpt>
<trkpt lat="48.914009094238" lon="2.8510324954987"><ele>100</ele><time>2026-5-1T7:21:42Z</time></trkpt>
<trkpt lat="48.914077758789" lon="2.8510620594025"><ele>100</ele><time>2026-5-1T7:21:45Z</time></trkpt>
<trkpt lat="48.91414642334" lon="2.8510870933533"><ele>100</ele><time>2026-5-1T7:21:48Z</time></trkpt>
<trkpt lat="48.914207458496" lon="2.8511095046997"><ele>100</ele><time>2026-5-1T7:21:51Z</time></trkpt>
<trkpt lat="48.914276123047" lon="2.8511343002319"><ele>100</ele><time>2026-5-1T7:21:54Z</time></trkpt>
<trkpt lat="48.914344787598" lon="2.8511571884155"><ele>100</ele><time>2026-5-1T7:21:57Z</time></trkpt>
<trkpt lat="48.914428710938" lon="2.8511855602264"><ele>100</ele><time>2026-5-1T7:22:0Z</time></trkpt>
<trkpt lat="48.914505004883" lon="2.8512079715729"><ele>100</ele><time>2026-5-1T7:22:3Z</time></trkpt>
<trkpt lat="48.914581298828" lon="2.8512477874756"><ele>100</ele><time>2026-5-1T7:22:6Z</time></trkpt>
<trkpt lat="48.914642333984" lon="2.8512763977051"><ele>100</ele><time>2026-5-1T7:22:9Z</time></trkpt>
<trkpt lat="48.91471862793" lon="2.8513095378876"><ele>100</ele><time>2026-5-1T7:22:12Z</time></trkpt>
<trkpt lat="48.914791107178" lon="2.8513479232788"><ele>100</ele><time>2026-5-1T7:22:15Z</time></trkpt>
<trkpt lat="48.914863586426" lon="2.8513686656952"><ele>100</ele><time>2026-5-1T7:22:18Z</time></trkpt>
<trkpt lat="48.914947509766" lon="2.8513960838318"><ele>100</ele><time>2026-5-1T7:22:21Z</time></trkpt>
<trkpt lat="48.915012359619" lon="2.8514251708984"><ele>100</ele><time>2026-5-1T7:22:24Z</time></trkpt>
<trkpt lat="48.915088653564" lon="2.851457118988"><ele>100</ele><time>2026-5-1T7:22:27Z</time></trkpt>
<trkpt lat="48.91516494751" lon="2.8514904975891"><ele>100</ele><time>2026-5-1T7:22:30Z</time></trkpt>
<trkpt lat="48.915245056152" lon="2.8515181541443"><ele>100</ele><time>2026-5-1T7:22:33Z</time></trkpt>
<trkpt lat="48.9153175354" lon="2.8515436649323"><ele>100</ele><time>2026-5-1T7:22:36Z</time></trkpt>
<trkpt lat="48.915390014648" lon="2.851578950882"><ele>100</ele><time>2026-5-1T7:22:39Z</time></trkpt>
<trkpt lat="48.915473937988" lon="2.8516135215759"><ele>100</ele><time>2026-5-1T7:22:42Z</time></trkpt>
<trkpt lat="48.915546417236" lon="2.8516280651093"><ele>100</ele><time>2026-5-1T7:22:45Z</time></trkpt>
<trkpt lat="48.915615081787" lon="2.8516438007355"><ele>100</ele><time>2026-5-1T7:22:48Z</time></trkpt>
<trkpt lat="48.915679931641" lon="2.8516688346863"><ele>100</ele><time>2026-5-1T7:22:51Z</time></trkpt>
<trkpt lat="48.915821075439" lon="2.8517210483551"><ele>99</ele><time>2026-5-1T7:22:54Z</time></trkpt>
<trkpt lat="48.915885925293" lon="2.8517429828644"><ele>99</ele><time>2026-5-1T7:22:57Z</time></trkpt>
<trkpt lat="48.915962219238" lon="2.8517708778381"><ele>99</ele><time>2026-5-1T7:23:0Z</time></trkpt>
<trkpt lat="48.916046142578" lon="2.8517999649048"><ele>99</ele><time>2026-5-1T7:23:3Z</time></trkpt>
<trkpt lat="48.916133880615" lon="2.8518342971802"><ele>99</ele><time>2026-5-1T7:23:6Z</time></trkpt>
<trkpt lat="48.916202545166" lon="2.8518631458282"><ele>99</ele><time>2026-5-1T7:23:9Z</time></trkpt>
<trkpt lat="48.91626739502" lon="2.8518974781036"><ele>99</ele><time>2026-5-1T7:23:12Z</time></trkpt>
<trkpt lat="48.91633605957" lon="2.8519358634949"><ele>99</ele><time>2026-5-1T7:23:15Z</time></trkpt>
<trkpt lat="48.916412353516" lon="2.8519740104675"><ele>99</ele><time>2026-5-1T7:23:18Z</time></trkpt>
<trkpt lat="48.916500091553" lon="2.8520007133484"><ele>100</ele><time>2026-5-1T7:23:21Z</time></trkpt>
<trkpt lat="48.91658782959" lon="2.8520214557648"><ele>100</ele><time>2026-5-1T7:23:24Z</time></trkpt>
<trkpt lat="48.91667175293" lon="2.8520517349243"><ele>100</ele><time>2026-5-1T7:23:27Z</time></trkpt>
<trkpt lat="48.916744232178" lon="2.8520820140839"><ele>101</ele><time>2026-5-1T7:23:30Z</time></trkpt>
<trkpt lat="48.916801452637" lon="2.8521037101746"><ele>101</ele><time>2026-5-1T7:23:33Z</time></trkpt>
<trkpt lat="48.916873931885" lon="2.8521311283112"><ele>102</ele><time>2026-5-1T7:23:36Z</time></trkpt>
<trkpt lat="48.916946411133" lon="2.8521552085876"><ele>102</ele><time>2026-5-1T7:23:39Z</time></trkpt>
<trkpt lat="48.916946411133" lon="2.8521552085876"><ele>102</ele><time>2026-5-1T7:23:42Z</time></trkpt>
<trkpt lat="48.917057037354" lon="2.8521678447723"><ele>102</ele><time>2026-5-1T7:23:45Z</time></trkpt>
<trkpt lat="48.917129516602" lon="2.852180480957"><ele>103</ele><time>2026-5-1T7:23:48Z</time></trkpt>
<trkpt lat="48.917194366455" lon="2.8522062301636"><ele>103</ele><time>2026-5-1T7:23:51Z</time></trkpt>
<trkpt lat="48.917259216309" lon="2.8522298336029"><ele>103</ele><time>2026-5-1T7:23:54Z</time></trkpt>
<trkpt lat="48.917331695557" lon="2.8522629737854"><ele>103</ele><time>2026-5-1T7:23:57Z</time></trkpt>
<trkpt lat="48.917400360107" lon="2.8522918224335"><ele>103</ele><time>2026-5-1T7:24:0Z</time></trkpt>
<trkpt lat="48.917469024658" lon="2.8523111343384"><ele>103</ele><time>2026-5-1T7:24:3Z</time></trkpt>
<trkpt lat="48.917530059814" lon="2.8523347377777"><ele>103</ele><time>2026-5-1T7:24:6Z</time></trkpt>
<trkpt lat="48.917652130127" lon="2.8523869514465"><ele>102</ele><time>2026-5-1T7:24:9Z</time></trkpt>
<trkpt lat="48.91773223877" lon="2.8524186611176"><ele>102</ele><time>2026-5-1T7:24:12Z</time></trkpt>
<trkpt lat="48.917823791504" lon="2.8524506092072"><ele>97</ele><time>2026-5-1T7:24:15Z</time></trkpt>
<trkpt lat="48.91788482666" lon="2.8524804115295"><ele>97</ele><time>2026-5-1T7:24:18Z</time></trkpt>
<trkpt lat="48.917949676514" lon="2.8524949550629"><ele>97</ele><time>2026-5-1T7:24:21Z</time></trkpt>
<trkpt lat="48.918037414551" lon="2.8525440692902"><ele>97</ele><time>2026-5-1T7:24:24Z</time></trkpt>
<trkpt lat="48.918113708496" lon="2.8525743484497"><ele>97</ele><time>2026-5-1T7:24:27Z</time></trkpt>
<trkpt lat="48.918186187744" lon="2.852602481842"><ele>96</ele><time>2026-5-1T7:24:30Z</time></trkpt>
<trkpt lat="48.918254852295" lon="2.8526349067688"><ele>96</ele><time>2026-5-1T7:24:33Z</time></trkpt>
<trkpt lat="48.918338775635" lon="2.8526601791382"><ele>96</ele><time>2026-5-1T7:24:36Z</time></trkpt>
<trkpt lat="48.918430328369" lon="2.8526871204376"><ele>96</ele><time>2026-5-1T7:24:39Z</time></trkpt>
<trkpt lat="48.918521881104" lon="2.8527138233185"><ele>96</ele><time>2026-5-1T7:24:42Z</time></trkpt>
<trkpt lat="48.918594360352" lon="2.8527452945709"><ele>96</ele><time>2026-5-1T7:24:45Z</time></trkpt>
<trkpt lat="48.918670654297" lon="2.8527774810791"><ele>96</ele><time>2026-5-1T7:24:48Z</time></trkpt>
<trkpt lat="48.918762207031" lon="2.8528068065643"><ele>97</ele><time>2026-5-1T7:24:51Z</time></trkpt>
<trkpt lat="48.918849945068" lon="2.8528320789337"><ele>98</ele><time>2026-5-1T7:24:54Z</time></trkpt>
<trkpt lat="48.918930053711" lon="2.8528633117676"><ele>102</ele><time>2026-5-1T7:24:57Z</time></trkpt>
<trkpt lat="48.919013977051" lon="2.8529121875763"><ele>103</ele><time>2026-5-1T7:25:0Z</time></trkpt>
<trkpt lat="48.919105529785" lon="2.8529615402222"><ele>104</ele><time>2026-5-1T7:25:3Z</time></trkpt>
<trkpt lat="48.919193267822" lon="2.8530039787292"><ele>104</ele><time>2026-5-1T7:25:6Z</time></trkpt>
<trkpt lat="48.919296264648" lon="2.8530335426331"><ele>102</ele><time>2026-5-1T7:25:9Z</time></trkpt>
<trkpt lat="48.919376373291" lon="2.8530416488647"><ele>100</ele><time>2026-5-1T7:25:12Z</time></trkpt>
<trkpt lat="48.919452667236" lon="2.8530373573303"><ele>99</ele><time>2026-5-1T7:25:15Z</time></trkpt>
<trkpt lat="48.919532775879" lon="2.8530373573303"><ele>99</ele><time>2026-5-1T7:25:18Z</time></trkpt>
<trkpt lat="48.919609069824" lon="2.8530561923981"><ele>99</ele><time>2026-5-1T7:25:21Z</time></trkpt>
<trkpt lat="48.91971206665" lon="2.8530948162079"><ele>99</ele><time>2026-5-1T7:25:24Z</time></trkpt>
<trkpt lat="48.919788360596" lon="2.8531358242035"><ele>96</ele><time>2026-5-1T7:25:27Z</time></trkpt>
<trkpt lat="48.91987991333" lon="2.8531754016876"><ele>95</ele><time>2026-5-1T7:25:30Z</time></trkpt>
<trkpt lat="48.919967651367" lon="2.853209733963"><ele>95</ele><time>2026-5-1T7:25:33Z</time></trkpt>
<trkpt lat="48.920063018799" lon="2.8532269001007"><ele>94</ele><time>2026-5-1T7:25:36Z</time></trkpt>
<trkpt lat="48.920143127441" lon="2.8532528877258"><ele>94</ele><time>2026-5-1T7:25:39Z</time></trkpt>
<trkpt lat="48.920234680176" lon="2.8532912731171"><ele>94</ele><time>2026-5-1T7:25:42Z</time></trkpt>
<trkpt lat="48.920318603516" lon="2.8533232212067"><ele>94</ele><time>2026-5-1T7:25:45Z</time></trkpt>
<trkpt lat="48.920406341553" lon="2.8533561229706"><ele>94</ele><time>2026-5-1T7:25:48Z</time></trkpt>
<trkpt lat="48.920490264893" lon="2.8533914089203"><ele>94</ele><time>2026-5-1T7:25:51Z</time></trkpt>
<trkpt lat="48.920570373535" lon="2.8534235954285"><ele>94</ele><time>2026-5-1T7:25:54Z</time></trkpt>
<trkpt lat="48.920654296875" lon="2.8534557819366"><ele>94</ele><time>2026-5-1T7:25:57Z</time></trkpt>
<trkpt lat="48.920742034912" lon="2.8534910678864"><ele>94</ele><time>2026-5-1T7:26:0Z</time></trkpt>
<trkpt lat="48.920829772949" lon="2.8535282611847"><ele>94</ele><time>2026-5-1T7:26:3Z</time></trkpt>
<trkpt lat="48.920917510986" lon="2.8535618782043"><ele>93</ele><time>2026-5-1T7:26:6Z</time></trkpt>
<trkpt lat="48.921009063721" lon="2.853592634201"><ele>93</ele><time>2026-5-1T7:26:9Z</time></trkpt>
<trkpt lat="48.921096801758" lon="2.8536198139191"><ele>93</ele><time>2026-5-1T7:26:12Z</time></trkpt>
<trkpt lat="48.921180725098" lon="2.8536489009857"><ele>93</ele><time>2026-5-1T7:26:15Z</time></trkpt>
<trkpt lat="48.921268463135" lon="2.8536813259125"><ele>93</ele><time>2026-5-1T7:26:18Z</time></trkpt>
<trkpt lat="48.921348571777" lon="2.8537104129791"><ele>93</ele><time>2026-5-1T7:26:21Z</time></trkpt>
<trkpt lat="48.921432495117" lon="2.8537364006042"><ele>93</ele><time>2026-5-1T7:26:24Z</time></trkpt>
<trkpt lat="48.92151260376" lon="2.8537683486938"><ele>93</ele><time>2026-5-1T7:26:27Z</time></trkpt>
<trkpt lat="48.9215965271" lon="2.8537933826447"><ele>94</ele><time>2026-5-1T7:26:30Z</time></trkpt>
<trkpt lat="48.921680450439" lon="2.85382771492"><ele>94</ele><time>2026-5-1T7:26:33Z</time></trkpt>
<trkpt lat="48.921772003174" lon="2.8538701534271"><ele>94</ele><time>2026-5-1T7:26:36Z</time></trkpt>
<trkpt lat="48.921859741211" lon="2.8539035320282"><ele>94</ele><time>2026-5-1T7:26:39Z</time></trkpt>
<trkpt lat="48.921939849854" lon="2.8539338111877"><ele>93</ele><time>2026-5-1T7:26:42Z</time></trkpt>
<trkpt lat="48.922023773193" lon="2.8539645671844"><ele>93</ele><time>2026-5-1T7:26:45Z</time></trkpt>
<trkpt lat="48.922107696533" lon="2.8540003299713"><ele>93</ele><time>2026-5-1T7:26:48Z</time></trkpt>
<trkpt lat="48.922187805176" lon="2.8540415763855"><ele>93</ele><time>2026-5-1T7:26:51Z</time></trkpt>
<trkpt lat="48.922271728516" lon="2.8540799617767"><ele>93</ele><time>2026-5-1T7:26:54Z</time></trkpt>
<trkpt lat="48.92236328125" lon="2.8541033267975"><ele>93</ele><time>2026-5-1T7:26:57Z</time></trkpt>
<trkpt lat="48.922458648682" lon="2.8541305065155"><ele>93</ele><time>2026-5-1T7:27:0Z</time></trkpt>
<trkpt lat="48.922542572021" lon="2.8541622161865"><ele>93</ele><time>2026-5-1T7:27:3Z</time></trkpt>
<trkpt lat="48.922622680664" lon="2.8541960716248"><ele>93</ele><time>2026-5-1T7:27:6Z</time></trkpt>
<trkpt lat="48.922721862793" lon="2.8542301654816"><ele>93</ele><time>2026-5-1T7:27:9Z</time></trkpt>
<trkpt lat="48.922813415527" lon="2.8542642593384"><ele>93</ele><time>2026-5-1T7:27:12Z</time></trkpt>
<trkpt lat="48.922897338867" lon="2.8542971611023"><ele>93</ele><time>2026-5-1T7:27:15Z</time></trkpt>
<trkpt lat="48.922985076904" lon="2.8543260097504"><ele>94</ele><time>2026-5-1T7:27:18Z</time></trkpt>
<trkpt lat="48.923065185547" lon="2.8543560504913"><ele>94</ele><time>2026-5-1T7:27:21Z</time></trkpt>
<trkpt lat="48.923156738281" lon="2.8543791770935"><ele>94</ele><time>2026-5-1T7:27:24Z</time></trkpt>
<trkpt lat="48.923248291016" lon="2.8544068336487"><ele>94</ele><time>2026-5-1T7:27:27Z</time></trkpt>
<trkpt lat="48.923336029053" lon="2.854437828064"><ele>94</ele><time>2026-5-1T7:27:30Z</time></trkpt>
<trkpt lat="48.923427581787" lon="2.8544707298279"><ele>94</ele><time>2026-5-1T7:27:33Z</time></trkpt>
<trkpt lat="48.923515319824" lon="2.8545029163361"><ele>94</ele><time>2026-5-1T7:27:36Z</time></trkpt>
<trkpt lat="48.923599243164" lon="2.8545365333557"><ele>94</ele><time>2026-5-1T7:27:39Z</time></trkpt>
<trkpt lat="48.923683166504" lon="2.8545672893524"><ele>94</ele><time>2026-5-1T7:27:42Z</time></trkpt>
<trkpt lat="48.923770904541" lon="2.8545949459076"><ele>94</ele><time>2026-5-1T7:27:45Z</time></trkpt>
<trkpt lat="48.923854827881" lon="2.8546230792999"><ele>94</ele><time>2026-5-1T7:27:48Z</time></trkpt>
<trkpt lat="48.923942565918" lon="2.8546526432037"><ele>95</ele><time>2026-5-1T7:27:51Z</time></trkpt>
<trkpt lat="48.924034118652" lon="2.8546872138977"><ele>95</ele><time>2026-5-1T7:27:54Z</time></trkpt>
<trkpt lat="48.924118041992" lon="2.8547217845917"><ele>95</ele><time>2026-5-1T7:27:57Z</time></trkpt>
<trkpt lat="48.924209594727" lon="2.8547599315643"><ele>95</ele><time>2026-5-1T7:28:0Z</time></trkpt>
<trkpt lat="48.924301147461" lon="2.8548009395599"><ele>95</ele><time>2026-5-1T7:28:3Z</time></trkpt>
<trkpt lat="48.924392700195" lon="2.8548419475555"><ele>95</ele><time>2026-5-1T7:28:6Z</time></trkpt>
<trkpt lat="48.924495697021" lon="2.8548891544342"><ele>94</ele><time>2026-5-1T7:28:9Z</time></trkpt>
<trkpt lat="48.92459487915" lon="2.8549239635468"><ele>94</ele><time>2026-5-1T7:28:12Z</time></trkpt>
<trkpt lat="48.924686431885" lon="2.8549456596375"><ele>94</ele><time>2026-5-1T7:28:15Z</time></trkpt>
<trkpt lat="48.924777984619" lon="2.85498046875"><ele>94</ele><time>2026-5-1T7:28:18Z</time></trkpt>
<trkpt lat="48.924869537354" lon="2.855021238327"><ele>94</ele><time>2026-5-1T7:28:21Z</time></trkpt>
<trkpt lat="48.924961090088" lon="2.8550610542297"><ele>94</ele><time>2026-5-1T7:28:24Z</time></trkpt>
<trkpt lat="48.92505645752" lon="2.8550987243652"><ele>94</ele><time>2026-5-1T7:28:27Z</time></trkpt>
<trkpt lat="48.925144195557" lon="2.8551251888275"><ele>94</ele><time>2026-5-1T7:28:30Z</time></trkpt>
<trkpt lat="48.925224304199" lon="2.8551032543182"><ele>93</ele><time>2026-5-1T7:28:33Z</time></trkpt>
<trkpt lat="48.925289154053" lon="2.8551218509674"><ele>93</ele><time>2026-5-1T7:28:36Z</time></trkpt>
<trkpt lat="48.925342559814" lon="2.8551685810089"><ele>93</ele><time>2026-5-1T7:28:39Z</time></trkpt>
<trkpt lat="48.925342559814" lon="2.8551685810089"><ele>93</ele><time>2026-5-1T7:28:42Z</time></trkpt>
<trkpt lat="48.92541885376" lon="2.8552181720734"><ele>94</ele><time>2026-5-1T7:28:45Z</time></trkpt>
<trkpt lat="48.92541885376" lon="2.8552181720734"><ele>94</ele><time>2026-5-1T7:28:48Z</time></trkpt>
<trkpt lat="48.92541885376" lon="2.8552181720734"><ele>94</ele><time>2026-5-1T7:28:51Z</time></trkpt>
<trkpt lat="48.92541885376" lon="2.8552181720734"><ele>94</ele><time>2026-5-1T7:28:54Z</time></trkpt>
<trkpt lat="48.92541885376" lon="2.8552181720734"><ele>94</ele><time>2026-5-1T7:28:57Z</time></trkpt>
<trkpt lat="48.925407409668" lon="2.8554210662842"><ele>93</ele><time>2026-5-1T7:29:0Z</time></trkpt>
<trkpt lat="48.925373077393" lon="2.855536699295"><ele>93</ele><time>2026-5-1T7:29:3Z</time></trkpt>
<trkpt lat="48.925373077393" lon="2.855536699295"><ele>93</ele><time>2026-5-1T7:29:6Z</time></trkpt>
<trkpt lat="48.925373077393" lon="2.855536699295"><ele>93</ele><time>2026-5-1T7:29:9Z</time></trkpt>
<trkpt lat="48.925411224365" lon="2.8554148674011"><ele>94</ele><time>2026-5-1T7:29:12Z</time></trkpt>
<trkpt lat="48.925445556641" lon="2.8552944660187"><ele>95</ele><time>2026-5-1T7:29:15Z</time></trkpt>
<trkpt lat="48.925643920898" lon="2.8554022312164"><ele>94</ele><time>2026-5-1T7:29:18Z</time></trkpt>
<trkpt lat="48.925746917725" lon="2.8554649353027"><ele>93</ele><time>2026-5-1T7:29:21Z</time></trkpt>
<trkpt lat="48.925849914551" lon="2.8555200099945"><ele>93</ele><time>2026-5-1T7:29:24Z</time></trkpt>
<trkpt lat="48.925960540771" lon="2.8555800914764"><ele>93</ele><time>2026-5-1T7:29:27Z</time></trkpt>
<trkpt lat="48.926067352295" lon="2.8556492328644"><ele>92</ele><time>2026-5-1T7:29:30Z</time></trkpt>
<trkpt lat="48.926174163818" lon="2.8557236194611"><ele>91</ele><time>2026-5-1T7:29:33Z</time></trkpt>
<trkpt lat="48.926284790039" lon="2.8557977676392"><ele>89</ele><time>2026-5-1T7:29:36Z</time></trkpt>
<trkpt lat="48.926383972168" lon="2.8558669090271"><ele>89</ele><time>2026-5-1T7:29:39Z</time></trkpt>
<trkpt lat="48.92650604248" lon="2.8559367656708"><ele>88</ele><time>2026-5-1T7:29:42Z</time></trkpt>
<trkpt lat="48.926624298096" lon="2.8560180664062"><ele>88</ele><time>2026-5-1T7:29:45Z</time></trkpt>
<trkpt lat="48.926734924316" lon="2.8561058044434"><ele>88</ele><time>2026-5-1T7:29:48Z</time></trkpt>
<trkpt lat="48.926815032959" lon="2.8561849594116"><ele>89</ele><time>2026-5-1T7:29:51Z</time></trkpt>
<trkpt lat="48.926895141602" lon="2.8562619686127"><ele>89</ele><time>2026-5-1T7:29:54Z</time></trkpt>
<trkpt lat="48.927001953125" lon="2.8563525676727"><ele>90</ele><time>2026-5-1T7:29:57Z</time></trkpt>
<trkpt lat="48.927097320557" lon="2.856436252594"><ele>91</ele><time>2026-5-1T7:30:0Z</time></trkpt>
<trkpt lat="48.927188873291" lon="2.8565282821655"><ele>93</ele><time>2026-5-1T7:30:3Z</time></trkpt>
<trkpt lat="48.927261352539" lon="2.8565812110901"><ele>94</ele><time>2026-5-1T7:30:6Z</time></trkpt>
<trkpt lat="48.92733001709" lon="2.8566274642944"><ele>94</ele><time>2026-5-1T7:30:9Z</time></trkpt>
<trkpt lat="48.927391052246" lon="2.8566706180573"><ele>94</ele><time>2026-5-1T7:30:12Z</time></trkpt>
<trkpt lat="48.927459716797" lon="2.8567163944244"><ele>94</ele><time>2026-5-1T7:30:15Z</time></trkpt>
<trkpt lat="48.927459716797" lon="2.8567163944244"><ele>94</ele><time>2026-5-1T7:30:18Z</time></trkpt>
<trkpt lat="48.927543640137" lon="2.8567607402802"><ele>94</ele><time>2026-5-1T7:30:21Z</time></trkpt>
<trkpt lat="48.927543640137" lon="2.8567607402802"><ele>94</ele><time>2026-5-1T7:30:24Z</time></trkpt>
<trkpt lat="48.927623748779" lon="2.8567776679993"><ele>94</ele><time>2026-5-1T7:30:27Z</time></trkpt>
<trkpt lat="48.927623748779" lon="2.8567776679993"><ele>94</ele><time>2026-5-1T7:30:30Z</time></trkpt>
<trkpt lat="48.927623748779" lon="2.8567776679993"><ele>94</ele><time>2026-5-1T7:30:33Z</time></trkpt>
<trkpt lat="48.927623748779" lon="2.8567776679993"><ele>94</ele><time>2026-5-1T7:30:36Z</time></trkpt>
<trkpt lat="48.927673339844" lon="2.8569188117981"><ele>95</ele><time>2026-5-1T7:30:39Z</time></trkpt>
<trkpt lat="48.927730560303" lon="2.8570053577423"><ele>95</ele><time>2026-5-1T7:30:42Z</time></trkpt>
<trkpt lat="48.927780151367" lon="2.8570711612701"><ele>95</ele><time>2026-5-1T7:30:45Z</time></trkpt>
<trkpt lat="48.927841186523" lon="2.8571429252625"><ele>95</ele><time>2026-5-1T7:30:48Z</time></trkpt>
<trkpt lat="48.92790222168" lon="2.8572144508362"><ele>95</ele><time>2026-5-1T7:30:51Z</time></trkpt>
<trkpt lat="48.927947998047" lon="2.8572778701782"><ele>94</ele><time>2026-5-1T7:30:54Z</time></trkpt>
<trkpt lat="48.927947998047" lon="2.8572778701782"><ele>94</ele><time>2026-5-1T7:30:57Z</time></trkpt>
<trkpt lat="48.927947998047" lon="2.8572778701782"><ele>94</ele><time>2026-5-1T7:31:0Z</time></trkpt>
<trkpt lat="48.92813873291" lon="2.857458114624"><ele>94</ele><time>2026-5-1T7:31:3Z</time></trkpt>
<trkpt lat="48.928234100342" lon="2.8575580120087"><ele>94</ele><time>2026-5-1T7:31:6Z</time></trkpt>
<trkpt lat="48.928295135498" lon="2.8576064109802"><ele>94</ele><time>2026-5-1T7:31:9Z</time></trkpt>
<trkpt lat="48.928352355957" lon="2.8576488494873"><ele>94</ele><time>2026-5-1T7:31:12Z</time></trkpt>
<trkpt lat="48.928409576416" lon="2.8577029705048"><ele>94</ele><time>2026-5-1T7:31:15Z</time></trkpt>
<trkpt lat="48.928462982178" lon="2.8577480316162"><ele>93</ele><time>2026-5-1T7:31:18Z</time></trkpt>
<trkpt lat="48.928462982178" lon="2.8577480316162"><ele>93</ele><time>2026-5-1T7:31:21Z</time></trkpt>
<trkpt lat="48.92854309082" lon="2.8578481674194"><ele>93</ele><time>2026-5-1T7:31:24Z</time></trkpt>
<trkpt lat="48.92854309082" lon="2.8578481674194"><ele>93</ele><time>2026-5-1T7:31:27Z</time></trkpt>
<trkpt lat="48.928646087646" lon="2.85795545578"><ele>93</ele><time>2026-5-1T7:31:30Z</time></trkpt>
<trkpt lat="48.928699493408" lon="2.8580050468445"><ele>92</ele><time>2026-5-1T7:31:33Z</time></trkpt>
<trkpt lat="48.92875289917" lon="2.8580720424652"><ele>92</ele><time>2026-5-1T7:31:36Z</time></trkpt>
<trkpt lat="48.928806304932" lon="2.858124256134"><ele>92</ele><time>2026-5-1T7:31:39Z</time></trkpt>
<trkpt lat="48.928859710693" lon="2.8581728935242"><ele>92</ele><time>2026-5-1T7:31:42Z</time></trkpt>
<trkpt lat="48.928939819336" lon="2.8582499027252"><ele>92</ele><time>2026-5-1T7:31:45Z</time></trkpt>
<trkpt lat="48.928939819336" lon="2.8582499027252"><ele>92</ele><time>2026-5-1T7:31:48Z</time></trkpt>
<trkpt lat="48.929023742676" lon="2.8583588600159"><ele>92</ele><time>2026-5-1T7:31:51Z</time></trkpt>
<trkpt lat="48.929023742676" lon="2.8583588600159"><ele>92</ele><time>2026-5-1T7:31:54Z</time></trkpt>
<trkpt lat="48.929119110107" lon="2.8584613800049"><ele>92</ele><time>2026-5-1T7:31:57Z</time></trkpt>
<trkpt lat="48.929172515869" lon="2.8585305213928"><ele>92</ele><time>2026-5-1T7:32:0Z</time></trkpt>
<trkpt lat="48.929225921631" lon="2.858579158783"><ele>92</ele><time>2026-5-1T7:32:3Z</time></trkpt>
<trkpt lat="48.929225921631" lon="2.858579158783"><ele>92</ele><time>2026-5-1T7:32:6Z</time></trkpt>
<trkpt lat="48.929317474365" lon="2.8586657047272"><ele>92</ele><time>2026-5-1T7:32:9Z</time></trkpt>
<trkpt lat="48.929363250732" lon="2.8587157726288"><ele>92</ele><time>2026-5-1T7:32:12Z</time></trkpt>
<trkpt lat="48.929416656494" lon="2.8587701320648"><ele>92</ele><time>2026-5-1T7:32:15Z</time></trkpt>
<trkpt lat="48.92947769165" lon="2.8588259220123"><ele>92</ele><time>2026-5-1T7:32:18Z</time></trkpt>
<trkpt lat="48.929538726807" lon="2.8588826656342"><ele>92</ele><time>2026-5-1T7:32:21Z</time></trkpt>
<trkpt lat="48.929595947266" lon="2.8589401245117"><ele>92</ele><time>2026-5-1T7:32:24Z</time></trkpt>
<trkpt lat="48.929656982422" lon="2.8589973449707"><ele>92</ele><time>2026-5-1T7:32:27Z</time></trkpt>
<trkpt lat="48.929721832275" lon="2.8590593338013"><ele>92</ele><time>2026-5-1T7:32:30Z</time></trkpt>
<trkpt lat="48.929779052734" lon="2.8591258525848"><ele>92</ele><time>2026-5-1T7:32:33Z</time></trkpt>
<trkpt lat="48.929874420166" lon="2.8592350482941"><ele>92</ele><time>2026-5-1T7:32:36Z</time></trkpt>
<trkpt lat="48.929950714111" lon="2.8593187332153"><ele>92</ele><time>2026-5-1T7:32:39Z</time></trkpt>
<trkpt lat="48.930011749268" lon="2.8593833446503"><ele>92</ele><time>2026-5-1T7:32:42Z</time></trkpt>
<trkpt lat="48.930068969727" lon="2.8594446182251"><ele>92</ele><time>2026-5-1T7:32:45Z</time></trkpt>
<trkpt lat="48.930137634277" lon="2.8595244884491"><ele>92</ele><time>2026-5-1T7:32:48Z</time></trkpt>
<trkpt lat="48.930187225342" lon="2.8595798015594"><ele>92</ele><time>2026-5-1T7:32:51Z</time></trkpt>
<trkpt lat="48.930252075195" lon="2.8596360683441"><ele>92</ele><time>2026-5-1T7:32:54Z</time></trkpt>
<trkpt lat="48.930328369141" lon="2.8596999645233"><ele>92</ele><time>2026-5-1T7:32:57Z</time></trkpt>
<trkpt lat="48.930397033691" lon="2.8597574234009"><ele>92</ele><time>2026-5-1T7:33:0Z</time></trkpt>
<trkpt lat="48.930397033691" lon="2.8597574234009"><ele>92</ele><time>2026-5-1T7:33:3Z</time></trkpt>
<trkpt lat="48.930480957031" lon="2.8598346710205"><ele>92</ele><time>2026-5-1T7:33:6Z</time></trkpt>
<trkpt lat="48.93053817749" lon="2.8599002361298"><ele>92</ele><time>2026-5-1T7:33:9Z</time></trkpt>
<trkpt lat="48.930591583252" lon="2.8599557876587"><ele>93</ele><time>2026-5-1T7:33:12Z</time></trkpt>
<trkpt lat="48.930644989014" lon="2.8600091934204"><ele>93</ele><time>2026-5-1T7:33:15Z</time></trkpt>
<trkpt lat="48.930698394775" lon="2.8600597381592"><ele>93</ele><time>2026-5-1T7:33:18Z</time></trkpt>
<trkpt lat="48.930751800537" lon="2.8601036071777"><ele>93</ele><time>2026-5-1T7:33:21Z</time></trkpt>
<trkpt lat="48.930801391602" lon="2.8601489067078"><ele>93</ele><time>2026-5-1T7:33:24Z</time></trkpt>
<trkpt lat="48.930801391602" lon="2.8601489067078"><ele>93</ele><time>2026-5-1T7:33:27Z</time></trkpt>
<trkpt lat="48.930850982666" lon="2.8602018356323"><ele>94</ele><time>2026-5-1T7:33:30Z</time></trkpt>
<trkpt lat="48.930850982666" lon="2.8602018356323"><ele>94</ele><time>2026-5-1T7:33:33Z</time></trkpt>
<trkpt lat="48.930850982666" lon="2.8602018356323"><ele>94</ele><time>2026-5-1T7:33:36Z</time></trkpt>
<trkpt lat="48.93098449707" lon="2.8602793216705"><ele>94</ele><time>2026-5-1T7:33:39Z</time></trkpt>
<trkpt lat="48.931049346924" lon="2.8603374958038"><ele>94</ele><time>2026-5-1T7:33:42Z</time></trkpt>
<trkpt lat="48.931114196777" lon="2.8604006767273"><ele>95</ele><time>2026-5-1T7:33:45Z</time></trkpt>
<trkpt lat="48.931190490723" lon="2.8604776859283"><ele>95</ele><time>2026-5-1T7:33:48Z</time></trkpt>
<trkpt lat="48.931251525879" lon="2.8605406284332"><ele>95</ele><time>2026-5-1T7:33:51Z</time></trkpt>
<trkpt lat="48.931308746338" lon="2.8606011867523"><ele>95</ele><time>2026-5-1T7:33:54Z</time></trkpt>
<trkpt lat="48.9313621521" lon="2.8606634140015"><ele>95</ele><time>2026-5-1T7:33:57Z</time></trkpt>
<trkpt lat="48.931415557861" lon="2.8607144355774"><ele>95</ele><time>2026-5-1T7:34:0Z</time></trkpt>
<trkpt lat="48.931468963623" lon="2.8607783317566"><ele>95</ele><time>2026-5-1T7:34:3Z</time></trkpt>
<trkpt lat="48.931522369385" lon="2.8608362674713"><ele>95</ele><time>2026-5-1T7:34:6Z</time></trkpt>
<trkpt lat="48.931583404541" lon="2.8608958721161"><ele>95</ele><time>2026-5-1T7:34:9Z</time></trkpt>
<trkpt lat="48.931640625" lon="2.86097240448"><ele>95</ele><time>2026-5-1T7:34:12Z</time></trkpt>
<trkpt lat="48.931709289551" lon="2.8610286712646"><ele>95</ele><time>2026-5-1T7:34:15Z</time></trkpt>
<trkpt lat="48.93176651001" lon="2.8610734939575"><ele>94</ele><time>2026-5-1T7:34:18Z</time></trkpt>
<trkpt lat="48.931823730469" lon="2.8611299991608"><ele>94</ele><time>2026-5-1T7:34:21Z</time></trkpt>
<trkpt lat="48.93187713623" lon="2.8611786365509"><ele>94</ele><time>2026-5-1T7:34:24Z</time></trkpt>
<trkpt lat="48.931930541992" lon="2.861227273941"><ele>94</ele><time>2026-5-1T7:34:27Z</time></trkpt>
<trkpt lat="48.931980133057" lon="2.8612957000732"><ele>94</ele><time>2026-5-1T7:34:30Z</time></trkpt>
<trkpt lat="48.931980133057" lon="2.8612957000732"><ele>94</ele><time>2026-5-1T7:34:33Z</time></trkpt>
<trkpt lat="48.932060241699" lon="2.8613703250885"><ele>94</ele><time>2026-5-1T7:34:36Z</time></trkpt>
<trkpt lat="48.932117462158" lon="2.8614189624786"><ele>94</ele><time>2026-5-1T7:34:39Z</time></trkpt>
<trkpt lat="48.932186126709" lon="2.8614885807037"><ele>94</ele><time>2026-5-1T7:34:42Z</time></trkpt>
<trkpt lat="48.932270050049" lon="2.8615620136261"><ele>94</ele><time>2026-5-1T7:34:45Z</time></trkpt>
<trkpt lat="48.932350158691" lon="2.8616242408752"><ele>94</ele><time>2026-5-1T7:34:48Z</time></trkpt>
<trkpt lat="48.932411193848" lon="2.8616902828217"><ele>94</ele><time>2026-5-1T7:34:51Z</time></trkpt>
<trkpt lat="48.932472229004" lon="2.8617649078369"><ele>94</ele><time>2026-5-1T7:34:54Z</time></trkpt>
<trkpt lat="48.932537078857" lon="2.8618350028992"><ele>94</ele><time>2026-5-1T7:34:57Z</time></trkpt>
<trkpt lat="48.932613372803" lon="2.8619177341461"><ele>94</ele><time>2026-5-1T7:35:0Z</time></trkpt>
<trkpt lat="48.932685852051" lon="2.8620095252991"><ele>94</ele><time>2026-5-1T7:35:3Z</time></trkpt>
<trkpt lat="48.932750701904" lon="2.8620800971985"><ele>94</ele><time>2026-5-1T7:35:6Z</time></trkpt>
<trkpt lat="48.932823181152" lon="2.8621482849121"><ele>94</ele><time>2026-5-1T7:35:9Z</time></trkpt>
<trkpt lat="48.932876586914" lon="2.8622105121613"><ele>94</ele><time>2026-5-1T7:35:12Z</time></trkpt>
<trkpt lat="48.932929992676" lon="2.862254858017"><ele>94</ele><time>2026-5-1T7:35:15Z</time></trkpt>
<trkpt lat="48.932929992676" lon="2.862254858017"><ele>94</ele><time>2026-5-1T7:35:18Z</time></trkpt>
<trkpt lat="48.933025360107" lon="2.8623430728912"><ele>94</ele><time>2026-5-1T7:35:21Z</time></trkpt>
<trkpt lat="48.933025360107" lon="2.8623430728912"><ele>94</ele><time>2026-5-1T7:35:24Z</time></trkpt>
<trkpt lat="48.933120727539" lon="2.8624575138092"><ele>94</ele><time>2026-5-1T7:35:27Z</time></trkpt>
<trkpt lat="48.933170318604" lon="2.8625102043152"><ele>94</ele><time>2026-5-1T7:35:30Z</time></trkpt>
<trkpt lat="48.933170318604" lon="2.8625102043152"><ele>94</ele><time>2026-5-1T7:35:33Z</time></trkpt>
<trkpt lat="48.933258056641" lon="2.8626189231873"><ele>94</ele><time>2026-5-1T7:35:36Z</time></trkpt>
<trkpt lat="48.933258056641" lon="2.8626189231873"><ele>94</ele><time>2026-5-1T7:35:39Z</time></trkpt>
<trkpt lat="48.933353424072" lon="2.8627140522003"><ele>93</ele><time>2026-5-1T7:35:42Z</time></trkpt>
<trkpt lat="48.933418273926" lon="2.86279296875"><ele>93</ele><time>2026-5-1T7:35:45Z</time></trkpt>
<trkpt lat="48.933479309082" lon="2.8628535270691"><ele>92</ele><time>2026-5-1T7:35:48Z</time></trkpt>
<trkpt lat="48.933536529541" lon="2.8629167079926"><ele>92</ele><time>2026-5-1T7:35:51Z</time></trkpt>
<trkpt lat="48.933586120605" lon="2.8629739284515"><ele>92</ele><time>2026-5-1T7:35:54Z</time></trkpt>
<trkpt lat="48.933662414551" lon="2.8630549907684"><ele>92</ele><time>2026-5-1T7:35:57Z</time></trkpt>
<trkpt lat="48.93371963501" lon="2.8631224632263"><ele>92</ele><time>2026-5-1T7:36:0Z</time></trkpt>
<trkpt lat="48.933780670166" lon="2.8631694316864"><ele>91</ele><time>2026-5-1T7:36:3Z</time></trkpt>
<trkpt lat="48.933837890625" lon="2.8632173538208"><ele>91</ele><time>2026-5-1T7:36:6Z</time></trkpt>
<trkpt lat="48.933837890625" lon="2.8632173538208"><ele>91</ele><time>2026-5-1T7:36:9Z</time></trkpt>
<trkpt lat="48.933910369873" lon="2.8632743358612"><ele>91</ele><time>2026-5-1T7:36:12Z</time></trkpt>
<trkpt lat="48.933910369873" lon="2.8632743358612"><ele>91</ele><time>2026-5-1T7:36:15Z</time></trkpt>
<trkpt lat="48.934001922607" lon="2.8633527755737"><ele>91</ele><time>2026-5-1T7:36:18Z</time></trkpt>
<trkpt lat="48.934062957764" lon="2.8634083271027"><ele>91</ele><time>2026-5-1T7:36:21Z</time></trkpt>
<trkpt lat="48.934120178223" lon="2.8634376525879"><ele>91</ele><time>2026-5-1T7:36:24Z</time></trkpt>
<trkpt lat="48.934169769287" lon="2.8634879589081"><ele>91</ele><time>2026-5-1T7:36:27Z</time></trkpt>
<trkpt lat="48.934230804443" lon="2.8635442256927"><ele>91</ele><time>2026-5-1T7:36:30Z</time></trkpt>
<trkpt lat="48.934299468994" lon="2.863626241684"><ele>91</ele><time>2026-5-1T7:36:33Z</time></trkpt>
<trkpt lat="48.934375762939" lon="2.8637187480927"><ele>91</ele><time>2026-5-1T7:36:36Z</time></trkpt>
<trkpt lat="48.934436798096" lon="2.8637750148773"><ele>91</ele><time>2026-5-1T7:36:39Z</time></trkpt>
<trkpt lat="48.934509277344" lon="2.8638427257538"><ele>91</ele><time>2026-5-1T7:36:42Z</time></trkpt>
<trkpt lat="48.934581756592" lon="2.8639099597931"><ele>91</ele><time>2026-5-1T7:36:45Z</time></trkpt>
<trkpt lat="48.934665679932" lon="2.8639817237854"><ele>91</ele><time>2026-5-1T7:36:48Z</time></trkpt>
<trkpt lat="48.934730529785" lon="2.86403632164"><ele>91</ele><time>2026-5-1T7:36:51Z</time></trkpt>
<trkpt lat="48.934799194336" lon="2.8640954494476"><ele>91</ele><time>2026-5-1T7:36:54Z</time></trkpt>
<trkpt lat="48.934860229492" lon="2.8641285896301"><ele>91</ele><time>2026-5-1T7:36:57Z</time></trkpt>
<trkpt lat="48.934860229492" lon="2.8641285896301"><ele>91</ele><time>2026-5-1T7:37:0Z</time></trkpt>
<trkpt lat="48.934860229492" lon="2.8641285896301"><ele>91</ele><time>2026-5-1T7:37:3Z</time></trkpt>
<trkpt lat="48.934936523438" lon="2.8642222881317"><ele>91</ele><time>2026-5-1T7:37:6Z</time></trkpt>
<trkpt lat="48.934986114502" lon="2.8642838001251"><ele>91</ele><time>2026-5-1T7:37:9Z</time></trkpt>
<trkpt lat="48.935031890869" lon="2.8643369674683"><ele>91</ele><time>2026-5-1T7:37:12Z</time></trkpt>
<trkpt lat="48.935031890869" lon="2.8643369674683"><ele>91</ele><time>2026-5-1T7:37:15Z</time></trkpt>
<trkpt lat="48.935119628906" lon="2.8644626140594"><ele>91</ele><time>2026-5-1T7:37:18Z</time></trkpt>
<trkpt lat="48.935176849365" lon="2.8645167350769"><ele>91</ele><time>2026-5-1T7:37:21Z</time></trkpt>
<trkpt lat="48.935176849365" lon="2.8645167350769"><ele>91</ele><time>2026-5-1T7:37:24Z</time></trkpt>
<trkpt lat="48.935264587402" lon="2.8645989894867"><ele>91</ele><time>2026-5-1T7:37:27Z</time></trkpt>
<trkpt lat="48.935317993164" lon="2.8646669387817"><ele>90</ele><time>2026-5-1T7:37:30Z</time></trkpt>
<trkpt lat="48.935386657715" lon="2.8647553920746"><ele>90</ele><time>2026-5-1T7:37:33Z</time></trkpt>
<trkpt lat="48.935436248779" lon="2.8648142814636"><ele>90</ele><time>2026-5-1T7:37:36Z</time></trkpt>
<trkpt lat="48.935489654541" lon="2.8648617267609"><ele>90</ele><time>2026-5-1T7:37:39Z</time></trkpt>
<trkpt lat="48.935577392578" lon="2.8649468421936"><ele>89</ele><time>2026-5-1T7:37:42Z</time></trkpt>
<trkpt lat="48.93563079834" lon="2.8650000095367"><ele>89</ele><time>2026-5-1T7:37:45Z</time></trkpt>
<trkpt lat="48.935688018799" lon="2.8650457859039"><ele>89</ele><time>2026-5-1T7:37:48Z</time></trkpt>
<trkpt lat="48.935749053955" lon="2.8651173114777"><ele>89</ele><time>2026-5-1T7:37:51Z</time></trkpt>
<trkpt lat="48.935821533203" lon="2.8651711940765"><ele>89</ele><time>2026-5-1T7:37:54Z</time></trkpt>
<trkpt lat="48.935821533203" lon="2.8651711940765"><ele>89</ele><time>2026-5-1T7:37:57Z</time></trkpt>
<trkpt lat="48.935878753662" lon="2.8652415275574"><ele>89</ele><time>2026-5-1T7:38:0Z</time></trkpt>
<trkpt lat="48.935878753662" lon="2.8652415275574"><ele>89</ele><time>2026-5-1T7:38:3Z</time></trkpt>
<trkpt lat="48.935878753662" lon="2.8652415275574"><ele>89</ele><time>2026-5-1T7:38:6Z</time></trkpt>
<trkpt lat="48.935878753662" lon="2.8652415275574"><ele>89</ele><time>2026-5-1T7:38:9Z</time></trkpt>
<trkpt lat="48.935997009277" lon="2.8652858734131"><ele>89</ele><time>2026-5-1T7:38:12Z</time></trkpt>
<trkpt lat="48.93607711792" lon="2.8653693199158"><ele>89</ele><time>2026-5-1T7:38:15Z</time></trkpt>
<trkpt lat="48.936168670654" lon="2.8654701709747"><ele>88</ele><time>2026-5-1T7:38:18Z</time></trkpt>
<trkpt lat="48.936256408691" lon="2.8655917644501"><ele>88</ele><time>2026-5-1T7:38:21Z</time></trkpt>
<trkpt lat="48.936321258545" lon="2.8657011985779"><ele>87</ele><time>2026-5-1T7:38:24Z</time></trkpt>
<trkpt lat="48.936374664307" lon="2.8657712936401"><ele>87</ele><time>2026-5-1T7:38:27Z</time></trkpt>
<trkpt lat="48.936485290527" lon="2.8658654689789"><ele>86</ele><time>2026-5-1T7:38:30Z</time></trkpt>
<trkpt lat="48.936584472656" lon="2.8659512996674"><ele>86</ele><time>2026-5-1T7:38:33Z</time></trkpt>
<trkpt lat="48.936698913574" lon="2.8660669326782"><ele>86</ele><time>2026-5-1T7:38:36Z</time></trkpt>
<trkpt lat="48.936794281006" lon="2.8661601543427"><ele>86</ele><time>2026-5-1T7:38:39Z</time></trkpt>
<trkpt lat="48.936882019043" lon="2.866231918335"><ele>86</ele><time>2026-5-1T7:38:42Z</time></trkpt>
<trkpt lat="48.936965942383" lon="2.8663074970245"><ele>86</ele><time>2026-5-1T7:38:45Z</time></trkpt>
<trkpt lat="48.937026977539" lon="2.8663620948792"><ele>86</ele><time>2026-5-1T7:38:48Z</time></trkpt>
<trkpt lat="48.937103271484" lon="2.8664309978485"><ele>87</ele><time>2026-5-1T7:38:51Z</time></trkpt>
<trkpt lat="48.937103271484" lon="2.8664309978485"><ele>87</ele><time>2026-5-1T7:38:54Z</time></trkpt>
<trkpt lat="48.937183380127" lon="2.8665499687195"><ele>87</ele><time>2026-5-1T7:38:57Z</time></trkpt>
<trkpt lat="48.937271118164" lon="2.866628408432"><ele>87</ele><time>2026-5-1T7:39:0Z</time></trkpt>
<trkpt lat="48.937339782715" lon="2.8666670322418"><ele>87</ele><time>2026-5-1T7:39:3Z</time></trkpt>
<trkpt lat="48.937423706055" lon="2.8667271137238"><ele>88</ele><time>2026-5-1T7:39:6Z</time></trkpt>
<trkpt lat="48.937507629395" lon="2.8668110370636"><ele>88</ele><time>2026-5-1T7:39:9Z</time></trkpt>
<trkpt lat="48.937576293945" lon="2.8668735027313"><ele>88</ele><time>2026-5-1T7:39:12Z</time></trkpt>
<trkpt lat="48.937648773193" lon="2.8669259548187"><ele>89</ele><time>2026-5-1T7:39:15Z</time></trkpt>
<trkpt lat="48.937694549561" lon="2.8669908046722"><ele>89</ele><time>2026-5-1T7:39:18Z</time></trkpt>
<trkpt lat="48.937747955322" lon="2.8670527935028"><ele>89</ele><time>2026-5-1T7:39:21Z</time></trkpt>
<trkpt lat="48.937816619873" lon="2.8671255111694"><ele>89</ele><time>2026-5-1T7:39:24Z</time></trkpt>
<trkpt lat="48.937881469727" lon="2.8671844005585"><ele>89</ele><time>2026-5-1T7:39:27Z</time></trkpt>
<trkpt lat="48.937938690186" lon="2.8672389984131"><ele>89</ele><time>2026-5-1T7:39:30Z</time></trkpt>
<trkpt lat="48.937999725342" lon="2.8673093318939"><ele>89</ele><time>2026-5-1T7:39:33Z</time></trkpt>
<trkpt lat="48.938068389893" lon="2.8673751354218"><ele>89</ele><time>2026-5-1T7:39:36Z</time></trkpt>
<trkpt lat="48.938129425049" lon="2.8674352169037"><ele>89</ele><time>2026-5-1T7:39:39Z</time></trkpt>
<trkpt lat="48.938190460205" lon="2.8675017356873"><ele>89</ele><time>2026-5-1T7:39:42Z</time></trkpt>
<trkpt lat="48.93826675415" lon="2.8675534725189"><ele>89</ele><time>2026-5-1T7:39:45Z</time></trkpt>
<trkpt lat="48.938365936279" lon="2.8676500320435"><ele>89</ele><time>2026-5-1T7:39:48Z</time></trkpt>
<trkpt lat="48.938430786133" lon="2.8677208423615"><ele>89</ele><time>2026-5-1T7:39:51Z</time></trkpt>
<trkpt lat="48.938510894775" lon="2.8678016662598"><ele>89</ele><time>2026-5-1T7:39:54Z</time></trkpt>
<trkpt lat="48.938583374023" lon="2.8678843975067"><ele>89</ele><time>2026-5-1T7:39:57Z</time></trkpt>
<trkpt lat="48.93864440918" lon="2.8679528236389"><ele>89</ele><time>2026-5-1T7:40:0Z</time></trkpt>
<trkpt lat="48.938716888428" lon="2.8680081367493"><ele>89</ele><time>2026-5-1T7:40:3Z</time></trkpt>
<trkpt lat="48.938789367676" lon="2.8680620193481"><ele>89</ele><time>2026-5-1T7:40:6Z</time></trkpt>
<trkpt lat="48.938873291016" lon="2.8681201934814"><ele>89</ele><time>2026-5-1T7:40:9Z</time></trkpt>
<trkpt lat="48.938941955566" lon="2.8681972026825"><ele>90</ele><time>2026-5-1T7:40:12Z</time></trkpt>
<trkpt lat="48.939022064209" lon="2.8682539463043"><ele>90</ele><time>2026-5-1T7:40:15Z</time></trkpt>
<trkpt lat="48.939105987549" lon="2.8683195114136"><ele>90</ele><time>2026-5-1T7:40:18Z</time></trkpt>
<trkpt lat="48.939151763916" lon="2.8683791160583"><ele>90</ele><time>2026-5-1T7:40:21Z</time></trkpt>
<trkpt lat="48.939197540283" lon="2.8684494495392"><ele>90</ele><time>2026-5-1T7:40:24Z</time></trkpt>
<trkpt lat="48.939197540283" lon="2.8684494495392"><ele>90</ele><time>2026-5-1T7:40:27Z</time></trkpt>
<trkpt lat="48.939258575439" lon="2.8685827255249"><ele>91</ele><time>2026-5-1T7:40:30Z</time></trkpt>
<trkpt lat="48.939258575439" lon="2.8685827255249"><ele>91</ele><time>2026-5-1T7:40:33Z</time></trkpt>
<trkpt lat="48.939319610596" lon="2.8686575889587"><ele>91</ele><time>2026-5-1T7:40:36Z</time></trkpt>
<trkpt lat="48.939319610596" lon="2.8686575889587"><ele>91</ele><time>2026-5-1T7:40:39Z</time></trkpt>
<trkpt lat="48.939399719238" lon="2.868777513504"><ele>91</ele><time>2026-5-1T7:40:42Z</time></trkpt>
<trkpt lat="48.939399719238" lon="2.868777513504"><ele>91</ele><time>2026-5-1T7:40:45Z</time></trkpt>
<trkpt lat="48.939456939697" lon="2.8688652515411"><ele>91</ele><time>2026-5-1T7:40:48Z</time></trkpt>
<trkpt lat="48.939456939697" lon="2.8688652515411"><ele>91</ele><time>2026-5-1T7:40:51Z</time></trkpt>
<trkpt lat="48.93949508667" lon="2.8689196109772"><ele>91</ele><time>2026-5-1T7:40:54Z</time></trkpt>
<trkpt lat="48.939529418945" lon="2.8689739704132"><ele>91</ele><time>2026-5-1T7:40:57Z</time></trkpt>
<trkpt lat="48.939563751221" lon="2.8690338134766"><ele>90</ele><time>2026-5-1T7:41:0Z</time></trkpt>
<trkpt lat="48.939601898193" lon="2.8691034317017"><ele>90</ele><time>2026-5-1T7:41:3Z</time></trkpt>
<trkpt lat="48.939651489258" lon="2.8691742420197"><ele>90</ele><time>2026-5-1T7:41:6Z</time></trkpt>
<trkpt lat="48.939765930176" lon="2.8693385124207"><ele>90</ele><time>2026-5-1T7:41:9Z</time></trkpt>
<trkpt lat="48.939842224121" lon="2.8694412708282"><ele>89</ele><time>2026-5-1T7:41:12Z</time></trkpt>
<trkpt lat="48.939952850342" lon="2.8695819377899"><ele>89</ele><time>2026-5-1T7:41:15Z</time></trkpt>
<trkpt lat="48.940082550049" lon="2.86971783638"><ele>88</ele><time>2026-5-1T7:41:18Z</time></trkpt>
<trkpt lat="48.940200805664" lon="2.8698515892029"><ele>87</ele><time>2026-5-1T7:41:21Z</time></trkpt>
<trkpt lat="48.940250396729" lon="2.8698973655701"><ele>87</ele><time>2026-5-1T7:41:24Z</time></trkpt>
<trkpt lat="48.940338134766" lon="2.8699498176575"><ele>87</ele><time>2026-5-1T7:41:27Z</time></trkpt>
<trkpt lat="48.940422058105" lon="2.8700132369995"><ele>86</ele><time>2026-5-1T7:41:30Z</time></trkpt>
<trkpt lat="48.940509796143" lon="2.8700675964355"><ele>86</ele><time>2026-5-1T7:41:33Z</time></trkpt>
<trkpt lat="48.940589904785" lon="2.8701238632202"><ele>87</ele><time>2026-5-1T7:41:36Z</time></trkpt>
<trkpt lat="48.940673828125" lon="2.8701679706573"><ele>87</ele><time>2026-5-1T7:41:39Z</time></trkpt>
<trkpt lat="48.940673828125" lon="2.8701679706573"><ele>87</ele><time>2026-5-1T7:41:42Z</time></trkpt>
<trkpt lat="48.940780639648" lon="2.8702044487"><ele>87</ele><time>2026-5-1T7:41:45Z</time></trkpt>
<trkpt lat="48.940860748291" lon="2.8702123165131"><ele>87</ele><time>2026-5-1T7:41:48Z</time></trkpt>
<trkpt lat="48.940860748291" lon="2.8702123165131"><ele>87</ele><time>2026-5-1T7:41:51Z</time></trkpt>
<trkpt lat="48.940929412842" lon="2.8702006340027"><ele>87</ele><time>2026-5-1T7:41:54Z</time></trkpt>
<trkpt lat="48.940929412842" lon="2.8702006340027"><ele>87</ele><time>2026-5-1T7:41:57Z</time></trkpt>
<trkpt lat="48.940929412842" lon="2.8702006340027"><ele>87</ele><time>2026-5-1T7:42:0Z</time></trkpt>
<trkpt lat="48.940929412842" lon="2.8702006340027"><ele>87</ele><time>2026-5-1T7:42:3Z</time></trkpt>
<trkpt lat="48.940929412842" lon="2.8702006340027"><ele>87</ele><time>2026-5-1T7:42:6Z</time></trkpt>
<trkpt lat="48.941139221191" lon="2.8703937530518"><ele>90</ele><time>2026-5-1T7:42:9Z</time></trkpt>
<trkpt lat="48.941226959229" lon="2.8705279827118"><ele>90</ele><time>2026-5-1T7:42:12Z</time></trkpt>
<trkpt lat="48.941379547119" lon="2.8707015514374"><ele>90</ele><time>2026-5-1T7:42:15Z</time></trkpt>
<trkpt lat="48.941471099854" lon="2.8707721233368"><ele>90</ele><time>2026-5-1T7:42:18Z</time></trkpt>
<trkpt lat="48.94153213501" lon="2.8708205223083"><ele>89</ele><time>2026-5-1T7:42:21Z</time></trkpt>
<trkpt lat="48.941581726074" lon="2.8708839416504"><ele>89</ele><time>2026-5-1T7:42:24Z</time></trkpt>
<trkpt lat="48.941635131836" lon="2.8709502220154"><ele>89</ele><time>2026-5-1T7:42:27Z</time></trkpt>
<trkpt lat="48.941699981689" lon="2.8710336685181"><ele>89</ele><time>2026-5-1T7:42:30Z</time></trkpt>
<trkpt lat="48.941753387451" lon="2.8710985183716"><ele>89</ele><time>2026-5-1T7:42:33Z</time></trkpt>
<trkpt lat="48.941806793213" lon="2.8711638450623"><ele>88</ele><time>2026-5-1T7:42:36Z</time></trkpt>
<trkpt lat="48.941860198975" lon="2.871235370636"><ele>88</ele><time>2026-5-1T7:42:39Z</time></trkpt>
<trkpt lat="48.941905975342" lon="2.8713021278381"><ele>88</ele><time>2026-5-1T7:42:42Z</time></trkpt>
<trkpt lat="48.941974639893" lon="2.8714203834534"><ele>87</ele><time>2026-5-1T7:42:45Z</time></trkpt>
<trkpt lat="48.942035675049" lon="2.8715209960938"><ele>86</ele><time>2026-5-1T7:42:48Z</time></trkpt>
<trkpt lat="48.942035675049" lon="2.8715209960938"><ele>86</ele><time>2026-5-1T7:42:51Z</time></trkpt>
<trkpt lat="48.942108154297" lon="2.8716289997101"><ele>86</ele><time>2026-5-1T7:42:54Z</time></trkpt>
<trkpt lat="48.942157745361" lon="2.871698141098"><ele>86</ele><time>2026-5-1T7:42:57Z</time></trkpt>
<trkpt lat="48.942272186279" lon="2.8718287944794"><ele>85</ele><time>2026-5-1T7:43:0Z</time></trkpt>
<trkpt lat="48.942329406738" lon="2.871901512146"><ele>85</ele><time>2026-5-1T7:43:3Z</time></trkpt>
<trkpt lat="48.942394256592" lon="2.871978521347"><ele>84</ele><time>2026-5-1T7:43:6Z</time></trkpt>
<trkpt lat="48.942501068115" lon="2.8720772266388"><ele>83</ele><time>2026-5-1T7:43:9Z</time></trkpt>
<trkpt lat="48.942653656006" lon="2.8721928596497"><ele>82</ele><time>2026-5-1T7:43:12Z</time></trkpt>
<trkpt lat="48.942890167236" lon="2.8722610473633"><ele>82</ele><time>2026-5-1T7:43:15Z</time></trkpt>
<trkpt lat="48.943042755127" lon="2.8723084926605"><ele>83</ele><time>2026-5-1T7:43:18Z</time></trkpt>
<trkpt lat="48.943115234375" lon="2.872367143631"><ele>83</ele><time>2026-5-1T7:43:21Z</time></trkpt>
<trkpt lat="48.943176269531" lon="2.872406244278"><ele>83</ele><time>2026-5-1T7:43:24Z</time></trkpt>
<trkpt lat="48.943237304688" lon="2.8724679946899"><ele>84</ele><time>2026-5-1T7:43:27Z</time></trkpt>
<trkpt lat="48.943290710449" lon="2.8725023269653"><ele>84</ele><time>2026-5-1T7:43:30Z</time></trkpt>
<trkpt lat="48.943351745605" lon="2.8725545406342"><ele>85</ele><time>2026-5-1T7:43:33Z</time></trkpt>
<trkpt lat="48.943420410156" lon="2.8726170063019"><ele>85</ele><time>2026-5-1T7:43:36Z</time></trkpt>
<trkpt lat="48.943489074707" lon="2.8726933002472"><ele>86</ele><time>2026-5-1T7:43:39Z</time></trkpt>
<trkpt lat="48.943561553955" lon="2.8727788925171"><ele>86</ele><time>2026-5-1T7:43:42Z</time></trkpt>
<trkpt lat="48.943630218506" lon="2.8728518486023"><ele>86</ele><time>2026-5-1T7:43:45Z</time></trkpt>
<trkpt lat="48.943691253662" lon="2.8729078769684"><ele>86</ele><time>2026-5-1T7:43:48Z</time></trkpt>
<trkpt lat="48.943752288818" lon="2.8729727268219"><ele>87</ele><time>2026-5-1T7:43:51Z</time></trkpt>
<trkpt lat="48.943820953369" lon="2.8730432987213"><ele>87</ele><time>2026-5-1T7:43:54Z</time></trkpt>
<trkpt lat="48.943893432617" lon="2.8731172084808"><ele>87</ele><time>2026-5-1T7:43:57Z</time></trkpt>
<trkpt lat="48.943954467773" lon="2.8731727600098"><ele>88</ele><time>2026-5-1T7:44:0Z</time></trkpt>
<trkpt lat="48.944019317627" lon="2.8732445240021"><ele>88</ele><time>2026-5-1T7:44:3Z</time></trkpt>
<trkpt lat="48.944080352783" lon="2.8733062744141"><ele>88</ele><time>2026-5-1T7:44:6Z</time></trkpt>
<trkpt lat="48.944149017334" lon="2.873378276825"><ele>88</ele><time>2026-5-1T7:44:9Z</time></trkpt>
<trkpt lat="48.944213867188" lon="2.873434305191"><ele>89</ele><time>2026-5-1T7:44:12Z</time></trkpt>
<trkpt lat="48.944278717041" lon="2.8734900951385"><ele>89</ele><time>2026-5-1T7:44:15Z</time></trkpt>
<trkpt lat="48.944351196289" lon="2.8735542297363"><ele>89</ele><time>2026-5-1T7:44:18Z</time></trkpt>
<trkpt lat="48.944351196289" lon="2.8735542297363"><ele>89</ele><time>2026-5-1T7:44:21Z</time></trkpt>
<trkpt lat="48.944450378418" lon="2.8736574649811"><ele>89</ele><time>2026-5-1T7:44:24Z</time></trkpt>
<trkpt lat="48.944515228271" lon="2.8737201690674"><ele>89</ele><time>2026-5-1T7:44:27Z</time></trkpt>
<trkpt lat="48.944576263428" lon="2.8737964630127"><ele>90</ele><time>2026-5-1T7:44:30Z</time></trkpt>
<trkpt lat="48.944576263428" lon="2.8737964630127"><ele>90</ele><time>2026-5-1T7:44:33Z</time></trkpt>
<trkpt lat="48.944690704346" lon="2.8739011287689"><ele>90</ele><time>2026-5-1T7:44:36Z</time></trkpt>
<trkpt lat="48.944759368896" lon="2.873955488205"><ele>91</ele><time>2026-5-1T7:44:39Z</time></trkpt>
<trkpt lat="48.944831848145" lon="2.8740348815918"><ele>91</ele><time>2026-5-1T7:44:42Z</time></trkpt>
<trkpt lat="48.944877624512" lon="2.8740849494934"><ele>91</ele><time>2026-5-1T7:44:45Z</time></trkpt>
<trkpt lat="48.944995880127" lon="2.8742039203644"><ele>92</ele><time>2026-5-1T7:44:48Z</time></trkpt>
<trkpt lat="48.945056915283" lon="2.8742597103119"><ele>92</ele><time>2026-5-1T7:44:51Z</time></trkpt>
<trkpt lat="48.945056915283" lon="2.8742597103119"><ele>92</ele><time>2026-5-1T7:44:54Z</time></trkpt>
<trkpt lat="48.945148468018" lon="2.8743536472321"><ele>92</ele><time>2026-5-1T7:44:57Z</time></trkpt>
<trkpt lat="48.945205688477" lon="2.8744246959686"><ele>92</ele><time>2026-5-1T7:45:0Z</time></trkpt>
<trkpt lat="48.945281982422" lon="2.8745028972626"><ele>92</ele><time>2026-5-1T7:45:3Z</time></trkpt>
<trkpt lat="48.945365905762" lon="2.8745834827423"><ele>92</ele><time>2026-5-1T7:45:6Z</time></trkpt>
<trkpt lat="48.945434570312" lon="2.8746521472931"><ele>92</ele><time>2026-5-1T7:45:9Z</time></trkpt>
<trkpt lat="48.945499420166" lon="2.8747138977051"><ele>92</ele><time>2026-5-1T7:45:12Z</time></trkpt>
<trkpt lat="48.945552825928" lon="2.8747670650482"><ele>92</ele><time>2026-5-1T7:45:15Z</time></trkpt>
<trkpt lat="48.945613861084" lon="2.8748245239258"><ele>92</ele><time>2026-5-1T7:45:18Z</time></trkpt>
<trkpt lat="48.945671081543" lon="2.8748924732208"><ele>92</ele><time>2026-5-1T7:45:21Z</time></trkpt>
<trkpt lat="48.945735931396" lon="2.8749544620514"><ele>92</ele><time>2026-5-1T7:45:24Z</time></trkpt>
<trkpt lat="48.945804595947" lon="2.8750188350677"><ele>92</ele><time>2026-5-1T7:45:27Z</time></trkpt>
<trkpt lat="48.94588470459" lon="2.8750956058502"><ele>92</ele><time>2026-5-1T7:45:30Z</time></trkpt>
<trkpt lat="48.945941925049" lon="2.8751630783081"><ele>92</ele><time>2026-5-1T7:45:33Z</time></trkpt>
<trkpt lat="48.946002960205" lon="2.8752274513245"><ele>92</ele><time>2026-5-1T7:45:36Z</time></trkpt>
<trkpt lat="48.946063995361" lon="2.8752899169922"><ele>92</ele><time>2026-5-1T7:45:39Z</time></trkpt>
<trkpt lat="48.94612121582" lon="2.875335931778"><ele>92</ele><time>2026-5-1T7:45:42Z</time></trkpt>
<trkpt lat="48.946186065674" lon="2.8753957748413"><ele>92</ele><time>2026-5-1T7:45:45Z</time></trkpt>
<trkpt lat="48.946254730225" lon="2.8754558563232"><ele>91</ele><time>2026-5-1T7:45:48Z</time></trkpt>
<trkpt lat="48.94633102417" lon="2.8755190372467"><ele>91</ele><time>2026-5-1T7:45:51Z</time></trkpt>
<trkpt lat="48.946403503418" lon="2.8755850791931"><ele>91</ele><time>2026-5-1T7:45:54Z</time></trkpt>
<trkpt lat="48.946464538574" lon="2.8756453990936"><ele>91</ele><time>2026-5-1T7:45:57Z</time></trkpt>
<trkpt lat="48.946537017822" lon="2.8757221698761"><ele>91</ele><time>2026-5-1T7:46:0Z</time></trkpt>
<trkpt lat="48.946601867676" lon="2.8757944107056"><ele>91</ele><time>2026-5-1T7:46:3Z</time></trkpt>
<trkpt lat="48.946678161621" lon="2.8758618831635"><ele>91</ele><time>2026-5-1T7:46:6Z</time></trkpt>
<trkpt lat="48.946743011475" lon="2.8759136199951"><ele>91</ele><time>2026-5-1T7:46:9Z</time></trkpt>
<trkpt lat="48.946800231934" lon="2.8759665489197"><ele>91</ele><time>2026-5-1T7:46:12Z</time></trkpt>
<trkpt lat="48.94686126709" lon="2.8760287761688"><ele>90</ele><time>2026-5-1T7:46:15Z</time></trkpt>
<trkpt lat="48.946929931641" lon="2.8760952949524"><ele>90</ele><time>2026-5-1T7:46:18Z</time></trkpt>
<trkpt lat="48.946994781494" lon="2.8761579990387"><ele>90</ele><time>2026-5-1T7:46:21Z</time></trkpt>
<trkpt lat="48.94705581665" lon="2.8762147426605"><ele>90</ele><time>2026-5-1T7:46:24Z</time></trkpt>
<trkpt lat="48.947109222412" lon="2.8762745857239"><ele>90</ele><time>2026-5-1T7:46:27Z</time></trkpt>
<trkpt lat="48.947162628174" lon="2.8763453960419"><ele>91</ele><time>2026-5-1T7:46:30Z</time></trkpt>
<trkpt lat="48.947216033936" lon="2.8763928413391"><ele>91</ele><time>2026-5-1T7:46:33Z</time></trkpt>
<trkpt lat="48.947280883789" lon="2.8764309883118"><ele>91</ele><time>2026-5-1T7:46:36Z</time></trkpt>
<trkpt lat="48.947345733643" lon="2.8764631748199"><ele>91</ele><time>2026-5-1T7:46:39Z</time></trkpt>
<trkpt lat="48.947345733643" lon="2.8764631748199"><ele>91</ele><time>2026-5-1T7:46:42Z</time></trkpt>
<trkpt lat="48.947463989258" lon="2.8765189647675"><ele>90</ele><time>2026-5-1T7:46:45Z</time></trkpt>
<trkpt lat="48.947463989258" lon="2.8765189647675"><ele>90</ele><time>2026-5-1T7:46:48Z</time></trkpt>
<trkpt lat="48.947578430176" lon="2.8766057491302"><ele>90</ele><time>2026-5-1T7:46:51Z</time></trkpt>
<trkpt lat="48.947631835938" lon="2.8766493797302"><ele>91</ele><time>2026-5-1T7:46:54Z</time></trkpt>
<trkpt lat="48.947704315186" lon="2.8767023086548"><ele>91</ele><time>2026-5-1T7:46:57Z</time></trkpt>
<trkpt lat="48.947772979736" lon="2.8767523765564"><ele>91</ele><time>2026-5-1T7:47:0Z</time></trkpt>
<trkpt lat="48.94783782959" lon="2.8767940998077"><ele>91</ele><time>2026-5-1T7:47:3Z</time></trkpt>
<trkpt lat="48.947898864746" lon="2.8768255710602"><ele>91</ele><time>2026-5-1T7:47:6Z</time></trkpt>
<trkpt lat="48.947956085205" lon="2.8768546581268"><ele>91</ele><time>2026-5-1T7:47:9Z</time></trkpt>
<trkpt lat="48.947956085205" lon="2.8768546581268"><ele>91</ele><time>2026-5-1T7:47:12Z</time></trkpt>
<trkpt lat="48.948047637939" lon="2.8769028186798"><ele>92</ele><time>2026-5-1T7:47:15Z</time></trkpt>
<trkpt lat="48.948047637939" lon="2.8769028186798"><ele>92</ele><time>2026-5-1T7:47:18Z</time></trkpt>
<trkpt lat="48.948169708252" lon="2.8769671916962"><ele>92</ele><time>2026-5-1T7:47:21Z</time></trkpt>
<trkpt lat="48.948169708252" lon="2.8769671916962"><ele>92</ele><time>2026-5-1T7:47:24Z</time></trkpt>
<trkpt lat="48.948291778564" lon="2.8770403862"><ele>93</ele><time>2026-5-1T7:47:27Z</time></trkpt>
<trkpt lat="48.948356628418" lon="2.8770718574524"><ele>93</ele><time>2026-5-1T7:47:30Z</time></trkpt>
<trkpt lat="48.948432922363" lon="2.8771021366119"><ele>93</ele><time>2026-5-1T7:47:33Z</time></trkpt>
<trkpt lat="48.948497772217" lon="2.87713098526"><ele>93</ele><time>2026-5-1T7:47:36Z</time></trkpt>
<trkpt lat="48.948558807373" lon="2.8771660327911"><ele>94</ele><time>2026-5-1T7:47:39Z</time></trkpt>
<trkpt lat="48.948635101318" lon="2.8771975040436"><ele>94</ele><time>2026-5-1T7:47:42Z</time></trkpt>
<trkpt lat="48.948722839355" lon="2.8772263526917"><ele>94</ele><time>2026-5-1T7:47:45Z</time></trkpt>
<trkpt lat="48.948799133301" lon="2.8772554397583"><ele>95</ele><time>2026-5-1T7:47:48Z</time></trkpt>
<trkpt lat="48.948879241943" lon="2.8772902488708"><ele>95</ele><time>2026-5-1T7:47:51Z</time></trkpt>
<trkpt lat="48.948951721191" lon="2.8773262500763"><ele>95</ele><time>2026-5-1T7:47:54Z</time></trkpt>
<trkpt lat="48.949020385742" lon="2.8773672580719"><ele>95</ele><time>2026-5-1T7:47:57Z</time></trkpt>
<trkpt lat="48.94909286499" lon="2.8773999214172"><ele>96</ele><time>2026-5-1T7:48:0Z</time></trkpt>
<trkpt lat="48.949172973633" lon="2.8774363994598"><ele>96</ele><time>2026-5-1T7:48:3Z</time></trkpt>
<trkpt lat="48.94926071167" lon="2.8774650096893"><ele>97</ele><time>2026-5-1T7:48:6Z</time></trkpt>
<trkpt lat="48.949348449707" lon="2.877498626709"><ele>98</ele><time>2026-5-1T7:48:9Z</time></trkpt>
<trkpt lat="48.949443817139" lon="2.8775417804718"><ele>98</ele><time>2026-5-1T7:48:12Z</time></trkpt>
<trkpt lat="48.949523925781" lon="2.8775813579559"><ele>99</ele><time>2026-5-1T7:48:15Z</time></trkpt>
<trkpt lat="48.949588775635" lon="2.8776202201843"><ele>100</ele><time>2026-5-1T7:48:18Z</time></trkpt>
<trkpt lat="48.949661254883" lon="2.8776631355286"><ele>101</ele><time>2026-5-1T7:48:21Z</time></trkpt>
<trkpt lat="48.949745178223" lon="2.8777048587799"><ele>102</ele><time>2026-5-1T7:48:24Z</time></trkpt>
<trkpt lat="48.949821472168" lon="2.8777482509613"><ele>102</ele><time>2026-5-1T7:48:27Z</time></trkpt>
<trkpt lat="48.949920654297" lon="2.8777847290039"><ele>101</ele><time>2026-5-1T7:48:30Z</time></trkpt>
<trkpt lat="48.950016021729" lon="2.8778219223022"><ele>100</ele><time>2026-5-1T7:48:33Z</time></trkpt>
<trkpt lat="48.950092315674" lon="2.877854347229"><ele>100</ele><time>2026-5-1T7:48:36Z</time></trkpt>
<trkpt lat="48.950168609619" lon="2.8778865337372"><ele>99</ele><time>2026-5-1T7:48:39Z</time></trkpt>
<trkpt lat="48.95023727417" lon="2.8779079914093"><ele>98</ele><time>2026-5-1T7:48:42Z</time></trkpt>
<trkpt lat="48.95032119751" lon="2.8779346942902"><ele>98</ele><time>2026-5-1T7:48:45Z</time></trkpt>
<trkpt lat="48.950397491455" lon="2.8779609203339"><ele>97</ele><time>2026-5-1T7:48:48Z</time></trkpt>
<trkpt lat="48.950466156006" lon="2.8779852390289"><ele>97</ele><time>2026-5-1T7:48:51Z</time></trkpt>
<trkpt lat="48.950523376465" lon="2.8780009746552"><ele>97</ele><time>2026-5-1T7:48:54Z</time></trkpt>
<trkpt lat="48.950523376465" lon="2.8780009746552"><ele>97</ele><time>2026-5-1T7:48:57Z</time></trkpt>
<trkpt lat="48.950618743896" lon="2.8780026435852"><ele>97</ele><time>2026-5-1T7:49:0Z</time></trkpt>
<trkpt lat="48.950675964355" lon="2.8779814243317"><ele>97</ele><time>2026-5-1T7:49:3Z</time></trkpt>
<trkpt lat="48.950733184814" lon="2.877947807312"><ele>97</ele><time>2026-5-1T7:49:6Z</time></trkpt>
<trkpt lat="48.950794219971" lon="2.8779242038727"><ele>97</ele><time>2026-5-1T7:49:9Z</time></trkpt>
<trkpt lat="48.950794219971" lon="2.8779242038727"><ele>97</ele><time>2026-5-1T7:49:12Z</time></trkpt>
<trkpt lat="48.950878143311" lon="2.8779480457306"><ele>97</ele><time>2026-5-1T7:49:15Z</time></trkpt>
<trkpt lat="48.950878143311" lon="2.8779480457306"><ele>97</ele><time>2026-5-1T7:49:18Z</time></trkpt>
<trkpt lat="48.950878143311" lon="2.8779480457306"><ele>97</ele><time>2026-5-1T7:49:21Z</time></trkpt>
<trkpt lat="48.950878143311" lon="2.8779480457306"><ele>97</ele><time>2026-5-1T7:49:24Z</time></trkpt>
<trkpt lat="48.950878143311" lon="2.8779480457306"><ele>97</ele><time>2026-5-1T7:49:27Z</time></trkpt>
<trkpt lat="48.950798034668" lon="2.8779182434082"><ele>97</ele><time>2026-5-1T7:49:30Z</time></trkpt>
<trkpt lat="48.950798034668" lon="2.8779182434082"><ele>97</ele><time>2026-5-1T7:49:33Z</time></trkpt>
<trkpt lat="48.950798034668" lon="2.8779182434082"><ele>97</ele><time>2026-5-1T7:49:36Z</time></trkpt>
<trkpt lat="48.950798034668" lon="2.8779182434082"><ele>97</ele><time>2026-5-1T7:49:39Z</time></trkpt>
<trkpt lat="48.950859069824" lon="2.8780250549316"><ele>96</ele><time>2026-5-1T7:49:42Z</time></trkpt>
<trkpt lat="48.950897216797" lon="2.8780963420868"><ele>96</ele><time>2026-5-1T7:49:45Z</time></trkpt>
<trkpt lat="48.9508934021" lon="2.8779282569885"><ele>96</ele><time>2026-5-1T7:49:48Z</time></trkpt>
<trkpt lat="48.9508934021" lon="2.8779282569885"><ele>96</ele><time>2026-5-1T7:49:51Z</time></trkpt>
<trkpt lat="48.950923919678" lon="2.8777816295624"><ele>96</ele><time>2026-5-1T7:49:54Z</time></trkpt>
<trkpt lat="48.950950622559" lon="2.877626657486"><ele>95</ele><time>2026-5-1T7:49:57Z</time></trkpt>
<trkpt lat="48.950973510742" lon="2.8775415420532"><ele>95</ele><time>2026-5-1T7:50:0Z</time></trkpt>
<trkpt lat="48.950992584229" lon="2.8774521350861"><ele>95</ele><time>2026-5-1T7:50:3Z</time></trkpt>
<trkpt lat="48.951015472412" lon="2.8773677349091"><ele>95</ele><time>2026-5-1T7:50:6Z</time></trkpt>
<trkpt lat="48.951042175293" lon="2.8772656917572"><ele>95</ele><time>2026-5-1T7:50:9Z</time></trkpt>
<trkpt lat="48.951107025146" lon="2.877156496048"><ele>96</ele><time>2026-5-1T7:50:12Z</time></trkpt>
<trkpt lat="48.951175689697" lon="2.8770704269409"><ele>96</ele><time>2026-5-1T7:50:15Z</time></trkpt>
<trkpt lat="48.95125579834" lon="2.877016544342"><ele>96</ele><time>2026-5-1T7:50:18Z</time></trkpt>
<trkpt lat="48.951332092285" lon="2.8769690990448"><ele>96</ele><time>2026-5-1T7:50:21Z</time></trkpt>
<trkpt lat="48.951419830322" lon="2.8769261837006"><ele>96</ele><time>2026-5-1T7:50:24Z</time></trkpt>
<trkpt lat="48.95149230957" lon="2.8769094944"><ele>96</ele><time>2026-5-1T7:50:27Z</time></trkpt>
<trkpt lat="48.95149230957" lon="2.8769094944"><ele>96</ele><time>2026-5-1T7:50:30Z</time></trkpt>
<trkpt lat="48.951587677002" lon="2.8769028186798"><ele>96</ele><time>2026-5-1T7:50:33Z</time></trkpt>
<trkpt lat="48.951587677002" lon="2.8769028186798"><ele>96</ele><time>2026-5-1T7:50:36Z</time></trkpt>
<trkpt lat="48.951679229736" lon="2.8769164085388"><ele>95</ele><time>2026-5-1T7:50:39Z</time></trkpt>
<trkpt lat="48.951679229736" lon="2.8769164085388"><ele>95</ele><time>2026-5-1T7:50:42Z</time></trkpt>
<trkpt lat="48.951778411865" lon="2.8769266605377"><ele>95</ele><time>2026-5-1T7:50:45Z</time></trkpt>
<trkpt lat="48.951843261719" lon="2.8769156932831"><ele>95</ele><time>2026-5-1T7:50:48Z</time></trkpt>
<trkpt lat="48.95191192627" lon="2.8769311904907"><ele>95</ele><time>2026-5-1T7:50:51Z</time></trkpt>
<trkpt lat="48.951984405518" lon="2.877025604248"><ele>95</ele><time>2026-5-1T7:50:54Z</time></trkpt>
<trkpt lat="48.952033996582" lon="2.8771419525146"><ele>95</ele><time>2026-5-1T7:50:57Z</time></trkpt>
<trkpt lat="48.952060699463" lon="2.8772330284119"><ele>95</ele><time>2026-5-1T7:51:0Z</time></trkpt>
<trkpt lat="48.952095031738" lon="2.8773410320282"><ele>95</ele><time>2026-5-1T7:51:3Z</time></trkpt>
<trkpt lat="48.952144622803" lon="2.8774485588074"><ele>94</ele><time>2026-5-1T7:51:6Z</time></trkpt>
<trkpt lat="48.952144622803" lon="2.8774485588074"><ele>94</ele><time>2026-5-1T7:51:9Z</time></trkpt>
<trkpt lat="48.95210647583" lon="2.8775568008423"><ele>94</ele><time>2026-5-1T7:51:12Z</time></trkpt>
<trkpt lat="48.95210647583" lon="2.8775568008423"><ele>94</ele><time>2026-5-1T7:51:15Z</time></trkpt>
<trkpt lat="48.952075958252" lon="2.8777344226837"><ele>93</ele><time>2026-5-1T7:51:18Z</time></trkpt>
<trkpt lat="48.952075958252" lon="2.8778579235077"><ele>93</ele><time>2026-5-1T7:51:21Z</time></trkpt>
<trkpt lat="48.952087402344" lon="2.8779845237732"><ele>93</ele><time>2026-5-1T7:51:24Z</time></trkpt>
<trkpt lat="48.952102661133" lon="2.8781123161316"><ele>92</ele><time>2026-5-1T7:51:27Z</time></trkpt>
<trkpt lat="48.952102661133" lon="2.8781123161316"><ele>92</ele><time>2026-5-1T7:51:30Z</time></trkpt>
<trkpt lat="48.952144622803" lon="2.8782134056091"><ele>91</ele><time>2026-5-1T7:51:33Z</time></trkpt>
<trkpt lat="48.952144622803" lon="2.8782134056091"><ele>91</ele><time>2026-5-1T7:51:36Z</time></trkpt>
<trkpt lat="48.952236175537" lon="2.8782505989075"><ele>91</ele><time>2026-5-1T7:51:39Z</time></trkpt>
<trkpt lat="48.952236175537" lon="2.8782505989075"><ele>91</ele><time>2026-5-1T7:51:42Z</time></trkpt>
<trkpt lat="48.952323913574" lon="2.8782436847687"><ele>91</ele><time>2026-5-1T7:51:45Z</time></trkpt>
<trkpt lat="48.952323913574" lon="2.8782436847687"><ele>91</ele><time>2026-5-1T7:51:48Z</time></trkpt>
<trkpt lat="48.952388763428" lon="2.8781864643097"><ele>91</ele><time>2026-5-1T7:51:51Z</time></trkpt>
<trkpt lat="48.952388763428" lon="2.8781864643097"><ele>91</ele><time>2026-5-1T7:51:54Z</time></trkpt>
<trkpt lat="48.952388763428" lon="2.8781864643097"><ele>91</ele><time>2026-5-1T7:51:57Z</time></trkpt>
<trkpt lat="48.952388763428" lon="2.8781864643097"><ele>91</ele><time>2026-5-1T7:52:0Z</time></trkpt>
<trkpt lat="48.952388763428" lon="2.8781864643097"><ele>91</ele><time>2026-5-1T7:52:3Z</time></trkpt>
<trkpt lat="48.952388763428" lon="2.8781864643097"><ele>91</ele><time>2026-5-1T7:52:6Z</time></trkpt>
<trkpt lat="48.95255279541" lon="2.8782460689545"><ele>92</ele><time>2026-5-1T7:52:9Z</time></trkpt>
<trkpt lat="48.952644348145" lon="2.8782274723053"><ele>93</ele><time>2026-5-1T7:52:12Z</time></trkpt>
<trkpt lat="48.952693939209" lon="2.8780899047852"><ele>93</ele><time>2026-5-1T7:52:15Z</time></trkpt>
<trkpt lat="48.952716827393" lon="2.8780045509338"><ele>93</ele><time>2026-5-1T7:52:18Z</time></trkpt>
<trkpt lat="48.952739715576" lon="2.8779065608978"><ele>93</ele><time>2026-5-1T7:52:21Z</time></trkpt>
<trkpt lat="48.952739715576" lon="2.8779065608978"><ele>93</ele><time>2026-5-1T7:52:24Z</time></trkpt>
<trkpt lat="48.952808380127" lon="2.8778195381165"><ele>93</ele><time>2026-5-1T7:52:27Z</time></trkpt>
<trkpt lat="48.952865600586" lon="2.8777701854706"><ele>93</ele><time>2026-5-1T7:52:30Z</time></trkpt>
<trkpt lat="48.952930450439" lon="2.8777425289154"><ele>93</ele><time>2026-5-1T7:52:33Z</time></trkpt>
<trkpt lat="48.953025817871" lon="2.8776743412018"><ele>93</ele><time>2026-5-1T7:52:36Z</time></trkpt>
<trkpt lat="48.953094482422" lon="2.877589225769"><ele>94</ele><time>2026-5-1T7:52:39Z</time></trkpt>
<trkpt lat="48.953094482422" lon="2.877589225769"><ele>94</ele><time>2026-5-1T7:52:42Z</time></trkpt>
<trkpt lat="48.953105926514" lon="2.8774728775024"><ele>94</ele><time>2026-5-1T7:52:45Z</time></trkpt>
<trkpt lat="48.953105926514" lon="2.8774728775024"><ele>94</ele><time>2026-5-1T7:52:48Z</time></trkpt>
<trkpt lat="48.953163146973" lon="2.8773748874664"><ele>94</ele><time>2026-5-1T7:52:51Z</time></trkpt>
<trkpt lat="48.953163146973" lon="2.8773748874664"><ele>94</ele><time>2026-5-1T7:52:54Z</time></trkpt>
<trkpt lat="48.953227996826" lon="2.877251625061"><ele>94</ele><time>2026-5-1T7:52:57Z</time></trkpt>
<trkpt lat="48.953285217285" lon="2.8771185874939"><ele>94</ele><time>2026-5-1T7:53:0Z</time></trkpt>
<trkpt lat="48.95333480835" lon="2.877067565918"><ele>94</ele><time>2026-5-1T7:53:3Z</time></trkpt>
<trkpt lat="48.95333480835" lon="2.877067565918"><ele>94</ele><time>2026-5-1T7:53:6Z</time></trkpt>
<trkpt lat="48.95333480835" lon="2.877067565918"><ele>94</ele><time>2026-5-1T7:53:9Z</time></trkpt>
<trkpt lat="48.95333480835" lon="2.877067565918"><ele>94</ele><time>2026-5-1T7:53:12Z</time></trkpt>
<trkpt lat="48.9534034729" lon="2.8769240379333"><ele>95</ele><time>2026-5-1T7:53:15Z</time></trkpt>
<trkpt lat="48.953453063965" lon="2.8768224716187"><ele>95</ele><time>2026-5-1T7:53:18Z</time></trkpt>
<trkpt lat="48.953453063965" lon="2.8768224716187"><ele>95</ele><time>2026-5-1T7:53:21Z</time></trkpt>
<trkpt lat="48.953453063965" lon="2.8768224716187"><ele>95</ele><time>2026-5-1T7:53:24Z</time></trkpt>
<trkpt lat="48.953472137451" lon="2.8766913414001"><ele>95</ele><time>2026-5-1T7:53:27Z</time></trkpt>
<trkpt lat="48.953468322754" lon="2.8765411376953"><ele>95</ele><time>2026-5-1T7:53:30Z</time></trkpt>
<trkpt lat="48.953472137451" lon="2.876424074173"><ele>95</ele><time>2026-5-1T7:53:33Z</time></trkpt>
<trkpt lat="48.953468322754" lon="2.8762774467468"><ele>95</ele><time>2026-5-1T7:53:36Z</time></trkpt>
<trkpt lat="48.953491210938" lon="2.8761239051819"><ele>96</ele><time>2026-5-1T7:53:39Z</time></trkpt>
<trkpt lat="48.953536987305" lon="2.8759994506836"><ele>96</ele><time>2026-5-1T7:53:42Z</time></trkpt>
<trkpt lat="48.953639984131" lon="2.8759453296661"><ele>96</ele><time>2026-5-1T7:53:45Z</time></trkpt>
<trkpt lat="48.953708648682" lon="2.8759250640869"><ele>96</ele><time>2026-5-1T7:53:48Z</time></trkpt>
<trkpt lat="48.953807830811" lon="2.8758869171143"><ele>96</ele><time>2026-5-1T7:53:51Z</time></trkpt>
<trkpt lat="48.953868865967" lon="2.8758594989777"><ele>96</ele><time>2026-5-1T7:53:54Z</time></trkpt>
<trkpt lat="48.953922271729" lon="2.8758265972137"><ele>96</ele><time>2026-5-1T7:53:57Z</time></trkpt>
<trkpt lat="48.954025268555" lon="2.8757741451263"><ele>97</ele><time>2026-5-1T7:54:0Z</time></trkpt>
<trkpt lat="48.954128265381" lon="2.8757538795471"><ele>97</ele><time>2026-5-1T7:54:3Z</time></trkpt>
<trkpt lat="48.954128265381" lon="2.8757538795471"><ele>97</ele><time>2026-5-1T7:54:6Z</time></trkpt>
<trkpt lat="48.954174041748" lon="2.875702381134"><ele>98</ele><time>2026-5-1T7:54:9Z</time></trkpt>
<trkpt lat="48.954200744629" lon="2.8756222724915"><ele>98</ele><time>2026-5-1T7:54:12Z</time></trkpt>
<trkpt lat="48.954219818115" lon="2.8754451274872"><ele>98</ele><time>2026-5-1T7:54:15Z</time></trkpt>
<trkpt lat="48.954223632812" lon="2.875335931778"><ele>97</ele><time>2026-5-1T7:54:18Z</time></trkpt>
<trkpt lat="48.95422744751" lon="2.8752133846283"><ele>97</ele><time>2026-5-1T7:54:21Z</time></trkpt>
<trkpt lat="48.954231262207" lon="2.8750925064087"><ele>97</ele><time>2026-5-1T7:54:24Z</time></trkpt>
<trkpt lat="48.954231262207" lon="2.8749666213989"><ele>97</ele><time>2026-5-1T7:54:27Z</time></trkpt>
<trkpt lat="48.954223632812" lon="2.8748261928558"><ele>97</ele><time>2026-5-1T7:54:30Z</time></trkpt>
<trkpt lat="48.954219818115" lon="2.8746902942657"><ele>97</ele><time>2026-5-1T7:54:33Z</time></trkpt>
<trkpt lat="48.954216003418" lon="2.8745453357697"><ele>97</ele><time>2026-5-1T7:54:36Z</time></trkpt>
<trkpt lat="48.954216003418" lon="2.8744366168976"><ele>97</ele><time>2026-5-1T7:54:39Z</time></trkpt>
<trkpt lat="48.954212188721" lon="2.8743376731873"><ele>97</ele><time>2026-5-1T7:54:42Z</time></trkpt>
<trkpt lat="48.954208374023" lon="2.8742334842682"><ele>97</ele><time>2026-5-1T7:54:45Z</time></trkpt>
<trkpt lat="48.954208374023" lon="2.8741385936737"><ele>97</ele><time>2026-5-1T7:54:48Z</time></trkpt>
<trkpt lat="48.954212188721" lon="2.8740472793579"><ele>97</ele><time>2026-5-1T7:54:51Z</time></trkpt>
<trkpt lat="48.954257965088" lon="2.8739805221558"><ele>97</ele><time>2026-5-1T7:54:54Z</time></trkpt>
<trkpt lat="48.95431137085" lon="2.87393450737"><ele>97</ele><time>2026-5-1T7:54:57Z</time></trkpt>
<trkpt lat="48.954383850098" lon="2.8739030361176"><ele>97</ele><time>2026-5-1T7:55:0Z</time></trkpt>
<trkpt lat="48.954475402832" lon="2.8738632202148"><ele>98</ele><time>2026-5-1T7:55:3Z</time></trkpt>
<trkpt lat="48.954551696777" lon="2.8738198280334"><ele>98</ele><time>2026-5-1T7:55:6Z</time></trkpt>
<trkpt lat="48.954639434814" lon="2.8737704753876"><ele>98</ele><time>2026-5-1T7:55:9Z</time></trkpt>
<trkpt lat="48.954742431641" lon="2.8737378120422"><ele>99</ele><time>2026-5-1T7:55:12Z</time></trkpt>
<trkpt lat="48.954822540283" lon="2.8737330436707"><ele>98</ele><time>2026-5-1T7:55:15Z</time></trkpt>
<trkpt lat="48.95491027832" lon="2.8737323284149"><ele>98</ele><time>2026-5-1T7:55:18Z</time></trkpt>
<trkpt lat="48.955013275146" lon="2.8737187385559"><ele>97</ele><time>2026-5-1T7:55:21Z</time></trkpt>
<trkpt lat="48.955070495605" lon="2.8736369609833"><ele>97</ele><time>2026-5-1T7:55:24Z</time></trkpt>
<trkpt lat="48.954933166504" lon="2.8736066818237"><ele>96</ele><time>2026-5-1T7:55:27Z</time></trkpt>
<trkpt lat="48.954830169678" lon="2.8735907077789"><ele>95</ele><time>2026-5-1T7:55:30Z</time></trkpt>
<trkpt lat="48.954734802246" lon="2.8735949993134"><ele>92</ele><time>2026-5-1T7:55:33Z</time></trkpt>
<trkpt lat="48.95463180542" lon="2.8736200332642"><ele>89</ele><time>2026-5-1T7:55:36Z</time></trkpt>
<trkpt lat="48.954536437988" lon="2.8736503124237"><ele>86</ele><time>2026-5-1T7:55:39Z</time></trkpt>
<trkpt lat="48.954456329346" lon="2.8736696243286"><ele>85</ele><time>2026-5-1T7:55:42Z</time></trkpt>
<trkpt lat="48.954456329346" lon="2.8736696243286"><ele>85</ele><time>2026-5-1T7:55:45Z</time></trkpt>
<trkpt lat="48.95435333252" lon="2.8736810684204"><ele>85</ele><time>2026-5-1T7:55:48Z</time></trkpt>
<trkpt lat="48.954280853271" lon="2.8736927509308"><ele>84</ele><time>2026-5-1T7:55:51Z</time></trkpt>
<trkpt lat="48.954216003418" lon="2.873706817627"><ele>84</ele><time>2026-5-1T7:55:54Z</time></trkpt>
<trkpt lat="48.954128265381" lon="2.8737151622772"><ele>81</ele><time>2026-5-1T7:55:57Z</time></trkpt>
<trkpt lat="48.954036712646" lon="2.8737237453461"><ele>75</ele><time>2026-5-1T7:56:0Z</time></trkpt>
<trkpt lat="48.953945159912" lon="2.8737342357635"><ele>71</ele><time>2026-5-1T7:56:3Z</time></trkpt>
<trkpt lat="48.953857421875" lon="2.8737442493439"><ele>67</ele><time>2026-5-1T7:56:6Z</time></trkpt>
<trkpt lat="48.953769683838" lon="2.8737564086914"><ele>64</ele><time>2026-5-1T7:56:9Z</time></trkpt>
<trkpt lat="48.953685760498" lon="2.8737621307373"><ele>63</ele><time>2026-5-1T7:56:12Z</time></trkpt>
<trkpt lat="48.95361328125" lon="2.8737540245056"><ele>62</ele><time>2026-5-1T7:56:15Z</time></trkpt>
<trkpt lat="48.95352935791" lon="2.8737363815308"><ele>62</ele><time>2026-5-1T7:56:18Z</time></trkpt>
<trkpt lat="48.953483581543" lon="2.873681306839"><ele>61</ele><time>2026-5-1T7:56:21Z</time></trkpt>
<trkpt lat="48.953449249268" lon="2.8735964298248"><ele>61</ele><time>2026-5-1T7:56:24Z</time></trkpt>
<trkpt lat="48.953433990479" lon="2.8735048770905"><ele>61</ele><time>2026-5-1T7:56:27Z</time></trkpt>
<trkpt lat="48.953437805176" lon="2.8734080791473"><ele>61</ele><time>2026-5-1T7:56:30Z</time></trkpt>
<trkpt lat="48.953453063965" lon="2.8732891082764"><ele>61</ele><time>2026-5-1T7:56:33Z</time></trkpt>
<trkpt lat="48.953453063965" lon="2.8732891082764"><ele>61</ele><time>2026-5-1T7:56:36Z</time></trkpt>
<trkpt lat="48.953483581543" lon="2.8731763362885"><ele>62</ele><time>2026-5-1T7:56:39Z</time></trkpt>
<trkpt lat="48.953483581543" lon="2.8731763362885"><ele>62</ele><time>2026-5-1T7:56:42Z</time></trkpt>
<trkpt lat="48.953479766846" lon="2.8730871677399"><ele>63</ele><time>2026-5-1T7:56:45Z</time></trkpt>
<trkpt lat="48.953479766846" lon="2.8730871677399"><ele>63</ele><time>2026-5-1T7:56:48Z</time></trkpt>
<trkpt lat="48.953479766846" lon="2.8730871677399"><ele>63</ele><time>2026-5-1T7:56:51Z</time></trkpt>
<trkpt lat="48.953556060791" lon="2.8730797767639"><ele>63</ele><time>2026-5-1T7:56:54Z</time></trkpt>
<trkpt lat="48.953605651855" lon="2.8729827404022"><ele>64</ele><time>2026-5-1T7:56:57Z</time></trkpt>
<trkpt lat="48.953605651855" lon="2.8729827404022"><ele>64</ele><time>2026-5-1T7:57:0Z</time></trkpt>
<trkpt lat="48.953605651855" lon="2.8729827404022"><ele>64</ele><time>2026-5-1T7:57:3Z</time></trkpt>
<trkpt lat="48.953559875488" lon="2.8730421066284"><ele>72</ele><time>2026-5-1T7:57:6Z</time></trkpt>
<trkpt lat="48.953559875488" lon="2.873161315918"><ele>74</ele><time>2026-5-1T7:57:9Z</time></trkpt>
<trkpt lat="48.953582763672" lon="2.8731300830841"><ele>76</ele><time>2026-5-1T7:57:12Z</time></trkpt>
<trkpt lat="48.953582763672" lon="2.8731300830841"><ele>76</ele><time>2026-5-1T7:57:15Z</time></trkpt>
<trkpt lat="48.953601837158" lon="2.8730747699738"><ele>78</ele><time>2026-5-1T7:57:18Z</time></trkpt>
<trkpt lat="48.953609466553" lon="2.8730144500732"><ele>78</ele><time>2026-5-1T7:57:21Z</time></trkpt>
<trkpt lat="48.953609466553" lon="2.8729586601257"><ele>79</ele><time>2026-5-1T7:57:24Z</time></trkpt>
<trkpt lat="48.953609466553" lon="2.8729586601257"><ele>79</ele><time>2026-5-1T7:57:27Z</time></trkpt>
<trkpt lat="48.953609466553" lon="2.8729586601257"><ele>79</ele><time>2026-5-1T7:57:30Z</time></trkpt>
<trkpt lat="48.953609466553" lon="2.8729586601257"><ele>79</ele><time>2026-5-1T7:57:33Z</time></trkpt>
<trkpt lat="48.953601837158" lon="2.8730230331421"><ele>82</ele><time>2026-5-1T7:57:36Z</time></trkpt>
<trkpt lat="48.953594207764" lon="2.8730819225311"><ele>82</ele><time>2026-5-1T7:57:39Z</time></trkpt>
<trkpt lat="48.953590393066" lon="2.873126745224"><ele>83</ele><time>2026-5-1T7:57:42Z</time></trkpt>
<trkpt lat="48.953590393066" lon="2.873126745224"><ele>83</ele><time>2026-5-1T7:57:45Z</time></trkpt>
<trkpt lat="48.953601837158" lon="2.8730771541595"><ele>85</ele><time>2026-5-1T7:57:48Z</time></trkpt>
<trkpt lat="48.953609466553" lon="2.8730275630951"><ele>85</ele><time>2026-5-1T7:57:51Z</time></trkpt>
<trkpt lat="48.953609466553" lon="2.8729798793793"><ele>86</ele><time>2026-5-1T7:57:54Z</time></trkpt>
<trkpt lat="48.95361328125" lon="2.8729295730591"><ele>86</ele><time>2026-5-1T7:57:57Z</time></trkpt>
<trkpt lat="48.953617095947" lon="2.8728685379028"><ele>87</ele><time>2026-5-1T7:58:0Z</time></trkpt>
<trkpt lat="48.953624725342" lon="2.8727450370789"><ele>87</ele><time>2026-5-1T7:58:3Z</time></trkpt>
<trkpt lat="48.953647613525" lon="2.8726191520691"><ele>88</ele><time>2026-5-1T7:58:6Z</time></trkpt>
<trkpt lat="48.953662872314" lon="2.8725345134735"><ele>89</ele><time>2026-5-1T7:58:9Z</time></trkpt>
<trkpt lat="48.95369720459" lon="2.87238240242"><ele>90</ele><time>2026-5-1T7:58:12Z</time></trkpt>
<trkpt lat="48.953769683838" lon="2.8723156452179"><ele>91</ele><time>2026-5-1T7:58:15Z</time></trkpt>
<trkpt lat="48.953853607178" lon="2.8722751140594"><ele>91</ele><time>2026-5-1T7:58:18Z</time></trkpt>
<trkpt lat="48.953929901123" lon="2.8722381591797"><ele>92</ele><time>2026-5-1T7:58:21Z</time></trkpt>
<trkpt lat="48.954013824463" lon="2.8722062110901"><ele>96</ele><time>2026-5-1T7:58:24Z</time></trkpt>
<trkpt lat="48.9541015625" lon="2.8721721172333"><ele>99</ele><time>2026-5-1T7:58:27Z</time></trkpt>
<trkpt lat="48.954208374023" lon="2.8721413612366"><ele>100</ele><time>2026-5-1T7:58:30Z</time></trkpt>
<trkpt lat="48.954322814941" lon="2.8720996379852"><ele>100</ele><time>2026-5-1T7:58:33Z</time></trkpt>
<trkpt lat="48.954406738281" lon="2.8720512390137"><ele>101</ele><time>2026-5-1T7:58:36Z</time></trkpt>
<trkpt lat="48.954486846924" lon="2.8720121383667"><ele>101</ele><time>2026-5-1T7:58:39Z</time></trkpt>
<trkpt lat="48.954486846924" lon="2.8720121383667"><ele>101</ele><time>2026-5-1T7:58:42Z</time></trkpt>
<trkpt lat="48.954486846924" lon="2.8720121383667"><ele>101</ele><time>2026-5-1T7:58:45Z</time></trkpt>
<trkpt lat="48.954555511475" lon="2.8720016479492"><ele>101</ele><time>2026-5-1T7:58:48Z</time></trkpt>
<trkpt lat="48.954635620117" lon="2.8719742298126"><ele>101</ele><time>2026-5-1T7:58:51Z</time></trkpt>
<trkpt lat="48.954627990723" lon="2.8718822002411"><ele>101</ele><time>2026-5-1T7:58:54Z</time></trkpt>
<trkpt lat="48.954627990723" lon="2.8718822002411"><ele>101</ele><time>2026-5-1T7:58:57Z</time></trkpt>
<trkpt lat="48.95454788208" lon="2.8718180656433"><ele>101</ele><time>2026-5-1T7:59:0Z</time></trkpt>
<trkpt lat="48.954494476318" lon="2.8717713356018"><ele>101</ele><time>2026-5-1T7:59:3Z</time></trkpt>
<trkpt lat="48.954429626465" lon="2.8717150688171"><ele>101</ele><time>2026-5-1T7:59:6Z</time></trkpt>
<trkpt lat="48.95435333252" lon="2.8716413974762"><ele>101</ele><time>2026-5-1T7:59:9Z</time></trkpt>
<trkpt lat="48.954277038574" lon="2.8715913295746"><ele>100</ele><time>2026-5-1T7:59:12Z</time></trkpt>
<trkpt lat="48.954166412354" lon="2.8715395927429"><ele>100</ele><time>2026-5-1T7:59:15Z</time></trkpt>
<trkpt lat="48.954105377197" lon="2.8715233802795"><ele>100</ele><time>2026-5-1T7:59:18Z</time></trkpt>
<trkpt lat="48.954040527344" lon="2.8715004920959"><ele>100</ele><time>2026-5-1T7:59:21Z</time></trkpt>
<trkpt lat="48.953968048096" lon="2.8714745044708"><ele>100</ele><time>2026-5-1T7:59:24Z</time></trkpt>
<trkpt lat="48.953895568848" lon="2.8714370727539"><ele>100</ele><time>2026-5-1T7:59:27Z</time></trkpt>
<trkpt lat="48.953830718994" lon="2.8713896274567"><ele>100</ele><time>2026-5-1T7:59:30Z</time></trkpt>
<trkpt lat="48.953762054443" lon="2.8713376522064"><ele>99</ele><time>2026-5-1T7:59:33Z</time></trkpt>
<trkpt lat="48.953693389893" lon="2.8712923526764"><ele>99</ele><time>2026-5-1T7:59:36Z</time></trkpt>
<trkpt lat="48.953632354736" lon="2.8712623119354"><ele>99</ele><time>2026-5-1T7:59:39Z</time></trkpt>
<trkpt lat="48.953556060791" lon="2.8712401390076"><ele>98</ele><time>2026-5-1T7:59:42Z</time></trkpt>
<trkpt lat="48.953464508057" lon="2.871217250824"><ele>97</ele><time>2026-5-1T7:59:45Z</time></trkpt>
<trkpt lat="48.953392028809" lon="2.871200799942"><ele>95</ele><time>2026-5-1T7:59:48Z</time></trkpt>
<trkpt lat="48.953315734863" lon="2.8711748123169"><ele>94</ele><time>2026-5-1T7:59:51Z</time></trkpt>
<trkpt lat="48.953235626221" lon="2.8711428642273"><ele>93</ele><time>2026-5-1T7:59:54Z</time></trkpt>
<trkpt lat="48.953163146973" lon="2.8711071014404"><ele>94</ele><time>2026-5-1T7:59:57Z</time></trkpt>
<trkpt lat="48.953098297119" lon="2.8710672855377"><ele>94</ele><time>2026-5-1T8:0:0Z</time></trkpt>
<trkpt lat="48.953014373779" lon="2.8710286617279"><ele>94</ele><time>2026-5-1T8:0:3Z</time></trkpt>
<trkpt lat="48.952930450439" lon="2.8709859848022"><ele>95</ele><time>2026-5-1T8:0:6Z</time></trkpt>
<trkpt lat="48.9528465271" lon="2.8709597587585"><ele>97</ele><time>2026-5-1T8:0:9Z</time></trkpt>
<trkpt lat="48.952751159668" lon="2.8709440231323"><ele>99</ele><time>2026-5-1T8:0:12Z</time></trkpt>
<trkpt lat="48.952682495117" lon="2.8709285259247"><ele>99</ele><time>2026-5-1T8:0:15Z</time></trkpt>
<trkpt lat="48.952621459961" lon="2.8709108829498"><ele>99</ele><time>2026-5-1T8:0:18Z</time></trkpt>
<trkpt lat="48.952556610107" lon="2.8708896636963"><ele>99</ele><time>2026-5-1T8:0:21Z</time></trkpt>
<trkpt lat="48.952491760254" lon="2.8708698749542"><ele>98</ele><time>2026-5-1T8:0:24Z</time></trkpt>
<trkpt lat="48.952434539795" lon="2.8708567619324"><ele>98</ele><time>2026-5-1T8:0:27Z</time></trkpt>
<trkpt lat="48.95235824585" lon="2.8708336353302"><ele>98</ele><time>2026-5-1T8:0:30Z</time></trkpt>
<trkpt lat="48.952293395996" lon="2.8708040714264"><ele>97</ele><time>2026-5-1T8:0:33Z</time></trkpt>
<trkpt lat="48.952198028564" lon="2.8707613945007"><ele>96</ele><time>2026-5-1T8:0:36Z</time></trkpt>
<trkpt lat="48.952114105225" lon="2.8707363605499"><ele>96</ele><time>2026-5-1T8:0:39Z</time></trkpt>
<trkpt lat="48.952026367188" lon="2.8707189559937"><ele>97</ele><time>2026-5-1T8:0:42Z</time></trkpt>
<trkpt lat="48.951930999756" lon="2.8706924915314"><ele>98</ele><time>2026-5-1T8:0:45Z</time></trkpt>
<trkpt lat="48.951839447021" lon="2.8706531524658"><ele>98</ele><time>2026-5-1T8:0:48Z</time></trkpt>
<trkpt lat="48.951740264893" lon="2.8705945014954"><ele>97</ele><time>2026-5-1T8:0:51Z</time></trkpt>
<trkpt lat="48.951641082764" lon="2.8705215454102"><ele>96</ele><time>2026-5-1T8:0:54Z</time></trkpt>
<trkpt lat="48.951545715332" lon="2.8704559803009"><ele>96</ele><time>2026-5-1T8:0:57Z</time></trkpt>
<trkpt lat="48.951469421387" lon="2.8704035282135"><ele>96</ele><time>2026-5-1T8:1:0Z</time></trkpt>
<trkpt lat="48.951404571533" lon="2.8703558444977"><ele>96</ele><time>2026-5-1T8:1:3Z</time></trkpt>
<trkpt lat="48.951343536377" lon="2.8703107833862"><ele>96</ele><time>2026-5-1T8:1:6Z</time></trkpt>
<trkpt lat="48.951282501221" lon="2.8702664375305"><ele>95</ele><time>2026-5-1T8:1:9Z</time></trkpt>
<trkpt lat="48.951217651367" lon="2.8702149391174"><ele>95</ele><time>2026-5-1T8:1:12Z</time></trkpt>
<trkpt lat="48.951152801514" lon="2.8701565265656"><ele>95</ele><time>2026-5-1T8:1:15Z</time></trkpt>
<trkpt lat="48.951110839844" lon="2.8700964450836"><ele>95</ele><time>2026-5-1T8:1:18Z</time></trkpt>
<trkpt lat="48.951049804688" lon="2.8700294494629"><ele>94</ele><time>2026-5-1T8:1:21Z</time></trkpt>
<trkpt lat="48.950981140137" lon="2.8699481487274"><ele>94</ele><time>2026-5-1T8:1:24Z</time></trkpt>
<trkpt lat="48.95092010498" lon="2.8698697090149"><ele>93</ele><time>2026-5-1T8:1:27Z</time></trkpt>
<trkpt lat="48.950859069824" lon="2.8697969913483"><ele>90</ele><time>2026-5-1T8:1:30Z</time></trkpt>
<trkpt lat="48.950794219971" lon="2.8697149753571"><ele>86</ele><time>2026-5-1T8:1:33Z</time></trkpt>
<trkpt lat="48.950729370117" lon="2.8696246147156"><ele>82</ele><time>2026-5-1T8:1:36Z</time></trkpt>
<trkpt lat="48.950672149658" lon="2.8695390224457"><ele>80</ele><time>2026-5-1T8:1:39Z</time></trkpt>
<trkpt lat="48.950618743896" lon="2.8694577217102"><ele>78</ele><time>2026-5-1T8:1:42Z</time></trkpt>
<trkpt lat="48.950572967529" lon="2.8693838119507"><ele>78</ele><time>2026-5-1T8:1:45Z</time></trkpt>
<trkpt lat="48.950519561768" lon="2.8692886829376"><ele>78</ele><time>2026-5-1T8:1:48Z</time></trkpt>
<trkpt lat="48.950469970703" lon="2.8691885471344"><ele>78</ele><time>2026-5-1T8:1:51Z</time></trkpt>
<trkpt lat="48.950435638428" lon="2.8691112995148"><ele>79</ele><time>2026-5-1T8:1:54Z</time></trkpt>
<trkpt lat="48.950370788574" lon="2.868976354599"><ele>85</ele><time>2026-5-1T8:1:57Z</time></trkpt>
<trkpt lat="48.950317382812" lon="2.8688650131226"><ele>88</ele><time>2026-5-1T8:2:0Z</time></trkpt>
<trkpt lat="48.950271606445" lon="2.8687605857849"><ele>90</ele><time>2026-5-1T8:2:3Z</time></trkpt>
<trkpt lat="48.950225830078" lon="2.8686563968658"><ele>92</ele><time>2026-5-1T8:2:6Z</time></trkpt>
<trkpt lat="48.950176239014" lon="2.8685312271118"><ele>93</ele><time>2026-5-1T8:2:9Z</time></trkpt>
<trkpt lat="48.950134277344" lon="2.8684413433075"><ele>94</ele><time>2026-5-1T8:2:12Z</time></trkpt>
<trkpt lat="48.950073242188" lon="2.8683290481567"><ele>94</ele><time>2026-5-1T8:2:15Z</time></trkpt>
<trkpt lat="48.950008392334" lon="2.8682215213776"><ele>95</ele><time>2026-5-1T8:2:18Z</time></trkpt>
<trkpt lat="48.949951171875" lon="2.8681437969208"><ele>96</ele><time>2026-5-1T8:2:21Z</time></trkpt>
<trkpt lat="48.949886322021" lon="2.8680536746979"><ele>96</ele><time>2026-5-1T8:2:24Z</time></trkpt>
<trkpt lat="48.949886322021" lon="2.8680536746979"><ele>96</ele><time>2026-5-1T8:2:27Z</time></trkpt>
<trkpt lat="48.949787139893" lon="2.8679416179657"><ele>96</ele><time>2026-5-1T8:2:30Z</time></trkpt>
<trkpt lat="48.949729919434" lon="2.8678681850433"><ele>96</ele><time>2026-5-1T8:2:33Z</time></trkpt>
<trkpt lat="48.949638366699" lon="2.867778301239"><ele>96</ele><time>2026-5-1T8:2:36Z</time></trkpt>
<trkpt lat="48.94958114624" lon="2.8677291870117"><ele>96</ele><time>2026-5-1T8:2:39Z</time></trkpt>
<trkpt lat="48.949523925781" lon="2.8676562309265"><ele>96</ele><time>2026-5-1T8:2:42Z</time></trkpt>
<trkpt lat="48.94947052002" lon="2.8676092624664"><ele>95</ele><time>2026-5-1T8:2:45Z</time></trkpt>
<trkpt lat="48.949409484863" lon="2.8675348758698"><ele>95</ele><time>2026-5-1T8:2:48Z</time></trkpt>
<trkpt lat="48.949348449707" lon="2.8674676418304"><ele>95</ele><time>2026-5-1T8:2:51Z</time></trkpt>
<trkpt lat="48.949291229248" lon="2.867397069931"><ele>95</ele><time>2026-5-1T8:2:54Z</time></trkpt>
<trkpt lat="48.949234008789" lon="2.8673195838928"><ele>95</ele><time>2026-5-1T8:2:57Z</time></trkpt>
<trkpt lat="48.949169158936" lon="2.8672370910645"><ele>96</ele><time>2026-5-1T8:3:0Z</time></trkpt>
<trkpt lat="48.949169158936" lon="2.8672370910645"><ele>96</ele><time>2026-5-1T8:3:3Z</time></trkpt>
<trkpt lat="48.949077606201" lon="2.8671236038208"><ele>96</ele><time>2026-5-1T8:3:6Z</time></trkpt>
<trkpt lat="48.94900894165" lon="2.8670456409454"><ele>96</ele><time>2026-5-1T8:3:9Z</time></trkpt>
<trkpt lat="48.948951721191" lon="2.8669912815094"><ele>96</ele><time>2026-5-1T8:3:12Z</time></trkpt>
<trkpt lat="48.948902130127" lon="2.8669395446777"><ele>96</ele><time>2026-5-1T8:3:15Z</time></trkpt>
<trkpt lat="48.94885635376" lon="2.8668787479401"><ele>96</ele><time>2026-5-1T8:3:18Z</time></trkpt>
<trkpt lat="48.948799133301" lon="2.8668134212494"><ele>96</ele><time>2026-5-1T8:3:21Z</time></trkpt>
<trkpt lat="48.94873046875" lon="2.8667366504669"><ele>96</ele><time>2026-5-1T8:3:24Z</time></trkpt>
<trkpt lat="48.948669433594" lon="2.866672039032"><ele>96</ele><time>2026-5-1T8:3:27Z</time></trkpt>
<trkpt lat="48.948612213135" lon="2.8666200637817"><ele>96</ele><time>2026-5-1T8:3:30Z</time></trkpt>
<trkpt lat="48.948543548584" lon="2.8665761947632"><ele>96</ele><time>2026-5-1T8:3:33Z</time></trkpt>
<trkpt lat="48.948474884033" lon="2.8665456771851"><ele>94</ele><time>2026-5-1T8:3:36Z</time></trkpt>
<trkpt lat="48.94841003418" lon="2.8665196895599"><ele>94</ele><time>2026-5-1T8:3:39Z</time></trkpt>
<trkpt lat="48.948341369629" lon="2.8664875030518"><ele>94</ele><time>2026-5-1T8:3:42Z</time></trkpt>
<trkpt lat="48.948268890381" lon="2.8664534091949"><ele>95</ele><time>2026-5-1T8:3:45Z</time></trkpt>
<trkpt lat="48.948188781738" lon="2.8664045333862"><ele>96</ele><time>2026-5-1T8:3:48Z</time></trkpt>
<trkpt lat="48.948123931885" lon="2.8663821220398"><ele>97</ele><time>2026-5-1T8:3:51Z</time></trkpt>
<trkpt lat="48.948055267334" lon="2.8663597106934"><ele>97</ele><time>2026-5-1T8:3:54Z</time></trkpt>
<trkpt lat="48.947971343994" lon="2.8663358688354"><ele>97</ele><time>2026-5-1T8:3:57Z</time></trkpt>
<trkpt lat="48.947898864746" lon="2.8663077354431"><ele>98</ele><time>2026-5-1T8:4:0Z</time></trkpt>
<trkpt lat="48.947822570801" lon="2.8662686347961"><ele>98</ele><time>2026-5-1T8:4:3Z</time></trkpt>
<trkpt lat="48.94775390625" lon="2.8662278652191"><ele>99</ele><time>2026-5-1T8:4:6Z</time></trkpt>
<trkpt lat="48.947685241699" lon="2.8661677837372"><ele>99</ele><time>2026-5-1T8:4:9Z</time></trkpt>
<trkpt lat="48.947612762451" lon="2.8661122322083"><ele>99</ele><time>2026-5-1T8:4:12Z</time></trkpt>
<trkpt lat="48.947551727295" lon="2.8660621643066"><ele>98</ele><time>2026-5-1T8:4:15Z</time></trkpt>
<trkpt lat="48.947467803955" lon="2.8659975528717"><ele>98</ele><time>2026-5-1T8:4:18Z</time></trkpt>
<trkpt lat="48.947402954102" lon="2.8659384250641"><ele>98</ele><time>2026-5-1T8:4:21Z</time></trkpt>
<trkpt lat="48.947330474854" lon="2.8658735752106"><ele>98</ele><time>2026-5-1T8:4:24Z</time></trkpt>
<trkpt lat="48.947269439697" lon="2.8658182621002"><ele>98</ele><time>2026-5-1T8:4:27Z</time></trkpt>
<trkpt lat="48.947185516357" lon="2.8657495975494"><ele>98</ele><time>2026-5-1T8:4:30Z</time></trkpt>
<trkpt lat="48.947185516357" lon="2.8657495975494"><ele>98</ele><time>2026-5-1T8:4:33Z</time></trkpt>
<trkpt lat="48.947086334229" lon="2.8656723499298"><ele>97</ele><time>2026-5-1T8:4:36Z</time></trkpt>
<trkpt lat="48.94702911377" lon="2.8656194210052"><ele>96</ele><time>2026-5-1T8:4:39Z</time></trkpt>
<trkpt lat="48.946968078613" lon="2.8655707836151"><ele>94</ele><time>2026-5-1T8:4:42Z</time></trkpt>
<trkpt lat="48.946891784668" lon="2.8655097484589"><ele>93</ele><time>2026-5-1T8:4:45Z</time></trkpt>
<trkpt lat="48.946811676025" lon="2.8654396533966"><ele>93</ele><time>2026-5-1T8:4:48Z</time></trkpt>
<trkpt lat="48.946750640869" lon="2.8653874397278"><ele>92</ele><time>2026-5-1T8:4:51Z</time></trkpt>
<trkpt lat="48.946701049805" lon="2.8653378486633"><ele>92</ele><time>2026-5-1T8:4:54Z</time></trkpt>
<trkpt lat="48.946640014648" lon="2.8652720451355"><ele>92</ele><time>2026-5-1T8:4:57Z</time></trkpt>
<trkpt lat="48.946571350098" lon="2.8651773929596"><ele>92</ele><time>2026-5-1T8:5:0Z</time></trkpt>
<trkpt lat="48.946521759033" lon="2.8650908470154"><ele>91</ele><time>2026-5-1T8:5:3Z</time></trkpt>
<trkpt lat="48.946464538574" lon="2.8650078773499"><ele>89</ele><time>2026-5-1T8:5:6Z</time></trkpt>
<trkpt lat="48.946403503418" lon="2.8649210929871"><ele>88</ele><time>2026-5-1T8:5:9Z</time></trkpt>
<trkpt lat="48.946323394775" lon="2.8648180961609"><ele>88</ele><time>2026-5-1T8:5:12Z</time></trkpt>
<trkpt lat="48.946323394775" lon="2.8648180961609"><ele>88</ele><time>2026-5-1T8:5:15Z</time></trkpt>
<trkpt lat="48.946239471436" lon="2.8647270202637"><ele>89</ele><time>2026-5-1T8:5:18Z</time></trkpt>
<trkpt lat="48.946193695068" lon="2.8646719455719"><ele>89</ele><time>2026-5-1T8:5:21Z</time></trkpt>
<trkpt lat="48.946140289307" lon="2.8646054267883"><ele>90</ele><time>2026-5-1T8:5:24Z</time></trkpt>
<trkpt lat="48.946140289307" lon="2.8646054267883"><ele>90</ele><time>2026-5-1T8:5:27Z</time></trkpt>
<trkpt lat="48.946067810059" lon="2.8645114898682"><ele>91</ele><time>2026-5-1T8:5:30Z</time></trkpt>
<trkpt lat="48.946018218994" lon="2.8644542694092"><ele>91</ele><time>2026-5-1T8:5:33Z</time></trkpt>
<trkpt lat="48.94596862793" lon="2.8643937110901"><ele>92</ele><time>2026-5-1T8:5:36Z</time></trkpt>
<trkpt lat="48.94596862793" lon="2.8643937110901"><ele>92</ele><time>2026-5-1T8:5:39Z</time></trkpt>
<trkpt lat="48.94588470459" lon="2.8642842769623"><ele>93</ele><time>2026-5-1T8:5:42Z</time></trkpt>
<trkpt lat="48.945838928223" lon="2.8642134666443"><ele>93</ele><time>2026-5-1T8:5:45Z</time></trkpt>
<trkpt lat="48.945793151855" lon="2.8641467094421"><ele>93</ele><time>2026-5-1T8:5:48Z</time></trkpt>
<trkpt lat="48.945743560791" lon="2.864070892334"><ele>94</ele><time>2026-5-1T8:5:51Z</time></trkpt>
<trkpt lat="48.945659637451" lon="2.8639323711395"><ele>94</ele><time>2026-5-1T8:5:54Z</time></trkpt>
<trkpt lat="48.945617675781" lon="2.8638579845428"><ele>95</ele><time>2026-5-1T8:5:57Z</time></trkpt>
<trkpt lat="48.945560455322" lon="2.8637750148773"><ele>95</ele><time>2026-5-1T8:6:0Z</time></trkpt>
<trkpt lat="48.945510864258" lon="2.8636929988861"><ele>95</ele><time>2026-5-1T8:6:3Z</time></trkpt>
<trkpt lat="48.945461273193" lon="2.8636260032654"><ele>96</ele><time>2026-5-1T8:6:6Z</time></trkpt>
<trkpt lat="48.945384979248" lon="2.8635017871857"><ele>96</ele><time>2026-5-1T8:6:9Z</time></trkpt>
<trkpt lat="48.945301055908" lon="2.8633437156677"><ele>96</ele><time>2026-5-1T8:6:12Z</time></trkpt>
<trkpt lat="48.945259094238" lon="2.8632719516754"><ele>97</ele><time>2026-5-1T8:6:15Z</time></trkpt>
<trkpt lat="48.945209503174" lon="2.8631734848022"><ele>97</ele><time>2026-5-1T8:6:18Z</time></trkpt>
<trkpt lat="48.945156097412" lon="2.8630783557892"><ele>97</ele><time>2026-5-1T8:6:21Z</time></trkpt>
<trkpt lat="48.945106506348" lon="2.8629908561707"><ele>98</ele><time>2026-5-1T8:6:24Z</time></trkpt>
<trkpt lat="48.945064544678" lon="2.8629062175751"><ele>98</ele><time>2026-5-1T8:6:27Z</time></trkpt>
<trkpt lat="48.945014953613" lon="2.8628070354462"><ele>98</ele><time>2026-5-1T8:6:30Z</time></trkpt>
<trkpt lat="48.944972991943" lon="2.8627178668976"><ele>98</ele><time>2026-5-1T8:6:33Z</time></trkpt>
<trkpt lat="48.944919586182" lon="2.8625972270966"><ele>98</ele><time>2026-5-1T8:6:36Z</time></trkpt>
<trkpt lat="48.944873809814" lon="2.8625087738037"><ele>98</ele><time>2026-5-1T8:6:39Z</time></trkpt>
<trkpt lat="48.94482421875" lon="2.8624181747437"><ele>98</ele><time>2026-5-1T8:6:42Z</time></trkpt>
<trkpt lat="48.944770812988" lon="2.8623118400574"><ele>98</ele><time>2026-5-1T8:6:45Z</time></trkpt>
<trkpt lat="48.944717407227" lon="2.8622035980225"><ele>98</ele><time>2026-5-1T8:6:48Z</time></trkpt>
<trkpt lat="48.944675445557" lon="2.8620941638947"><ele>97</ele><time>2026-5-1T8:6:51Z</time></trkpt>
<trkpt lat="48.944637298584" lon="2.8620054721832"><ele>97</ele><time>2026-5-1T8:6:54Z</time></trkpt>
<trkpt lat="48.94458770752" lon="2.8619034290314"><ele>97</ele><time>2026-5-1T8:6:57Z</time></trkpt>
<trkpt lat="48.944549560547" lon="2.861823797226"><ele>97</ele><time>2026-5-1T8:7:0Z</time></trkpt>
<trkpt lat="48.94450378418" lon="2.8617379665375"><ele>97</ele><time>2026-5-1T8:7:3Z</time></trkpt>
<trkpt lat="48.944454193115" lon="2.8616456985474"><ele>98</ele><time>2026-5-1T8:7:6Z</time></trkpt>
<trkpt lat="48.944408416748" lon="2.8615591526031"><ele>98</ele><time>2026-5-1T8:7:9Z</time></trkpt>
<trkpt lat="48.944362640381" lon="2.8614518642426"><ele>98</ele><time>2026-5-1T8:7:12Z</time></trkpt>
<trkpt lat="48.944313049316" lon="2.8613369464874"><ele>98</ele><time>2026-5-1T8:7:15Z</time></trkpt>
<trkpt lat="48.944255828857" lon="2.8612203598022"><ele>98</ele><time>2026-5-1T8:7:18Z</time></trkpt>
<trkpt lat="48.944198608398" lon="2.8611037731171"><ele>98</ele><time>2026-5-1T8:7:21Z</time></trkpt>
<trkpt lat="48.944149017334" lon="2.8610014915466"><ele>96</ele><time>2026-5-1T8:7:24Z</time></trkpt>
<trkpt lat="48.944114685059" lon="2.8609313964844"><ele>96</ele><time>2026-5-1T8:7:27Z</time></trkpt>
<trkpt lat="48.944072723389" lon="2.8608601093292"><ele>97</ele><time>2026-5-1T8:7:30Z</time></trkpt>
<trkpt lat="48.944011688232" lon="2.8607475757599"><ele>97</ele><time>2026-5-1T8:7:33Z</time></trkpt>
<trkpt lat="48.943954467773" lon="2.8606305122375"><ele>96</ele><time>2026-5-1T8:7:36Z</time></trkpt>
<trkpt lat="48.943904876709" lon="2.8605263233185"><ele>95</ele><time>2026-5-1T8:7:39Z</time></trkpt>
<trkpt lat="48.943859100342" lon="2.8604462146759"><ele>97</ele><time>2026-5-1T8:7:42Z</time></trkpt>
<trkpt lat="48.943813323975" lon="2.8603610992432"><ele>98</ele><time>2026-5-1T8:7:45Z</time></trkpt>
<trkpt lat="48.943767547607" lon="2.860267162323"><ele>98</ele><time>2026-5-1T8:7:48Z</time></trkpt>
<trkpt lat="48.943767547607" lon="2.860267162323"><ele>98</ele><time>2026-5-1T8:7:51Z</time></trkpt>
<trkpt lat="48.943691253662" lon="2.8601250648499"><ele>98</ele><time>2026-5-1T8:7:54Z</time></trkpt>
<trkpt lat="48.943626403809" lon="2.8600096702576"><ele>98</ele><time>2026-5-1T8:7:57Z</time></trkpt>
<trkpt lat="48.943572998047" lon="2.8599042892456"><ele>99</ele><time>2026-5-1T8:8:0Z</time></trkpt>
<trkpt lat="48.943511962891" lon="2.8597850799561"><ele>99</ele><time>2026-5-1T8:8:3Z</time></trkpt>
<trkpt lat="48.943458557129" lon="2.8596820831299"><ele>100</ele><time>2026-5-1T8:8:6Z</time></trkpt>
<trkpt lat="48.943397521973" lon="2.8595545291901"><ele>100</ele><time>2026-5-1T8:8:9Z</time></trkpt>
<trkpt lat="48.943344116211" lon="2.8594446182251"><ele>101</ele><time>2026-5-1T8:8:12Z</time></trkpt>
<trkpt lat="48.943290710449" lon="2.8593347072601"><ele>101</ele><time>2026-5-1T8:8:15Z</time></trkpt>
<trkpt lat="48.94323348999" lon="2.8592269420624"><ele>101</ele><time>2026-5-1T8:8:18Z</time></trkpt>
<trkpt lat="48.943180084229" lon="2.8591241836548"><ele>101</ele><time>2026-5-1T8:8:21Z</time></trkpt>
<trkpt lat="48.943130493164" lon="2.859050989151"><ele>101</ele><time>2026-5-1T8:8:24Z</time></trkpt>
<trkpt lat="48.943088531494" lon="2.8589658737183"><ele>101</ele><time>2026-5-1T8:8:27Z</time></trkpt>
<trkpt lat="48.94303894043" lon="2.8588581085205"><ele>102</ele><time>2026-5-1T8:8:30Z</time></trkpt>
<trkpt lat="48.942989349365" lon="2.8587498664856"><ele>102</ele><time>2026-5-1T8:8:33Z</time></trkpt>
<trkpt lat="48.942943572998" lon="2.8586633205414"><ele>102</ele><time>2026-5-1T8:8:36Z</time></trkpt>
<trkpt lat="48.942893981934" lon="2.8585557937622"><ele>102</ele><time>2026-5-1T8:8:39Z</time></trkpt>
<trkpt lat="48.942836761475" lon="2.8584196567535"><ele>102</ele><time>2026-5-1T8:8:42Z</time></trkpt>
<trkpt lat="48.942794799805" lon="2.8583183288574"><ele>102</ele><time>2026-5-1T8:8:45Z</time></trkpt>
<trkpt lat="48.942756652832" lon="2.8582248687744"><ele>101</ele><time>2026-5-1T8:8:48Z</time></trkpt>
<trkpt lat="48.942718505859" lon="2.858142375946"><ele>101</ele><time>2026-5-1T8:8:51Z</time></trkpt>
<trkpt lat="48.942668914795" lon="2.85804271698"><ele>100</ele><time>2026-5-1T8:8:54Z</time></trkpt>
<trkpt lat="48.942626953125" lon="2.8579614162445"><ele>100</ele><time>2026-5-1T8:8:57Z</time></trkpt>
<trkpt lat="48.942581176758" lon="2.8578798770905"><ele>99</ele><time>2026-5-1T8:9:0Z</time></trkpt>
<trkpt lat="48.942523956299" lon="2.8577883243561"><ele>99</ele><time>2026-5-1T8:9:3Z</time></trkpt>
<trkpt lat="48.942462921143" lon="2.8577046394348"><ele>99</ele><time>2026-5-1T8:9:6Z</time></trkpt>
<trkpt lat="48.942409515381" lon="2.8576266765594"><ele>98</ele><time>2026-5-1T8:9:9Z</time></trkpt>
<trkpt lat="48.942356109619" lon="2.8575594425201"><ele>98</ele><time>2026-5-1T8:9:12Z</time></trkpt>
<trkpt lat="48.942356109619" lon="2.8575594425201"><ele>98</ele><time>2026-5-1T8:9:15Z</time></trkpt>
<trkpt lat="48.942253112793" lon="2.8574726581573"><ele>97</ele><time>2026-5-1T8:9:18Z</time></trkpt>
<trkpt lat="48.942188262939" lon="2.8574287891388"><ele>97</ele><time>2026-5-1T8:9:21Z</time></trkpt>
<trkpt lat="48.942115783691" lon="2.8573782444"><ele>97</ele><time>2026-5-1T8:9:24Z</time></trkpt>
<trkpt lat="48.941993713379" lon="2.8573167324066"><ele>97</ele><time>2026-5-1T8:9:27Z</time></trkpt>
<trkpt lat="48.941905975342" lon="2.85728931427"><ele>97</ele><time>2026-5-1T8:9:30Z</time></trkpt>
<trkpt lat="48.941829681396" lon="2.8572738170624"><ele>97</ele><time>2026-5-1T8:9:33Z</time></trkpt>
<trkpt lat="48.941753387451" lon="2.8572559356689"><ele>97</ele><time>2026-5-1T8:9:36Z</time></trkpt>
<trkpt lat="48.941677093506" lon="2.8572449684143"><ele>97</ele><time>2026-5-1T8:9:39Z</time></trkpt>
<trkpt lat="48.941604614258" lon="2.8572463989258"><ele>97</ele><time>2026-5-1T8:9:42Z</time></trkpt>
<trkpt lat="48.941535949707" lon="2.8572559356689"><ele>97</ele><time>2026-5-1T8:9:45Z</time></trkpt>
<trkpt lat="48.941535949707" lon="2.8572559356689"><ele>97</ele><time>2026-5-1T8:9:48Z</time></trkpt>
<trkpt lat="48.941463470459" lon="2.8572819232941"><ele>97</ele><time>2026-5-1T8:9:51Z</time></trkpt>
<trkpt lat="48.941402435303" lon="2.8573205471039"><ele>97</ele><time>2026-5-1T8:9:54Z</time></trkpt>
<trkpt lat="48.941326141357" lon="2.8573698997498"><ele>97</ele><time>2026-5-1T8:9:57Z</time></trkpt>
<trkpt lat="48.941253662109" lon="2.8574094772339"><ele>98</ele><time>2026-5-1T8:10:0Z</time></trkpt>
<trkpt lat="48.941181182861" lon="2.8574562072754"><ele>98</ele><time>2026-5-1T8:10:3Z</time></trkpt>
<trkpt lat="48.941120147705" lon="2.8575010299683"><ele>98</ele><time>2026-5-1T8:10:6Z</time></trkpt>
<trkpt lat="48.941055297852" lon="2.8575439453125"><ele>98</ele><time>2026-5-1T8:10:9Z</time></trkpt>
<trkpt lat="48.940990447998" lon="2.8576052188873"><ele>98</ele><time>2026-5-1T8:10:12Z</time></trkpt>
<trkpt lat="48.940929412842" lon="2.8576698303223"><ele>99</ele><time>2026-5-1T8:10:15Z</time></trkpt>
<trkpt lat="48.94087600708" lon="2.8577189445496"><ele>99</ele><time>2026-5-1T8:10:18Z</time></trkpt>
<trkpt lat="48.940811157227" lon="2.8577806949615"><ele>99</ele><time>2026-5-1T8:10:21Z</time></trkpt>
<trkpt lat="48.940746307373" lon="2.8578407764435"><ele>99</ele><time>2026-5-1T8:10:24Z</time></trkpt>
<trkpt lat="48.940677642822" lon="2.8579034805298"><ele>98</ele><time>2026-5-1T8:10:27Z</time></trkpt>
<trkpt lat="48.940608978271" lon="2.8579661846161"><ele>99</ele><time>2026-5-1T8:10:30Z</time></trkpt>
<trkpt lat="48.940532684326" lon="2.858035326004"><ele>100</ele><time>2026-5-1T8:10:33Z</time></trkpt>
<trkpt lat="48.940448760986" lon="2.8580963611603"><ele>99</ele><time>2026-5-1T8:10:36Z</time></trkpt>
<trkpt lat="48.940368652344" lon="2.8581566810608"><ele>97</ele><time>2026-5-1T8:10:39Z</time></trkpt>
<trkpt lat="48.940269470215" lon="2.8582141399384"><ele>95</ele><time>2026-5-1T8:10:42Z</time></trkpt>
<trkpt lat="48.94019317627" lon="2.8582365512848"><ele>94</ele><time>2026-5-1T8:10:45Z</time></trkpt>
<trkpt lat="48.940116882324" lon="2.8582382202148"><ele>94</ele><time>2026-5-1T8:10:48Z</time></trkpt>
<trkpt lat="48.940013885498" lon="2.8582243919373"><ele>95</ele><time>2026-5-1T8:10:51Z</time></trkpt>
<trkpt lat="48.939926147461" lon="2.8582084178925"><ele>96</ele><time>2026-5-1T8:10:54Z</time></trkpt>
<trkpt lat="48.939830780029" lon="2.8581955432892"><ele>95</ele><time>2026-5-1T8:10:57Z</time></trkpt>
<trkpt lat="48.939739227295" lon="2.8581788539886"><ele>94</ele><time>2026-5-1T8:11:0Z</time></trkpt>
<trkpt lat="48.939666748047" lon="2.8581647872925"><ele>93</ele><time>2026-5-1T8:11:3Z</time></trkpt>
<trkpt lat="48.939609527588" lon="2.8581547737122"><ele>93</ele><time>2026-5-1T8:11:6Z</time></trkpt>
<trkpt lat="48.939609527588" lon="2.8581547737122"><ele>93</ele><time>2026-5-1T8:11:9Z</time></trkpt>
<trkpt lat="48.939567565918" lon="2.8581421375275"><ele>93</ele><time>2026-5-1T8:11:12Z</time></trkpt>
<trkpt lat="48.939529418945" lon="2.858124256134"><ele>93</ele><time>2026-5-1T8:11:15Z</time></trkpt>
<trkpt lat="48.939491271973" lon="2.8580958843231"><ele>93</ele><time>2026-5-1T8:11:18Z</time></trkpt>
<trkpt lat="48.939464569092" lon="2.8580632209778"><ele>93</ele><time>2026-5-1T8:11:21Z</time></trkpt>
<trkpt lat="48.939434051514" lon="2.8580365180969"><ele>93</ele><time>2026-5-1T8:11:24Z</time></trkpt>
<trkpt lat="48.939357757568" lon="2.8579921722412"><ele>93</ele><time>2026-5-1T8:11:27Z</time></trkpt>
<trkpt lat="48.939357757568" lon="2.8579921722412"><ele>93</ele><time>2026-5-1T8:11:30Z</time></trkpt>
<trkpt lat="48.939292907715" lon="2.8579959869385"><ele>93</ele><time>2026-5-1T8:11:33Z</time></trkpt>
<trkpt lat="48.93924331665" lon="2.857937335968"><ele>94</ele><time>2026-5-1T8:11:36Z</time></trkpt>
<trkpt lat="48.939182281494" lon="2.8578727245331"><ele>95</ele><time>2026-5-1T8:11:39Z</time></trkpt>
<trkpt lat="48.939125061035" lon="2.8578035831451"><ele>95</ele><time>2026-5-1T8:11:42Z</time></trkpt>
<trkpt lat="48.939056396484" lon="2.8577139377594"><ele>96</ele><time>2026-5-1T8:11:45Z</time></trkpt>
<trkpt lat="48.938980102539" lon="2.8576283454895"><ele>97</ele><time>2026-5-1T8:11:48Z</time></trkpt>
<trkpt lat="48.938884735107" lon="2.8575356006622"><ele>97</ele><time>2026-5-1T8:11:51Z</time></trkpt>
<trkpt lat="48.938804626465" lon="2.8574464321136"><ele>96</ele><time>2026-5-1T8:11:54Z</time></trkpt>
<trkpt lat="48.93872833252" lon="2.8573653697968"><ele>95</ele><time>2026-5-1T8:11:57Z</time></trkpt>
<trkpt lat="48.938652038574" lon="2.8572850227356"><ele>94</ele><time>2026-5-1T8:12:0Z</time></trkpt>
<trkpt lat="48.938575744629" lon="2.8572044372559"><ele>93</ele><time>2026-5-1T8:12:3Z</time></trkpt>
<trkpt lat="48.938495635986" lon="2.8571290969849"><ele>93</ele><time>2026-5-1T8:12:6Z</time></trkpt>
<trkpt lat="48.938426971436" lon="2.8570590019226"><ele>93</ele><time>2026-5-1T8:12:9Z</time></trkpt>
<trkpt lat="48.938343048096" lon="2.8569848537445"><ele>93</ele><time>2026-5-1T8:12:12Z</time></trkpt>
<trkpt lat="48.938259124756" lon="2.8569223880768"><ele>92</ele><time>2026-5-1T8:12:15Z</time></trkpt>
<trkpt lat="48.938186645508" lon="2.8568685054779"><ele>92</ele><time>2026-5-1T8:12:18Z</time></trkpt>
<trkpt lat="48.938121795654" lon="2.8568022251129"><ele>92</ele><time>2026-5-1T8:12:21Z</time></trkpt>
<trkpt lat="48.938049316406" lon="2.856743812561"><ele>92</ele><time>2026-5-1T8:12:24Z</time></trkpt>
<trkpt lat="48.937965393066" lon="2.8566823005676"><ele>92</ele><time>2026-5-1T8:12:27Z</time></trkpt>
<trkpt lat="48.937900543213" lon="2.8566343784332"><ele>92</ele><time>2026-5-1T8:12:30Z</time></trkpt>
<trkpt lat="48.937835693359" lon="2.8565769195557"><ele>92</ele><time>2026-5-1T8:12:33Z</time></trkpt>
<trkpt lat="48.937763214111" lon="2.8565106391907"><ele>91</ele><time>2026-5-1T8:12:36Z</time></trkpt>
<trkpt lat="48.937683105469" lon="2.8564474582672"><ele>91</ele><time>2026-5-1T8:12:39Z</time></trkpt>
<trkpt lat="48.937602996826" lon="2.8563866615295"><ele>91</ele><time>2026-5-1T8:12:42Z</time></trkpt>
<trkpt lat="48.937519073486" lon="2.8563227653503"><ele>91</ele><time>2026-5-1T8:12:45Z</time></trkpt>
<trkpt lat="48.937408447266" lon="2.8562574386597"><ele>92</ele><time>2026-5-1T8:12:48Z</time></trkpt>
<trkpt lat="48.93733215332" lon="2.856214761734"><ele>92</ele><time>2026-5-1T8:12:51Z</time></trkpt>
<trkpt lat="48.937271118164" lon="2.8561818599701"><ele>92</ele><time>2026-5-1T8:12:54Z</time></trkpt>
<trkpt lat="48.937206268311" lon="2.8561420440674"><ele>92</ele><time>2026-5-1T8:12:57Z</time></trkpt>
<trkpt lat="48.937122344971" lon="2.8560829162598"><ele>92</ele><time>2026-5-1T8:13:0Z</time></trkpt>
<trkpt lat="48.937057495117" lon="2.8560285568237"><ele>93</ele><time>2026-5-1T8:13:3Z</time></trkpt>
<trkpt lat="48.936988830566" lon="2.8559782505035"><ele>93</ele><time>2026-5-1T8:13:6Z</time></trkpt>
<trkpt lat="48.936923980713" lon="2.8559322357178"><ele>93</ele><time>2026-5-1T8:13:9Z</time></trkpt>
<trkpt lat="48.936923980713" lon="2.8559322357178"><ele>93</ele><time>2026-5-1T8:13:12Z</time></trkpt>
<trkpt lat="48.936817169189" lon="2.8558752536774"><ele>93</ele><time>2026-5-1T8:13:15Z</time></trkpt>
<trkpt lat="48.936740875244" lon="2.8558275699615"><ele>92</ele><time>2026-5-1T8:13:18Z</time></trkpt>
<trkpt lat="48.936672210693" lon="2.8557903766632"><ele>92</ele><time>2026-5-1T8:13:21Z</time></trkpt>
<trkpt lat="48.936592102051" lon="2.8557469844818"><ele>92</ele><time>2026-5-1T8:13:24Z</time></trkpt>
<trkpt lat="48.936511993408" lon="2.8556995391846"><ele>92</ele><time>2026-5-1T8:13:27Z</time></trkpt>
<trkpt lat="48.936435699463" lon="2.8556566238403"><ele>94</ele><time>2026-5-1T8:13:30Z</time></trkpt>
<trkpt lat="48.936340332031" lon="2.8556087017059"><ele>96</ele><time>2026-5-1T8:13:33Z</time></trkpt>
<trkpt lat="48.936252593994" lon="2.8555665016174"><ele>98</ele><time>2026-5-1T8:13:36Z</time></trkpt>
<trkpt lat="48.936168670654" lon="2.8555250167847"><ele>99</ele><time>2026-5-1T8:13:39Z</time></trkpt>
<trkpt lat="48.936080932617" lon="2.8554813861847"><ele>100</ele><time>2026-5-1T8:13:42Z</time></trkpt>
<trkpt lat="48.93599319458" lon="2.8554329872131"><ele>101</ele><time>2026-5-1T8:13:45Z</time></trkpt>
<trkpt lat="48.935897827148" lon="2.8553802967072"><ele>101</ele><time>2026-5-1T8:13:48Z</time></trkpt>
<trkpt lat="48.935806274414" lon="2.8553333282471"><ele>101</ele><time>2026-5-1T8:13:51Z</time></trkpt>
<trkpt lat="48.93571472168" lon="2.8552894592285"><ele>102</ele><time>2026-5-1T8:13:54Z</time></trkpt>
<trkpt lat="48.93563079834" lon="2.8552424907684"><ele>100</ele><time>2026-5-1T8:13:57Z</time></trkpt>
<trkpt lat="48.935539245605" lon="2.8551924228668"><ele>98</ele><time>2026-5-1T8:14:0Z</time></trkpt>
<trkpt lat="48.935447692871" lon="2.8551342487335"><ele>96</ele><time>2026-5-1T8:14:3Z</time></trkpt>
<trkpt lat="48.935359954834" lon="2.8550720214844"><ele>95</ele><time>2026-5-1T8:14:6Z</time></trkpt>
<trkpt lat="48.935276031494" lon="2.8550086021423"><ele>95</ele><time>2026-5-1T8:14:9Z</time></trkpt>
<trkpt lat="48.935188293457" lon="2.8549373149872"><ele>94</ele><time>2026-5-1T8:14:12Z</time></trkpt>
<trkpt lat="48.935111999512" lon="2.8548605442047"><ele>93</ele><time>2026-5-1T8:14:15Z</time></trkpt>
<trkpt lat="48.935043334961" lon="2.8547744750977"><ele>92</ele><time>2026-5-1T8:14:18Z</time></trkpt>
<trkpt lat="48.934978485107" lon="2.8546824455261"><ele>92</ele><time>2026-5-1T8:14:21Z</time></trkpt>
<trkpt lat="48.934909820557" lon="2.8545773029327"><ele>91</ele><time>2026-5-1T8:14:24Z</time></trkpt>
<trkpt lat="48.9348487854" lon="2.8544788360596"><ele>91</ele><time>2026-5-1T8:14:27Z</time></trkpt>
<trkpt lat="48.93478012085" lon="2.8543810844421"><ele>91</ele><time>2026-5-1T8:14:30Z</time></trkpt>
<trkpt lat="48.934707641602" lon="2.8542697429657"><ele>91</ele><time>2026-5-1T8:14:33Z</time></trkpt>
<trkpt lat="48.934646606445" lon="2.854145526886"><ele>92</ele><time>2026-5-1T8:14:36Z</time></trkpt>
<trkpt lat="48.934604644775" lon="2.8540558815002"><ele>92</ele><time>2026-5-1T8:14:39Z</time></trkpt>
<trkpt lat="48.934551239014" lon="2.853937625885"><ele>93</ele><time>2026-5-1T8:14:42Z</time></trkpt>
<trkpt lat="48.934497833252" lon="2.8538086414337"><ele>94</ele><time>2026-5-1T8:14:45Z</time></trkpt>
<trkpt lat="48.934440612793" lon="2.8536658287048"><ele>96</ele><time>2026-5-1T8:14:48Z</time></trkpt>
<trkpt lat="48.93440246582" lon="2.8535399436951"><ele>97</ele><time>2026-5-1T8:14:51Z</time></trkpt>
<trkpt lat="48.93436050415" lon="2.8534066677094"><ele>98</ele><time>2026-5-1T8:14:54Z</time></trkpt>
<trkpt lat="48.934322357178" lon="2.8532576560974"><ele>99</ele><time>2026-5-1T8:14:57Z</time></trkpt>
<trkpt lat="48.934288024902" lon="2.8531241416931"><ele>100</ele><time>2026-5-1T8:15:0Z</time></trkpt>
<trkpt lat="48.934272766113" lon="2.8530073165894"><ele>100</ele><time>2026-5-1T8:15:3Z</time></trkpt>
<trkpt lat="48.934257507324" lon="2.8528845310211"><ele>101</ele><time>2026-5-1T8:15:6Z</time></trkpt>
<trkpt lat="48.934246063232" lon="2.8527603149414"><ele>102</ele><time>2026-5-1T8:15:9Z</time></trkpt>
<trkpt lat="48.934234619141" lon="2.8526403903961"><ele>102</ele><time>2026-5-1T8:15:12Z</time></trkpt>
<trkpt lat="48.934219360352" lon="2.8524971008301"><ele>101</ele><time>2026-5-1T8:15:15Z</time></trkpt>
<trkpt lat="48.934204101562" lon="2.8523597717285"><ele>101</ele><time>2026-5-1T8:15:18Z</time></trkpt>
<trkpt lat="48.934188842773" lon="2.8521974086761"><ele>100</ele><time>2026-5-1T8:15:21Z</time></trkpt>
<trkpt lat="48.934177398682" lon="2.8520455360413"><ele>99</ele><time>2026-5-1T8:15:24Z</time></trkpt>
<trkpt lat="48.934169769287" lon="2.8519051074982"><ele>99</ele><time>2026-5-1T8:15:27Z</time></trkpt>
<trkpt lat="48.934177398682" lon="2.8517746925354"><ele>98</ele><time>2026-5-1T8:15:30Z</time></trkpt>
<trkpt lat="48.934177398682" lon="2.8516521453857"><ele>98</ele><time>2026-5-1T8:15:33Z</time></trkpt>
<trkpt lat="48.934185028076" lon="2.8515365123749"><ele>98</ele><time>2026-5-1T8:15:36Z</time></trkpt>
<trkpt lat="48.934181213379" lon="2.8514235019684"><ele>98</ele><time>2026-5-1T8:15:39Z</time></trkpt>
<trkpt lat="48.934173583984" lon="2.8513026237488"><ele>98</ele><time>2026-5-1T8:15:42Z</time></trkpt>
<trkpt lat="48.934154510498" lon="2.8511791229248"><ele>98</ele><time>2026-5-1T8:15:45Z</time></trkpt>
<trkpt lat="48.934135437012" lon="2.8510460853577"><ele>99</ele><time>2026-5-1T8:15:48Z</time></trkpt>
<trkpt lat="48.934120178223" lon="2.8509528636932"><ele>99</ele><time>2026-5-1T8:15:51Z</time></trkpt>
<trkpt lat="48.934097290039" lon="2.8508665561676"><ele>99</ele><time>2026-5-1T8:15:54Z</time></trkpt>
<trkpt lat="48.934066772461" lon="2.8507642745972"><ele>100</ele><time>2026-5-1T8:15:57Z</time></trkpt>
<trkpt lat="48.934017181396" lon="2.8506481647491"><ele>100</ele><time>2026-5-1T8:16:0Z</time></trkpt>
<trkpt lat="48.933948516846" lon="2.8505504131317"><ele>101</ele><time>2026-5-1T8:16:3Z</time></trkpt>
<trkpt lat="48.9338722229" lon="2.8504455089569"><ele>103</ele><time>2026-5-1T8:16:6Z</time></trkpt>
<trkpt lat="48.933795928955" lon="2.8503603935242"><ele>104</ele><time>2026-5-1T8:16:9Z</time></trkpt>
<trkpt lat="48.933723449707" lon="2.8502826690674"><ele>105</ele><time>2026-5-1T8:16:12Z</time></trkpt>
<trkpt lat="48.933658599854" lon="2.8502330780029"><ele>106</ele><time>2026-5-1T8:16:15Z</time></trkpt>
<trkpt lat="48.933578491211" lon="2.8501794338226"><ele>106</ele><time>2026-5-1T8:16:18Z</time></trkpt>
<trkpt lat="48.93350982666" lon="2.8501460552216"><ele>105</ele><time>2026-5-1T8:16:21Z</time></trkpt>
<trkpt lat="48.933429718018" lon="2.8501019477844"><ele>105</ele><time>2026-5-1T8:16:24Z</time></trkpt>
<trkpt lat="48.933338165283" lon="2.850063085556"><ele>105</ele><time>2026-5-1T8:16:27Z</time></trkpt>
<trkpt lat="48.933238983154" lon="2.8500170707703"><ele>105</ele><time>2026-5-1T8:16:30Z</time></trkpt>
<trkpt lat="48.933155059814" lon="2.8499865531921"><ele>104</ele><time>2026-5-1T8:16:33Z</time></trkpt>
<trkpt lat="48.933094024658" lon="2.8499586582184"><ele>104</ele><time>2026-5-1T8:16:36Z</time></trkpt>
<trkpt lat="48.933010101318" lon="2.8499248027802"><ele>104</ele><time>2026-5-1T8:16:39Z</time></trkpt>
<trkpt lat="48.932929992676" lon="2.8498969078064"><ele>104</ele><time>2026-5-1T8:16:42Z</time></trkpt>
<trkpt lat="48.932861328125" lon="2.8498785495758"><ele>103</ele><time>2026-5-1T8:16:45Z</time></trkpt>
<trkpt lat="48.93278503418" lon="2.8498575687408"><ele>103</ele><time>2026-5-1T8:16:48Z</time></trkpt>
<trkpt lat="48.932712554932" lon="2.8498551845551"><ele>103</ele><time>2026-5-1T8:16:51Z</time></trkpt>
<trkpt lat="48.932621002197" lon="2.8498756885529"><ele>103</ele><time>2026-5-1T8:16:54Z</time></trkpt>
<trkpt lat="48.932529449463" lon="2.849910736084"><ele>103</ele><time>2026-5-1T8:16:57Z</time></trkpt>
<trkpt lat="48.932426452637" lon="2.8499643802643"><ele>103</ele><time>2026-5-1T8:17:0Z</time></trkpt>
<trkpt lat="48.932346343994" lon="2.8500363826752"><ele>103</ele><time>2026-5-1T8:17:3Z</time></trkpt>
<trkpt lat="48.932273864746" lon="2.8501100540161"><ele>103</ele><time>2026-5-1T8:17:6Z</time></trkpt>
<trkpt lat="48.93221282959" lon="2.8501915931702"><ele>103</ele><time>2026-5-1T8:17:9Z</time></trkpt>
<trkpt lat="48.932159423828" lon="2.8502781391144"><ele>103</ele><time>2026-5-1T8:17:12Z</time></trkpt>
<trkpt lat="48.932106018066" lon="2.8503723144531"><ele>103</ele><time>2026-5-1T8:17:15Z</time></trkpt>
<trkpt lat="48.932052612305" lon="2.8504688739777"><ele>103</ele><time>2026-5-1T8:17:18Z</time></trkpt>
<trkpt lat="48.932006835938" lon="2.8505866527557"><ele>103</ele><time>2026-5-1T8:17:21Z</time></trkpt>
<trkpt lat="48.931972503662" lon="2.8507034778595"><ele>103</ele><time>2026-5-1T8:17:24Z</time></trkpt>
<trkpt lat="48.931930541992" lon="2.8508410453796"><ele>103</ele><time>2026-5-1T8:17:27Z</time></trkpt>
<trkpt lat="48.931888580322" lon="2.8509681224823"><ele>102</ele><time>2026-5-1T8:17:30Z</time></trkpt>
<trkpt lat="48.931835174561" lon="2.8510851860046"><ele>102</ele><time>2026-5-1T8:17:33Z</time></trkpt>
<trkpt lat="48.931762695312" lon="2.8512017726898"><ele>100</ele><time>2026-5-1T8:17:36Z</time></trkpt>
<trkpt lat="48.931690216064" lon="2.8513205051422"><ele>100</ele><time>2026-5-1T8:17:39Z</time></trkpt>
<trkpt lat="48.931629180908" lon="2.8514065742493"><ele>99</ele><time>2026-5-1T8:17:42Z</time></trkpt>
<trkpt lat="48.931575775146" lon="2.8514692783356"><ele>99</ele><time>2026-5-1T8:17:45Z</time></trkpt>
<trkpt lat="48.931507110596" lon="2.851526260376"><ele>99</ele><time>2026-5-1T8:17:48Z</time></trkpt>
<trkpt lat="48.93143081665" lon="2.8515672683716"><ele>99</ele><time>2026-5-1T8:17:51Z</time></trkpt>
<trkpt lat="48.931354522705" lon="2.8515994548798"><ele>100</ele><time>2026-5-1T8:17:54Z</time></trkpt>
<trkpt lat="48.931266784668" lon="2.851625919342"><ele>100</ele><time>2026-5-1T8:17:57Z</time></trkpt>
<trkpt lat="48.931182861328" lon="2.8516452312469"><ele>100</ele><time>2026-5-1T8:18:0Z</time></trkpt>
<trkpt lat="48.931095123291" lon="2.8516683578491"><ele>101</ele><time>2026-5-1T8:18:3Z</time></trkpt>
<trkpt lat="48.931018829346" lon="2.8516833782196"><ele>101</ele><time>2026-5-1T8:18:6Z</time></trkpt>
<trkpt lat="48.930946350098" lon="2.8516919612885"><ele>101</ele><time>2026-5-1T8:18:9Z</time></trkpt>
<trkpt lat="48.930858612061" lon="2.8517105579376"><ele>102</ele><time>2026-5-1T8:18:12Z</time></trkpt>
<trkpt lat="48.930778503418" lon="2.8517298698425"><ele>103</ele><time>2026-5-1T8:18:15Z</time></trkpt>
<trkpt lat="48.930686950684" lon="2.8517549037933"><ele>103</ele><time>2026-5-1T8:18:18Z</time></trkpt>
<trkpt lat="48.930599212646" lon="2.8517820835114"><ele>103</ele><time>2026-5-1T8:18:21Z</time></trkpt>
<trkpt lat="48.930507659912" lon="2.8518109321594"><ele>104</ele><time>2026-5-1T8:18:24Z</time></trkpt>
<trkpt lat="48.930416107178" lon="2.8518414497375"><ele>105</ele><time>2026-5-1T8:18:27Z</time></trkpt>
<trkpt lat="48.930324554443" lon="2.8518731594086"><ele>105</ele><time>2026-5-1T8:18:30Z</time></trkpt>
<trkpt lat="48.93021774292" lon="2.8518960475922"><ele>106</ele><time>2026-5-1T8:18:33Z</time></trkpt>
<trkpt lat="48.930126190186" lon="2.8519403934479"><ele>107</ele><time>2026-5-1T8:18:36Z</time></trkpt>
<trkpt lat="48.930053710938" lon="2.8519690036774"><ele>107</ele><time>2026-5-1T8:18:39Z</time></trkpt>
<trkpt lat="48.929977416992" lon="2.8520007133484"><ele>108</ele><time>2026-5-1T8:18:42Z</time></trkpt>
<trkpt lat="48.929901123047" lon="2.8520293235779"><ele>108</ele><time>2026-5-1T8:18:45Z</time></trkpt>
<trkpt lat="48.929843902588" lon="2.8520500659943"><ele>107</ele><time>2026-5-1T8:18:48Z</time></trkpt>
<trkpt lat="48.929756164551" lon="2.8520729541779"><ele>107</ele><time>2026-5-1T8:18:51Z</time></trkpt>
<trkpt lat="48.929668426514" lon="2.8520965576172"><ele>107</ele><time>2026-5-1T8:18:54Z</time></trkpt>
<trkpt lat="48.929599761963" lon="2.8521230220795"><ele>107</ele><time>2026-5-1T8:18:57Z</time></trkpt>
<trkpt lat="48.929531097412" lon="2.8521509170532"><ele>107</ele><time>2026-5-1T8:19:0Z</time></trkpt>
<trkpt lat="48.929443359375" lon="2.8521778583527"><ele>107</ele><time>2026-5-1T8:19:3Z</time></trkpt>
<trkpt lat="48.92936706543" lon="2.8522064685822"><ele>107</ele><time>2026-5-1T8:19:6Z</time></trkpt>
<trkpt lat="48.929286956787" lon="2.852240562439"><ele>107</ele><time>2026-5-1T8:19:9Z</time></trkpt>
<trkpt lat="48.929210662842" lon="2.8522882461548"><ele>107</ele><time>2026-5-1T8:19:12Z</time></trkpt>
<trkpt lat="48.929138183594" lon="2.8523240089417"><ele>107</ele><time>2026-5-1T8:19:15Z</time></trkpt>
<trkpt lat="48.929058074951" lon="2.8523502349854"><ele>107</ele><time>2026-5-1T8:19:18Z</time></trkpt>
<trkpt lat="48.928977966309" lon="2.8523652553558"><ele>107</ele><time>2026-5-1T8:19:21Z</time></trkpt>
<trkpt lat="48.928894042969" lon="2.8523795604706"><ele>107</ele><time>2026-5-1T8:19:24Z</time></trkpt>
<trkpt lat="48.928810119629" lon="2.8523855209351"><ele>106</ele><time>2026-5-1T8:19:27Z</time></trkpt>
<trkpt lat="48.928733825684" lon="2.8523790836334"><ele>106</ele><time>2026-5-1T8:19:30Z</time></trkpt>
<trkpt lat="48.928642272949" lon="2.8523681163788"><ele>104</ele><time>2026-5-1T8:19:33Z</time></trkpt>
<trkpt lat="48.928550720215" lon="2.8523445129395"><ele>101</ele><time>2026-5-1T8:19:36Z</time></trkpt>
<trkpt lat="48.92847442627" lon="2.8523299694061"><ele>100</ele><time>2026-5-1T8:19:39Z</time></trkpt>
<trkpt lat="48.928398132324" lon="2.8523032665253"><ele>100</ele><time>2026-5-1T8:19:42Z</time></trkpt>
<trkpt lat="48.928340911865" lon="2.8522868156433"><ele>100</ele><time>2026-5-1T8:19:45Z</time></trkpt>
<trkpt lat="48.928340911865" lon="2.8522868156433"><ele>100</ele><time>2026-5-1T8:19:48Z</time></trkpt>
<trkpt lat="48.928234100342" lon="2.8522539138794"><ele>99</ele><time>2026-5-1T8:19:51Z</time></trkpt>
<trkpt lat="48.928234100342" lon="2.8522539138794"><ele>99</ele><time>2026-5-1T8:19:54Z</time></trkpt>
<trkpt lat="48.928142547607" lon="2.8522138595581"><ele>98</ele><time>2026-5-1T8:19:57Z</time></trkpt>
<trkpt lat="48.928058624268" lon="2.8521826267242"><ele>98</ele><time>2026-5-1T8:20:0Z</time></trkpt>
<trkpt lat="48.92797088623" lon="2.852148771286"><ele>98</ele><time>2026-5-1T8:20:3Z</time></trkpt>
<trkpt lat="48.927894592285" lon="2.8521196842194"><ele>98</ele><time>2026-5-1T8:20:6Z</time></trkpt>
<trkpt lat="48.927795410156" lon="2.8520901203156"><ele>99</ele><time>2026-5-1T8:20:9Z</time></trkpt>
<trkpt lat="48.92769241333" lon="2.8520531654358"><ele>99</ele><time>2026-5-1T8:20:12Z</time></trkpt>
<trkpt lat="48.927616119385" lon="2.8520174026489"><ele>99</ele><time>2026-5-1T8:20:15Z</time></trkpt>
<trkpt lat="48.927536010742" lon="2.8519804477692"><ele>99</ele><time>2026-5-1T8:20:18Z</time></trkpt>
<trkpt lat="48.927444458008" lon="2.8519270420074"><ele>99</ele><time>2026-5-1T8:20:21Z</time></trkpt>
<trkpt lat="48.927360534668" lon="2.8518748283386"><ele>99</ele><time>2026-5-1T8:20:24Z</time></trkpt>
<trkpt lat="48.92728805542" lon="2.8518264293671"><ele>99</ele><time>2026-5-1T8:20:27Z</time></trkpt>
<trkpt lat="48.927223205566" lon="2.8517861366272"><ele>99</ele><time>2026-5-1T8:20:30Z</time></trkpt>
<trkpt lat="48.92716217041" lon="2.8517487049103"><ele>100</ele><time>2026-5-1T8:20:33Z</time></trkpt>
<trkpt lat="48.927104949951" lon="2.8516974449158"><ele>100</ele><time>2026-5-1T8:20:36Z</time></trkpt>
<trkpt lat="48.927032470703" lon="2.8516314029694"><ele>100</ele><time>2026-5-1T8:20:39Z</time></trkpt>
<trkpt lat="48.926948547363" lon="2.8515603542328"><ele>100</ele><time>2026-5-1T8:20:42Z</time></trkpt>
<trkpt lat="48.926891326904" lon="2.8515167236328"><ele>100</ele><time>2026-5-1T8:20:45Z</time></trkpt>
<trkpt lat="48.926830291748" lon="2.8514478206635"><ele>101</ele><time>2026-5-1T8:20:48Z</time></trkpt>
<trkpt lat="48.9267578125" lon="2.8513658046722"><ele>102</ele><time>2026-5-1T8:20:51Z</time></trkpt>
<trkpt lat="48.926692962646" lon="2.8512856960297"><ele>104</ele><time>2026-5-1T8:20:54Z</time></trkpt>
<trkpt lat="48.926635742188" lon="2.8512125015259"><ele>104</ele><time>2026-5-1T8:20:57Z</time></trkpt>
<trkpt lat="48.926574707031" lon="2.8511233329773"><ele>103</ele><time>2026-5-1T8:21:0Z</time></trkpt>
<trkpt lat="48.926513671875" lon="2.8510251045227"><ele>102</ele><time>2026-5-1T8:21:3Z</time></trkpt>
<trkpt lat="48.926464080811" lon="2.8509337902069"><ele>101</ele><time>2026-5-1T8:21:6Z</time></trkpt>
<trkpt lat="48.926406860352" lon="2.8508203029633"><ele>100</ele><time>2026-5-1T8:21:9Z</time></trkpt>
<trkpt lat="48.926345825195" lon="2.8506987094879"><ele>100</ele><time>2026-5-1T8:21:12Z</time></trkpt>
<trkpt lat="48.926284790039" lon="2.8505825996399"><ele>101</ele><time>2026-5-1T8:21:15Z</time></trkpt>
<trkpt lat="48.926223754883" lon="2.8504860401154"><ele>102</ele><time>2026-5-1T8:21:18Z</time></trkpt>
<trkpt lat="48.926155090332" lon="2.8503882884979"><ele>103</ele><time>2026-5-1T8:21:21Z</time></trkpt>
<trkpt lat="48.926090240479" lon="2.8502907752991"><ele>104</ele><time>2026-5-1T8:21:24Z</time></trkpt>
<trkpt lat="48.926021575928" lon="2.8502106666565"><ele>106</ele><time>2026-5-1T8:21:27Z</time></trkpt>
<trkpt lat="48.92594909668" lon="2.8501355648041"><ele>107</ele><time>2026-5-1T8:21:30Z</time></trkpt>
<trkpt lat="48.925868988037" lon="2.850061416626"><ele>107</ele><time>2026-5-1T8:21:33Z</time></trkpt>
<trkpt lat="48.925800323486" lon="2.850004196167"><ele>108</ele><time>2026-5-1T8:21:36Z</time></trkpt>
<trkpt lat="48.925720214844" lon="2.8499464988708"><ele>108</ele><time>2026-5-1T8:21:39Z</time></trkpt>
<trkpt lat="48.925632476807" lon="2.8498935699463"><ele>108</ele><time>2026-5-1T8:21:42Z</time></trkpt>
<trkpt lat="48.925552368164" lon="2.849844455719"><ele>108</ele><time>2026-5-1T8:21:45Z</time></trkpt>
<trkpt lat="48.925464630127" lon="2.8497841358185"><ele>108</ele><time>2026-5-1T8:21:48Z</time></trkpt>
<trkpt lat="48.925380706787" lon="2.8497354984283"><ele>107</ele><time>2026-5-1T8:21:51Z</time></trkpt>
<trkpt lat="48.925300598145" lon="2.8496849536896"><ele>107</ele><time>2026-5-1T8:21:54Z</time></trkpt>
<trkpt lat="48.925220489502" lon="2.8496417999268"><ele>107</ele><time>2026-5-1T8:21:57Z</time></trkpt>
<trkpt lat="48.925144195557" lon="2.8496053218842"><ele>106</ele><time>2026-5-1T8:22:0Z</time></trkpt>
<trkpt lat="48.925071716309" lon="2.849574804306"><ele>106</ele><time>2026-5-1T8:22:3Z</time></trkpt>
<trkpt lat="48.924999237061" lon="2.8495421409607"><ele>106</ele><time>2026-5-1T8:22:6Z</time></trkpt>
<trkpt lat="48.924926757812" lon="2.8495001792908"><ele>105</ele><time>2026-5-1T8:22:9Z</time></trkpt>
<trkpt lat="48.924854278564" lon="2.849463224411"><ele>105</ele><time>2026-5-1T8:22:12Z</time></trkpt>
<trkpt lat="48.924777984619" lon="2.849422454834"><ele>104</ele><time>2026-5-1T8:22:15Z</time></trkpt>
<trkpt lat="48.924694061279" lon="2.8493735790253"><ele>104</ele><time>2026-5-1T8:22:18Z</time></trkpt>
<trkpt lat="48.924625396729" lon="2.8493280410767"><ele>104</ele><time>2026-5-1T8:22:21Z</time></trkpt>
<trkpt lat="48.924549102783" lon="2.8492791652679"><ele>103</ele><time>2026-5-1T8:22:24Z</time></trkpt>
<trkpt lat="48.924468994141" lon="2.8492305278778"><ele>103</ele><time>2026-5-1T8:22:27Z</time></trkpt>
<trkpt lat="48.924396514893" lon="2.8491921424866"><ele>103</ele><time>2026-5-1T8:22:30Z</time></trkpt>
<trkpt lat="48.924339294434" lon="2.8491628170013"><ele>102</ele><time>2026-5-1T8:22:33Z</time></trkpt>
<trkpt lat="48.924339294434" lon="2.8491628170013"><ele>102</ele><time>2026-5-1T8:22:36Z</time></trkpt>
<trkpt lat="48.924339294434" lon="2.8491628170013"><ele>102</ele><time>2026-5-1T8:22:39Z</time></trkpt>
<trkpt lat="48.924339294434" lon="2.8491628170013"><ele>102</ele><time>2026-5-1T8:22:42Z</time></trkpt>
<trkpt lat="48.924312591553" lon="2.8491957187653"><ele>102</ele><time>2026-5-1T8:22:45Z</time></trkpt>
<trkpt lat="48.924083709717" lon="2.8490962982178"><ele>100</ele><time>2026-5-1T8:22:48Z</time></trkpt>
<trkpt lat="48.924003601074" lon="2.8490219116211"><ele>101</ele><time>2026-5-1T8:22:51Z</time></trkpt>
<trkpt lat="48.92391204834" lon="2.8489487171173"><ele>101</ele><time>2026-5-1T8:22:54Z</time></trkpt>
<trkpt lat="48.923820495605" lon="2.8488914966583"><ele>101</ele><time>2026-5-1T8:22:57Z</time></trkpt>
<trkpt lat="48.923713684082" lon="2.8488235473633"><ele>102</ele><time>2026-5-1T8:23:0Z</time></trkpt>
<trkpt lat="48.923652648926" lon="2.8487756252289"><ele>102</ele><time>2026-5-1T8:23:3Z</time></trkpt>
<trkpt lat="48.923583984375" lon="2.8487248420715"><ele>102</ele><time>2026-5-1T8:23:6Z</time></trkpt>
<trkpt lat="48.92350769043" lon="2.8486626148224"><ele>103</ele><time>2026-5-1T8:23:9Z</time></trkpt>
<trkpt lat="48.923439025879" lon="2.8486113548279"><ele>103</ele><time>2026-5-1T8:23:12Z</time></trkpt>
<trkpt lat="48.923370361328" lon="2.8485565185547"><ele>103</ele><time>2026-5-1T8:23:15Z</time></trkpt>
<trkpt lat="48.923316955566" lon="2.8485119342804"><ele>103</ele><time>2026-5-1T8:23:18Z</time></trkpt>
<trkpt lat="48.923248291016" lon="2.8484539985657"><ele>103</ele><time>2026-5-1T8:23:21Z</time></trkpt>
<trkpt lat="48.923179626465" lon="2.8483891487122"><ele>103</ele><time>2026-5-1T8:23:24Z</time></trkpt>
<trkpt lat="48.923099517822" lon="2.8483107089996"><ele>104</ele><time>2026-5-1T8:23:27Z</time></trkpt>
<trkpt lat="48.923030853271" lon="2.8482346534729"><ele>106</ele><time>2026-5-1T8:23:30Z</time></trkpt>
<trkpt lat="48.92297744751" lon="2.8481826782227"><ele>106</ele><time>2026-5-1T8:23:33Z</time></trkpt>
<trkpt lat="48.922924041748" lon="2.8481261730194"><ele>107</ele><time>2026-5-1T8:23:36Z</time></trkpt>
<trkpt lat="48.922855377197" lon="2.8480598926544"><ele>107</ele><time>2026-5-1T8:23:39Z</time></trkpt>
<trkpt lat="48.922790527344" lon="2.8479940891266"><ele>107</ele><time>2026-5-1T8:23:42Z</time></trkpt>
<trkpt lat="48.922729492188" lon="2.8479251861572"><ele>107</ele><time>2026-5-1T8:23:45Z</time></trkpt>
<trkpt lat="48.922676086426" lon="2.8478701114655"><ele>107</ele><time>2026-5-1T8:23:48Z</time></trkpt>
<trkpt lat="48.922630310059" lon="2.8478150367737"><ele>107</ele><time>2026-5-1T8:23:51Z</time></trkpt>
<trkpt lat="48.922565460205" lon="2.8477513790131"><ele>108</ele><time>2026-5-1T8:23:54Z</time></trkpt>
<trkpt lat="48.922508239746" lon="2.847686290741"><ele>108</ele><time>2026-5-1T8:23:57Z</time></trkpt>
<trkpt lat="48.922443389893" lon="2.847617149353"><ele>108</ele><time>2026-5-1T8:24:0Z</time></trkpt>
<trkpt lat="48.92236328125" lon="2.8475399017334"><ele>108</ele><time>2026-5-1T8:24:3Z</time></trkpt>
<trkpt lat="48.922306060791" lon="2.8474802970886"><ele>108</ele><time>2026-5-1T8:24:6Z</time></trkpt>
<trkpt lat="48.922245025635" lon="2.8474199771881"><ele>108</ele><time>2026-5-1T8:24:9Z</time></trkpt>
<trkpt lat="48.922191619873" lon="2.8473620414734"><ele>108</ele><time>2026-5-1T8:24:12Z</time></trkpt>
<trkpt lat="48.922138214111" lon="2.8473155498505"><ele>108</ele><time>2026-5-1T8:24:15Z</time></trkpt>
<trkpt lat="48.922088623047" lon="2.8472657203674"><ele>108</ele><time>2026-5-1T8:24:18Z</time></trkpt>
<trkpt lat="48.922031402588" lon="2.8472003936768"><ele>108</ele><time>2026-5-1T8:24:21Z</time></trkpt>
<trkpt lat="48.921955108643" lon="2.8471167087555"><ele>109</ele><time>2026-5-1T8:24:24Z</time></trkpt>
<trkpt lat="48.921878814697" lon="2.8470320701599"><ele>109</ele><time>2026-5-1T8:24:27Z</time></trkpt>
<trkpt lat="48.921813964844" lon="2.8469576835632"><ele>109</ele><time>2026-5-1T8:24:30Z</time></trkpt>
<trkpt lat="48.92174911499" lon="2.8468849658966"><ele>109</ele><time>2026-5-1T8:24:33Z</time></trkpt>
<trkpt lat="48.921680450439" lon="2.8468039035797"><ele>109</ele><time>2026-5-1T8:24:36Z</time></trkpt>
<trkpt lat="48.921615600586" lon="2.8467264175415"><ele>109</ele><time>2026-5-1T8:24:39Z</time></trkpt>
<trkpt lat="48.921543121338" lon="2.8466317653656"><ele>111</ele><time>2026-5-1T8:24:42Z</time></trkpt>
<trkpt lat="48.92147064209" lon="2.8465421199799"><ele>111</ele><time>2026-5-1T8:24:45Z</time></trkpt>
<trkpt lat="48.921394348145" lon="2.8464441299438"><ele>111</ele><time>2026-5-1T8:24:48Z</time></trkpt>
<trkpt lat="48.921325683594" lon="2.8463594913483"><ele>110</ele><time>2026-5-1T8:24:51Z</time></trkpt>
<trkpt lat="48.92126083374" lon="2.846301317215"><ele>110</ele><time>2026-5-1T8:24:54Z</time></trkpt>
<trkpt lat="48.921188354492" lon="2.8462481498718"><ele>110</ele><time>2026-5-1T8:24:57Z</time></trkpt>
<trkpt lat="48.92113494873" lon="2.8461570739746"><ele>109</ele><time>2026-5-1T8:25:0Z</time></trkpt>
<trkpt lat="48.921062469482" lon="2.8460502624512"><ele>108</ele><time>2026-5-1T8:25:3Z</time></trkpt>
<trkpt lat="48.921009063721" lon="2.8459703922272"><ele>108</ele><time>2026-5-1T8:25:6Z</time></trkpt>
<trkpt lat="48.920951843262" lon="2.8458778858185"><ele>107</ele><time>2026-5-1T8:25:9Z</time></trkpt>
<trkpt lat="48.920871734619" lon="2.8457627296448"><ele>107</ele><time>2026-5-1T8:25:12Z</time></trkpt>
<trkpt lat="48.920799255371" lon="2.8456575870514"><ele>108</ele><time>2026-5-1T8:25:15Z</time></trkpt>
<trkpt lat="48.920734405518" lon="2.8455543518066"><ele>108</ele><time>2026-5-1T8:25:18Z</time></trkpt>
<trkpt lat="48.920654296875" lon="2.8454320430756"><ele>108</ele><time>2026-5-1T8:25:21Z</time></trkpt>
<trkpt lat="48.920581817627" lon="2.8453135490417"><ele>107</ele><time>2026-5-1T8:25:24Z</time></trkpt>
<trkpt lat="48.920516967773" lon="2.8452081680298"><ele>107</ele><time>2026-5-1T8:25:27Z</time></trkpt>
<trkpt lat="48.92045211792" lon="2.8451001644135"><ele>106</ele><time>2026-5-1T8:25:30Z</time></trkpt>
<trkpt lat="48.920383453369" lon="2.8449876308441"><ele>105</ele><time>2026-5-1T8:25:33Z</time></trkpt>
<trkpt lat="48.920318603516" lon="2.8448750972748"><ele>105</ele><time>2026-5-1T8:25:36Z</time></trkpt>
<trkpt lat="48.920257568359" lon="2.844761133194"><ele>106</ele><time>2026-5-1T8:25:39Z</time></trkpt>
<trkpt lat="48.920188903809" lon="2.8446505069733"><ele>105</ele><time>2026-5-1T8:25:42Z</time></trkpt>
<trkpt lat="48.920120239258" lon="2.8445320129395"><ele>105</ele><time>2026-5-1T8:25:45Z</time></trkpt>
<trkpt lat="48.920051574707" lon="2.8444082736969"><ele>105</ele><time>2026-5-1T8:25:48Z</time></trkpt>
<trkpt lat="48.919990539551" lon="2.8442888259888"><ele>106</ele><time>2026-5-1T8:25:51Z</time></trkpt>
<trkpt lat="48.919933319092" lon="2.8441791534424"><ele>105</ele><time>2026-5-1T8:25:54Z</time></trkpt>
<trkpt lat="48.919876098633" lon="2.8440592288971"><ele>105</ele><time>2026-5-1T8:25:57Z</time></trkpt>
<trkpt lat="48.919818878174" lon="2.8439419269562"><ele>105</ele><time>2026-5-1T8:26:0Z</time></trkpt>
<trkpt lat="48.919769287109" lon="2.843841791153"><ele>106</ele><time>2026-5-1T8:26:3Z</time></trkpt>
<trkpt lat="48.919715881348" lon="2.8437311649323"><ele>106</ele><time>2026-5-1T8:26:6Z</time></trkpt>
<trkpt lat="48.919662475586" lon="2.8436036109924"><ele>105</ele><time>2026-5-1T8:26:9Z</time></trkpt>
<trkpt lat="48.919612884521" lon="2.8434772491455"><ele>105</ele><time>2026-5-1T8:26:12Z</time></trkpt>
<trkpt lat="48.919555664062" lon="2.8433384895325"><ele>105</ele><time>2026-5-1T8:26:15Z</time></trkpt>
<trkpt lat="48.919498443604" lon="2.8432004451752"><ele>104</ele><time>2026-5-1T8:26:18Z</time></trkpt>
<trkpt lat="48.919445037842" lon="2.8430652618408"><ele>104</ele><time>2026-5-1T8:26:21Z</time></trkpt>
<trkpt lat="48.919395446777" lon="2.8429384231567"><ele>104</ele><time>2026-5-1T8:26:24Z</time></trkpt>
<trkpt lat="48.919345855713" lon="2.8428068161011"><ele>104</ele><time>2026-5-1T8:26:27Z</time></trkpt>
<trkpt lat="48.91930770874" lon="2.8427031040192"><ele>104</ele><time>2026-5-1T8:26:30Z</time></trkpt>
<trkpt lat="48.919258117676" lon="2.8425695896149"><ele>104</ele><time>2026-5-1T8:26:33Z</time></trkpt>
<trkpt lat="48.919204711914" lon="2.8424274921417"><ele>102</ele><time>2026-5-1T8:26:36Z</time></trkpt>
<trkpt lat="48.919166564941" lon="2.8422834873199"><ele>101</ele><time>2026-5-1T8:26:39Z</time></trkpt>
<trkpt lat="48.919124603271" lon="2.8421437740326"><ele>101</ele><time>2026-5-1T8:26:42Z</time></trkpt>
<trkpt lat="48.919075012207" lon="2.8419897556305"><ele>101</ele><time>2026-5-1T8:26:45Z</time></trkpt>
<trkpt lat="48.91902923584" lon="2.8418452739716"><ele>101</ele><time>2026-5-1T8:26:48Z</time></trkpt>
<trkpt lat="48.918991088867" lon="2.8417086601257"><ele>101</ele><time>2026-5-1T8:26:51Z</time></trkpt>
<trkpt lat="48.918952941895" lon="2.8415806293488"><ele>101</ele><time>2026-5-1T8:26:54Z</time></trkpt>
<trkpt lat="48.91890335083" lon="2.8414394855499"><ele>102</ele><time>2026-5-1T8:26:57Z</time></trkpt>
<trkpt lat="48.918872833252" lon="2.8412969112396"><ele>102</ele><time>2026-5-1T8:27:0Z</time></trkpt>
<trkpt lat="48.918849945068" lon="2.8411476612091"><ele>103</ele><time>2026-5-1T8:27:3Z</time></trkpt>
<trkpt lat="48.918827056885" lon="2.8410143852234"><ele>104</ele><time>2026-5-1T8:27:6Z</time></trkpt>
<trkpt lat="48.918807983398" lon="2.8408968448639"><ele>105</ele><time>2026-5-1T8:27:9Z</time></trkpt>
<trkpt lat="48.918788909912" lon="2.8407492637634"><ele>105</ele><time>2026-5-1T8:27:12Z</time></trkpt>
<trkpt lat="48.918762207031" lon="2.840610742569"><ele>105</ele><time>2026-5-1T8:27:15Z</time></trkpt>
<trkpt lat="48.918727874756" lon="2.8404469490051"><ele>105</ele><time>2026-5-1T8:27:18Z</time></trkpt>
<trkpt lat="48.91869354248" lon="2.8403010368347"><ele>105</ele><time>2026-5-1T8:27:21Z</time></trkpt>
<trkpt lat="48.9186668396" lon="2.8401670455933"><ele>105</ele><time>2026-5-1T8:27:24Z</time></trkpt>
<trkpt lat="48.918640136719" lon="2.8400168418884"><ele>105</ele><time>2026-5-1T8:27:27Z</time></trkpt>
<trkpt lat="48.918617248535" lon="2.839852809906"><ele>106</ele><time>2026-5-1T8:27:30Z</time></trkpt>
<trkpt lat="48.918598175049" lon="2.8397006988525"><ele>105</ele><time>2026-5-1T8:27:33Z</time></trkpt>
<trkpt lat="48.918579101562" lon="2.8395531177521"><ele>105</ele><time>2026-5-1T8:27:36Z</time></trkpt>
<trkpt lat="48.918563842773" lon="2.8393845558167"><ele>105</ele><time>2026-5-1T8:27:39Z</time></trkpt>
<trkpt lat="48.918552398682" lon="2.8392202854156"><ele>106</ele><time>2026-5-1T8:27:42Z</time></trkpt>
<trkpt lat="48.91854095459" lon="2.8390619754791"><ele>107</ele><time>2026-5-1T8:27:45Z</time></trkpt>
<trkpt lat="48.918537139893" lon="2.8389101028442"><ele>107</ele><time>2026-5-1T8:27:48Z</time></trkpt>
<trkpt lat="48.918537139893" lon="2.8387541770935"><ele>107</ele><time>2026-5-1T8:27:51Z</time></trkpt>
<trkpt lat="48.91854095459" lon="2.8386232852936"><ele>106</ele><time>2026-5-1T8:27:54Z</time></trkpt>
<trkpt lat="48.918544769287" lon="2.8384728431702"><ele>105</ele><time>2026-5-1T8:27:57Z</time></trkpt>
<trkpt lat="48.918560028076" lon="2.8383274078369"><ele>104</ele><time>2026-5-1T8:28:0Z</time></trkpt>
<trkpt lat="48.918575286865" lon="2.8381791114807"><ele>103</ele><time>2026-5-1T8:28:3Z</time></trkpt>
<trkpt lat="48.918586730957" lon="2.8380222320557"><ele>102</ele><time>2026-5-1T8:28:6Z</time></trkpt>
<trkpt lat="48.918590545654" lon="2.8378810882568"><ele>103</ele><time>2026-5-1T8:28:9Z</time></trkpt>
<trkpt lat="48.918601989746" lon="2.837785243988"><ele>103</ele><time>2026-5-1T8:28:12Z</time></trkpt>
<trkpt lat="48.918601989746" lon="2.837785243988"><ele>103</ele><time>2026-5-1T8:28:15Z</time></trkpt>
<trkpt lat="48.918609619141" lon="2.8376574516296"><ele>103</ele><time>2026-5-1T8:28:18Z</time></trkpt>
<trkpt lat="48.918609619141" lon="2.8376574516296"><ele>103</ele><time>2026-5-1T8:28:21Z</time></trkpt>
<trkpt lat="48.918586730957" lon="2.8375627994537"><ele>103</ele><time>2026-5-1T8:28:24Z</time></trkpt>
<trkpt lat="48.918586730957" lon="2.8375627994537"><ele>103</ele><time>2026-5-1T8:28:27Z</time></trkpt>
<trkpt lat="48.918586730957" lon="2.8375627994537"><ele>103</ele><time>2026-5-1T8:28:30Z</time></trkpt>
<trkpt lat="48.918617248535" lon="2.8374714851379"><ele>104</ele><time>2026-5-1T8:28:33Z</time></trkpt>
<trkpt lat="48.9186668396" lon="2.8373551368713"><ele>104</ele><time>2026-5-1T8:28:36Z</time></trkpt>
<trkpt lat="48.918689727783" lon="2.8372313976288"><ele>104</ele><time>2026-5-1T8:28:39Z</time></trkpt>
<trkpt lat="48.918724060059" lon="2.8370666503906"><ele>104</ele><time>2026-5-1T8:28:42Z</time></trkpt>
<trkpt lat="48.918762207031" lon="2.8369069099426"><ele>103</ele><time>2026-5-1T8:28:45Z</time></trkpt>
<trkpt lat="48.918796539307" lon="2.8367328643799"><ele>103</ele><time>2026-5-1T8:28:48Z</time></trkpt>
<trkpt lat="48.91881942749" lon="2.8365566730499"><ele>103</ele><time>2026-5-1T8:28:51Z</time></trkpt>
<trkpt lat="48.918846130371" lon="2.8363883495331"><ele>103</ele><time>2026-5-1T8:28:54Z</time></trkpt>
<trkpt lat="48.918872833252" lon="2.836234331131"><ele>102</ele><time>2026-5-1T8:28:57Z</time></trkpt>
<trkpt lat="48.918895721436" lon="2.8360953330994"><ele>102</ele><time>2026-5-1T8:29:0Z</time></trkpt>
<trkpt lat="48.918922424316" lon="2.8359413146973"><ele>102</ele><time>2026-5-1T8:29:3Z</time></trkpt>
<trkpt lat="48.918949127197" lon="2.8357903957367"><ele>102</ele><time>2026-5-1T8:29:6Z</time></trkpt>
<trkpt lat="48.918979644775" lon="2.8356413841248"><ele>103</ele><time>2026-5-1T8:29:9Z</time></trkpt>
<trkpt lat="48.919013977051" lon="2.8354828357697"><ele>102</ele><time>2026-5-1T8:29:12Z</time></trkpt>
<trkpt lat="48.919048309326" lon="2.8353281021118"><ele>101</ele><time>2026-5-1T8:29:15Z</time></trkpt>
<trkpt lat="48.919086456299" lon="2.8351843357086"><ele>100</ele><time>2026-5-1T8:29:18Z</time></trkpt>
<trkpt lat="48.919120788574" lon="2.8350369930267"><ele>100</ele><time>2026-5-1T8:29:21Z</time></trkpt>
<trkpt lat="48.91915512085" lon="2.8349025249481"><ele>100</ele><time>2026-5-1T8:29:24Z</time></trkpt>
<trkpt lat="48.919193267822" lon="2.8347568511963"><ele>100</ele><time>2026-5-1T8:29:27Z</time></trkpt>
<trkpt lat="48.919239044189" lon="2.8345847129822"><ele>100</ele><time>2026-5-1T8:29:30Z</time></trkpt>
<trkpt lat="48.919277191162" lon="2.8344497680664"><ele>100</ele><time>2026-5-1T8:29:33Z</time></trkpt>
<trkpt lat="48.919319152832" lon="2.8343093395233"><ele>100</ele><time>2026-5-1T8:29:36Z</time></trkpt>
<trkpt lat="48.919364929199" lon="2.8341665267944"><ele>101</ele><time>2026-5-1T8:29:39Z</time></trkpt>
<trkpt lat="48.919406890869" lon="2.8340260982513"><ele>101</ele><time>2026-5-1T8:29:42Z</time></trkpt>
<trkpt lat="48.919448852539" lon="2.8338837623596"><ele>100</ele><time>2026-5-1T8:29:45Z</time></trkpt>
<trkpt lat="48.919494628906" lon="2.8337371349335"><ele>100</ele><time>2026-5-1T8:29:48Z</time></trkpt>
<trkpt lat="48.919536590576" lon="2.8335978984833"><ele>100</ele><time>2026-5-1T8:29:51Z</time></trkpt>
<trkpt lat="48.919574737549" lon="2.8334622383118"><ele>100</ele><time>2026-5-1T8:29:54Z</time></trkpt>
<trkpt lat="48.919612884521" lon="2.8333179950714"><ele>100</ele><time>2026-5-1T8:29:57Z</time></trkpt>
<trkpt lat="48.919658660889" lon="2.8331761360168"><ele>100</ele><time>2026-5-1T8:30:0Z</time></trkpt>
<trkpt lat="48.919700622559" lon="2.8330504894257"><ele>100</ele><time>2026-5-1T8:30:3Z</time></trkpt>
<trkpt lat="48.919742584229" lon="2.8329501152039"><ele>100</ele><time>2026-5-1T8:30:6Z</time></trkpt>
<trkpt lat="48.919788360596" lon="2.8328392505646"><ele>100</ele><time>2026-5-1T8:30:9Z</time></trkpt>
<trkpt lat="48.919834136963" lon="2.8327362537384"><ele>101</ele><time>2026-5-1T8:30:12Z</time></trkpt>
<trkpt lat="48.91987991333" lon="2.832615852356"><ele>102</ele><time>2026-5-1T8:30:15Z</time></trkpt>
<trkpt lat="48.919925689697" lon="2.832483291626"><ele>102</ele><time>2026-5-1T8:30:18Z</time></trkpt>
<trkpt lat="48.919967651367" lon="2.8323650360107"><ele>103</ele><time>2026-5-1T8:30:21Z</time></trkpt>
<trkpt lat="48.920013427734" lon="2.8322312831879"><ele>103</ele><time>2026-5-1T8:30:24Z</time></trkpt>
<trkpt lat="48.920066833496" lon="2.8320956230164"><ele>103</ele><time>2026-5-1T8:30:27Z</time></trkpt>
<trkpt lat="48.920124053955" lon="2.8319568634033"><ele>103</ele><time>2026-5-1T8:30:30Z</time></trkpt>
<trkpt lat="48.920185089111" lon="2.8318305015564"><ele>103</ele><time>2026-5-1T8:30:33Z</time></trkpt>
<trkpt lat="48.92024230957" lon="2.8317170143127"><ele>104</ele><time>2026-5-1T8:30:36Z</time></trkpt>
<trkpt lat="48.920299530029" lon="2.8316051959991"><ele>104</ele><time>2026-5-1T8:30:39Z</time></trkpt>
<trkpt lat="48.920360565186" lon="2.8314938545227"><ele>104</ele><time>2026-5-1T8:30:42Z</time></trkpt>
<trkpt lat="48.920425415039" lon="2.8313746452332"><ele>104</ele><time>2026-5-1T8:30:45Z</time></trkpt>
<trkpt lat="48.920490264893" lon="2.8312525749207"><ele>103</ele><time>2026-5-1T8:30:48Z</time></trkpt>
<trkpt lat="48.920562744141" lon="2.8311288356781"><ele>103</ele><time>2026-5-1T8:30:51Z</time></trkpt>
<trkpt lat="48.920635223389" lon="2.8310024738312"><ele>102</ele><time>2026-5-1T8:30:54Z</time></trkpt>
<trkpt lat="48.920707702637" lon="2.8308928012848"><ele>102</ele><time>2026-5-1T8:30:57Z</time></trkpt>
<trkpt lat="48.920764923096" lon="2.8308212757111"><ele>102</ele><time>2026-5-1T8:31:0Z</time></trkpt>
<trkpt lat="48.920764923096" lon="2.8308212757111"><ele>102</ele><time>2026-5-1T8:31:3Z</time></trkpt>
<trkpt lat="48.920764923096" lon="2.8308212757111"><ele>102</ele><time>2026-5-1T8:31:6Z</time></trkpt>
<trkpt lat="48.920711517334" lon="2.8306636810303"><ele>101</ele><time>2026-5-1T8:31:9Z</time></trkpt>
<trkpt lat="48.920711517334" lon="2.8306636810303"><ele>101</ele><time>2026-5-1T8:31:12Z</time></trkpt>
<trkpt lat="48.920711517334" lon="2.8306636810303"><ele>101</ele><time>2026-5-1T8:31:15Z</time></trkpt>
<trkpt lat="48.920711517334" lon="2.8306636810303"><ele>101</ele><time>2026-5-1T8:31:18Z</time></trkpt>
<trkpt lat="48.920711517334" lon="2.8306636810303"><ele>101</ele><time>2026-5-1T8:31:21Z</time></trkpt>
<trkpt lat="48.92053604126" lon="2.8305516242981"><ele>101</ele><time>2026-5-1T8:31:24Z</time></trkpt>
<trkpt lat="48.920444488525" lon="2.8304784297943"><ele>101</ele><time>2026-5-1T8:31:27Z</time></trkpt>
<trkpt lat="48.920372009277" lon="2.8304235935211"><ele>101</ele><time>2026-5-1T8:31:30Z</time></trkpt>
<trkpt lat="48.920295715332" lon="2.8303697109222"><ele>101</ele><time>2026-5-1T8:31:33Z</time></trkpt>
<trkpt lat="48.9202003479" lon="2.8303053379059"><ele>100</ele><time>2026-5-1T8:31:36Z</time></trkpt>
<trkpt lat="48.920108795166" lon="2.8302443027496"><ele>99</ele><time>2026-5-1T8:31:39Z</time></trkpt>
<trkpt lat="48.920013427734" lon="2.8301661014557"><ele>98</ele><time>2026-5-1T8:31:42Z</time></trkpt>
<trkpt lat="48.919921875" lon="2.8301033973694"><ele>98</ele><time>2026-5-1T8:31:45Z</time></trkpt>
<trkpt lat="48.919826507568" lon="2.8300454616547"><ele>98</ele><time>2026-5-1T8:31:48Z</time></trkpt>
<trkpt lat="48.919738769531" lon="2.8299896717072"><ele>97</ele><time>2026-5-1T8:31:51Z</time></trkpt>
<trkpt lat="48.919666290283" lon="2.8299419879913"><ele>97</ele><time>2026-5-1T8:31:54Z</time></trkpt>
<trkpt lat="48.919586181641" lon="2.8299007415771"><ele>97</ele><time>2026-5-1T8:31:57Z</time></trkpt>
<trkpt lat="48.919498443604" lon="2.8298602104187"><ele>96</ele><time>2026-5-1T8:32:0Z</time></trkpt>
<trkpt lat="48.919414520264" lon="2.8298149108887"><ele>96</ele><time>2026-5-1T8:32:3Z</time></trkpt>
<trkpt lat="48.91934967041" lon="2.8297758102417"><ele>96</ele><time>2026-5-1T8:32:6Z</time></trkpt>
<trkpt lat="48.91926574707" lon="2.8297293186188"><ele>96</ele><time>2026-5-1T8:32:9Z</time></trkpt>
<trkpt lat="48.919185638428" lon="2.8296892642975"><ele>97</ele><time>2026-5-1T8:32:12Z</time></trkpt>
<trkpt lat="48.919078826904" lon="2.8296363353729"><ele>97</ele><time>2026-5-1T8:32:15Z</time></trkpt>
<trkpt lat="48.918991088867" lon="2.8295798301697"><ele>98</ele><time>2026-5-1T8:32:18Z</time></trkpt>
<trkpt lat="48.918918609619" lon="2.8295345306396"><ele>100</ele><time>2026-5-1T8:32:21Z</time></trkpt>
<trkpt lat="48.918838500977" lon="2.8294780254364"><ele>101</ele><time>2026-5-1T8:32:24Z</time></trkpt>
<trkpt lat="48.918769836426" lon="2.8294403553009"><ele>101</ele><time>2026-5-1T8:32:27Z</time></trkpt>
<trkpt lat="48.91869354248" lon="2.8293988704681"><ele>101</ele><time>2026-5-1T8:32:30Z</time></trkpt>
<trkpt lat="48.91869354248" lon="2.8293988704681"><ele>101</ele><time>2026-5-1T8:32:33Z</time></trkpt>
<trkpt lat="48.918605804443" lon="2.8293318748474"><ele>101</ele><time>2026-5-1T8:32:36Z</time></trkpt>
<trkpt lat="48.918605804443" lon="2.8293318748474"><ele>101</ele><time>2026-5-1T8:32:39Z</time></trkpt>
<trkpt lat="48.918495178223" lon="2.829288482666"><ele>101</ele><time>2026-5-1T8:32:42Z</time></trkpt>
<trkpt lat="48.918495178223" lon="2.829288482666"><ele>101</ele><time>2026-5-1T8:32:45Z</time></trkpt>
<trkpt lat="48.918395996094" lon="2.8292384147644"><ele>101</ele><time>2026-5-1T8:32:48Z</time></trkpt>
<trkpt lat="48.918395996094" lon="2.8292384147644"><ele>101</ele><time>2026-5-1T8:32:51Z</time></trkpt>
<trkpt lat="48.91828918457" lon="2.8291783332825"><ele>101</ele><time>2026-5-1T8:32:54Z</time></trkpt>
<trkpt lat="48.918235778809" lon="2.8291516304016"><ele>100</ele><time>2026-5-1T8:32:57Z</time></trkpt>
<trkpt lat="48.91817855835" lon="2.8291313648224"><ele>100</ele><time>2026-5-1T8:33:0Z</time></trkpt>
<trkpt lat="48.918113708496" lon="2.8290987014771"><ele>100</ele><time>2026-5-1T8:33:3Z</time></trkpt>
<trkpt lat="48.918048858643" lon="2.8290579319"><ele>100</ele><time>2026-5-1T8:33:6Z</time></trkpt>
<trkpt lat="48.917976379395" lon="2.8290197849274"><ele>100</ele><time>2026-5-1T8:33:9Z</time></trkpt>
<trkpt lat="48.917900085449" lon="2.8289875984192"><ele>100</ele><time>2026-5-1T8:33:12Z</time></trkpt>
<trkpt lat="48.917835235596" lon="2.8289511203766"><ele>99</ele><time>2026-5-1T8:33:15Z</time></trkpt>
<trkpt lat="48.917766571045" lon="2.8289022445679"><ele>99</ele><time>2026-5-1T8:33:18Z</time></trkpt>
<trkpt lat="48.917697906494" lon="2.8288578987122"><ele>99</ele><time>2026-5-1T8:33:21Z</time></trkpt>
<trkpt lat="48.917625427246" lon="2.8288049697876"><ele>99</ele><time>2026-5-1T8:33:24Z</time></trkpt>
<trkpt lat="48.917552947998" lon="2.8287582397461"><ele>99</ele><time>2026-5-1T8:33:27Z</time></trkpt>
<trkpt lat="48.917476654053" lon="2.8287062644958"><ele>99</ele><time>2026-5-1T8:33:30Z</time></trkpt>
<trkpt lat="48.917392730713" lon="2.8286545276642"><ele>100</ele><time>2026-5-1T8:33:33Z</time></trkpt>
<trkpt lat="48.917324066162" lon="2.8286128044128"><ele>101</ele><time>2026-5-1T8:33:36Z</time></trkpt>
<trkpt lat="48.91724395752" lon="2.8285653591156"><ele>101</ele><time>2026-5-1T8:33:39Z</time></trkpt>
<trkpt lat="48.917167663574" lon="2.8285217285156"><ele>101</ele><time>2026-5-1T8:33:42Z</time></trkpt>
<trkpt lat="48.917098999023" lon="2.8284862041473"><ele>101</ele><time>2026-5-1T8:33:45Z</time></trkpt>
<trkpt lat="48.91703414917" lon="2.8284435272217"><ele>100</ele><time>2026-5-1T8:33:48Z</time></trkpt>
<trkpt lat="48.916965484619" lon="2.8284001350403"><ele>100</ele><time>2026-5-1T8:33:51Z</time></trkpt>
<trkpt lat="48.916896820068" lon="2.8283634185791"><ele>99</ele><time>2026-5-1T8:33:54Z</time></trkpt>
<trkpt lat="48.916820526123" lon="2.8283278942108"><ele>99</ele><time>2026-5-1T8:33:57Z</time></trkpt>
<trkpt lat="48.916744232178" lon="2.8282961845398"><ele>99</ele><time>2026-5-1T8:34:0Z</time></trkpt>
<trkpt lat="48.91667175293" lon="2.8282608985901"><ele>97</ele><time>2026-5-1T8:34:3Z</time></trkpt>
<trkpt lat="48.916599273682" lon="2.828221321106"><ele>97</ele><time>2026-5-1T8:34:6Z</time></trkpt>
<trkpt lat="48.916519165039" lon="2.8281719684601"><ele>97</ele><time>2026-5-1T8:34:9Z</time></trkpt>
<trkpt lat="48.916439056396" lon="2.8281219005585"><ele>98</ele><time>2026-5-1T8:34:12Z</time></trkpt>
<trkpt lat="48.916362762451" lon="2.8280732631683"><ele>99</ele><time>2026-5-1T8:34:15Z</time></trkpt>
<trkpt lat="48.916290283203" lon="2.8280320167542"><ele>100</ele><time>2026-5-1T8:34:18Z</time></trkpt>
<trkpt lat="48.916217803955" lon="2.827995300293"><ele>100</ele><time>2026-5-1T8:34:21Z</time></trkpt>
<trkpt lat="48.916137695312" lon="2.8279554843903"><ele>100</ele><time>2026-5-1T8:34:24Z</time></trkpt>
<trkpt lat="48.916053771973" lon="2.8279120922089"><ele>100</ele><time>2026-5-1T8:34:27Z</time></trkpt>
<trkpt lat="48.91597366333" lon="2.8278658390045"><ele>100</ele><time>2026-5-1T8:34:30Z</time></trkpt>
<trkpt lat="48.915901184082" lon="2.8278214931488"><ele>99</ele><time>2026-5-1T8:34:33Z</time></trkpt>
<trkpt lat="48.915824890137" lon="2.827773809433"><ele>98</ele><time>2026-5-1T8:34:36Z</time></trkpt>
<trkpt lat="48.915744781494" lon="2.8277270793915"><ele>98</ele><time>2026-5-1T8:34:39Z</time></trkpt>
<trkpt lat="48.915657043457" lon="2.8276739120483"><ele>97</ele><time>2026-5-1T8:34:42Z</time></trkpt>
<trkpt lat="48.915565490723" lon="2.827620267868"><ele>97</ele><time>2026-5-1T8:34:45Z</time></trkpt>
<trkpt lat="48.915481567383" lon="2.8275771141052"><ele>97</ele><time>2026-5-1T8:34:48Z</time></trkpt>
<trkpt lat="48.915409088135" lon="2.8275377750397"><ele>98</ele><time>2026-5-1T8:34:51Z</time></trkpt>
<trkpt lat="48.915328979492" lon="2.8274960517883"><ele>98</ele><time>2026-5-1T8:34:54Z</time></trkpt>
<trkpt lat="48.91524887085" lon="2.8274574279785"><ele>97</ele><time>2026-5-1T8:34:57Z</time></trkpt>
<trkpt lat="48.915168762207" lon="2.8274114131927"><ele>96</ele><time>2026-5-1T8:35:0Z</time></trkpt>
<trkpt lat="48.915092468262" lon="2.8273746967316"><ele>96</ele><time>2026-5-1T8:35:3Z</time></trkpt>
<trkpt lat="48.915012359619" lon="2.8273355960846"><ele>96</ele><time>2026-5-1T8:35:6Z</time></trkpt>
<trkpt lat="48.914936065674" lon="2.8272988796234"><ele>96</ele><time>2026-5-1T8:35:9Z</time></trkpt>
<trkpt lat="48.914863586426" lon="2.8272643089294"><ele>96</ele><time>2026-5-1T8:35:12Z</time></trkpt>
<trkpt lat="48.914791107178" lon="2.8272280693054"><ele>96</ele><time>2026-5-1T8:35:15Z</time></trkpt>
<trkpt lat="48.91471862793" lon="2.8271806240082"><ele>96</ele><time>2026-5-1T8:35:18Z</time></trkpt>
<trkpt lat="48.914661407471" lon="2.8271389007568"><ele>96</ele><time>2026-5-1T8:35:21Z</time></trkpt>
<trkpt lat="48.914608001709" lon="2.8271000385284"><ele>96</ele><time>2026-5-1T8:35:24Z</time></trkpt>
<trkpt lat="48.914562225342" lon="2.8270266056061"><ele>96</ele><time>2026-5-1T8:35:27Z</time></trkpt>
<trkpt lat="48.914562225342" lon="2.8269209861755"><ele>96</ele><time>2026-5-1T8:35:30Z</time></trkpt>
<trkpt lat="48.914573669434" lon="2.8268010616302"><ele>96</ele><time>2026-5-1T8:35:33Z</time></trkpt>
<trkpt lat="48.914573669434" lon="2.8266823291779"><ele>95</ele><time>2026-5-1T8:35:36Z</time></trkpt>
<trkpt lat="48.914581298828" lon="2.8265590667725"><ele>95</ele><time>2026-5-1T8:35:39Z</time></trkpt>
<trkpt lat="48.91459274292" lon="2.8264329433441"><ele>94</ele><time>2026-5-1T8:35:42Z</time></trkpt>
<trkpt lat="48.914600372314" lon="2.8262982368469"><ele>94</ele><time>2026-5-1T8:35:45Z</time></trkpt>
<trkpt lat="48.914608001709" lon="2.8261752128601"><ele>94</ele><time>2026-5-1T8:35:48Z</time></trkpt>
<trkpt lat="48.914619445801" lon="2.8260495662689"><ele>93</ele><time>2026-5-1T8:35:51Z</time></trkpt>
<trkpt lat="48.914627075195" lon="2.8259279727936"><ele>93</ele><time>2026-5-1T8:35:54Z</time></trkpt>
<trkpt lat="48.91463470459" lon="2.8258008956909"><ele>93</ele><time>2026-5-1T8:35:57Z</time></trkpt>
<trkpt lat="48.914642333984" lon="2.825704574585"><ele>93</ele><time>2026-5-1T8:36:0Z</time></trkpt>
<trkpt lat="48.914642333984" lon="2.825704574585"><ele>93</ele><time>2026-5-1T8:36:3Z</time></trkpt>
<trkpt lat="48.914642333984" lon="2.825704574585"><ele>93</ele><time>2026-5-1T8:36:6Z</time></trkpt>
<trkpt lat="48.914642333984" lon="2.825704574585"><ele>93</ele><time>2026-5-1T8:36:9Z</time></trkpt>
<trkpt lat="48.91442489624" lon="2.8255262374878"><ele>93</ele><time>2026-5-1T8:36:12Z</time></trkpt>
<trkpt lat="48.914241790771" lon="2.825434923172"><ele>93</ele><time>2026-5-1T8:36:15Z</time></trkpt>
<trkpt lat="48.914169311523" lon="2.8254053592682"><ele>93</ele><time>2026-5-1T8:36:18Z</time></trkpt>
<trkpt lat="48.914100646973" lon="2.8253648281097"><ele>93</ele><time>2026-5-1T8:36:21Z</time></trkpt>
<trkpt lat="48.914028167725" lon="2.8253235816956"><ele>93</ele><time>2026-5-1T8:36:24Z</time></trkpt>
<trkpt lat="48.913955688477" lon="2.8252942562103"><ele>93</ele><time>2026-5-1T8:36:27Z</time></trkpt>
<trkpt lat="48.913890838623" lon="2.8252539634705"><ele>93</ele><time>2026-5-1T8:36:30Z</time></trkpt>
<trkpt lat="48.913822174072" lon="2.8251962661743"><ele>93</ele><time>2026-5-1T8:36:33Z</time></trkpt>
<trkpt lat="48.913753509521" lon="2.8251397609711"><ele>94</ele><time>2026-5-1T8:36:36Z</time></trkpt>
<trkpt lat="48.913753509521" lon="2.8251397609711"><ele>94</ele><time>2026-5-1T8:36:39Z</time></trkpt>
<trkpt lat="48.913642883301" lon="2.8250634670258"><ele>94</ele><time>2026-5-1T8:36:42Z</time></trkpt>
<trkpt lat="48.913642883301" lon="2.8250634670258"><ele>94</ele><time>2026-5-1T8:36:45Z</time></trkpt>
<trkpt lat="48.913520812988" lon="2.8250050544739"><ele>95</ele><time>2026-5-1T8:36:48Z</time></trkpt>
<trkpt lat="48.913444519043" lon="2.8249659538269"><ele>96</ele><time>2026-5-1T8:36:51Z</time></trkpt>
<trkpt lat="48.913391113281" lon="2.8249299526215"><ele>96</ele><time>2026-5-1T8:36:54Z</time></trkpt>
<trkpt lat="48.913330078125" lon="2.8248941898346"><ele>96</ele><time>2026-5-1T8:36:57Z</time></trkpt>
<trkpt lat="48.913269042969" lon="2.8248596191406"><ele>96</ele><time>2026-5-1T8:37:0Z</time></trkpt>
<trkpt lat="48.913204193115" lon="2.8248245716095"><ele>96</ele><time>2026-5-1T8:37:3Z</time></trkpt>
<trkpt lat="48.913143157959" lon="2.8247885704041"><ele>96</ele><time>2026-5-1T8:37:6Z</time></trkpt>
<trkpt lat="48.913143157959" lon="2.8247885704041"><ele>96</ele><time>2026-5-1T8:37:9Z</time></trkpt>
<trkpt lat="48.913051605225" lon="2.8247425556183"><ele>97</ele><time>2026-5-1T8:37:12Z</time></trkpt>
<trkpt lat="48.912994384766" lon="2.8247106075287"><ele>97</ele><time>2026-5-1T8:37:15Z</time></trkpt>
<trkpt lat="48.912994384766" lon="2.8247106075287"><ele>97</ele><time>2026-5-1T8:37:18Z</time></trkpt>
<trkpt lat="48.912910461426" lon="2.8246574401855"><ele>97</ele><time>2026-5-1T8:37:21Z</time></trkpt>
<trkpt lat="48.912910461426" lon="2.8246574401855"><ele>97</ele><time>2026-5-1T8:37:24Z</time></trkpt>
<trkpt lat="48.912822723389" lon="2.8246204853058"><ele>97</ele><time>2026-5-1T8:37:27Z</time></trkpt>
<trkpt lat="48.912822723389" lon="2.8246204853058"><ele>97</ele><time>2026-5-1T8:37:30Z</time></trkpt>
<trkpt lat="48.912757873535" lon="2.824569940567"><ele>97</ele><time>2026-5-1T8:37:33Z</time></trkpt>
<trkpt lat="48.912757873535" lon="2.824569940567"><ele>97</ele><time>2026-5-1T8:37:36Z</time></trkpt>
<trkpt lat="48.912704467773" lon="2.8245370388031"><ele>97</ele><time>2026-5-1T8:37:39Z</time></trkpt>
<trkpt lat="48.912612915039" lon="2.8244678974152"><ele>97</ele><time>2026-5-1T8:37:42Z</time></trkpt>
<trkpt lat="48.912540435791" lon="2.82444190979"><ele>97</ele><time>2026-5-1T8:37:45Z</time></trkpt>
<trkpt lat="48.912467956543" lon="2.8244173526764"><ele>97</ele><time>2026-5-1T8:37:48Z</time></trkpt>
<trkpt lat="48.912391662598" lon="2.824392080307"><ele>97</ele><time>2026-5-1T8:37:51Z</time></trkpt>
<trkpt lat="48.91231918335" lon="2.8243656158447"><ele>97</ele><time>2026-5-1T8:37:54Z</time></trkpt>
<trkpt lat="48.912239074707" lon="2.8243293762207"><ele>96</ele><time>2026-5-1T8:37:57Z</time></trkpt>
<trkpt lat="48.912155151367" lon="2.8243036270142"><ele>96</ele><time>2026-5-1T8:38:0Z</time></trkpt>
<trkpt lat="48.91206741333" lon="2.8242845535278"><ele>96</ele><time>2026-5-1T8:38:3Z</time></trkpt>
<trkpt lat="48.911987304688" lon="2.8242490291595"><ele>97</ele><time>2026-5-1T8:38:6Z</time></trkpt>
<trkpt lat="48.911907196045" lon="2.8242197036743"><ele>98</ele><time>2026-5-1T8:38:9Z</time></trkpt>
<trkpt lat="48.911819458008" lon="2.8241801261902"><ele>99</ele><time>2026-5-1T8:38:12Z</time></trkpt>
<trkpt lat="48.911739349365" lon="2.8241412639618"><ele>99</ele><time>2026-5-1T8:38:15Z</time></trkpt>
<trkpt lat="48.911666870117" lon="2.8241164684296"><ele>99</ele><time>2026-5-1T8:38:18Z</time></trkpt>
<trkpt lat="48.911666870117" lon="2.8241164684296"><ele>99</ele><time>2026-5-1T8:38:21Z</time></trkpt>
<trkpt lat="48.911678314209" lon="2.8240151405334"><ele>99</ele><time>2026-5-1T8:38:24Z</time></trkpt>
<trkpt lat="48.911697387695" lon="2.8239183425903"><ele>99</ele><time>2026-5-1T8:38:27Z</time></trkpt>
<trkpt lat="48.911727905273" lon="2.823814868927"><ele>99</ele><time>2026-5-1T8:38:30Z</time></trkpt>
<trkpt lat="48.911758422852" lon="2.8236997127533"><ele>98</ele><time>2026-5-1T8:38:33Z</time></trkpt>
<trkpt lat="48.91178894043" lon="2.8235857486725"><ele>97</ele><time>2026-5-1T8:38:36Z</time></trkpt>
<trkpt lat="48.911815643311" lon="2.8234648704529"><ele>97</ele><time>2026-5-1T8:38:39Z</time></trkpt>
<trkpt lat="48.911838531494" lon="2.8233532905579"><ele>96</ele><time>2026-5-1T8:38:42Z</time></trkpt>
<trkpt lat="48.911865234375" lon="2.8232519626617"><ele>96</ele><time>2026-5-1T8:38:45Z</time></trkpt>
<trkpt lat="48.911895751953" lon="2.823130607605"><ele>95</ele><time>2026-5-1T8:38:48Z</time></trkpt>
<trkpt lat="48.911930084229" lon="2.8230028152466"><ele>94</ele><time>2026-5-1T8:38:51Z</time></trkpt>
<trkpt lat="48.911956787109" lon="2.8228802680969"><ele>94</ele><time>2026-5-1T8:38:54Z</time></trkpt>
<trkpt lat="48.911987304688" lon="2.8227553367615"><ele>94</ele><time>2026-5-1T8:38:57Z</time></trkpt>
<trkpt lat="48.912014007568" lon="2.8226358890533"><ele>93</ele><time>2026-5-1T8:39:0Z</time></trkpt>
<trkpt lat="48.912048339844" lon="2.8225033283234"><ele>93</ele><time>2026-5-1T8:39:3Z</time></trkpt>
<trkpt lat="48.912086486816" lon="2.8223674297333"><ele>93</ele><time>2026-5-1T8:39:6Z</time></trkpt>
<trkpt lat="48.912120819092" lon="2.8222420215607"><ele>93</ele><time>2026-5-1T8:39:9Z</time></trkpt>
<trkpt lat="48.912155151367" lon="2.8221204280853"><ele>93</ele><time>2026-5-1T8:39:12Z</time></trkpt>
<trkpt lat="48.91219329834" lon="2.8219873905182"><ele>92</ele><time>2026-5-1T8:39:15Z</time></trkpt>
<trkpt lat="48.912227630615" lon="2.8218457698822"><ele>93</ele><time>2026-5-1T8:39:18Z</time></trkpt>
<trkpt lat="48.912258148193" lon="2.821706533432"><ele>94</ele><time>2026-5-1T8:39:21Z</time></trkpt>
<trkpt lat="48.912281036377" lon="2.8215665817261"><ele>94</ele><time>2026-5-1T8:39:24Z</time></trkpt>
<trkpt lat="48.912296295166" lon="2.8214354515076"><ele>93</ele><time>2026-5-1T8:39:27Z</time></trkpt>
<trkpt lat="48.912307739258" lon="2.8212971687317"><ele>93</ele><time>2026-5-1T8:39:30Z</time></trkpt>
<trkpt lat="48.91231918335" lon="2.8211646080017"><ele>93</ele><time>2026-5-1T8:39:33Z</time></trkpt>
<trkpt lat="48.912330627441" lon="2.8210272789001"><ele>93</ele><time>2026-5-1T8:39:36Z</time></trkpt>
<trkpt lat="48.912342071533" lon="2.8208849430084"><ele>93</ele><time>2026-5-1T8:39:39Z</time></trkpt>
<trkpt lat="48.912353515625" lon="2.8207402229309"><ele>93</ele><time>2026-5-1T8:39:42Z</time></trkpt>
<trkpt lat="48.91236114502" lon="2.8205964565277"><ele>93</ele><time>2026-5-1T8:39:45Z</time></trkpt>
<trkpt lat="48.912368774414" lon="2.8204443454742"><ele>93</ele><time>2026-5-1T8:39:48Z</time></trkpt>
<trkpt lat="48.912372589111" lon="2.8202998638153"><ele>93</ele><time>2026-5-1T8:39:51Z</time></trkpt>
<trkpt lat="48.912380218506" lon="2.820155620575"><ele>93</ele><time>2026-5-1T8:39:54Z</time></trkpt>
<trkpt lat="48.9123878479" lon="2.820009469986"><ele>92</ele><time>2026-5-1T8:39:57Z</time></trkpt>
<trkpt lat="48.912395477295" lon="2.8198628425598"><ele>93</ele><time>2026-5-1T8:40:0Z</time></trkpt>
<trkpt lat="48.912399291992" lon="2.8197154998779"><ele>93</ele><time>2026-5-1T8:40:3Z</time></trkpt>
<trkpt lat="48.912406921387" lon="2.819572687149"><ele>93</ele><time>2026-5-1T8:40:6Z</time></trkpt>
<trkpt lat="48.912410736084" lon="2.8194308280945"><ele>93</ele><time>2026-5-1T8:40:9Z</time></trkpt>
<trkpt lat="48.912414550781" lon="2.819287776947"><ele>94</ele><time>2026-5-1T8:40:12Z</time></trkpt>
<trkpt lat="48.912422180176" lon="2.8191530704498"><ele>94</ele><time>2026-5-1T8:40:15Z</time></trkpt>
<trkpt lat="48.912425994873" lon="2.8190190792084"><ele>94</ele><time>2026-5-1T8:40:18Z</time></trkpt>
<trkpt lat="48.912433624268" lon="2.8188803195953"><ele>94</ele><time>2026-5-1T8:40:21Z</time></trkpt>
<trkpt lat="48.912441253662" lon="2.8187386989594"><ele>94</ele><time>2026-5-1T8:40:24Z</time></trkpt>
<trkpt lat="48.912448883057" lon="2.8186056613922"><ele>93</ele><time>2026-5-1T8:40:27Z</time></trkpt>
<trkpt lat="48.912452697754" lon="2.8184676170349"><ele>93</ele><time>2026-5-1T8:40:30Z</time></trkpt>
<trkpt lat="48.912460327148" lon="2.8183238506317"><ele>92</ele><time>2026-5-1T8:40:33Z</time></trkpt>
<trkpt lat="48.912464141846" lon="2.8181777000427"><ele>92</ele><time>2026-5-1T8:40:36Z</time></trkpt>
<trkpt lat="48.91247177124" lon="2.8180470466614"><ele>92</ele><time>2026-5-1T8:40:39Z</time></trkpt>
<trkpt lat="48.912479400635" lon="2.817905664444"><ele>92</ele><time>2026-5-1T8:40:42Z</time></trkpt>
<trkpt lat="48.912487030029" lon="2.8177790641785"><ele>91</ele><time>2026-5-1T8:40:45Z</time></trkpt>
<trkpt lat="48.912494659424" lon="2.8176534175873"><ele>91</ele><time>2026-5-1T8:40:48Z</time></trkpt>
<trkpt lat="48.912502288818" lon="2.8175120353699"><ele>90</ele><time>2026-5-1T8:40:51Z</time></trkpt>
<trkpt lat="48.91251373291" lon="2.8173878192902"><ele>89</ele><time>2026-5-1T8:40:54Z</time></trkpt>
<trkpt lat="48.912521362305" lon="2.8172538280487"><ele>89</ele><time>2026-5-1T8:40:57Z</time></trkpt>
<trkpt lat="48.912528991699" lon="2.8171155452728"><ele>89</ele><time>2026-5-1T8:41:0Z</time></trkpt>
<trkpt lat="48.912532806396" lon="2.8169772624969"><ele>89</ele><time>2026-5-1T8:41:3Z</time></trkpt>
<trkpt lat="48.912536621094" lon="2.8168454170227"><ele>89</ele><time>2026-5-1T8:41:6Z</time></trkpt>
<trkpt lat="48.912544250488" lon="2.8167264461517"><ele>89</ele><time>2026-5-1T8:41:9Z</time></trkpt>
<trkpt lat="48.912551879883" lon="2.8165910243988"><ele>89</ele><time>2026-5-1T8:41:12Z</time></trkpt>
<trkpt lat="48.912559509277" lon="2.816458940506"><ele>90</ele><time>2026-5-1T8:41:15Z</time></trkpt>
<trkpt lat="48.912563323975" lon="2.8163251876831"><ele>90</ele><time>2026-5-1T8:41:18Z</time></trkpt>
<trkpt lat="48.912563323975" lon="2.816192150116"><ele>91</ele><time>2026-5-1T8:41:21Z</time></trkpt>
<trkpt lat="48.912567138672" lon="2.8160552978516"><ele>91</ele><time>2026-5-1T8:41:24Z</time></trkpt>
<trkpt lat="48.912570953369" lon="2.8159120082855"><ele>93</ele><time>2026-5-1T8:41:27Z</time></trkpt>
<trkpt lat="48.912574768066" lon="2.8157873153687"><ele>93</ele><time>2026-5-1T8:41:30Z</time></trkpt>
<trkpt lat="48.912563323975" lon="2.8156673908234"><ele>93</ele><time>2026-5-1T8:41:33Z</time></trkpt>
<trkpt lat="48.912563323975" lon="2.8156673908234"><ele>93</ele><time>2026-5-1T8:41:36Z</time></trkpt>
<trkpt lat="48.912525177002" lon="2.8155198097229"><ele>93</ele><time>2026-5-1T8:41:39Z</time></trkpt>
<trkpt lat="48.912487030029" lon="2.8154463768005"><ele>93</ele><time>2026-5-1T8:41:42Z</time></trkpt>
<trkpt lat="48.912487030029" lon="2.8154463768005"><ele>93</ele><time>2026-5-1T8:41:45Z</time></trkpt>
<trkpt lat="48.912441253662" lon="2.8153367042542"><ele>93</ele><time>2026-5-1T8:41:48Z</time></trkpt>
<trkpt lat="48.912441253662" lon="2.8153367042542"><ele>93</ele><time>2026-5-1T8:41:51Z</time></trkpt>
<trkpt lat="48.912357330322" lon="2.8152852058411"><ele>93</ele><time>2026-5-1T8:41:54Z</time></trkpt>
<trkpt lat="48.912357330322" lon="2.8152852058411"><ele>93</ele><time>2026-5-1T8:41:57Z</time></trkpt>
<trkpt lat="48.912254333496" lon="2.8152663707733"><ele>94</ele><time>2026-5-1T8:42:0Z</time></trkpt>
<trkpt lat="48.912254333496" lon="2.8152663707733"><ele>94</ele><time>2026-5-1T8:42:3Z</time></trkpt>
<trkpt lat="48.91215133667" lon="2.8152747154236"><ele>94</ele><time>2026-5-1T8:42:6Z</time></trkpt>
<trkpt lat="48.912094116211" lon="2.8152770996094"><ele>94</ele><time>2026-5-1T8:42:9Z</time></trkpt>
<trkpt lat="48.912094116211" lon="2.8152770996094"><ele>94</ele><time>2026-5-1T8:42:12Z</time></trkpt>
<trkpt lat="48.912002563477" lon="2.8152694702148"><ele>94</ele><time>2026-5-1T8:42:15Z</time></trkpt>
<trkpt lat="48.912002563477" lon="2.8152694702148"><ele>94</ele><time>2026-5-1T8:42:18Z</time></trkpt>
<trkpt lat="48.911891937256" lon="2.815260887146"><ele>94</ele><time>2026-5-1T8:42:21Z</time></trkpt>
<trkpt lat="48.911785125732" lon="2.8152503967285"><ele>94</ele><time>2026-5-1T8:42:24Z</time></trkpt>
<trkpt lat="48.911716461182" lon="2.8152499198914"><ele>95</ele><time>2026-5-1T8:42:27Z</time></trkpt>
<trkpt lat="48.911632537842" lon="2.8152401447296"><ele>95</ele><time>2026-5-1T8:42:30Z</time></trkpt>
<trkpt lat="48.911567687988" lon="2.8152301311493"><ele>95</ele><time>2026-5-1T8:42:33Z</time></trkpt>
<trkpt lat="48.911506652832" lon="2.8152234554291"><ele>95</ele><time>2026-5-1T8:42:36Z</time></trkpt>
<trkpt lat="48.911434173584" lon="2.8152153491974"><ele>95</ele><time>2026-5-1T8:42:39Z</time></trkpt>
<trkpt lat="48.911361694336" lon="2.8152062892914"><ele>95</ele><time>2026-5-1T8:42:42Z</time></trkpt>
<trkpt lat="48.911285400391" lon="2.8152003288269"><ele>96</ele><time>2026-5-1T8:42:45Z</time></trkpt>
<trkpt lat="48.911167144775" lon="2.8151912689209"><ele>96</ele><time>2026-5-1T8:42:48Z</time></trkpt>
<trkpt lat="48.911106109619" lon="2.8151795864105"><ele>96</ele><time>2026-5-1T8:42:51Z</time></trkpt>
<trkpt lat="48.911037445068" lon="2.8151683807373"><ele>96</ele><time>2026-5-1T8:42:54Z</time></trkpt>
<trkpt lat="48.91096496582" lon="2.8151576519012"><ele>96</ele><time>2026-5-1T8:42:57Z</time></trkpt>
<trkpt lat="48.910900115967" lon="2.8151481151581"><ele>96</ele><time>2026-5-1T8:43:0Z</time></trkpt>
<trkpt lat="48.910820007324" lon="2.815155506134"><ele>96</ele><time>2026-5-1T8:43:3Z</time></trkpt>
<trkpt lat="48.910720825195" lon="2.8151731491089"><ele>96</ele><time>2026-5-1T8:43:6Z</time></trkpt>
<trkpt lat="48.910606384277" lon="2.8151748180389"><ele>97</ele><time>2026-5-1T8:43:9Z</time></trkpt>
<trkpt lat="48.910511016846" lon="2.8151829242706"><ele>96</ele><time>2026-5-1T8:43:12Z</time></trkpt>
<trkpt lat="48.910415649414" lon="2.8151915073395"><ele>96</ele><time>2026-5-1T8:43:15Z</time></trkpt>
<trkpt lat="48.910316467285" lon="2.8151955604553"><ele>95</ele><time>2026-5-1T8:43:18Z</time></trkpt>
<trkpt lat="48.910205841064" lon="2.8151743412018"><ele>93</ele><time>2026-5-1T8:43:21Z</time></trkpt>
<trkpt lat="48.910121917725" lon="2.8151371479034"><ele>93</ele><time>2026-5-1T8:43:24Z</time></trkpt>
<trkpt lat="48.910026550293" lon="2.8151209354401"><ele>92</ele><time>2026-5-1T8:43:27Z</time></trkpt>
<trkpt lat="48.909942626953" lon="2.8151066303253"><ele>92</ele><time>2026-5-1T8:43:30Z</time></trkpt>
<trkpt lat="48.909862518311" lon="2.8150930404663"><ele>93</ele><time>2026-5-1T8:43:33Z</time></trkpt>
<trkpt lat="48.909790039062" lon="2.815083026886"><ele>93</ele><time>2026-5-1T8:43:36Z</time></trkpt>
<trkpt lat="48.909717559814" lon="2.8150794506073"><ele>93</ele><time>2026-5-1T8:43:39Z</time></trkpt>
<trkpt lat="48.909641265869" lon="2.8150770664215"><ele>93</ele><time>2026-5-1T8:43:42Z</time></trkpt>
<trkpt lat="48.909580230713" lon="2.8150825500488"><ele>93</ele><time>2026-5-1T8:43:45Z</time></trkpt>
<trkpt lat="48.909580230713" lon="2.8150825500488"><ele>93</ele><time>2026-5-1T8:43:48Z</time></trkpt>
<trkpt lat="48.909484863281" lon="2.8150730133057"><ele>93</ele><time>2026-5-1T8:43:51Z</time></trkpt>
<trkpt lat="48.909484863281" lon="2.8150730133057"><ele>93</ele><time>2026-5-1T8:43:54Z</time></trkpt>
<trkpt lat="48.909408569336" lon="2.815066576004"><ele>93</ele><time>2026-5-1T8:43:57Z</time></trkpt>
<trkpt lat="48.909408569336" lon="2.815066576004"><ele>93</ele><time>2026-5-1T8:44:0Z</time></trkpt>
<trkpt lat="48.909313201904" lon="2.8150587081909"><ele>93</ele><time>2026-5-1T8:44:3Z</time></trkpt>
<trkpt lat="48.909313201904" lon="2.8150587081909"><ele>93</ele><time>2026-5-1T8:44:6Z</time></trkpt>
<trkpt lat="48.90922164917" lon="2.8150925636292"><ele>93</ele><time>2026-5-1T8:44:9Z</time></trkpt>
<trkpt lat="48.909164428711" lon="2.8151595592499"><ele>93</ele><time>2026-5-1T8:44:12Z</time></trkpt>
<trkpt lat="48.909091949463" lon="2.8152449131012"><ele>94</ele><time>2026-5-1T8:44:15Z</time></trkpt>
<trkpt lat="48.90901184082" lon="2.815336227417"><ele>95</ele><time>2026-5-1T8:44:18Z</time></trkpt>
<trkpt lat="48.908924102783" lon="2.8154165744781"><ele>96</ele><time>2026-5-1T8:44:21Z</time></trkpt>
<trkpt lat="48.908847808838" lon="2.8154861927032"><ele>98</ele><time>2026-5-1T8:44:24Z</time></trkpt>
<trkpt lat="48.908794403076" lon="2.8155357837677"><ele>98</ele><time>2026-5-1T8:44:27Z</time></trkpt>
<trkpt lat="48.90873336792" lon="2.8155837059021"><ele>98</ele><time>2026-5-1T8:44:30Z</time></trkpt>
<trkpt lat="48.908653259277" lon="2.8156354427338"><ele>100</ele><time>2026-5-1T8:44:33Z</time></trkpt>
<trkpt lat="48.90856552124" lon="2.8156917095184"><ele>100</ele><time>2026-5-1T8:44:36Z</time></trkpt>
<trkpt lat="48.908493041992" lon="2.8157317638397"><ele>100</ele><time>2026-5-1T8:44:39Z</time></trkpt>
<trkpt lat="48.908432006836" lon="2.815770149231"><ele>100</ele><time>2026-5-1T8:44:42Z</time></trkpt>
<trkpt lat="48.908348083496" lon="2.8158130645752"><ele>100</ele><time>2026-5-1T8:44:45Z</time></trkpt>
<trkpt lat="48.908267974854" lon="2.8158435821533"><ele>100</ele><time>2026-5-1T8:44:48Z</time></trkpt>
<trkpt lat="48.908191680908" lon="2.8158664703369"><ele>100</ele><time>2026-5-1T8:44:51Z</time></trkpt>
<trkpt lat="48.90811920166" lon="2.8158931732178"><ele>100</ele><time>2026-5-1T8:44:54Z</time></trkpt>
<trkpt lat="48.908046722412" lon="2.8159351348877"><ele>100</ele><time>2026-5-1T8:44:57Z</time></trkpt>
<trkpt lat="48.90796661377" lon="2.8159713745117"><ele>100</ele><time>2026-5-1T8:45:0Z</time></trkpt>
<trkpt lat="48.907886505127" lon="2.81600689888"><ele>100</ele><time>2026-5-1T8:45:3Z</time></trkpt>
<trkpt lat="48.907825469971" lon="2.8160169124603"><ele>101</ele><time>2026-5-1T8:45:6Z</time></trkpt>
<trkpt lat="48.907764434814" lon="2.8160350322723"><ele>101</ele><time>2026-5-1T8:45:9Z</time></trkpt>
<trkpt lat="48.907691955566" lon="2.8160607814789"><ele>102</ele><time>2026-5-1T8:45:12Z</time></trkpt>
<trkpt lat="48.907611846924" lon="2.8160908222198"><ele>102</ele><time>2026-5-1T8:45:15Z</time></trkpt>
<trkpt lat="48.907554626465" lon="2.8161242008209"><ele>101</ele><time>2026-5-1T8:45:18Z</time></trkpt>
<trkpt lat="48.907470703125" lon="2.8161640167236"><ele>99</ele><time>2026-5-1T8:45:21Z</time></trkpt>
<trkpt lat="48.907390594482" lon="2.8161969184875"><ele>99</ele><time>2026-5-1T8:45:24Z</time></trkpt>
<trkpt lat="48.907333374023" lon="2.8162131309509"><ele>99</ele><time>2026-5-1T8:45:27Z</time></trkpt>
<trkpt lat="48.907264709473" lon="2.8162403106689"><ele>99</ele><time>2026-5-1T8:45:30Z</time></trkpt>
<trkpt lat="48.90718460083" lon="2.8162643909454"><ele>100</ele><time>2026-5-1T8:45:33Z</time></trkpt>
<trkpt lat="48.907093048096" lon="2.8162994384766"><ele>101</ele><time>2026-5-1T8:45:36Z</time></trkpt>
<trkpt lat="48.907024383545" lon="2.8163261413574"><ele>102</ele><time>2026-5-1T8:45:39Z</time></trkpt>
<trkpt lat="48.9069480896" lon="2.8163604736328"><ele>104</ele><time>2026-5-1T8:45:42Z</time></trkpt>
<trkpt lat="48.906867980957" lon="2.8163976669312"><ele>106</ele><time>2026-5-1T8:45:45Z</time></trkpt>
<trkpt lat="48.906784057617" lon="2.8164420127869"><ele>107</ele><time>2026-5-1T8:45:48Z</time></trkpt>
<trkpt lat="48.906700134277" lon="2.8164885044098"><ele>108</ele><time>2026-5-1T8:45:51Z</time></trkpt>
<trkpt lat="48.906620025635" lon="2.8165419101715"><ele>109</ele><time>2026-5-1T8:45:54Z</time></trkpt>
<trkpt lat="48.906539916992" lon="2.8165898323059"><ele>109</ele><time>2026-5-1T8:45:57Z</time></trkpt>
<trkpt lat="48.906452178955" lon="2.8166456222534"><ele>108</ele><time>2026-5-1T8:46:0Z</time></trkpt>
<trkpt lat="48.90637588501" lon="2.8167057037354"><ele>107</ele><time>2026-5-1T8:46:3Z</time></trkpt>
<trkpt lat="48.906303405762" lon="2.8167750835419"><ele>107</ele><time>2026-5-1T8:46:6Z</time></trkpt>
<trkpt lat="48.906242370605" lon="2.8168346881866"><ele>107</ele><time>2026-5-1T8:46:9Z</time></trkpt>
<trkpt lat="48.906204223633" lon="2.8168981075287"><ele>107</ele><time>2026-5-1T8:46:12Z</time></trkpt>
<trkpt lat="48.906169891357" lon="2.8169832229614"><ele>106</ele><time>2026-5-1T8:46:15Z</time></trkpt>
<trkpt lat="48.906169891357" lon="2.8169832229614"><ele>106</ele><time>2026-5-1T8:46:18Z</time></trkpt>
<trkpt lat="48.90608215332" lon="2.8170597553253"><ele>105</ele><time>2026-5-1T8:46:21Z</time></trkpt>
<trkpt lat="48.90608215332" lon="2.8170597553253"><ele>105</ele><time>2026-5-1T8:46:24Z</time></trkpt>
<trkpt lat="48.90599822998" lon="2.8171534538269"><ele>105</ele><time>2026-5-1T8:46:27Z</time></trkpt>
<trkpt lat="48.905948638916" lon="2.8172099590302"><ele>104</ele><time>2026-5-1T8:46:30Z</time></trkpt>
<trkpt lat="48.905948638916" lon="2.8172099590302"><ele>104</ele><time>2026-5-1T8:46:33Z</time></trkpt>
<trkpt lat="48.905860900879" lon="2.8172907829285"><ele>103</ele><time>2026-5-1T8:46:36Z</time></trkpt>
<trkpt lat="48.905860900879" lon="2.8172907829285"><ele>103</ele><time>2026-5-1T8:46:39Z</time></trkpt>
<trkpt lat="48.905860900879" lon="2.8172907829285"><ele>103</ele><time>2026-5-1T8:46:42Z</time></trkpt>
<trkpt lat="48.905860900879" lon="2.8172907829285"><ele>103</ele><time>2026-5-1T8:46:45Z</time></trkpt>
<trkpt lat="48.905860900879" lon="2.8172907829285"><ele>103</ele><time>2026-5-1T8:46:48Z</time></trkpt>
<trkpt lat="48.905860900879" lon="2.8172907829285"><ele>103</ele><time>2026-5-1T8:46:51Z</time></trkpt>
<trkpt lat="48.905860900879" lon="2.8172907829285"><ele>103</ele><time>2026-5-1T8:46:54Z</time></trkpt>
<trkpt lat="48.90584564209" lon="2.817352771759"><ele>97</ele><time>2026-5-1T8:46:57Z</time></trkpt>
<trkpt lat="48.905822753906" lon="2.8174068927765"><ele>97</ele><time>2026-5-1T8:47:0Z</time></trkpt>
<trkpt lat="48.905799865723" lon="2.8174486160278"><ele>97</ele><time>2026-5-1T8:47:3Z</time></trkpt>
<trkpt lat="48.905769348145" lon="2.8174850940704"><ele>96</ele><time>2026-5-1T8:47:6Z</time></trkpt>
<trkpt lat="48.905738830566" lon="2.8175213336945"><ele>96</ele><time>2026-5-1T8:47:9Z</time></trkpt>
<trkpt lat="48.905670166016" lon="2.8175957202911"><ele>96</ele><time>2026-5-1T8:47:12Z</time></trkpt>
<trkpt lat="48.90559387207" lon="2.8176784515381"><ele>95</ele><time>2026-5-1T8:47:15Z</time></trkpt>
<trkpt lat="48.905536651611" lon="2.8177371025085"><ele>95</ele><time>2026-5-1T8:47:18Z</time></trkpt>
<trkpt lat="48.905464172363" lon="2.81778216362"><ele>94</ele><time>2026-5-1T8:47:21Z</time></trkpt>
<trkpt lat="48.905464172363" lon="2.81778216362"><ele>94</ele><time>2026-5-1T8:47:24Z</time></trkpt>
<trkpt lat="48.905464172363" lon="2.81778216362"><ele>94</ele><time>2026-5-1T8:47:27Z</time></trkpt>
<trkpt lat="48.905464172363" lon="2.81778216362"><ele>94</ele><time>2026-5-1T8:47:30Z</time></trkpt>
<trkpt lat="48.905555725098" lon="2.8177077770233"><ele>93</ele><time>2026-5-1T8:47:33Z</time></trkpt>
<trkpt lat="48.905628204346" lon="2.8176338672638"><ele>93</ele><time>2026-5-1T8:47:36Z</time></trkpt>
<trkpt lat="48.905681610107" lon="2.8175919055939"><ele>93</ele><time>2026-5-1T8:47:39Z</time></trkpt>
<trkpt lat="48.905746459961" lon="2.8175082206726"><ele>93</ele><time>2026-5-1T8:47:42Z</time></trkpt>
<trkpt lat="48.905796051025" lon="2.8174450397491"><ele>92</ele><time>2026-5-1T8:47:45Z</time></trkpt>
<trkpt lat="48.905796051025" lon="2.8174450397491"><ele>92</ele><time>2026-5-1T8:47:48Z</time></trkpt>
<trkpt lat="48.905796051025" lon="2.8174450397491"><ele>92</ele><time>2026-5-1T8:47:51Z</time></trkpt>
<trkpt lat="48.905735015869" lon="2.8175284862518"><ele>92</ele><time>2026-5-1T8:47:54Z</time></trkpt>
<trkpt lat="48.905689239502" lon="2.8176076412201"><ele>92</ele><time>2026-5-1T8:47:57Z</time></trkpt>
<trkpt lat="48.905597686768" lon="2.8177008628845"><ele>92</ele><time>2026-5-1T8:48:0Z</time></trkpt>
<trkpt lat="48.905540466309" lon="2.8177466392517"><ele>92</ele><time>2026-5-1T8:48:3Z</time></trkpt>
<trkpt lat="48.905475616455" lon="2.8178000450134"><ele>92</ele><time>2026-5-1T8:48:6Z</time></trkpt>
<trkpt lat="48.905429840088" lon="2.817845582962"><ele>92</ele><time>2026-5-1T8:48:9Z</time></trkpt>
<trkpt lat="48.905372619629" lon="2.8178989887238"><ele>92</ele><time>2026-5-1T8:48:12Z</time></trkpt>
<trkpt lat="48.90531539917" lon="2.8179504871368"><ele>92</ele><time>2026-5-1T8:48:15Z</time></trkpt>
<trkpt lat="48.905254364014" lon="2.8180069923401"><ele>92</ele><time>2026-5-1T8:48:18Z</time></trkpt>
<trkpt lat="48.905200958252" lon="2.8180556297302"><ele>92</ele><time>2026-5-1T8:48:21Z</time></trkpt>
<trkpt lat="48.905124664307" lon="2.8181369304657"><ele>92</ele><time>2026-5-1T8:48:24Z</time></trkpt>
<trkpt lat="48.905044555664" lon="2.8182158470154"><ele>92</ele><time>2026-5-1T8:48:27Z</time></trkpt>
<trkpt lat="48.904964447021" lon="2.8182942867279"><ele>92</ele><time>2026-5-1T8:48:30Z</time></trkpt>
<trkpt lat="48.904895782471" lon="2.8183674812317"><ele>91</ele><time>2026-5-1T8:48:33Z</time></trkpt>
<trkpt lat="48.904830932617" lon="2.8184444904327"><ele>91</ele><time>2026-5-1T8:48:36Z</time></trkpt>
<trkpt lat="48.904762268066" lon="2.8185181617737"><ele>91</ele><time>2026-5-1T8:48:39Z</time></trkpt>
<trkpt lat="48.904697418213" lon="2.8185849189758"><ele>92</ele><time>2026-5-1T8:48:42Z</time></trkpt>
<trkpt lat="48.904624938965" lon="2.818653345108"><ele>92</ele><time>2026-5-1T8:48:45Z</time></trkpt>
<trkpt lat="48.904552459717" lon="2.8187170028687"><ele>92</ele><time>2026-5-1T8:48:48Z</time></trkpt>
<trkpt lat="48.904479980469" lon="2.8187775611877"><ele>91</ele><time>2026-5-1T8:48:51Z</time></trkpt>
<trkpt lat="48.904399871826" lon="2.8188505172729"><ele>90</ele><time>2026-5-1T8:48:54Z</time></trkpt>
<trkpt lat="48.904323577881" lon="2.8189239501953"><ele>90</ele><time>2026-5-1T8:48:57Z</time></trkpt>
<trkpt lat="48.904247283936" lon="2.8189985752106"><ele>91</ele><time>2026-5-1T8:49:0Z</time></trkpt>
<trkpt lat="48.904174804688" lon="2.8190658092499"><ele>92</ele><time>2026-5-1T8:49:3Z</time></trkpt>
<trkpt lat="48.904109954834" lon="2.8191201686859"><ele>93</ele><time>2026-5-1T8:49:6Z</time></trkpt>
<trkpt lat="48.904037475586" lon="2.8191757202148"><ele>94</ele><time>2026-5-1T8:49:9Z</time></trkpt>
<trkpt lat="48.903957366943" lon="2.8192281723022"><ele>95</ele><time>2026-5-1T8:49:12Z</time></trkpt>
<trkpt lat="48.903877258301" lon="2.8192753791809"><ele>95</ele><time>2026-5-1T8:49:15Z</time></trkpt>
<trkpt lat="48.903804779053" lon="2.8193116188049"><ele>96</ele><time>2026-5-1T8:49:18Z</time></trkpt>
<trkpt lat="48.903717041016" lon="2.8193545341492"><ele>95</ele><time>2026-5-1T8:49:21Z</time></trkpt>
<trkpt lat="48.903636932373" lon="2.8193879127502"><ele>95</ele><time>2026-5-1T8:49:24Z</time></trkpt>
<trkpt lat="48.903553009033" lon="2.8194110393524"><ele>96</ele><time>2026-5-1T8:49:27Z</time></trkpt>
<trkpt lat="48.903465270996" lon="2.8194375038147"><ele>97</ele><time>2026-5-1T8:49:30Z</time></trkpt>
<trkpt lat="48.903373718262" lon="2.819461107254"><ele>97</ele><time>2026-5-1T8:49:33Z</time></trkpt>
<trkpt lat="48.903282165527" lon="2.8194806575775"><ele>96</ele><time>2026-5-1T8:49:36Z</time></trkpt>
<trkpt lat="48.903182983398" lon="2.8195004463196"><ele>96</ele><time>2026-5-1T8:49:39Z</time></trkpt>
<trkpt lat="48.90308380127" lon="2.8195190429688"><ele>95</ele><time>2026-5-1T8:49:42Z</time></trkpt>
<trkpt lat="48.902992248535" lon="2.819534778595"><ele>95</ele><time>2026-5-1T8:49:45Z</time></trkpt>
<trkpt lat="48.90291595459" lon="2.8195469379425"><ele>94</ele><time>2026-5-1T8:49:48Z</time></trkpt>
<trkpt lat="48.902824401855" lon="2.8195605278015"><ele>95</ele><time>2026-5-1T8:49:51Z</time></trkpt>
<trkpt lat="48.902725219727" lon="2.8195779323578"><ele>94</ele><time>2026-5-1T8:49:54Z</time></trkpt>
<trkpt lat="48.902633666992" lon="2.8195900917053"><ele>94</ele><time>2026-5-1T8:49:57Z</time></trkpt>
<trkpt lat="48.902542114258" lon="2.8196120262146"><ele>94</ele><time>2026-5-1T8:50:0Z</time></trkpt>
<trkpt lat="48.902454376221" lon="2.8196320533752"><ele>95</ele><time>2026-5-1T8:50:3Z</time></trkpt>
<trkpt lat="48.902359008789" lon="2.8196530342102"><ele>95</ele><time>2026-5-1T8:50:6Z</time></trkpt>
<trkpt lat="48.902263641357" lon="2.8196699619293"><ele>94</ele><time>2026-5-1T8:50:9Z</time></trkpt>
<trkpt lat="48.902172088623" lon="2.8196816444397"><ele>94</ele><time>2026-5-1T8:50:12Z</time></trkpt>
<trkpt lat="48.902088165283" lon="2.8196971416473"><ele>93</ele><time>2026-5-1T8:50:15Z</time></trkpt>
<trkpt lat="48.902004241943" lon="2.8197183609009"><ele>93</ele><time>2026-5-1T8:50:18Z</time></trkpt>
<trkpt lat="48.901912689209" lon="2.8197412490845"><ele>93</ele><time>2026-5-1T8:50:21Z</time></trkpt>
<trkpt lat="48.901824951172" lon="2.819762468338"><ele>93</ele><time>2026-5-1T8:50:24Z</time></trkpt>
<trkpt lat="48.901733398438" lon="2.8197722434998"><ele>92</ele><time>2026-5-1T8:50:27Z</time></trkpt>
<trkpt lat="48.901657104492" lon="2.8197329044342"><ele>91</ele><time>2026-5-1T8:50:30Z</time></trkpt>
<trkpt lat="48.901592254639" lon="2.8196334838867"><ele>92</ele><time>2026-5-1T8:50:33Z</time></trkpt>
<trkpt lat="48.901531219482" lon="2.8195140361786"><ele>92</ele><time>2026-5-1T8:50:36Z</time></trkpt>
<trkpt lat="48.901477813721" lon="2.8193907737732"><ele>92</ele><time>2026-5-1T8:50:39Z</time></trkpt>
<trkpt lat="48.901435852051" lon="2.8192620277405"><ele>92</ele><time>2026-5-1T8:50:42Z</time></trkpt>
<trkpt lat="48.90140914917" lon="2.8191311359406"><ele>92</ele><time>2026-5-1T8:50:45Z</time></trkpt>
<trkpt lat="48.901401519775" lon="2.8190269470215"><ele>92</ele><time>2026-5-1T8:50:48Z</time></trkpt>
<trkpt lat="48.901378631592" lon="2.8189148902893"><ele>92</ele><time>2026-5-1T8:50:51Z</time></trkpt>
<trkpt lat="48.901336669922" lon="2.8187985420227"><ele>93</ele><time>2026-5-1T8:50:54Z</time></trkpt>
<trkpt lat="48.901290893555" lon="2.8186962604523"><ele>93</ele><time>2026-5-1T8:50:57Z</time></trkpt>
<trkpt lat="48.901237487793" lon="2.8185861110687"><ele>94</ele><time>2026-5-1T8:51:0Z</time></trkpt>
<trkpt lat="48.901184082031" lon="2.8184781074524"><ele>94</ele><time>2026-5-1T8:51:3Z</time></trkpt>
<trkpt lat="48.901126861572" lon="2.8183798789978"><ele>94</ele><time>2026-5-1T8:51:6Z</time></trkpt>
<trkpt lat="48.901073455811" lon="2.8182668685913"><ele>94</ele><time>2026-5-1T8:51:9Z</time></trkpt>
<trkpt lat="48.901035308838" lon="2.8181600570679"><ele>94</ele><time>2026-5-1T8:51:12Z</time></trkpt>
<trkpt lat="48.901023864746" lon="2.8180544376373"><ele>94</ele><time>2026-5-1T8:51:15Z</time></trkpt>
<trkpt lat="48.901027679443" lon="2.8179490566254"><ele>94</ele><time>2026-5-1T8:51:18Z</time></trkpt>
<trkpt lat="48.901039123535" lon="2.8178477287292"><ele>94</ele><time>2026-5-1T8:51:21Z</time></trkpt>
<trkpt lat="48.901050567627" lon="2.8177502155304"><ele>94</ele><time>2026-5-1T8:51:24Z</time></trkpt>
<trkpt lat="48.901050567627" lon="2.8177502155304"><ele>94</ele><time>2026-5-1T8:51:27Z</time></trkpt>
<trkpt lat="48.901008605957" lon="2.8176329135895"><ele>94</ele><time>2026-5-1T8:51:30Z</time></trkpt>
<trkpt lat="48.900936126709" lon="2.8176128864288"><ele>95</ele><time>2026-5-1T8:51:33Z</time></trkpt>
<trkpt lat="48.900863647461" lon="2.8175845146179"><ele>95</ele><time>2026-5-1T8:51:36Z</time></trkpt>
<trkpt lat="48.90079498291" lon="2.8175685405731"><ele>95</ele><time>2026-5-1T8:51:39Z</time></trkpt>
<trkpt lat="48.900722503662" lon="2.8175618648529"><ele>95</ele><time>2026-5-1T8:51:42Z</time></trkpt>
<trkpt lat="48.900650024414" lon="2.8175716400146"><ele>95</ele><time>2026-5-1T8:51:45Z</time></trkpt>
<trkpt lat="48.900569915771" lon="2.8175795078278"><ele>95</ele><time>2026-5-1T8:51:48Z</time></trkpt>
<trkpt lat="48.90047454834" lon="2.8175699710846"><ele>95</ele><time>2026-5-1T8:51:51Z</time></trkpt>
<trkpt lat="48.900398254395" lon="2.8175666332245"><ele>95</ele><time>2026-5-1T8:51:54Z</time></trkpt>
<trkpt lat="48.900318145752" lon="2.8175683021545"><ele>95</ele><time>2026-5-1T8:51:57Z</time></trkpt>
<trkpt lat="48.900318145752" lon="2.8175683021545"><ele>95</ele><time>2026-5-1T8:52:0Z</time></trkpt>
<trkpt lat="48.900226593018" lon="2.8175916671753"><ele>95</ele><time>2026-5-1T8:52:3Z</time></trkpt>
<trkpt lat="48.900226593018" lon="2.8175916671753"><ele>95</ele><time>2026-5-1T8:52:6Z</time></trkpt>
<trkpt lat="48.900131225586" lon="2.8176083564758"><ele>94</ele><time>2026-5-1T8:52:9Z</time></trkpt>
<trkpt lat="48.900058746338" lon="2.8176395893097"><ele>94</ele><time>2026-5-1T8:52:12Z</time></trkpt>
<trkpt lat="48.899974822998" lon="2.8176724910736"><ele>95</ele><time>2026-5-1T8:52:15Z</time></trkpt>
<trkpt lat="48.899974822998" lon="2.8176724910736"><ele>95</ele><time>2026-5-1T8:52:18Z</time></trkpt>
<trkpt lat="48.899887084961" lon="2.8176867961884"><ele>95</ele><time>2026-5-1T8:52:21Z</time></trkpt>
<trkpt lat="48.899887084961" lon="2.8176867961884"><ele>95</ele><time>2026-5-1T8:52:24Z</time></trkpt>
<trkpt lat="48.899887084961" lon="2.8176867961884"><ele>95</ele><time>2026-5-1T8:52:27Z</time></trkpt>
<trkpt lat="48.899806976318" lon="2.8177058696747"><ele>95</ele><time>2026-5-1T8:52:30Z</time></trkpt>
<trkpt lat="48.899749755859" lon="2.817750453949"><ele>95</ele><time>2026-5-1T8:52:33Z</time></trkpt>
<trkpt lat="48.899677276611" lon="2.8178186416626"><ele>95</ele><time>2026-5-1T8:52:36Z</time></trkpt>
<trkpt lat="48.899616241455" lon="2.8178997039795"><ele>95</ele><time>2026-5-1T8:52:39Z</time></trkpt>
<trkpt lat="48.899547576904" lon="2.8180181980133"><ele>96</ele><time>2026-5-1T8:52:42Z</time></trkpt>
<trkpt lat="48.899475097656" lon="2.8181703090668"><ele>95</ele><time>2026-5-1T8:52:45Z</time></trkpt>
<trkpt lat="48.899394989014" lon="2.8183195590973"><ele>94</ele><time>2026-5-1T8:52:48Z</time></trkpt>
<trkpt lat="48.89933013916" lon="2.8184545040131"><ele>94</ele><time>2026-5-1T8:52:51Z</time></trkpt>
<trkpt lat="48.899257659912" lon="2.8186092376709"><ele>93</ele><time>2026-5-1T8:52:54Z</time></trkpt>
<trkpt lat="48.899181365967" lon="2.8187580108643"><ele>92</ele><time>2026-5-1T8:52:57Z</time></trkpt>
<trkpt lat="48.899112701416" lon="2.8188679218292"><ele>93</ele><time>2026-5-1T8:53:0Z</time></trkpt>
<trkpt lat="48.899040222168" lon="2.8189978599548"><ele>93</ele><time>2026-5-1T8:53:3Z</time></trkpt>
<trkpt lat="48.898986816406" lon="2.8190841674805"><ele>93</ele><time>2026-5-1T8:53:6Z</time></trkpt>
<trkpt lat="48.898921966553" lon="2.8191940784454"><ele>93</ele><time>2026-5-1T8:53:9Z</time></trkpt>
<trkpt lat="48.898853302002" lon="2.8193020820618"><ele>92</ele><time>2026-5-1T8:53:12Z</time></trkpt>
<trkpt lat="48.898788452148" lon="2.8194267749786"><ele>91</ele><time>2026-5-1T8:53:15Z</time></trkpt>
<trkpt lat="48.898738861084" lon="2.8195328712463"><ele>91</ele><time>2026-5-1T8:53:18Z</time></trkpt>
<trkpt lat="48.898681640625" lon="2.8196353912354"><ele>91</ele><time>2026-5-1T8:53:21Z</time></trkpt>
<trkpt lat="48.898620605469" lon="2.8197362422943"><ele>91</ele><time>2026-5-1T8:53:24Z</time></trkpt>
<trkpt lat="48.898574829102" lon="2.8198099136353"><ele>91</ele><time>2026-5-1T8:53:27Z</time></trkpt>
<trkpt lat="48.898532867432" lon="2.8198783397675"><ele>91</ele><time>2026-5-1T8:53:30Z</time></trkpt>
<trkpt lat="48.898471832275" lon="2.8199799060822"><ele>92</ele><time>2026-5-1T8:53:33Z</time></trkpt>
<trkpt lat="48.89839553833" lon="2.8200933933258"><ele>94</ele><time>2026-5-1T8:53:36Z</time></trkpt>
<trkpt lat="48.898326873779" lon="2.8201916217804"><ele>95</ele><time>2026-5-1T8:53:39Z</time></trkpt>
<trkpt lat="48.898265838623" lon="2.8202822208405"><ele>95</ele><time>2026-5-1T8:53:42Z</time></trkpt>
<trkpt lat="48.898189544678" lon="2.8203811645508"><ele>94</ele><time>2026-5-1T8:53:45Z</time></trkpt>
<trkpt lat="48.898120880127" lon="2.8204724788666"><ele>93</ele><time>2026-5-1T8:53:48Z</time></trkpt>
<trkpt lat="48.898048400879" lon="2.8205621242523"><ele>92</ele><time>2026-5-1T8:53:51Z</time></trkpt>
<trkpt lat="48.897994995117" lon="2.8206553459167"><ele>91</ele><time>2026-5-1T8:53:54Z</time></trkpt>
<trkpt lat="48.897937774658" lon="2.8207511901855"><ele>90</ele><time>2026-5-1T8:53:57Z</time></trkpt>
<trkpt lat="48.897880554199" lon="2.820839881897"><ele>90</ele><time>2026-5-1T8:54:0Z</time></trkpt>
<trkpt lat="48.89782333374" lon="2.8209266662598"><ele>91</ele><time>2026-5-1T8:54:3Z</time></trkpt>
<trkpt lat="48.897769927979" lon="2.8210070133209"><ele>92</ele><time>2026-5-1T8:54:6Z</time></trkpt>
<trkpt lat="48.897716522217" lon="2.8210792541504"><ele>93</ele><time>2026-5-1T8:54:9Z</time></trkpt>
<trkpt lat="48.897655487061" lon="2.8211736679077"><ele>93</ele><time>2026-5-1T8:54:12Z</time></trkpt>
<trkpt lat="48.897594451904" lon="2.8212735652924"><ele>94</ele><time>2026-5-1T8:54:15Z</time></trkpt>
<trkpt lat="48.897533416748" lon="2.8213684558868"><ele>94</ele><time>2026-5-1T8:54:18Z</time></trkpt>
<trkpt lat="48.897472381592" lon="2.8214483261108"><ele>94</ele><time>2026-5-1T8:54:21Z</time></trkpt>
<trkpt lat="48.897415161133" lon="2.8215367794037"><ele>94</ele><time>2026-5-1T8:54:24Z</time></trkpt>
<trkpt lat="48.897350311279" lon="2.8216269016266"><ele>93</ele><time>2026-5-1T8:54:27Z</time></trkpt>
<trkpt lat="48.897289276123" lon="2.8217160701752"><ele>92</ele><time>2026-5-1T8:54:30Z</time></trkpt>
<trkpt lat="48.897232055664" lon="2.8217945098877"><ele>92</ele><time>2026-5-1T8:54:33Z</time></trkpt>
<trkpt lat="48.897163391113" lon="2.8218750953674"><ele>92</ele><time>2026-5-1T8:54:36Z</time></trkpt>
<trkpt lat="48.897102355957" lon="2.8219537734985"><ele>92</ele><time>2026-5-1T8:54:39Z</time></trkpt>
<trkpt lat="48.897026062012" lon="2.8220477104187"><ele>92</ele><time>2026-5-1T8:54:42Z</time></trkpt>
<trkpt lat="48.896938323975" lon="2.8221430778503"><ele>92</ele><time>2026-5-1T8:54:45Z</time></trkpt>
<trkpt lat="48.896850585938" lon="2.8222222328186"><ele>92</ele><time>2026-5-1T8:54:48Z</time></trkpt>
<trkpt lat="48.896774291992" lon="2.8223016262054"><ele>92</ele><time>2026-5-1T8:54:51Z</time></trkpt>
<trkpt lat="48.896697998047" lon="2.8223781585693"><ele>92</ele><time>2026-5-1T8:54:54Z</time></trkpt>
<trkpt lat="48.896625518799" lon="2.8224339485168"><ele>92</ele><time>2026-5-1T8:54:57Z</time></trkpt>
<trkpt lat="48.896564483643" lon="2.8224995136261"><ele>92</ele><time>2026-5-1T8:55:0Z</time></trkpt>
<trkpt lat="48.896503448486" lon="2.82257604599"><ele>92</ele><time>2026-5-1T8:55:3Z</time></trkpt>
<trkpt lat="48.896450042725" lon="2.8226463794708"><ele>93</ele><time>2026-5-1T8:55:6Z</time></trkpt>
<trkpt lat="48.89640045166" lon="2.8227348327637"><ele>94</ele><time>2026-5-1T8:55:9Z</time></trkpt>
<trkpt lat="48.89635848999" lon="2.8228352069855"><ele>94</ele><time>2026-5-1T8:55:12Z</time></trkpt>
<trkpt lat="48.896320343018" lon="2.822921037674"><ele>94</ele><time>2026-5-1T8:55:15Z</time></trkpt>
<trkpt lat="48.896282196045" lon="2.8230423927307"><ele>94</ele><time>2026-5-1T8:55:18Z</time></trkpt>
<trkpt lat="48.896240234375" lon="2.8231561183929"><ele>95</ele><time>2026-5-1T8:55:21Z</time></trkpt>
<trkpt lat="48.896194458008" lon="2.8232653141022"><ele>95</ele><time>2026-5-1T8:55:24Z</time></trkpt>
<trkpt lat="48.896156311035" lon="2.8233358860016"><ele>95</ele><time>2026-5-1T8:55:27Z</time></trkpt>
<trkpt lat="48.896106719971" lon="2.8234081268311"><ele>95</ele><time>2026-5-1T8:55:30Z</time></trkpt>
<trkpt lat="48.896053314209" lon="2.8234920501709"><ele>95</ele><time>2026-5-1T8:55:33Z</time></trkpt>
<trkpt lat="48.896018981934" lon="2.8235695362091"><ele>95</ele><time>2026-5-1T8:55:36Z</time></trkpt>
<trkpt lat="48.895977020264" lon="2.8236496448517"><ele>96</ele><time>2026-5-1T8:55:39Z</time></trkpt>
<trkpt lat="48.895935058594" lon="2.8237419128418"><ele>96</ele><time>2026-5-1T8:55:42Z</time></trkpt>
<trkpt lat="48.895896911621" lon="2.8238444328308"><ele>96</ele><time>2026-5-1T8:55:45Z</time></trkpt>
<trkpt lat="48.895896911621" lon="2.8238444328308"><ele>96</ele><time>2026-5-1T8:55:48Z</time></trkpt>
<trkpt lat="48.895858764648" lon="2.8239994049072"><ele>97</ele><time>2026-5-1T8:55:51Z</time></trkpt>
<trkpt lat="48.89582824707" lon="2.8240768909454"><ele>97</ele><time>2026-5-1T8:55:54Z</time></trkpt>
<trkpt lat="48.89582824707" lon="2.8240768909454"><ele>97</ele><time>2026-5-1T8:55:57Z</time></trkpt>
<trkpt lat="48.895763397217" lon="2.8242256641388"><ele>97</ele><time>2026-5-1T8:56:0Z</time></trkpt>
<trkpt lat="48.89571762085" lon="2.824312210083"><ele>97</ele><time>2026-5-1T8:56:3Z</time></trkpt>
<trkpt lat="48.89571762085" lon="2.824312210083"><ele>97</ele><time>2026-5-1T8:56:6Z</time></trkpt>
<trkpt lat="48.89563369751" lon="2.8244385719299"><ele>98</ele><time>2026-5-1T8:56:9Z</time></trkpt>
<trkpt lat="48.895587921143" lon="2.8245131969452"><ele>98</ele><time>2026-5-1T8:56:12Z</time></trkpt>
<trkpt lat="48.895538330078" lon="2.8245830535889"><ele>98</ele><time>2026-5-1T8:56:15Z</time></trkpt>
<trkpt lat="48.895481109619" lon="2.8246581554413"><ele>98</ele><time>2026-5-1T8:56:18Z</time></trkpt>
<trkpt lat="48.895446777344" lon="2.8247232437134"><ele>98</ele><time>2026-5-1T8:56:21Z</time></trkpt>
<trkpt lat="48.895404815674" lon="2.8248016834259"><ele>98</ele><time>2026-5-1T8:56:24Z</time></trkpt>
<trkpt lat="48.895347595215" lon="2.8248887062073"><ele>98</ele><time>2026-5-1T8:56:27Z</time></trkpt>
<trkpt lat="48.895282745361" lon="2.8249864578247"><ele>98</ele><time>2026-5-1T8:56:30Z</time></trkpt>
<trkpt lat="48.895236968994" lon="2.8250696659088"><ele>98</ele><time>2026-5-1T8:56:33Z</time></trkpt>
<trkpt lat="48.895195007324" lon="2.8251533508301"><ele>99</ele><time>2026-5-1T8:56:36Z</time></trkpt>
<trkpt lat="48.895149230957" lon="2.8252472877502"><ele>99</ele><time>2026-5-1T8:56:39Z</time></trkpt>
<trkpt lat="48.895107269287" lon="2.8253469467163"><ele>99</ele><time>2026-5-1T8:56:42Z</time></trkpt>
<trkpt lat="48.895072937012" lon="2.8254404067993"><ele>99</ele><time>2026-5-1T8:56:45Z</time></trkpt>
<trkpt lat="48.895038604736" lon="2.8255198001862"><ele>99</ele><time>2026-5-1T8:56:48Z</time></trkpt>
<trkpt lat="48.894985198975" lon="2.8256261348724"><ele>99</ele><time>2026-5-1T8:56:51Z</time></trkpt>
<trkpt lat="48.894943237305" lon="2.8256921768188"><ele>99</ele><time>2026-5-1T8:56:54Z</time></trkpt>
<trkpt lat="48.894897460938" lon="2.8257801532745"><ele>100</ele><time>2026-5-1T8:56:57Z</time></trkpt>
<trkpt lat="48.894863128662" lon="2.8258864879608"><ele>100</ele><time>2026-5-1T8:57:0Z</time></trkpt>
<trkpt lat="48.894821166992" lon="2.8259844779968"><ele>100</ele><time>2026-5-1T8:57:3Z</time></trkpt>
<trkpt lat="48.89478302002" lon="2.8260605335236"><ele>100</ele><time>2026-5-1T8:57:6Z</time></trkpt>
<trkpt lat="48.894748687744" lon="2.8261294364929"><ele>100</ele><time>2026-5-1T8:57:9Z</time></trkpt>
<trkpt lat="48.894748687744" lon="2.8261294364929"><ele>100</ele><time>2026-5-1T8:57:12Z</time></trkpt>
<trkpt lat="48.894672393799" lon="2.8262641429901"><ele>100</ele><time>2026-5-1T8:57:15Z</time></trkpt>
<trkpt lat="48.894622802734" lon="2.8263418674469"><ele>100</ele><time>2026-5-1T8:57:18Z</time></trkpt>
<trkpt lat="48.894542694092" lon="2.8264405727386"><ele>100</ele><time>2026-5-1T8:57:21Z</time></trkpt>
<trkpt lat="48.894474029541" lon="2.8265368938446"><ele>100</ele><time>2026-5-1T8:57:24Z</time></trkpt>
<trkpt lat="48.894401550293" lon="2.8266596794128"><ele>100</ele><time>2026-5-1T8:57:27Z</time></trkpt>
<trkpt lat="48.894401550293" lon="2.8266596794128"><ele>100</ele><time>2026-5-1T8:57:30Z</time></trkpt>
<trkpt lat="48.894344329834" lon="2.8267726898193"><ele>100</ele><time>2026-5-1T8:57:33Z</time></trkpt>
<trkpt lat="48.894344329834" lon="2.8267726898193"><ele>100</ele><time>2026-5-1T8:57:36Z</time></trkpt>
<trkpt lat="48.89429473877" lon="2.8268258571625"><ele>99</ele><time>2026-5-1T8:57:39Z</time></trkpt>
<trkpt lat="48.89429473877" lon="2.8268258571625"><ele>99</ele><time>2026-5-1T8:57:42Z</time></trkpt>
<trkpt lat="48.89429473877" lon="2.8268258571625"><ele>99</ele><time>2026-5-1T8:57:45Z</time></trkpt>
<trkpt lat="48.894260406494" lon="2.8269078731537"><ele>99</ele><time>2026-5-1T8:57:48Z</time></trkpt>
<trkpt lat="48.894260406494" lon="2.8269078731537"><ele>99</ele><time>2026-5-1T8:57:51Z</time></trkpt>
<trkpt lat="48.894260406494" lon="2.8269078731537"><ele>99</ele><time>2026-5-1T8:57:54Z</time></trkpt>
<trkpt lat="48.894218444824" lon="2.8268730640411"><ele>98</ele><time>2026-5-1T8:57:57Z</time></trkpt>
<trkpt lat="48.894111633301" lon="2.8268494606018"><ele>98</ele><time>2026-5-1T8:58:0Z</time></trkpt>
<trkpt lat="48.894023895264" lon="2.8268511295319"><ele>98</ele><time>2026-5-1T8:58:3Z</time></trkpt>
<trkpt lat="48.893928527832" lon="2.8268268108368"><ele>97</ele><time>2026-5-1T8:58:6Z</time></trkpt>
<trkpt lat="48.893821716309" lon="2.8268046379089"><ele>98</ele><time>2026-5-1T8:58:9Z</time></trkpt>
<trkpt lat="48.893711090088" lon="2.8267517089844"><ele>98</ele><time>2026-5-1T8:58:12Z</time></trkpt>
<trkpt lat="48.893611907959" lon="2.8267040252686"><ele>99</ele><time>2026-5-1T8:58:15Z</time></trkpt>
<trkpt lat="48.893505096436" lon="2.8266577720642"><ele>99</ele><time>2026-5-1T8:58:18Z</time></trkpt>
<trkpt lat="48.893402099609" lon="2.8266177177429"><ele>99</ele><time>2026-5-1T8:58:21Z</time></trkpt>
<trkpt lat="48.893402099609" lon="2.8266177177429"><ele>99</ele><time>2026-5-1T8:58:24Z</time></trkpt>
<trkpt lat="48.89331817627" lon="2.8265821933746"><ele>99</ele><time>2026-5-1T8:58:27Z</time></trkpt>
<trkpt lat="48.89331817627" lon="2.8265821933746"><ele>99</ele><time>2026-5-1T8:58:30Z</time></trkpt>
<trkpt lat="48.893218994141" lon="2.8266451358795"><ele>99</ele><time>2026-5-1T8:58:33Z</time></trkpt>
<trkpt lat="48.893180847168" lon="2.8267679214478"><ele>98</ele><time>2026-5-1T8:58:36Z</time></trkpt>
<trkpt lat="48.893138885498" lon="2.8269057273865"><ele>98</ele><time>2026-5-1T8:58:39Z</time></trkpt>
<trkpt lat="48.893081665039" lon="2.8270471096039"><ele>98</ele><time>2026-5-1T8:58:42Z</time></trkpt>
<trkpt lat="48.893016815186" lon="2.8272020816803"><ele>98</ele><time>2026-5-1T8:58:45Z</time></trkpt>
<trkpt lat="48.892963409424" lon="2.8273160457611"><ele>97</ele><time>2026-5-1T8:58:48Z</time></trkpt>
<trkpt lat="48.892913818359" lon="2.827422618866"><ele>98</ele><time>2026-5-1T8:58:51Z</time></trkpt>
<trkpt lat="48.892879486084" lon="2.8274991512299"><ele>98</ele><time>2026-5-1T8:58:54Z</time></trkpt>
<trkpt lat="48.892879486084" lon="2.8274991512299"><ele>98</ele><time>2026-5-1T8:58:57Z</time></trkpt>
<trkpt lat="48.892879486084" lon="2.8274991512299"><ele>98</ele><time>2026-5-1T8:59:0Z</time></trkpt>
<trkpt lat="48.892879486084" lon="2.8274991512299"><ele>98</ele><time>2026-5-1T8:59:3Z</time></trkpt>
<trkpt lat="48.892879486084" lon="2.8274991512299"><ele>98</ele><time>2026-5-1T8:59:6Z</time></trkpt>
<trkpt lat="48.892833709717" lon="2.827615737915"><ele>99</ele><time>2026-5-1T8:59:9Z</time></trkpt>
<trkpt lat="48.892799377441" lon="2.8276934623718"><ele>99</ele><time>2026-5-1T8:59:12Z</time></trkpt>
<trkpt lat="48.892749786377" lon="2.8278074264526"><ele>99</ele><time>2026-5-1T8:59:15Z</time></trkpt>
<trkpt lat="48.892688751221" lon="2.8279156684875"><ele>100</ele><time>2026-5-1T8:59:18Z</time></trkpt>
<trkpt lat="48.892631530762" lon="2.828027009964"><ele>102</ele><time>2026-5-1T8:59:21Z</time></trkpt>
<trkpt lat="48.892570495605" lon="2.8281488418579"><ele>103</ele><time>2026-5-1T8:59:24Z</time></trkpt>
<trkpt lat="48.892517089844" lon="2.8282525539398"><ele>103</ele><time>2026-5-1T8:59:27Z</time></trkpt>
<trkpt lat="48.892448425293" lon="2.8283853530884"><ele>103</ele><time>2026-5-1T8:59:30Z</time></trkpt>
<trkpt lat="48.892375946045" lon="2.8285460472107"><ele>103</ele><time>2026-5-1T8:59:33Z</time></trkpt>
<trkpt lat="48.892311096191" lon="2.8286952972412"><ele>102</ele><time>2026-5-1T8:59:36Z</time></trkpt>
<trkpt lat="48.892246246338" lon="2.8288424015045"><ele>102</ele><time>2026-5-1T8:59:39Z</time></trkpt>
<trkpt lat="48.892181396484" lon="2.8289864063263"><ele>101</ele><time>2026-5-1T8:59:42Z</time></trkpt>
<trkpt lat="48.892108917236" lon="2.8291561603546"><ele>100</ele><time>2026-5-1T8:59:45Z</time></trkpt>
<trkpt lat="48.892036437988" lon="2.8293149471283"><ele>99</ele><time>2026-5-1T8:59:48Z</time></trkpt>
<trkpt lat="48.891971588135" lon="2.8294310569763"><ele>99</ele><time>2026-5-1T8:59:51Z</time></trkpt>
<trkpt lat="48.891910552979" lon="2.8295640945435"><ele>98</ele><time>2026-5-1T8:59:54Z</time></trkpt>
<trkpt lat="48.891845703125" lon="2.8297266960144"><ele>97</ele><time>2026-5-1T8:59:57Z</time></trkpt>
<trkpt lat="48.891784667969" lon="2.8298432826996"><ele>96</ele><time>2026-5-1T9:0:0Z</time></trkpt>
<trkpt lat="48.891723632812" lon="2.8299677371979"><ele>95</ele><time>2026-5-1T9:0:3Z</time></trkpt>
<trkpt lat="48.891670227051" lon="2.8300867080688"><ele>94</ele><time>2026-5-1T9:0:6Z</time></trkpt>
<trkpt lat="48.891613006592" lon="2.8301994800568"><ele>95</ele><time>2026-5-1T9:0:9Z</time></trkpt>
<trkpt lat="48.891555786133" lon="2.8303208351135"><ele>95</ele><time>2026-5-1T9:0:12Z</time></trkpt>
<trkpt lat="48.891502380371" lon="2.830459356308"><ele>95</ele><time>2026-5-1T9:0:15Z</time></trkpt>
<trkpt lat="48.891452789307" lon="2.8305842876434"><ele>96</ele><time>2026-5-1T9:0:18Z</time></trkpt>
<trkpt lat="48.891407012939" lon="2.8306987285614"><ele>97</ele><time>2026-5-1T9:0:21Z</time></trkpt>
<trkpt lat="48.891361236572" lon="2.8308107852936"><ele>97</ele><time>2026-5-1T9:0:24Z</time></trkpt>
<trkpt lat="48.891311645508" lon="2.8309147357941"><ele>97</ele><time>2026-5-1T9:0:27Z</time></trkpt>
<trkpt lat="48.891277313232" lon="2.8310043811798"><ele>97</ele><time>2026-5-1T9:0:30Z</time></trkpt>
<trkpt lat="48.891220092773" lon="2.8311450481415"><ele>97</ele><time>2026-5-1T9:0:33Z</time></trkpt>
<trkpt lat="48.891162872314" lon="2.8312621116638"><ele>96</ele><time>2026-5-1T9:0:36Z</time></trkpt>
<trkpt lat="48.89111328125" lon="2.8313646316528"><ele>96</ele><time>2026-5-1T9:0:39Z</time></trkpt>
<trkpt lat="48.891056060791" lon="2.8314793109894"><ele>97</ele><time>2026-5-1T9:0:42Z</time></trkpt>
<trkpt lat="48.891002655029" lon="2.8315935134888"><ele>98</ele><time>2026-5-1T9:0:45Z</time></trkpt>
<trkpt lat="48.890949249268" lon="2.8317008018494"><ele>99</ele><time>2026-5-1T9:0:48Z</time></trkpt>
<trkpt lat="48.890899658203" lon="2.8317937850952"><ele>98</ele><time>2026-5-1T9:0:51Z</time></trkpt>
<trkpt lat="48.890838623047" lon="2.8318901062012"><ele>98</ele><time>2026-5-1T9:0:54Z</time></trkpt>
<trkpt lat="48.890781402588" lon="2.8319888114929"><ele>98</ele><time>2026-5-1T9:0:57Z</time></trkpt>
<trkpt lat="48.890724182129" lon="2.832108259201"><ele>99</ele><time>2026-5-1T9:1:0Z</time></trkpt>
<trkpt lat="48.890678405762" lon="2.8322157859802"><ele>100</ele><time>2026-5-1T9:1:3Z</time></trkpt>
<trkpt lat="48.890625" lon="2.832325220108"><ele>100</ele><time>2026-5-1T9:1:6Z</time></trkpt>
<trkpt lat="48.890575408936" lon="2.8324320316315"><ele>101</ele><time>2026-5-1T9:1:9Z</time></trkpt>
<trkpt lat="48.890514373779" lon="2.8325099945068"><ele>101</ele><time>2026-5-1T9:1:12Z</time></trkpt>
<trkpt lat="48.890453338623" lon="2.8325867652893"><ele>100</ele><time>2026-5-1T9:1:15Z</time></trkpt>
<trkpt lat="48.890380859375" lon="2.8326647281647"><ele>99</ele><time>2026-5-1T9:1:18Z</time></trkpt>
<trkpt lat="48.890316009521" lon="2.8327431678772"><ele>98</ele><time>2026-5-1T9:1:21Z</time></trkpt>
<trkpt lat="48.89026260376" lon="2.8328437805176"><ele>98</ele><time>2026-5-1T9:1:24Z</time></trkpt>
<trkpt lat="48.890209197998" lon="2.8329710960388"><ele>97</ele><time>2026-5-1T9:1:27Z</time></trkpt>
<trkpt lat="48.890163421631" lon="2.8330698013306"><ele>97</ele><time>2026-5-1T9:1:30Z</time></trkpt>
<trkpt lat="48.890121459961" lon="2.8331758975983"><ele>96</ele><time>2026-5-1T9:1:33Z</time></trkpt>
<trkpt lat="48.890090942383" lon="2.8332717418671"><ele>95</ele><time>2026-5-1T9:1:36Z</time></trkpt>
<trkpt lat="48.89005279541" lon="2.8333764076233"><ele>95</ele><time>2026-5-1T9:1:39Z</time></trkpt>
<trkpt lat="48.89001083374" lon="2.833491563797"><ele>94</ele><time>2026-5-1T9:1:42Z</time></trkpt>
<trkpt lat="48.889972686768" lon="2.8336133956909"><ele>93</ele><time>2026-5-1T9:1:45Z</time></trkpt>
<trkpt lat="48.889930725098" lon="2.8337240219116"><ele>93</ele><time>2026-5-1T9:1:48Z</time></trkpt>
<trkpt lat="48.889892578125" lon="2.8338131904602"><ele>93</ele><time>2026-5-1T9:1:51Z</time></trkpt>
<trkpt lat="48.889850616455" lon="2.833911895752"><ele>93</ele><time>2026-5-1T9:1:54Z</time></trkpt>
<trkpt lat="48.889812469482" lon="2.8340210914612"><ele>93</ele><time>2026-5-1T9:1:57Z</time></trkpt>
<trkpt lat="48.889766693115" lon="2.8341360092163"><ele>94</ele><time>2026-5-1T9:2:0Z</time></trkpt>
<trkpt lat="48.88973236084" lon="2.8342413902283"><ele>94</ele><time>2026-5-1T9:2:3Z</time></trkpt>
<trkpt lat="48.889724731445" lon="2.8343472480774"><ele>94</ele><time>2026-5-1T9:2:6Z</time></trkpt>
<trkpt lat="48.889724731445" lon="2.8343472480774"><ele>94</ele><time>2026-5-1T9:2:9Z</time></trkpt>
<trkpt lat="48.889751434326" lon="2.8344354629517"><ele>94</ele><time>2026-5-1T9:2:12Z</time></trkpt>
<trkpt lat="48.889724731445" lon="2.8345196247101"><ele>94</ele><time>2026-5-1T9:2:15Z</time></trkpt>
<trkpt lat="48.889682769775" lon="2.8346195220947"><ele>94</ele><time>2026-5-1T9:2:18Z</time></trkpt>
<trkpt lat="48.889640808105" lon="2.8347365856171"><ele>95</ele><time>2026-5-1T9:2:21Z</time></trkpt>
<trkpt lat="48.889610290527" lon="2.8348503112793"><ele>95</ele><time>2026-5-1T9:2:24Z</time></trkpt>
<trkpt lat="48.889583587646" lon="2.834974527359"><ele>95</ele><time>2026-5-1T9:2:27Z</time></trkpt>
<trkpt lat="48.889549255371" lon="2.8351101875305"><ele>95</ele><time>2026-5-1T9:2:30Z</time></trkpt>
<trkpt lat="48.889526367188" lon="2.8352134227753"><ele>95</ele><time>2026-5-1T9:2:33Z</time></trkpt>
<trkpt lat="48.889503479004" lon="2.8353109359741"><ele>95</ele><time>2026-5-1T9:2:36Z</time></trkpt>
<trkpt lat="48.889484405518" lon="2.8354151248932"><ele>95</ele><time>2026-5-1T9:2:39Z</time></trkpt>
<trkpt lat="48.889465332031" lon="2.8355195522308"><ele>95</ele><time>2026-5-1T9:2:42Z</time></trkpt>
<trkpt lat="48.889430999756" lon="2.8356385231018"><ele>96</ele><time>2026-5-1T9:2:45Z</time></trkpt>
<trkpt lat="48.88939666748" lon="2.8357605934143"><ele>96</ele><time>2026-5-1T9:2:48Z</time></trkpt>
<trkpt lat="48.889362335205" lon="2.8358509540558"><ele>96</ele><time>2026-5-1T9:2:51Z</time></trkpt>
<trkpt lat="48.889324188232" lon="2.8359467983246"><ele>97</ele><time>2026-5-1T9:2:54Z</time></trkpt>
<trkpt lat="48.889274597168" lon="2.8360755443573"><ele>97</ele><time>2026-5-1T9:2:57Z</time></trkpt>
<trkpt lat="48.889240264893" lon="2.836193561554"><ele>97</ele><time>2026-5-1T9:3:0Z</time></trkpt>
<trkpt lat="48.889228820801" lon="2.8362874984741"><ele>97</ele><time>2026-5-1T9:3:3Z</time></trkpt>
<trkpt lat="48.889213562012" lon="2.8363842964172"><ele>97</ele><time>2026-5-1T9:3:6Z</time></trkpt>
<trkpt lat="48.889194488525" lon="2.8364939689636"><ele>97</ele><time>2026-5-1T9:3:9Z</time></trkpt>
<trkpt lat="48.889156341553" lon="2.8366122245789"><ele>97</ele><time>2026-5-1T9:3:12Z</time></trkpt>
<trkpt lat="48.889125823975" lon="2.8367123603821"><ele>97</ele><time>2026-5-1T9:3:15Z</time></trkpt>
<trkpt lat="48.889099121094" lon="2.8368048667908"><ele>97</ele><time>2026-5-1T9:3:18Z</time></trkpt>
<trkpt lat="48.889083862305" lon="2.8368909358978"><ele>97</ele><time>2026-5-1T9:3:21Z</time></trkpt>
<trkpt lat="48.889057159424" lon="2.8370039463043"><ele>97</ele><time>2026-5-1T9:3:24Z</time></trkpt>
<trkpt lat="48.889030456543" lon="2.837112903595"><ele>97</ele><time>2026-5-1T9:3:27Z</time></trkpt>
<trkpt lat="48.88899230957" lon="2.8372564315796"><ele>97</ele><time>2026-5-1T9:3:30Z</time></trkpt>
<trkpt lat="48.888961791992" lon="2.8373899459839"><ele>97</ele><time>2026-5-1T9:3:33Z</time></trkpt>
<trkpt lat="48.888938903809" lon="2.8374888896942"><ele>97</ele><time>2026-5-1T9:3:36Z</time></trkpt>
<trkpt lat="48.888916015625" lon="2.8376135826111"><ele>98</ele><time>2026-5-1T9:3:39Z</time></trkpt>
<trkpt lat="48.888877868652" lon="2.8377265930176"><ele>98</ele><time>2026-5-1T9:3:42Z</time></trkpt>
<trkpt lat="48.888843536377" lon="2.8378446102142"><ele>97</ele><time>2026-5-1T9:3:45Z</time></trkpt>
<trkpt lat="48.888809204102" lon="2.8379786014557"><ele>97</ele><time>2026-5-1T9:3:48Z</time></trkpt>
<trkpt lat="48.888767242432" lon="2.8381247520447"><ele>97</ele><time>2026-5-1T9:3:51Z</time></trkpt>
<trkpt lat="48.888732910156" lon="2.8382525444031"><ele>97</ele><time>2026-5-1T9:3:54Z</time></trkpt>
<trkpt lat="48.888706207275" lon="2.8383522033691"><ele>97</ele><time>2026-5-1T9:3:57Z</time></trkpt>
<trkpt lat="48.888668060303" lon="2.8384838104248"><ele>97</ele><time>2026-5-1T9:4:0Z</time></trkpt>
<trkpt lat="48.888641357422" lon="2.838595867157"><ele>97</ele><time>2026-5-1T9:4:3Z</time></trkpt>
<trkpt lat="48.888607025146" lon="2.8387181758881"><ele>97</ele><time>2026-5-1T9:4:6Z</time></trkpt>
<trkpt lat="48.888576507568" lon="2.8388423919678"><ele>97</ele><time>2026-5-1T9:4:9Z</time></trkpt>
<trkpt lat="48.888557434082" lon="2.8389382362366"><ele>97</ele><time>2026-5-1T9:4:12Z</time></trkpt>
<trkpt lat="48.888538360596" lon="2.8390421867371"><ele>98</ele><time>2026-5-1T9:4:15Z</time></trkpt>
<trkpt lat="48.88850402832" lon="2.839152097702"><ele>98</ele><time>2026-5-1T9:4:18Z</time></trkpt>
<trkpt lat="48.888473510742" lon="2.8392672538757"><ele>99</ele><time>2026-5-1T9:4:21Z</time></trkpt>
<trkpt lat="48.88843536377" lon="2.8393743038177"><ele>100</ele><time>2026-5-1T9:4:24Z</time></trkpt>
<trkpt lat="48.888404846191" lon="2.8394582271576"><ele>101</ele><time>2026-5-1T9:4:27Z</time></trkpt>
<trkpt lat="48.888374328613" lon="2.8395609855652"><ele>101</ele><time>2026-5-1T9:4:30Z</time></trkpt>
<trkpt lat="48.888355255127" lon="2.839647769928"><ele>101</ele><time>2026-5-1T9:4:33Z</time></trkpt>
<trkpt lat="48.888324737549" lon="2.8397541046143"><ele>101</ele><time>2026-5-1T9:4:36Z</time></trkpt>
<trkpt lat="48.888305664062" lon="2.8398633003235"><ele>101</ele><time>2026-5-1T9:4:39Z</time></trkpt>
<trkpt lat="48.888286590576" lon="2.8399608135223"><ele>101</ele><time>2026-5-1T9:4:42Z</time></trkpt>
<trkpt lat="48.888248443604" lon="2.840047121048"><ele>101</ele><time>2026-5-1T9:4:45Z</time></trkpt>
<trkpt lat="48.888206481934" lon="2.8401615619659"><ele>101</ele><time>2026-5-1T9:4:48Z</time></trkpt>
<trkpt lat="48.888160705566" lon="2.8402616977692"><ele>102</ele><time>2026-5-1T9:4:51Z</time></trkpt>
<trkpt lat="48.888130187988" lon="2.8403630256653"><ele>102</ele><time>2026-5-1T9:4:54Z</time></trkpt>
<trkpt lat="48.888103485107" lon="2.8404521942139"><ele>102</ele><time>2026-5-1T9:4:57Z</time></trkpt>
<trkpt lat="48.888072967529" lon="2.8405656814575"><ele>102</ele><time>2026-5-1T9:5:0Z</time></trkpt>
<trkpt lat="48.888034820557" lon="2.8406918048859"><ele>102</ele><time>2026-5-1T9:5:3Z</time></trkpt>
<trkpt lat="48.887989044189" lon="2.8408584594727"><ele>102</ele><time>2026-5-1T9:5:6Z</time></trkpt>
<trkpt lat="48.887954711914" lon="2.8409852981567"><ele>102</ele><time>2026-5-1T9:5:9Z</time></trkpt>
<trkpt lat="48.887920379639" lon="2.8411037921906"><ele>101</ele><time>2026-5-1T9:5:12Z</time></trkpt>
<trkpt lat="48.887886047363" lon="2.8412351608276"><ele>101</ele><time>2026-5-1T9:5:15Z</time></trkpt>
<trkpt lat="48.887851715088" lon="2.8413646221161"><ele>101</ele><time>2026-5-1T9:5:18Z</time></trkpt>
<trkpt lat="48.887836456299" lon="2.8414726257324"><ele>100</ele><time>2026-5-1T9:5:21Z</time></trkpt>
<trkpt lat="48.887805938721" lon="2.8416121006012"><ele>100</ele><time>2026-5-1T9:5:24Z</time></trkpt>
<trkpt lat="48.887775421143" lon="2.8417501449585"><ele>101</ele><time>2026-5-1T9:5:27Z</time></trkpt>
<trkpt lat="48.88773727417" lon="2.8418936729431"><ele>101</ele><time>2026-5-1T9:5:30Z</time></trkpt>
<trkpt lat="48.887710571289" lon="2.8420279026031"><ele>100</ele><time>2026-5-1T9:5:33Z</time></trkpt>
<trkpt lat="48.887683868408" lon="2.8421297073364"><ele>100</ele><time>2026-5-1T9:5:36Z</time></trkpt>
<trkpt lat="48.887660980225" lon="2.8422200679779"><ele>100</ele><time>2026-5-1T9:5:39Z</time></trkpt>
<trkpt lat="48.887634277344" lon="2.842321395874"><ele>100</ele><time>2026-5-1T9:5:42Z</time></trkpt>
<trkpt lat="48.887596130371" lon="2.8424556255341"><ele>100</ele><time>2026-5-1T9:5:45Z</time></trkpt>
<trkpt lat="48.887561798096" lon="2.8425645828247"><ele>100</ele><time>2026-5-1T9:5:48Z</time></trkpt>
<trkpt lat="48.887535095215" lon="2.84268450737"><ele>100</ele><time>2026-5-1T9:5:51Z</time></trkpt>
<trkpt lat="48.887500762939" lon="2.842827796936"><ele>100</ele><time>2026-5-1T9:5:54Z</time></trkpt>
<trkpt lat="48.887470245361" lon="2.8429465293884"><ele>99</ele><time>2026-5-1T9:5:57Z</time></trkpt>
<trkpt lat="48.887432098389" lon="2.8430573940277"><ele>99</ele><time>2026-5-1T9:6:0Z</time></trkpt>
<trkpt lat="48.887409210205" lon="2.843151807785"><ele>99</ele><time>2026-5-1T9:6:3Z</time></trkpt>
<trkpt lat="48.887382507324" lon="2.8432540893555"><ele>99</ele><time>2026-5-1T9:6:6Z</time></trkpt>
<trkpt lat="48.887348175049" lon="2.8433780670166"><ele>100</ele><time>2026-5-1T9:6:9Z</time></trkpt>
<trkpt lat="48.887313842773" lon="2.8435125350952"><ele>101</ele><time>2026-5-1T9:6:12Z</time></trkpt>
<trkpt lat="48.887279510498" lon="2.8436250686646"><ele>102</ele><time>2026-5-1T9:6:15Z</time></trkpt>
<trkpt lat="48.887241363525" lon="2.8437595367432"><ele>103</ele><time>2026-5-1T9:6:18Z</time></trkpt>
<trkpt lat="48.887203216553" lon="2.8438873291016"><ele>103</ele><time>2026-5-1T9:6:21Z</time></trkpt>
<trkpt lat="48.887161254883" lon="2.8440144062042"><ele>103</ele><time>2026-5-1T9:6:24Z</time></trkpt>
<trkpt lat="48.88712310791" lon="2.84414935112"><ele>103</ele><time>2026-5-1T9:6:27Z</time></trkpt>
<trkpt lat="48.887084960938" lon="2.8442928791046"><ele>104</ele><time>2026-5-1T9:6:30Z</time></trkpt>
<trkpt lat="48.887050628662" lon="2.8444201946259"><ele>104</ele><time>2026-5-1T9:6:33Z</time></trkpt>
<trkpt lat="48.887012481689" lon="2.8445370197296"><ele>104</ele><time>2026-5-1T9:6:36Z</time></trkpt>
<trkpt lat="48.886974334717" lon="2.8446357250214"><ele>104</ele><time>2026-5-1T9:6:39Z</time></trkpt>
<trkpt lat="48.886924743652" lon="2.8447754383087"><ele>103</ele><time>2026-5-1T9:6:42Z</time></trkpt>
<trkpt lat="48.886890411377" lon="2.8449099063873"><ele>104</ele><time>2026-5-1T9:6:45Z</time></trkpt>
<trkpt lat="48.886856079102" lon="2.8450522422791"><ele>104</ele><time>2026-5-1T9:6:48Z</time></trkpt>
<trkpt lat="48.886829376221" lon="2.8451817035675"><ele>104</ele><time>2026-5-1T9:6:51Z</time></trkpt>
<trkpt lat="48.88680267334" lon="2.8453073501587"><ele>104</ele><time>2026-5-1T9:6:54Z</time></trkpt>
<trkpt lat="48.886764526367" lon="2.8454256057739"><ele>104</ele><time>2026-5-1T9:6:57Z</time></trkpt>
<trkpt lat="48.886726379395" lon="2.8455429077148"><ele>104</ele><time>2026-5-1T9:7:0Z</time></trkpt>
<trkpt lat="48.886684417725" lon="2.8456792831421"><ele>103</ele><time>2026-5-1T9:7:3Z</time></trkpt>
<trkpt lat="48.886642456055" lon="2.8457977771759"><ele>103</ele><time>2026-5-1T9:7:6Z</time></trkpt>
<trkpt lat="48.886608123779" lon="2.845912694931"><ele>103</ele><time>2026-5-1T9:7:9Z</time></trkpt>
<trkpt lat="48.886577606201" lon="2.846040725708"><ele>103</ele><time>2026-5-1T9:7:12Z</time></trkpt>
<trkpt lat="48.886554718018" lon="2.8461718559265"><ele>103</ele><time>2026-5-1T9:7:15Z</time></trkpt>
<trkpt lat="48.886520385742" lon="2.8463144302368"><ele>103</ele><time>2026-5-1T9:7:18Z</time></trkpt>
<trkpt lat="48.886478424072" lon="2.8464558124542"><ele>104</ele><time>2026-5-1T9:7:21Z</time></trkpt>
<trkpt lat="48.886444091797" lon="2.8465793132782"><ele>104</ele><time>2026-5-1T9:7:24Z</time></trkpt>
<trkpt lat="48.886409759521" lon="2.8467020988464"><ele>104</ele><time>2026-5-1T9:7:27Z</time></trkpt>
<trkpt lat="48.886371612549" lon="2.8468196392059"><ele>105</ele><time>2026-5-1T9:7:30Z</time></trkpt>
<trkpt lat="48.886337280273" lon="2.8469564914703"><ele>105</ele><time>2026-5-1T9:7:33Z</time></trkpt>
<trkpt lat="48.886299133301" lon="2.8470668792725"><ele>105</ele><time>2026-5-1T9:7:36Z</time></trkpt>
<trkpt lat="48.886241912842" lon="2.8471629619598"><ele>105</ele><time>2026-5-1T9:7:39Z</time></trkpt>
<trkpt lat="48.886173248291" lon="2.8472745418549"><ele>104</ele><time>2026-5-1T9:7:42Z</time></trkpt>
<trkpt lat="48.886116027832" lon="2.8473975658417"><ele>104</ele><time>2026-5-1T9:7:45Z</time></trkpt>
<trkpt lat="48.886085510254" lon="2.8474867343903"><ele>104</ele><time>2026-5-1T9:7:48Z</time></trkpt>
<trkpt lat="48.886054992676" lon="2.8476328849792"><ele>103</ele><time>2026-5-1T9:7:51Z</time></trkpt>
<trkpt lat="48.886028289795" lon="2.8477456569672"><ele>103</ele><time>2026-5-1T9:7:54Z</time></trkpt>
<trkpt lat="48.885997772217" lon="2.8478746414185"><ele>103</ele><time>2026-5-1T9:7:57Z</time></trkpt>
<trkpt lat="48.885963439941" lon="2.8480303287506"><ele>102</ele><time>2026-5-1T9:8:0Z</time></trkpt>
<trkpt lat="48.885929107666" lon="2.8481698036194"><ele>101</ele><time>2026-5-1T9:8:3Z</time></trkpt>
<trkpt lat="48.885890960693" lon="2.848304271698"><ele>100</ele><time>2026-5-1T9:8:6Z</time></trkpt>
<trkpt lat="48.885856628418" lon="2.8484416007996"><ele>99</ele><time>2026-5-1T9:8:9Z</time></trkpt>
<trkpt lat="48.885833740234" lon="2.8485827445984"><ele>99</ele><time>2026-5-1T9:8:12Z</time></trkpt>
<trkpt lat="48.88582611084" lon="2.8486950397491"><ele>99</ele><time>2026-5-1T9:8:15Z</time></trkpt>
<trkpt lat="48.885818481445" lon="2.8488340377808"><ele>98</ele><time>2026-5-1T9:8:18Z</time></trkpt>
<trkpt lat="48.885803222656" lon="2.8489983081818"><ele>97</ele><time>2026-5-1T9:8:21Z</time></trkpt>
<trkpt lat="48.885772705078" lon="2.8491032123566"><ele>97</ele><time>2026-5-1T9:8:24Z</time></trkpt>
<trkpt lat="48.885719299316" lon="2.8492212295532"><ele>98</ele><time>2026-5-1T9:8:27Z</time></trkpt>
<trkpt lat="48.885665893555" lon="2.8493521213531"><ele>99</ele><time>2026-5-1T9:8:30Z</time></trkpt>
<trkpt lat="48.885623931885" lon="2.8494787216187"><ele>99</ele><time>2026-5-1T9:8:33Z</time></trkpt>
<trkpt lat="48.885585784912" lon="2.8495960235596"><ele>99</ele><time>2026-5-1T9:8:36Z</time></trkpt>
<trkpt lat="48.885555267334" lon="2.849702835083"><ele>99</ele><time>2026-5-1T9:8:39Z</time></trkpt>
<trkpt lat="48.885524749756" lon="2.8498084545135"><ele>99</ele><time>2026-5-1T9:8:42Z</time></trkpt>
<trkpt lat="48.88550567627" lon="2.849937915802"><ele>99</ele><time>2026-5-1T9:8:45Z</time></trkpt>
<trkpt lat="48.885501861572" lon="2.8500699996948"><ele>98</ele><time>2026-5-1T9:8:48Z</time></trkpt>
<trkpt lat="48.885501861572" lon="2.8501751422882"><ele>97</ele><time>2026-5-1T9:8:51Z</time></trkpt>
<trkpt lat="48.885486602783" lon="2.850323677063"><ele>96</ele><time>2026-5-1T9:8:54Z</time></trkpt>
<trkpt lat="48.885459899902" lon="2.8504641056061"><ele>95</ele><time>2026-5-1T9:8:57Z</time></trkpt>
<trkpt lat="48.885406494141" lon="2.8505766391754"><ele>95</ele><time>2026-5-1T9:9:0Z</time></trkpt>
<trkpt lat="48.885364532471" lon="2.8506808280945"><ele>95</ele><time>2026-5-1T9:9:3Z</time></trkpt>
<trkpt lat="48.885334014893" lon="2.8507947921753"><ele>95</ele><time>2026-5-1T9:9:6Z</time></trkpt>
<trkpt lat="48.885299682617" lon="2.8509237766266"><ele>96</ele><time>2026-5-1T9:9:9Z</time></trkpt>
<trkpt lat="48.885250091553" lon="2.8510684967041"><ele>97</ele><time>2026-5-1T9:9:12Z</time></trkpt>
<trkpt lat="48.885204315186" lon="2.8511989116669"><ele>98</ele><time>2026-5-1T9:9:15Z</time></trkpt>
<trkpt lat="48.885158538818" lon="2.8513333797455"><ele>99</ele><time>2026-5-1T9:9:18Z</time></trkpt>
<trkpt lat="48.885116577148" lon="2.8514680862427"><ele>99</ele><time>2026-5-1T9:9:21Z</time></trkpt>
<trkpt lat="48.885082244873" lon="2.8516128063202"><ele>98</ele><time>2026-5-1T9:9:24Z</time></trkpt>
<trkpt lat="48.885059356689" lon="2.8517289161682"><ele>97</ele><time>2026-5-1T9:9:27Z</time></trkpt>
<trkpt lat="48.885040283203" lon="2.8518314361572"><ele>97</ele><time>2026-5-1T9:9:30Z</time></trkpt>
<trkpt lat="48.88501739502" lon="2.8519241809845"><ele>96</ele><time>2026-5-1T9:9:33Z</time></trkpt>
<trkpt lat="48.884986877441" lon="2.8520228862762"><ele>96</ele><time>2026-5-1T9:9:36Z</time></trkpt>
<trkpt lat="48.884948730469" lon="2.8521490097046"><ele>96</ele><time>2026-5-1T9:9:39Z</time></trkpt>
<trkpt lat="48.884906768799" lon="2.8522775173187"><ele>96</ele><time>2026-5-1T9:9:42Z</time></trkpt>
<trkpt lat="48.884857177734" lon="2.8523836135864"><ele>97</ele><time>2026-5-1T9:9:45Z</time></trkpt>
<trkpt lat="48.884803771973" lon="2.8524599075317"><ele>97</ele><time>2026-5-1T9:9:48Z</time></trkpt>
<trkpt lat="48.884746551514" lon="2.8525195121765"><ele>97</ele><time>2026-5-1T9:9:51Z</time></trkpt>
<trkpt lat="48.884746551514" lon="2.8525195121765"><ele>97</ele><time>2026-5-1T9:9:54Z</time></trkpt>
<trkpt lat="48.884696960449" lon="2.8525805473328"><ele>97</ele><time>2026-5-1T9:9:57Z</time></trkpt>
<trkpt lat="48.884624481201" lon="2.8526229858398"><ele>97</ele><time>2026-5-1T9:10:0Z</time></trkpt>
<trkpt lat="48.884452819824" lon="2.8527538776398"><ele>98</ele><time>2026-5-1T9:10:3Z</time></trkpt>
<trkpt lat="48.884353637695" lon="2.8528444766998"><ele>99</ele><time>2026-5-1T9:10:6Z</time></trkpt>
<trkpt lat="48.884284973145" lon="2.8529124259949"><ele>100</ele><time>2026-5-1T9:10:9Z</time></trkpt>
<trkpt lat="48.884212493896" lon="2.8530097007751"><ele>100</ele><time>2026-5-1T9:10:12Z</time></trkpt>
<trkpt lat="48.884155273438" lon="2.8531010150909"><ele>99</ele><time>2026-5-1T9:10:15Z</time></trkpt>
<trkpt lat="48.884101867676" lon="2.853184223175"><ele>99</ele><time>2026-5-1T9:10:18Z</time></trkpt>
<trkpt lat="48.884044647217" lon="2.8532667160034"><ele>99</ele><time>2026-5-1T9:10:21Z</time></trkpt>
<trkpt lat="48.884006500244" lon="2.8533298969269"><ele>98</ele><time>2026-5-1T9:10:24Z</time></trkpt>
<trkpt lat="48.883964538574" lon="2.8534061908722"><ele>98</ele><time>2026-5-1T9:10:27Z</time></trkpt>
<trkpt lat="48.883964538574" lon="2.8534061908722"><ele>98</ele><time>2026-5-1T9:10:30Z</time></trkpt>
<trkpt lat="48.88391494751" lon="2.8535079956055"><ele>98</ele><time>2026-5-1T9:10:33Z</time></trkpt>
<trkpt lat="48.88391494751" lon="2.8535079956055"><ele>98</ele><time>2026-5-1T9:10:36Z</time></trkpt>
<trkpt lat="48.883853912354" lon="2.8536331653595"><ele>98</ele><time>2026-5-1T9:10:39Z</time></trkpt>
<trkpt lat="48.883853912354" lon="2.8536331653595"><ele>98</ele><time>2026-5-1T9:10:42Z</time></trkpt>
<trkpt lat="48.883800506592" lon="2.8537476062775"><ele>98</ele><time>2026-5-1T9:10:45Z</time></trkpt>
<trkpt lat="48.883800506592" lon="2.8537476062775"><ele>98</ele><time>2026-5-1T9:10:48Z</time></trkpt>
<trkpt lat="48.883800506592" lon="2.8537476062775"><ele>98</ele><time>2026-5-1T9:10:51Z</time></trkpt>
<trkpt lat="48.883743286133" lon="2.8538022041321"><ele>98</ele><time>2026-5-1T9:10:54Z</time></trkpt>
<trkpt lat="48.883743286133" lon="2.8538022041321"><ele>98</ele><time>2026-5-1T9:10:57Z</time></trkpt>
<trkpt lat="48.883743286133" lon="2.8538022041321"><ele>98</ele><time>2026-5-1T9:11:0Z</time></trkpt>
</trkseg></trk></gpx>